<?xml version="1.0" encoding="UTF-8" standalone="no" ?>
<gpx xmlns="http://www.topografix.com/GPX/1/1" xmlns:xsi="http://www.w3.org/2001/XMLSchema-instance" xsi:schemaLocation="http://www.topografix.com/GPX/1/1 http://www.topografix.com/GPX/1/1/gpx.xsd" version="1.1" creator="VisuGPX - https://www.visugpx.com">
  <metadata>
    <name>Mornant Saint Martin Croix Bicouri V2</name>
    <desc><![CDATA[Itinéraire qui allie dénivelé et distance, les montées sont franches et demandent une bonne endurance pour les enchaîner, à faire plutôt en milieu de saison. Quelques unes selon la condition physique nécessiteront de courts poussages. Lors de la descente depuis la Bullière, nous avons exploré une alternative qui n'est pas roulante, donc suivre le balisage VTT du circuit 165 pour retrouver la fin de la trace.
Si vous faites cela avec une météo claire, vous aurez les Alpes en panorama sur 90% du tracé]]></desc>
  </metadata>
  <trk>
    <name><![CDATA[Mornant saint Martin Croix Bicouri long]]></name>
    <extensions>
      <line xmlns="http://www.topografix.com/GPX/gpx_style/0/2">
        <color>0000FF</color>
        <width>4</width>
      </line>
    </extensions>
    <trkseg>
      <trkpt lat="45.61963" lon="4.67146">
        <ele>423.710327</ele>
        <time>2025-06-07T06:34:34.059Z</time>
      </trkpt>
      <trkpt lat="45.61956" lon="4.67133">
        <ele>423.710327</ele>
        <time>2025-06-07T06:34:55.067Z</time>
      </trkpt>
      <trkpt lat="45.6195" lon="4.67123">
        <ele>423.710327</ele>
        <time>2025-06-07T06:34:59.045Z</time>
      </trkpt>
      <trkpt lat="45.61942" lon="4.67116">
        <ele>423.710327</ele>
        <time>2025-06-07T06:35:03.074Z</time>
      </trkpt>
      <trkpt lat="45.6194" lon="4.67102">
        <ele>423.710327</ele>
        <time>2025-06-07T06:35:07.063Z</time>
      </trkpt>
      <trkpt lat="45.6194" lon="4.67087">
        <ele>423.710327</ele>
        <time>2025-06-07T06:35:11.073Z</time>
      </trkpt>
      <trkpt lat="45.61937" lon="4.67069">
        <ele>423.710327</ele>
        <time>2025-06-07T06:35:15.066Z</time>
      </trkpt>
      <trkpt lat="45.61935" lon="4.67056">
        <ele>423.710327</ele>
        <time>2025-06-07T06:35:17.065Z</time>
      </trkpt>
      <trkpt lat="45.61934" lon="4.67038">
        <ele>423.710327</ele>
        <time>2025-06-07T06:35:20.072Z</time>
      </trkpt>
      <trkpt lat="45.61935" lon="4.67021">
        <ele>422.844431</ele>
        <time>2025-06-07T06:35:23.065Z</time>
      </trkpt>
      <trkpt lat="45.61935" lon="4.67004">
        <ele>421.522946</ele>
        <time>2025-06-07T06:35:26.077Z</time>
      </trkpt>
      <trkpt lat="45.61926" lon="4.66993">
        <ele>420.171373</ele>
        <time>2025-06-07T06:35:29.078Z</time>
      </trkpt>
      <trkpt lat="45.61917" lon="4.66988">
        <ele>419.004838</ele>
        <time>2025-06-07T06:35:31.063Z</time>
      </trkpt>
      <trkpt lat="45.61905" lon="4.66985">
        <ele>417.607874</ele>
        <time>2025-06-07T06:35:33.070Z</time>
      </trkpt>
      <trkpt lat="45.61893" lon="4.66983">
        <ele>416.222307</ele>
        <time>2025-06-07T06:35:35.064Z</time>
      </trkpt>
      <trkpt lat="45.6188" lon="4.66982">
        <ele>414.791447</ele>
        <time>2025-06-07T06:35:37.066Z</time>
      </trkpt>
      <trkpt lat="45.61868" lon="4.66982">
        <ele>413.406628</ele>
        <time>2025-06-07T06:35:39.066Z</time>
      </trkpt>
      <trkpt lat="45.61857" lon="4.66985">
        <ele>412.155834</ele>
        <time>2025-06-07T06:35:41.064Z</time>
      </trkpt>
      <trkpt lat="45.61845" lon="4.66988">
        <ele>410.726517</ele>
        <time>2025-06-07T06:35:44.075Z</time>
      </trkpt>
      <trkpt lat="45.61834" lon="4.6699">
        <ele>409.512061</ele>
        <time>2025-06-07T06:35:47.057Z</time>
      </trkpt>
      <trkpt lat="45.61829" lon="4.66978">
        <ele>408.414581</ele>
        <time>2025-06-07T06:35:50.062Z</time>
      </trkpt>
      <trkpt lat="45.61835" lon="4.66966">
        <ele>407.18755</ele>
        <time>2025-06-07T06:35:52.074Z</time>
      </trkpt>
      <trkpt lat="45.61843" lon="4.66954">
        <ele>405.920585</ele>
        <time>2025-06-07T06:35:54.060Z</time>
      </trkpt>
      <trkpt lat="45.61849" lon="4.66939">
        <ele>404.534617</ele>
        <time>2025-06-07T06:35:57.062Z</time>
      </trkpt>
      <trkpt lat="45.61841" lon="4.66928">
        <ele>403.275177</ele>
        <time>2025-06-07T06:36:01.075Z</time>
      </trkpt>
      <trkpt lat="45.61833" lon="4.66934">
        <ele>402.608974</ele>
        <time>2025-06-07T06:36:03.075Z</time>
      </trkpt>
      <trkpt lat="45.61825" lon="4.66944">
        <ele>401.924647</ele>
        <time>2025-06-07T06:36:05.075Z</time>
      </trkpt>
      <trkpt lat="45.61819" lon="4.66955">
        <ele>401.286888</ele>
        <time>2025-06-07T06:36:07.074Z</time>
      </trkpt>
      <trkpt lat="45.61813" lon="4.66964">
        <ele>400.693248</ele>
        <time>2025-06-07T06:36:09.082Z</time>
      </trkpt>
      <trkpt lat="45.61805" lon="4.66978">
        <ele>399.89275</ele>
        <time>2025-06-07T06:36:12.077Z</time>
      </trkpt>
      <trkpt lat="45.61797" lon="4.66991">
        <ele>399.096481</ele>
        <time>2025-06-07T06:36:15.071Z</time>
      </trkpt>
      <trkpt lat="45.61789" lon="4.66997">
        <ele>398.501751</ele>
        <time>2025-06-07T06:36:17.080Z</time>
      </trkpt>
      <trkpt lat="45.6178" lon="4.67">
        <ele>397.889962</ele>
        <time>2025-06-07T06:36:19.072Z</time>
      </trkpt>
      <trkpt lat="45.61769" lon="4.67001">
        <ele>397.198779</ele>
        <time>2025-06-07T06:36:21.071Z</time>
      </trkpt>
      <trkpt lat="45.61756" lon="4.66998">
        <ele>396.3403</ele>
        <time>2025-06-07T06:36:23.072Z</time>
      </trkpt>
      <trkpt lat="45.61742" lon="4.66993">
        <ele>395.391092</ele>
        <time>2025-06-07T06:36:25.093Z</time>
      </trkpt>
      <trkpt lat="45.61727" lon="4.66992">
        <ele>394.451204</ele>
        <time>2025-06-07T06:36:27.071Z</time>
      </trkpt>
      <trkpt lat="45.61713" lon="4.66995">
        <ele>393.534752</ele>
        <time>2025-06-07T06:36:29.073Z</time>
      </trkpt>
      <trkpt lat="45.61699" lon="4.67001">
        <ele>392.588218</ele>
        <time>2025-06-07T06:36:31.077Z</time>
      </trkpt>
      <trkpt lat="45.61686" lon="4.67009">
        <ele>391.639757</ele>
        <time>2025-06-07T06:36:33.076Z</time>
      </trkpt>
      <trkpt lat="45.61673" lon="4.67018">
        <ele>391.109675</ele>
        <time>2025-06-07T06:36:35.070Z</time>
      </trkpt>
      <trkpt lat="45.61661" lon="4.67028">
        <ele>390.730128</ele>
        <time>2025-06-07T06:36:37.079Z</time>
      </trkpt>
      <trkpt lat="45.6165" lon="4.67037">
        <ele>390.359666</ele>
        <time>2025-06-07T06:36:39.065Z</time>
      </trkpt>
      <trkpt lat="45.61638" lon="4.67046">
        <ele>389.992023</ele>
        <time>2025-06-07T06:36:41.081Z</time>
      </trkpt>
      <trkpt lat="45.61628" lon="4.67055">
        <ele>389.662193</ele>
        <time>2025-06-07T06:36:43.073Z</time>
      </trkpt>
      <trkpt lat="45.61619" lon="4.67061">
        <ele>389.4055</ele>
        <time>2025-06-07T06:36:45.078Z</time>
      </trkpt>
      <trkpt lat="45.61609" lon="4.67058">
        <ele>389.124564</ele>
        <time>2025-06-07T06:36:48.082Z</time>
      </trkpt>
      <trkpt lat="45.61604" lon="4.67043">
        <ele>388.796971</ele>
        <time>2025-06-07T06:36:51.084Z</time>
      </trkpt>
      <trkpt lat="45.61595" lon="4.67032">
        <ele>388.464628</ele>
        <time>2025-06-07T06:36:54.063Z</time>
      </trkpt>
      <trkpt lat="45.61582" lon="4.6703">
        <ele>388.102096</ele>
        <time>2025-06-07T06:36:57.063Z</time>
      </trkpt>
      <trkpt lat="45.61572" lon="4.67027">
        <ele>387.828009</ele>
        <time>2025-06-07T06:36:59.076Z</time>
      </trkpt>
      <trkpt lat="45.61563" lon="4.6702">
        <ele>387.549516</ele>
        <time>2025-06-07T06:37:01.068Z</time>
      </trkpt>
      <trkpt lat="45.61555" lon="4.67011">
        <ele>387.26588</ele>
        <time>2025-06-07T06:37:03.072Z</time>
      </trkpt>
      <trkpt lat="45.61546" lon="4.67004">
        <ele>386.979151</ele>
        <time>2025-06-07T06:37:05.080Z</time>
      </trkpt>
      <trkpt lat="45.61536" lon="4.67001">
        <ele>386.686253</ele>
        <time>2025-06-07T06:37:07.080Z</time>
      </trkpt>
      <trkpt lat="45.61524" lon="4.66999">
        <ele>386.555372</ele>
        <time>2025-06-07T06:37:09.079Z</time>
      </trkpt>
      <trkpt lat="45.61513" lon="4.66999">
        <ele>387.005198</ele>
        <time>2025-06-07T06:37:11.078Z</time>
      </trkpt>
      <trkpt lat="45.61502" lon="4.67002">
        <ele>387.440962</ele>
        <time>2025-06-07T06:37:13.059Z</time>
      </trkpt>
      <trkpt lat="45.61491" lon="4.67004">
        <ele>387.830732</ele>
        <time>2025-06-07T06:37:15.074Z</time>
      </trkpt>
      <trkpt lat="45.61483" lon="4.66998">
        <ele>388.185819</ele>
        <time>2025-06-07T06:37:17.082Z</time>
      </trkpt>
      <trkpt lat="45.61475" lon="4.6699">
        <ele>388.542427</ele>
        <time>2025-06-07T06:37:19.083Z</time>
      </trkpt>
      <trkpt lat="45.61466" lon="4.66979">
        <ele>389.01504</ele>
        <time>2025-06-07T06:37:22.074Z</time>
      </trkpt>
      <trkpt lat="45.61459" lon="4.6697">
        <ele>389.376889</ele>
        <time>2025-06-07T06:37:24.057Z</time>
      </trkpt>
      <trkpt lat="45.61451" lon="4.66963">
        <ele>389.738437</ele>
        <time>2025-06-07T06:37:26.064Z</time>
      </trkpt>
      <trkpt lat="45.61441" lon="4.66954">
        <ele>390.192883</ele>
        <time>2025-06-07T06:37:29.074Z</time>
      </trkpt>
      <trkpt lat="45.61429" lon="4.66953">
        <ele>390.636729</ele>
        <time>2025-06-07T06:37:32.077Z</time>
      </trkpt>
      <trkpt lat="45.61418" lon="4.66955">
        <ele>391.074368</ele>
        <time>2025-06-07T06:37:35.070Z</time>
      </trkpt>
      <trkpt lat="45.61408" lon="4.66958">
        <ele>391.476928</ele>
        <time>2025-06-07T06:37:38.065Z</time>
      </trkpt>
      <trkpt lat="45.61398" lon="4.6696">
        <ele>391.845623</ele>
        <time>2025-06-07T06:37:41.070Z</time>
      </trkpt>
      <trkpt lat="45.61387" lon="4.66962">
        <ele>392.300723</ele>
        <time>2025-06-07T06:37:45.074Z</time>
      </trkpt>
      <trkpt lat="45.61377" lon="4.66964">
        <ele>392.674</ele>
        <time>2025-06-07T06:37:48.070Z</time>
      </trkpt>
      <trkpt lat="45.61368" lon="4.66966">
        <ele>393.024263</ele>
        <time>2025-06-07T06:37:51.069Z</time>
      </trkpt>
      <trkpt lat="45.61359" lon="4.6697">
        <ele>393.404417</ele>
        <time>2025-06-07T06:37:54.062Z</time>
      </trkpt>
      <trkpt lat="45.6135" lon="4.66973">
        <ele>394.249607</ele>
        <time>2025-06-07T06:37:57.064Z</time>
      </trkpt>
      <trkpt lat="45.6134" lon="4.66974">
        <ele>395.07543</ele>
        <time>2025-06-07T06:38:00.062Z</time>
      </trkpt>
      <trkpt lat="45.61329" lon="4.66976">
        <ele>396.063287</ele>
        <time>2025-06-07T06:38:04.056Z</time>
      </trkpt>
      <trkpt lat="45.6132" lon="4.66977">
        <ele>396.868326</ele>
        <time>2025-06-07T06:38:08.080Z</time>
      </trkpt>
      <trkpt lat="45.61308" lon="4.66976">
        <ele>397.874707</ele>
        <time>2025-06-07T06:38:11.060Z</time>
      </trkpt>
      <trkpt lat="45.61298" lon="4.66977">
        <ele>398.748854</ele>
        <time>2025-06-07T06:38:13.061Z</time>
      </trkpt>
      <trkpt lat="45.61289" lon="4.66977">
        <ele>399.597239</ele>
        <time>2025-06-07T06:38:15.068Z</time>
      </trkpt>
      <trkpt lat="45.61276" lon="4.66979">
        <ele>400.720526</ele>
        <time>2025-06-07T06:38:18.068Z</time>
      </trkpt>
      <trkpt lat="45.61265" lon="4.66979">
        <ele>401.699494</ele>
        <time>2025-06-07T06:38:21.052Z</time>
      </trkpt>
      <trkpt lat="45.61253" lon="4.66978">
        <ele>402.760766</ele>
        <time>2025-06-07T06:38:25.064Z</time>
      </trkpt>
      <trkpt lat="45.61243" lon="4.66977">
        <ele>403.611526</ele>
        <time>2025-06-07T06:38:28.066Z</time>
      </trkpt>
      <trkpt lat="45.61233" lon="4.66975">
        <ele>404.498208</ele>
        <time>2025-06-07T06:38:31.065Z</time>
      </trkpt>
      <trkpt lat="45.61224" lon="4.66974">
        <ele>405.286152</ele>
        <time>2025-06-07T06:38:34.077Z</time>
      </trkpt>
      <trkpt lat="45.61212" lon="4.66973">
        <ele>406.312607</ele>
        <time>2025-06-07T06:38:38.060Z</time>
      </trkpt>
      <trkpt lat="45.61203" lon="4.66972">
        <ele>407.125614</ele>
        <time>2025-06-07T06:38:41.066Z</time>
      </trkpt>
      <trkpt lat="45.61194" lon="4.66973">
        <ele>407.912253</ele>
        <time>2025-06-07T06:38:44.067Z</time>
      </trkpt>
      <trkpt lat="45.61183" lon="4.66974">
        <ele>408.885945</ele>
        <time>2025-06-07T06:38:48.063Z</time>
      </trkpt>
      <trkpt lat="45.61172" lon="4.66975">
        <ele>409.492997</ele>
        <time>2025-06-07T06:38:52.069Z</time>
      </trkpt>
      <trkpt lat="45.61161" lon="4.66976">
        <ele>410.00924</ele>
        <time>2025-06-07T06:38:56.064Z</time>
      </trkpt>
      <trkpt lat="45.61149" lon="4.66976">
        <ele>410.540018</ele>
        <time>2025-06-07T06:39:00.068Z</time>
      </trkpt>
      <trkpt lat="45.61139" lon="4.66975">
        <ele>411.039879</ele>
        <time>2025-06-07T06:39:04.066Z</time>
      </trkpt>
      <trkpt lat="45.61129" lon="4.66974">
        <ele>411.495655</ele>
        <time>2025-06-07T06:39:08.054Z</time>
      </trkpt>
      <trkpt lat="45.61118" lon="4.66976">
        <ele>412.028529</ele>
        <time>2025-06-07T06:39:12.047Z</time>
      </trkpt>
      <trkpt lat="45.61106" lon="4.66973">
        <ele>412.592496</ele>
        <time>2025-06-07T06:39:16.068Z</time>
      </trkpt>
      <trkpt lat="45.61095" lon="4.6697">
        <ele>413.13508</ele>
        <time>2025-06-07T06:39:20.067Z</time>
      </trkpt>
      <trkpt lat="45.61104" lon="4.66973">
        <ele>413.577183</ele>
        <time>2025-06-07T06:39:38.071Z</time>
      </trkpt>
      <trkpt lat="45.61113" lon="4.66976">
        <ele>414.017748</ele>
        <time>2025-06-07T06:39:41.053Z</time>
      </trkpt>
      <trkpt lat="45.61123" lon="4.66978">
        <ele>414.471303</ele>
        <time>2025-06-07T06:39:44.053Z</time>
      </trkpt>
      <trkpt lat="45.61129" lon="4.66968">
        <ele>414.903409</ele>
        <time>2025-06-07T06:39:49.070Z</time>
      </trkpt>
      <trkpt lat="45.61119" lon="4.66957">
        <ele>415.467288</ele>
        <time>2025-06-07T06:39:53.075Z</time>
      </trkpt>
      <trkpt lat="45.61111" lon="4.66949">
        <ele>415.967421</ele>
        <time>2025-06-07T06:39:57.078Z</time>
      </trkpt>
      <trkpt lat="45.61101" lon="4.66942">
        <ele>416.463126</ele>
        <time>2025-06-07T06:40:01.083Z</time>
      </trkpt>
      <trkpt lat="45.61091" lon="4.66933">
        <ele>417.018639</ele>
        <time>2025-06-07T06:40:05.068Z</time>
      </trkpt>
      <trkpt lat="45.61082" lon="4.66924">
        <ele>417.536923</ele>
        <time>2025-06-07T06:40:09.058Z</time>
      </trkpt>
      <trkpt lat="45.61074" lon="4.66914">
        <ele>417.931561</ele>
        <time>2025-06-07T06:40:13.057Z</time>
      </trkpt>
      <trkpt lat="45.61065" lon="4.66905">
        <ele>418.337758</ele>
        <time>2025-06-07T06:40:17.068Z</time>
      </trkpt>
      <trkpt lat="45.61057" lon="4.66898">
        <ele>418.671076</ele>
        <time>2025-06-07T06:40:21.072Z</time>
      </trkpt>
      <trkpt lat="45.61048" lon="4.66887">
        <ele>419.083085</ele>
        <time>2025-06-07T06:40:25.057Z</time>
      </trkpt>
      <trkpt lat="45.6104" lon="4.66878">
        <ele>419.493988</ele>
        <time>2025-06-07T06:40:29.056Z</time>
      </trkpt>
      <trkpt lat="45.61031" lon="4.66866">
        <ele>419.930083</ele>
        <time>2025-06-07T06:40:33.054Z</time>
      </trkpt>
      <trkpt lat="45.61022" lon="4.66855">
        <ele>420.35286</ele>
        <time>2025-06-07T06:40:37.059Z</time>
      </trkpt>
      <trkpt lat="45.61015" lon="4.66844">
        <ele>420.753618</ele>
        <time>2025-06-07T06:40:41.070Z</time>
      </trkpt>
      <trkpt lat="45.61007" lon="4.66832">
        <ele>421.164026</ele>
        <time>2025-06-07T06:40:45.067Z</time>
      </trkpt>
      <trkpt lat="45.61" lon="4.66823">
        <ele>421.50206</ele>
        <time>2025-06-07T06:40:48.067Z</time>
      </trkpt>
      <trkpt lat="45.60992" lon="4.66812">
        <ele>421.925061</ele>
        <time>2025-06-07T06:40:52.083Z</time>
      </trkpt>
      <trkpt lat="45.60984" lon="4.668">
        <ele>422.32922</ele>
        <time>2025-06-07T06:40:56.075Z</time>
      </trkpt>
      <trkpt lat="45.60975" lon="4.66788">
        <ele>422.77495</ele>
        <time>2025-06-07T06:41:00.071Z</time>
      </trkpt>
      <trkpt lat="45.60968" lon="4.66778">
        <ele>423.139514</ele>
        <time>2025-06-07T06:41:03.062Z</time>
      </trkpt>
      <trkpt lat="45.60961" lon="4.66768">
        <ele>423.513216</ele>
        <time>2025-06-07T06:41:06.070Z</time>
      </trkpt>
      <trkpt lat="45.60954" lon="4.66758">
        <ele>423.875184</ele>
        <time>2025-06-07T06:41:09.063Z</time>
      </trkpt>
      <trkpt lat="45.60947" lon="4.66749">
        <ele>424.191994</ele>
        <time>2025-06-07T06:41:12.080Z</time>
      </trkpt>
      <trkpt lat="45.6094" lon="4.6674">
        <ele>424.456464</ele>
        <time>2025-06-07T06:41:15.075Z</time>
      </trkpt>
      <trkpt lat="45.60933" lon="4.66731">
        <ele>424.731927</ele>
        <time>2025-06-07T06:41:18.070Z</time>
      </trkpt>
      <trkpt lat="45.60927" lon="4.66721">
        <ele>424.992975</ele>
        <time>2025-06-07T06:41:21.072Z</time>
      </trkpt>
      <trkpt lat="45.6092" lon="4.66712">
        <ele>425.253423</ele>
        <time>2025-06-07T06:41:24.073Z</time>
      </trkpt>
      <trkpt lat="45.60913" lon="4.66701">
        <ele>425.567309</ele>
        <time>2025-06-07T06:41:28.062Z</time>
      </trkpt>
      <trkpt lat="45.60905" lon="4.66688">
        <ele>425.904559</ele>
        <time>2025-06-07T06:41:32.058Z</time>
      </trkpt>
      <trkpt lat="45.60898" lon="4.66679">
        <ele>426.167643</ele>
        <time>2025-06-07T06:41:35.062Z</time>
      </trkpt>
      <trkpt lat="45.6089" lon="4.66668">
        <ele>426.476303</ele>
        <time>2025-06-07T06:41:39.062Z</time>
      </trkpt>
      <trkpt lat="45.60882" lon="4.66657">
        <ele>426.807572</ele>
        <time>2025-06-07T06:41:43.062Z</time>
      </trkpt>
      <trkpt lat="45.60875" lon="4.66648">
        <ele>427.074774</ele>
        <time>2025-06-07T06:41:47.060Z</time>
      </trkpt>
      <trkpt lat="45.60867" lon="4.66636">
        <ele>427.395001</ele>
        <time>2025-06-07T06:41:51.052Z</time>
      </trkpt>
      <trkpt lat="45.6086" lon="4.66627">
        <ele>427.666585</ele>
        <time>2025-06-07T06:41:55.069Z</time>
      </trkpt>
      <trkpt lat="45.60853" lon="4.66618">
        <ele>427.937505</ele>
        <time>2025-06-07T06:41:59.062Z</time>
      </trkpt>
      <trkpt lat="45.60845" lon="4.6661">
        <ele>428.217307</ele>
        <time>2025-06-07T06:42:03.064Z</time>
      </trkpt>
      <trkpt lat="45.60836" lon="4.66603">
        <ele>428.50163</ele>
        <time>2025-06-07T06:42:06.073Z</time>
      </trkpt>
      <trkpt lat="45.60827" lon="4.66596">
        <ele>428.797937</ele>
        <time>2025-06-07T06:42:09.068Z</time>
      </trkpt>
      <trkpt lat="45.60819" lon="4.6659">
        <ele>429.060551</ele>
        <time>2025-06-07T06:42:12.072Z</time>
      </trkpt>
      <trkpt lat="45.60811" lon="4.66583">
        <ele>429.282451</ele>
        <time>2025-06-07T06:42:15.060Z</time>
      </trkpt>
      <trkpt lat="45.60801" lon="4.66576">
        <ele>429.467999</ele>
        <time>2025-06-07T06:42:19.066Z</time>
      </trkpt>
      <trkpt lat="45.60791" lon="4.66568">
        <ele>429.64171</ele>
        <time>2025-06-07T06:42:23.064Z</time>
      </trkpt>
      <trkpt lat="45.60783" lon="4.66561">
        <ele>429.786144</ele>
        <time>2025-06-07T06:42:26.055Z</time>
      </trkpt>
      <trkpt lat="45.60774" lon="4.66553">
        <ele>429.962133</ele>
        <time>2025-06-07T06:42:30.074Z</time>
      </trkpt>
      <trkpt lat="45.60763" lon="4.66544">
        <ele>430.151183</ele>
        <time>2025-06-07T06:42:34.058Z</time>
      </trkpt>
      <trkpt lat="45.60755" lon="4.66537">
        <ele>430.303378</ele>
        <time>2025-06-07T06:42:37.075Z</time>
      </trkpt>
      <trkpt lat="45.60747" lon="4.6653">
        <ele>430.450396</ele>
        <time>2025-06-07T06:42:40.062Z</time>
      </trkpt>
      <trkpt lat="45.60738" lon="4.6652">
        <ele>430.630503</ele>
        <time>2025-06-07T06:42:44.057Z</time>
      </trkpt>
      <trkpt lat="45.60729" lon="4.6651">
        <ele>430.810223</ele>
        <time>2025-06-07T06:42:48.069Z</time>
      </trkpt>
      <trkpt lat="45.60719" lon="4.66504">
        <ele>430.977963</ele>
        <time>2025-06-07T06:42:51.061Z</time>
      </trkpt>
      <trkpt lat="45.60709" lon="4.66501">
        <ele>431.142506</ele>
        <time>2025-06-07T06:42:54.062Z</time>
      </trkpt>
      <trkpt lat="45.60698" lon="4.66498">
        <ele>431.312334</ele>
        <time>2025-06-07T06:42:57.060Z</time>
      </trkpt>
      <trkpt lat="45.60688" lon="4.66494">
        <ele>431.48382</ele>
        <time>2025-06-07T06:43:00.051Z</time>
      </trkpt>
      <trkpt lat="45.60676" lon="4.66487">
        <ele>431.67865</ele>
        <time>2025-06-07T06:43:03.068Z</time>
      </trkpt>
      <trkpt lat="45.60664" lon="4.66481">
        <ele>431.878577</ele>
        <time>2025-06-07T06:43:06.062Z</time>
      </trkpt>
      <trkpt lat="45.60653" lon="4.66473">
        <ele>432.059988</ele>
        <time>2025-06-07T06:43:09.067Z</time>
      </trkpt>
      <trkpt lat="45.60642" lon="4.66465">
        <ele>431.98462</ele>
        <time>2025-06-07T06:43:12.070Z</time>
      </trkpt>
      <trkpt lat="45.60631" lon="4.66457">
        <ele>431.909253</ele>
        <time>2025-06-07T06:43:15.058Z</time>
      </trkpt>
      <trkpt lat="45.60619" lon="4.6645">
        <ele>431.832596</ele>
        <time>2025-06-07T06:43:18.068Z</time>
      </trkpt>
      <trkpt lat="45.60607" lon="4.66442">
        <ele>431.756319</ele>
        <time>2025-06-07T06:43:21.064Z</time>
      </trkpt>
      <trkpt lat="45.60596" lon="4.66433">
        <ele>431.680389</ele>
        <time>2025-06-07T06:43:24.069Z</time>
      </trkpt>
      <trkpt lat="45.60585" lon="4.66425">
        <ele>431.605526</ele>
        <time>2025-06-07T06:43:27.062Z</time>
      </trkpt>
      <trkpt lat="45.60574" lon="4.66417">
        <ele>431.529019</ele>
        <time>2025-06-07T06:43:30.071Z</time>
      </trkpt>
      <trkpt lat="45.60566" lon="4.6641">
        <ele>431.473037</ele>
        <time>2025-06-07T06:43:32.068Z</time>
      </trkpt>
      <trkpt lat="45.60557" lon="4.66403">
        <ele>431.412899</ele>
        <time>2025-06-07T06:43:34.067Z</time>
      </trkpt>
      <trkpt lat="45.60547" lon="4.66397">
        <ele>431.347919</ele>
        <time>2025-06-07T06:43:36.072Z</time>
      </trkpt>
      <trkpt lat="45.60538" lon="4.6639">
        <ele>431.286968</ele>
        <time>2025-06-07T06:43:38.063Z</time>
      </trkpt>
      <trkpt lat="45.60529" lon="4.66386">
        <ele>431.22857</ele>
        <time>2025-06-07T06:43:40.071Z</time>
      </trkpt>
      <trkpt lat="45.60516" lon="4.66379">
        <ele>431.149999</ele>
        <time>2025-06-07T06:43:43.077Z</time>
      </trkpt>
      <trkpt lat="45.60508" lon="4.66375">
        <ele>431.094543</ele>
        <time>2025-06-07T06:43:45.059Z</time>
      </trkpt>
      <trkpt lat="45.60499" lon="4.66372">
        <ele>431.040503</ele>
        <time>2025-06-07T06:43:47.059Z</time>
      </trkpt>
      <trkpt lat="45.60488" lon="4.66363">
        <ele>430.956404</ele>
        <time>2025-06-07T06:43:50.066Z</time>
      </trkpt>
      <trkpt lat="45.60479" lon="4.66351">
        <ele>430.843232</ele>
        <time>2025-06-07T06:43:53.057Z</time>
      </trkpt>
      <trkpt lat="45.60468" lon="4.6634">
        <ele>430.726942</ele>
        <time>2025-06-07T06:43:56.069Z</time>
      </trkpt>
      <trkpt lat="45.60458" lon="4.66329">
        <ele>430.611753</ele>
        <time>2025-06-07T06:43:59.063Z</time>
      </trkpt>
      <trkpt lat="45.60446" lon="4.6632">
        <ele>430.496805</ele>
        <time>2025-06-07T06:44:02.069Z</time>
      </trkpt>
      <trkpt lat="45.60434" lon="4.66314">
        <ele>430.380932</ele>
        <time>2025-06-07T06:44:05.079Z</time>
      </trkpt>
      <trkpt lat="45.60422" lon="4.66308">
        <ele>430.266912</ele>
        <time>2025-06-07T06:44:08.074Z</time>
      </trkpt>
      <trkpt lat="45.6041" lon="4.66302">
        <ele>430.153956</ele>
        <time>2025-06-07T06:44:11.063Z</time>
      </trkpt>
      <trkpt lat="45.60399" lon="4.66296">
        <ele>430.045829</ele>
        <time>2025-06-07T06:44:14.056Z</time>
      </trkpt>
      <trkpt lat="45.60387" lon="4.6629">
        <ele>429.935203</ele>
        <time>2025-06-07T06:44:17.059Z</time>
      </trkpt>
      <trkpt lat="45.60376" lon="4.66284">
        <ele>429.824584</ele>
        <time>2025-06-07T06:44:20.048Z</time>
      </trkpt>
      <trkpt lat="45.60364" lon="4.66278">
        <ele>429.711396</ele>
        <time>2025-06-07T06:44:23.063Z</time>
      </trkpt>
      <trkpt lat="45.60352" lon="4.6627">
        <ele>429.596597</ele>
        <time>2025-06-07T06:44:26.068Z</time>
      </trkpt>
      <trkpt lat="45.6034" lon="4.66263">
        <ele>429.480344</ele>
        <time>2025-06-07T06:44:29.061Z</time>
      </trkpt>
      <trkpt lat="45.60331" lon="4.6626">
        <ele>429.399385</ele>
        <time>2025-06-07T06:44:31.079Z</time>
      </trkpt>
      <trkpt lat="45.60322" lon="4.66262">
        <ele>428.888212</ele>
        <time>2025-06-07T06:44:33.072Z</time>
      </trkpt>
      <trkpt lat="45.60313" lon="4.66268">
        <ele>428.259029</ele>
        <time>2025-06-07T06:44:35.065Z</time>
      </trkpt>
      <trkpt lat="45.60304" lon="4.66273">
        <ele>427.59651</ele>
        <time>2025-06-07T06:44:37.058Z</time>
      </trkpt>
      <trkpt lat="45.60294" lon="4.66275">
        <ele>426.951199</ele>
        <time>2025-06-07T06:44:39.064Z</time>
      </trkpt>
      <trkpt lat="45.60285" lon="4.66274">
        <ele>426.317779</ele>
        <time>2025-06-07T06:44:41.063Z</time>
      </trkpt>
      <trkpt lat="45.60275" lon="4.66268">
        <ele>425.618098</ele>
        <time>2025-06-07T06:44:43.051Z</time>
      </trkpt>
      <trkpt lat="45.60266" lon="4.66259">
        <ele>424.859059</ele>
        <time>2025-06-07T06:44:45.061Z</time>
      </trkpt>
      <trkpt lat="45.60257" lon="4.6625">
        <ele>424.132678</ele>
        <time>2025-06-07T06:44:47.054Z</time>
      </trkpt>
      <trkpt lat="45.60247" lon="4.6624">
        <ele>423.349595</ele>
        <time>2025-06-07T06:44:49.058Z</time>
      </trkpt>
      <trkpt lat="45.60237" lon="4.6623">
        <ele>422.561164</ele>
        <time>2025-06-07T06:44:51.056Z</time>
      </trkpt>
      <trkpt lat="45.60227" lon="4.66221">
        <ele>421.774868</ele>
        <time>2025-06-07T06:44:53.053Z</time>
      </trkpt>
      <trkpt lat="45.60218" lon="4.66212">
        <ele>421.04857</ele>
        <time>2025-06-07T06:44:55.056Z</time>
      </trkpt>
      <trkpt lat="45.60212" lon="4.66199">
        <ele>420.329392</ele>
        <time>2025-06-07T06:44:57.072Z</time>
      </trkpt>
      <trkpt lat="45.60206" lon="4.66183">
        <ele>419.48412</ele>
        <time>2025-06-07T06:44:59.055Z</time>
      </trkpt>
      <trkpt lat="45.60201" lon="4.66166">
        <ele>418.615773</ele>
        <time>2025-06-07T06:45:01.055Z</time>
      </trkpt>
      <trkpt lat="45.60196" lon="4.66149">
        <ele>417.740978</ele>
        <time>2025-06-07T06:45:03.061Z</time>
      </trkpt>
      <trkpt lat="45.60191" lon="4.66129">
        <ele>416.672927</ele>
        <time>2025-06-07T06:45:05.064Z</time>
      </trkpt>
      <trkpt lat="45.60188" lon="4.66112">
        <ele>415.674893</ele>
        <time>2025-06-07T06:45:07.079Z</time>
      </trkpt>
      <trkpt lat="45.60184" lon="4.66096">
        <ele>414.760648</ele>
        <time>2025-06-07T06:45:09.061Z</time>
      </trkpt>
      <trkpt lat="45.60181" lon="4.6608">
        <ele>413.823022</ele>
        <time>2025-06-07T06:45:11.063Z</time>
      </trkpt>
      <trkpt lat="45.60177" lon="4.66064">
        <ele>412.878603</ele>
        <time>2025-06-07T06:45:13.067Z</time>
      </trkpt>
      <trkpt lat="45.60174" lon="4.66048">
        <ele>411.972816</ele>
        <time>2025-06-07T06:45:15.080Z</time>
      </trkpt>
      <trkpt lat="45.60171" lon="4.66035">
        <ele>411.205291</ele>
        <time>2025-06-07T06:45:18.054Z</time>
      </trkpt>
      <trkpt lat="45.6017" lon="4.66021">
        <ele>410.471065</ele>
        <time>2025-06-07T06:45:22.063Z</time>
      </trkpt>
      <trkpt lat="45.60166" lon="4.66009">
        <ele>409.728351</ele>
        <time>2025-06-07T06:45:25.073Z</time>
      </trkpt>
      <trkpt lat="45.60162" lon="4.65997">
        <ele>408.946078</ele>
        <time>2025-06-07T06:45:28.071Z</time>
      </trkpt>
      <trkpt lat="45.60157" lon="4.65985">
        <ele>408.185601</ele>
        <time>2025-06-07T06:45:31.063Z</time>
      </trkpt>
      <trkpt lat="45.60154" lon="4.65972">
        <ele>407.453898</ele>
        <time>2025-06-07T06:45:44.071Z</time>
      </trkpt>
      <trkpt lat="45.60152" lon="4.65957">
        <ele>406.633805</ele>
        <time>2025-06-07T06:45:58.064Z</time>
      </trkpt>
      <trkpt lat="45.60155" lon="4.65943">
        <ele>405.817308</ele>
        <time>2025-06-07T06:46:02.058Z</time>
      </trkpt>
      <trkpt lat="45.60159" lon="4.6593">
        <ele>405.000964</ele>
        <time>2025-06-07T06:46:15.064Z</time>
      </trkpt>
      <trkpt lat="45.60166" lon="4.65917">
        <ele>404.151722</ele>
        <time>2025-06-07T06:46:20.048Z</time>
      </trkpt>
      <trkpt lat="45.60167" lon="4.65904">
        <ele>403.43981</ele>
        <time>2025-06-07T06:46:23.060Z</time>
      </trkpt>
      <trkpt lat="45.60167" lon="4.65889">
        <ele>403.646278</ele>
        <time>2025-06-07T06:46:26.063Z</time>
      </trkpt>
      <trkpt lat="45.60165" lon="4.65874">
        <ele>404.151269</ele>
        <time>2025-06-07T06:46:29.058Z</time>
      </trkpt>
      <trkpt lat="45.60162" lon="4.65862">
        <ele>404.566936</ele>
        <time>2025-06-07T06:46:32.068Z</time>
      </trkpt>
      <trkpt lat="45.60157" lon="4.65848">
        <ele>405.05163</ele>
        <time>2025-06-07T06:46:35.060Z</time>
      </trkpt>
      <trkpt lat="45.60154" lon="4.65833">
        <ele>405.548635</ele>
        <time>2025-06-07T06:46:38.068Z</time>
      </trkpt>
      <trkpt lat="45.60149" lon="4.65821">
        <ele>406.000426</ele>
        <time>2025-06-07T06:46:58.058Z</time>
      </trkpt>
      <trkpt lat="45.60146" lon="4.65807">
        <ele>406.46714</ele>
        <time>2025-06-07T06:47:15.062Z</time>
      </trkpt>
      <trkpt lat="45.60142" lon="4.65795">
        <ele>406.891706</ele>
        <time>2025-06-07T06:47:32.056Z</time>
      </trkpt>
      <trkpt lat="45.60136" lon="4.65785">
        <ele>407.341337</ele>
        <time>2025-06-07T06:47:45.059Z</time>
      </trkpt>
      <trkpt lat="45.60128" lon="4.65779">
        <ele>407.758703</ele>
        <time>2025-06-07T06:47:59.073Z</time>
      </trkpt>
      <trkpt lat="45.60119" lon="4.65768">
        <ele>408.277565</ele>
        <time>2025-06-07T06:48:11.072Z</time>
      </trkpt>
      <trkpt lat="45.60111" lon="4.65759">
        <ele>408.741346</ele>
        <time>2025-06-07T06:48:14.079Z</time>
      </trkpt>
      <trkpt lat="45.60102" lon="4.65753">
        <ele>409.190165</ele>
        <time>2025-06-07T06:48:17.057Z</time>
      </trkpt>
      <trkpt lat="45.60093" lon="4.65747">
        <ele>409.661087</ele>
        <time>2025-06-07T06:48:20.061Z</time>
      </trkpt>
      <trkpt lat="45.60084" lon="4.65737">
        <ele>410.162269</ele>
        <time>2025-06-07T06:48:23.064Z</time>
      </trkpt>
      <trkpt lat="45.60075" lon="4.65727">
        <ele>410.685453</ele>
        <time>2025-06-07T06:48:26.056Z</time>
      </trkpt>
      <trkpt lat="45.60066" lon="4.65719">
        <ele>411.196039</ele>
        <time>2025-06-07T06:48:29.065Z</time>
      </trkpt>
      <trkpt lat="45.60057" lon="4.6571">
        <ele>411.600419</ele>
        <time>2025-06-07T06:48:32.075Z</time>
      </trkpt>
      <trkpt lat="45.60048" lon="4.65702">
        <ele>411.869523</ele>
        <time>2025-06-07T06:48:35.058Z</time>
      </trkpt>
      <trkpt lat="45.60039" lon="4.65695">
        <ele>412.143079</ele>
        <time>2025-06-07T06:48:38.061Z</time>
      </trkpt>
      <trkpt lat="45.6003" lon="4.65689">
        <ele>412.396426</ele>
        <time>2025-06-07T06:48:41.062Z</time>
      </trkpt>
      <trkpt lat="45.60021" lon="4.65684">
        <ele>412.648114</ele>
        <time>2025-06-07T06:48:44.065Z</time>
      </trkpt>
      <trkpt lat="45.60013" lon="4.65676">
        <ele>412.900527</ele>
        <time>2025-06-07T06:48:48.056Z</time>
      </trkpt>
      <trkpt lat="45.60003" lon="4.65671">
        <ele>413.176973</ele>
        <time>2025-06-07T06:48:52.057Z</time>
      </trkpt>
      <trkpt lat="45.59994" lon="4.65663">
        <ele>413.468294</ele>
        <time>2025-06-07T06:48:56.059Z</time>
      </trkpt>
      <trkpt lat="45.59983" lon="4.65656">
        <ele>413.769501</ele>
        <time>2025-06-07T06:49:00.057Z</time>
      </trkpt>
      <trkpt lat="45.59974" lon="4.65648">
        <ele>414.058247</ele>
        <time>2025-06-07T06:49:04.054Z</time>
      </trkpt>
      <trkpt lat="45.59965" lon="4.65642">
        <ele>414.301491</ele>
        <time>2025-06-07T06:49:07.071Z</time>
      </trkpt>
      <trkpt lat="45.59955" lon="4.65634">
        <ele>414.61225</ele>
        <time>2025-06-07T06:49:11.055Z</time>
      </trkpt>
      <trkpt lat="45.59945" lon="4.65626">
        <ele>414.909637</ele>
        <time>2025-06-07T06:49:15.074Z</time>
      </trkpt>
      <trkpt lat="45.59934" lon="4.65618">
        <ele>415.224982</ele>
        <time>2025-06-07T06:49:19.055Z</time>
      </trkpt>
      <trkpt lat="45.59924" lon="4.65612">
        <ele>415.504267</ele>
        <time>2025-06-07T06:49:22.068Z</time>
      </trkpt>
      <trkpt lat="45.59915" lon="4.65606">
        <ele>415.784287</ele>
        <time>2025-06-07T06:49:25.069Z</time>
      </trkpt>
      <trkpt lat="45.59904" lon="4.65601">
        <ele>416.066687</ele>
        <time>2025-06-07T06:49:28.062Z</time>
      </trkpt>
      <trkpt lat="45.59894" lon="4.65594">
        <ele>415.823144</ele>
        <time>2025-06-07T06:49:31.064Z</time>
      </trkpt>
      <trkpt lat="45.59882" lon="4.65587">
        <ele>415.049259</ele>
        <time>2025-06-07T06:49:34.069Z</time>
      </trkpt>
      <trkpt lat="45.5987" lon="4.65578">
        <ele>414.266878</ele>
        <time>2025-06-07T06:49:37.062Z</time>
      </trkpt>
      <trkpt lat="45.59861" lon="4.65573">
        <ele>413.685124</ele>
        <time>2025-06-07T06:49:39.065Z</time>
      </trkpt>
      <trkpt lat="45.59851" lon="4.65568">
        <ele>413.088247</ele>
        <time>2025-06-07T06:49:41.056Z</time>
      </trkpt>
      <trkpt lat="45.59841" lon="4.65566">
        <ele>412.516971</ele>
        <time>2025-06-07T06:49:43.064Z</time>
      </trkpt>
      <trkpt lat="45.59831" lon="4.65569">
        <ele>411.92355</ele>
        <time>2025-06-07T06:49:45.072Z</time>
      </trkpt>
      <trkpt lat="45.59821" lon="4.65573">
        <ele>411.292937</ele>
        <time>2025-06-07T06:49:47.066Z</time>
      </trkpt>
      <trkpt lat="45.5981" lon="4.65579">
        <ele>410.596573</ele>
        <time>2025-06-07T06:49:49.077Z</time>
      </trkpt>
      <trkpt lat="45.598" lon="4.65583">
        <ele>410.0223</ele>
        <time>2025-06-07T06:49:51.085Z</time>
      </trkpt>
      <trkpt lat="45.59773" lon="4.65574">
        <ele>408.354196</ele>
        <time>2025-06-07T06:50:13.068Z</time>
      </trkpt>
      <trkpt lat="45.59767" lon="4.65562">
        <ele>407.756164</ele>
        <time>2025-06-07T06:50:15.066Z</time>
      </trkpt>
      <trkpt lat="45.59764" lon="4.65546">
        <ele>407.079026</ele>
        <time>2025-06-07T06:50:17.061Z</time>
      </trkpt>
      <trkpt lat="45.59764" lon="4.65527">
        <ele>406.30881</ele>
        <time>2025-06-07T06:50:19.074Z</time>
      </trkpt>
      <trkpt lat="45.59767" lon="4.65506">
        <ele>405.765992</ele>
        <time>2025-06-07T06:50:21.068Z</time>
      </trkpt>
      <trkpt lat="45.59767" lon="4.65487">
        <ele>406.119012</ele>
        <time>2025-06-07T06:50:23.069Z</time>
      </trkpt>
      <trkpt lat="45.59763" lon="4.65473">
        <ele>406.394716</ele>
        <time>2025-06-07T06:50:25.075Z</time>
      </trkpt>
      <trkpt lat="45.59756" lon="4.65464">
        <ele>406.637648</ele>
        <time>2025-06-07T06:50:27.058Z</time>
      </trkpt>
      <trkpt lat="45.59752" lon="4.65449">
        <ele>406.929735</ele>
        <time>2025-06-07T06:50:30.070Z</time>
      </trkpt>
      <trkpt lat="45.59753" lon="4.65434">
        <ele>407.21613</ele>
        <time>2025-06-07T06:50:33.064Z</time>
      </trkpt>
      <trkpt lat="45.59754" lon="4.65421">
        <ele>407.457249</ele>
        <time>2025-06-07T06:50:36.075Z</time>
      </trkpt>
      <trkpt lat="45.59754" lon="4.65404">
        <ele>407.754414</ele>
        <time>2025-06-07T06:50:40.062Z</time>
      </trkpt>
      <trkpt lat="45.59755" lon="4.65391">
        <ele>407.995288</ele>
        <time>2025-06-07T06:50:44.063Z</time>
      </trkpt>
      <trkpt lat="45.59754" lon="4.65378">
        <ele>408.240999</ele>
        <time>2025-06-07T06:50:48.074Z</time>
      </trkpt>
      <trkpt lat="45.59754" lon="4.65365">
        <ele>408.484766</ele>
        <time>2025-06-07T06:50:52.071Z</time>
      </trkpt>
      <trkpt lat="45.59754" lon="4.6535">
        <ele>408.757988</ele>
        <time>2025-06-07T06:50:56.067Z</time>
      </trkpt>
      <trkpt lat="45.59746" lon="4.65342">
        <ele>409.012404</ele>
        <time>2025-06-07T06:51:00.065Z</time>
      </trkpt>
      <trkpt lat="45.59737" lon="4.65333">
        <ele>409.291557</ele>
        <time>2025-06-07T06:51:04.055Z</time>
      </trkpt>
      <trkpt lat="45.59728" lon="4.65327">
        <ele>409.562441</ele>
        <time>2025-06-07T06:51:08.071Z</time>
      </trkpt>
      <trkpt lat="45.5972" lon="4.65319">
        <ele>409.807386</ele>
        <time>2025-06-07T06:51:11.059Z</time>
      </trkpt>
      <trkpt lat="45.59711" lon="4.65313">
        <ele>410.082851</ele>
        <time>2025-06-07T06:51:15.055Z</time>
      </trkpt>
      <trkpt lat="45.59701" lon="4.65305">
        <ele>410.37095</ele>
        <time>2025-06-07T06:51:19.067Z</time>
      </trkpt>
      <trkpt lat="45.59693" lon="4.65298">
        <ele>410.963433</ele>
        <time>2025-06-07T06:51:23.045Z</time>
      </trkpt>
      <trkpt lat="45.59685" lon="4.6529">
        <ele>411.69545</ele>
        <time>2025-06-07T06:51:27.059Z</time>
      </trkpt>
      <trkpt lat="45.59678" lon="4.65278">
        <ele>412.449154</ele>
        <time>2025-06-07T06:51:31.056Z</time>
      </trkpt>
      <trkpt lat="45.59672" lon="4.65264">
        <ele>413.258987</ele>
        <time>2025-06-07T06:51:35.064Z</time>
      </trkpt>
      <trkpt lat="45.59665" lon="4.6525">
        <ele>414.093002</ele>
        <time>2025-06-07T06:51:39.060Z</time>
      </trkpt>
      <trkpt lat="45.59658" lon="4.65238">
        <ele>414.892917</ele>
        <time>2025-06-07T06:51:43.060Z</time>
      </trkpt>
      <trkpt lat="45.5965" lon="4.65226">
        <ele>415.68837</ele>
        <time>2025-06-07T06:51:47.067Z</time>
      </trkpt>
      <trkpt lat="45.59643" lon="4.65216">
        <ele>416.401778</ele>
        <time>2025-06-07T06:51:51.061Z</time>
      </trkpt>
      <trkpt lat="45.59635" lon="4.65204">
        <ele>417.209691</ele>
        <time>2025-06-07T06:51:55.060Z</time>
      </trkpt>
      <trkpt lat="45.59627" lon="4.65193">
        <ele>417.978184</ele>
        <time>2025-06-07T06:51:59.070Z</time>
      </trkpt>
      <trkpt lat="45.5962" lon="4.65184">
        <ele>418.612615</ele>
        <time>2025-06-07T06:52:02.056Z</time>
      </trkpt>
      <trkpt lat="45.59612" lon="4.65173">
        <ele>419.380879</ele>
        <time>2025-06-07T06:52:06.046Z</time>
      </trkpt>
      <trkpt lat="45.59605" lon="4.65163">
        <ele>420.091836</ele>
        <time>2025-06-07T06:52:10.050Z</time>
      </trkpt>
      <trkpt lat="45.59598" lon="4.65153">
        <ele>420.788919</ele>
        <time>2025-06-07T06:52:14.049Z</time>
      </trkpt>
      <trkpt lat="45.59591" lon="4.65142">
        <ele>421.553548</ele>
        <time>2025-06-07T06:52:18.054Z</time>
      </trkpt>
      <trkpt lat="45.59584" lon="4.65132">
        <ele>422.264154</ele>
        <time>2025-06-07T06:52:22.066Z</time>
      </trkpt>
      <trkpt lat="45.59577" lon="4.65122">
        <ele>422.940104</ele>
        <time>2025-06-07T06:52:26.057Z</time>
      </trkpt>
      <trkpt lat="45.59569" lon="4.65111">
        <ele>423.723531</ele>
        <time>2025-06-07T06:52:30.061Z</time>
      </trkpt>
      <trkpt lat="45.59563" lon="4.65101">
        <ele>424.471023</ele>
        <time>2025-06-07T06:52:34.060Z</time>
      </trkpt>
      <trkpt lat="45.59555" lon="4.6509">
        <ele>425.245652</ele>
        <time>2025-06-07T06:52:38.063Z</time>
      </trkpt>
      <trkpt lat="45.59549" lon="4.6508">
        <ele>425.937829</ele>
        <time>2025-06-07T06:52:42.056Z</time>
      </trkpt>
      <trkpt lat="45.59542" lon="4.6507">
        <ele>426.706456</ele>
        <time>2025-06-07T06:52:47.058Z</time>
      </trkpt>
      <trkpt lat="45.59535" lon="4.65057">
        <ele>427.541416</ele>
        <time>2025-06-07T06:52:51.059Z</time>
      </trkpt>
      <trkpt lat="45.59528" lon="4.65046">
        <ele>428.369063</ele>
        <time>2025-06-07T06:52:55.061Z</time>
      </trkpt>
      <trkpt lat="45.59521" lon="4.65034">
        <ele>429.168869</ele>
        <time>2025-06-07T06:52:59.058Z</time>
      </trkpt>
      <trkpt lat="45.59515" lon="4.65024">
        <ele>429.875493</ele>
        <time>2025-06-07T06:53:03.062Z</time>
      </trkpt>
      <trkpt lat="45.59509" lon="4.65013">
        <ele>430.624863</ele>
        <time>2025-06-07T06:53:07.060Z</time>
      </trkpt>
      <trkpt lat="45.59503" lon="4.65001">
        <ele>431.351565</ele>
        <time>2025-06-07T06:53:11.064Z</time>
      </trkpt>
      <trkpt lat="45.59497" lon="4.64989">
        <ele>432.134039</ele>
        <time>2025-06-07T06:53:15.060Z</time>
      </trkpt>
      <trkpt lat="45.59492" lon="4.64977">
        <ele>432.878657</ele>
        <time>2025-06-07T06:53:19.061Z</time>
      </trkpt>
      <trkpt lat="45.59486" lon="4.64964">
        <ele>433.671316</ele>
        <time>2025-06-07T06:53:23.058Z</time>
      </trkpt>
      <trkpt lat="45.59481" lon="4.64952">
        <ele>434.426836</ele>
        <time>2025-06-07T06:53:27.058Z</time>
      </trkpt>
      <trkpt lat="45.59476" lon="4.6494">
        <ele>435.138512</ele>
        <time>2025-06-07T06:53:31.060Z</time>
      </trkpt>
      <trkpt lat="45.59472" lon="4.64928">
        <ele>435.85189</ele>
        <time>2025-06-07T06:53:35.055Z</time>
      </trkpt>
      <trkpt lat="45.59467" lon="4.64916">
        <ele>436.571771</ele>
        <time>2025-06-07T06:53:39.057Z</time>
      </trkpt>
      <trkpt lat="45.59462" lon="4.64904">
        <ele>437.125371</ele>
        <time>2025-06-07T06:53:43.057Z</time>
      </trkpt>
      <trkpt lat="45.59457" lon="4.64892">
        <ele>437.676153</ele>
        <time>2025-06-07T06:53:47.062Z</time>
      </trkpt>
      <trkpt lat="45.59453" lon="4.6488">
        <ele>438.216482</ele>
        <time>2025-06-07T06:53:51.081Z</time>
      </trkpt>
      <trkpt lat="45.59448" lon="4.64869">
        <ele>438.762601</ele>
        <time>2025-06-07T06:53:55.059Z</time>
      </trkpt>
      <trkpt lat="45.59443" lon="4.64857">
        <ele>439.312162</ele>
        <time>2025-06-07T06:53:59.061Z</time>
      </trkpt>
      <trkpt lat="45.59438" lon="4.64846">
        <ele>439.857191</ele>
        <time>2025-06-07T06:54:03.054Z</time>
      </trkpt>
      <trkpt lat="45.59432" lon="4.64834">
        <ele>440.428799</ele>
        <time>2025-06-07T06:54:07.068Z</time>
      </trkpt>
      <trkpt lat="45.59425" lon="4.64824">
        <ele>440.999381</ele>
        <time>2025-06-07T06:54:11.043Z</time>
      </trkpt>
      <trkpt lat="45.59417" lon="4.64816">
        <ele>441.543443</ele>
        <time>2025-06-07T06:54:15.055Z</time>
      </trkpt>
      <trkpt lat="45.5941" lon="4.64808">
        <ele>442.074373</ele>
        <time>2025-06-07T06:54:19.059Z</time>
      </trkpt>
      <trkpt lat="45.59401" lon="4.64801">
        <ele>442.63502</ele>
        <time>2025-06-07T06:54:23.070Z</time>
      </trkpt>
      <trkpt lat="45.59393" lon="4.64794">
        <ele>443.200584</ele>
        <time>2025-06-07T06:54:27.064Z</time>
      </trkpt>
      <trkpt lat="45.59384" lon="4.64787">
        <ele>443.755259</ele>
        <time>2025-06-07T06:54:31.057Z</time>
      </trkpt>
      <trkpt lat="45.59375" lon="4.6478">
        <ele>444.334756</ele>
        <time>2025-06-07T06:54:35.059Z</time>
      </trkpt>
      <trkpt lat="45.59366" lon="4.64774">
        <ele>444.92732</ele>
        <time>2025-06-07T06:54:39.058Z</time>
      </trkpt>
      <trkpt lat="45.59356" lon="4.64767">
        <ele>445.5493</ele>
        <time>2025-06-07T06:54:43.057Z</time>
      </trkpt>
      <trkpt lat="45.59346" lon="4.6476">
        <ele>446.183318</ele>
        <time>2025-06-07T06:54:47.074Z</time>
      </trkpt>
      <trkpt lat="45.59336" lon="4.64752">
        <ele>446.838198</ele>
        <time>2025-06-07T06:54:51.062Z</time>
      </trkpt>
      <trkpt lat="45.59326" lon="4.64744">
        <ele>446.923991</ele>
        <time>2025-06-07T06:54:55.072Z</time>
      </trkpt>
      <trkpt lat="45.59316" lon="4.64736">
        <ele>447.014921</ele>
        <time>2025-06-07T06:54:59.053Z</time>
      </trkpt>
      <trkpt lat="45.59308" lon="4.64729">
        <ele>447.085395</ele>
        <time>2025-06-07T06:55:02.054Z</time>
      </trkpt>
      <trkpt lat="45.59299" lon="4.64723">
        <ele>447.157557</ele>
        <time>2025-06-07T06:55:05.058Z</time>
      </trkpt>
      <trkpt lat="45.5929" lon="4.64721">
        <ele>447.231481</ele>
        <time>2025-06-07T06:55:08.060Z</time>
      </trkpt>
      <trkpt lat="45.59279" lon="4.64722">
        <ele>447.31256</ele>
        <time>2025-06-07T06:55:11.083Z</time>
      </trkpt>
      <trkpt lat="45.59269" lon="4.64726">
        <ele>447.391602</ele>
        <time>2025-06-07T06:55:14.047Z</time>
      </trkpt>
      <trkpt lat="45.59258" lon="4.6473">
        <ele>447.476878</ele>
        <time>2025-06-07T06:55:17.053Z</time>
      </trkpt>
      <trkpt lat="45.59247" lon="4.64736">
        <ele>447.564887</ele>
        <time>2025-06-07T06:55:20.066Z</time>
      </trkpt>
      <trkpt lat="45.59237" lon="4.64742">
        <ele>447.647348</ele>
        <time>2025-06-07T06:55:23.058Z</time>
      </trkpt>
      <trkpt lat="45.59227" lon="4.64747">
        <ele>447.730149</ele>
        <time>2025-06-07T06:55:26.063Z</time>
      </trkpt>
      <trkpt lat="45.59216" lon="4.64751">
        <ele>447.813589</ele>
        <time>2025-06-07T06:55:29.047Z</time>
      </trkpt>
      <trkpt lat="45.59207" lon="4.64754">
        <ele>447.886367</ele>
        <time>2025-06-07T06:55:32.066Z</time>
      </trkpt>
      <trkpt lat="45.59199" lon="4.64741">
        <ele>447.97547</ele>
        <time>2025-06-07T06:55:37.054Z</time>
      </trkpt>
      <trkpt lat="45.59192" lon="4.64731">
        <ele>448.051155</ele>
        <time>2025-06-07T06:55:40.063Z</time>
      </trkpt>
      <trkpt lat="45.59184" lon="4.64721">
        <ele>448.135884</ele>
        <time>2025-06-07T06:55:43.064Z</time>
      </trkpt>
      <trkpt lat="45.59176" lon="4.64709">
        <ele>448.252749</ele>
        <time>2025-06-07T06:55:46.056Z</time>
      </trkpt>
      <trkpt lat="45.59168" lon="4.64699">
        <ele>448.448092</ele>
        <time>2025-06-07T06:55:49.058Z</time>
      </trkpt>
      <trkpt lat="45.5916" lon="4.64689">
        <ele>448.648234</ele>
        <time>2025-06-07T06:55:52.066Z</time>
      </trkpt>
      <trkpt lat="45.59153" lon="4.64679">
        <ele>448.836006</ele>
        <time>2025-06-07T06:55:55.053Z</time>
      </trkpt>
      <trkpt lat="45.59143" lon="4.64669">
        <ele>449.059884</ele>
        <time>2025-06-07T06:55:59.054Z</time>
      </trkpt>
      <trkpt lat="45.59135" lon="4.6466">
        <ele>449.26374</ele>
        <time>2025-06-07T06:56:02.062Z</time>
      </trkpt>
      <trkpt lat="45.59126" lon="4.6465">
        <ele>449.484028</ele>
        <time>2025-06-07T06:56:05.057Z</time>
      </trkpt>
      <trkpt lat="45.59118" lon="4.64639">
        <ele>449.690634</ele>
        <time>2025-06-07T06:56:08.062Z</time>
      </trkpt>
      <trkpt lat="45.59108" lon="4.6463">
        <ele>449.912581</ele>
        <time>2025-06-07T06:56:12.066Z</time>
      </trkpt>
      <trkpt lat="45.591" lon="4.64623">
        <ele>450.096146</ele>
        <time>2025-06-07T06:56:15.053Z</time>
      </trkpt>
      <trkpt lat="45.59092" lon="4.64612">
        <ele>450.303671</ele>
        <time>2025-06-07T06:56:19.060Z</time>
      </trkpt>
      <trkpt lat="45.59083" lon="4.64603">
        <ele>450.514429</ele>
        <time>2025-06-07T06:56:23.057Z</time>
      </trkpt>
      <trkpt lat="45.59075" lon="4.64595">
        <ele>450.68892</ele>
        <time>2025-06-07T06:56:27.054Z</time>
      </trkpt>
      <trkpt lat="45.59068" lon="4.64588">
        <ele>450.865852</ele>
        <time>2025-06-07T06:56:31.062Z</time>
      </trkpt>
      <trkpt lat="45.5906" lon="4.64579">
        <ele>451.060715</ele>
        <time>2025-06-07T06:56:35.060Z</time>
      </trkpt>
      <trkpt lat="45.59051" lon="4.64568">
        <ele>451.2794</ele>
        <time>2025-06-07T06:56:39.054Z</time>
      </trkpt>
      <trkpt lat="45.59044" lon="4.6456">
        <ele>451.453167</ele>
        <time>2025-06-07T06:56:42.066Z</time>
      </trkpt>
      <trkpt lat="45.59037" lon="4.64547">
        <ele>451.766693</ele>
        <time>2025-06-07T06:56:46.060Z</time>
      </trkpt>
      <trkpt lat="45.5903" lon="4.64536">
        <ele>452.290717</ele>
        <time>2025-06-07T06:56:50.074Z</time>
      </trkpt>
      <trkpt lat="45.59021" lon="4.64526">
        <ele>452.899055</ele>
        <time>2025-06-07T06:56:54.067Z</time>
      </trkpt>
      <trkpt lat="45.59013" lon="4.64517">
        <ele>453.425645</ele>
        <time>2025-06-07T06:56:57.059Z</time>
      </trkpt>
      <trkpt lat="45.59005" lon="4.64509">
        <ele>453.963335</ele>
        <time>2025-06-07T06:57:00.066Z</time>
      </trkpt>
      <trkpt lat="45.58998" lon="4.645">
        <ele>454.47075</ele>
        <time>2025-06-07T06:57:03.056Z</time>
      </trkpt>
      <trkpt lat="45.5899" lon="4.64492">
        <ele>454.953016</ele>
        <time>2025-06-07T06:57:06.065Z</time>
      </trkpt>
      <trkpt lat="45.58983" lon="4.64484">
        <ele>455.445571</ele>
        <time>2025-06-07T06:57:10.067Z</time>
      </trkpt>
      <trkpt lat="45.58975" lon="4.64474">
        <ele>455.994621</ele>
        <time>2025-06-07T06:57:14.054Z</time>
      </trkpt>
      <trkpt lat="45.58967" lon="4.64463">
        <ele>456.587548</ele>
        <time>2025-06-07T06:57:18.049Z</time>
      </trkpt>
      <trkpt lat="45.58958" lon="4.64452">
        <ele>457.187184</ele>
        <time>2025-06-07T06:57:22.063Z</time>
      </trkpt>
      <trkpt lat="45.58951" lon="4.64441">
        <ele>457.757539</ele>
        <time>2025-06-07T06:57:27.059Z</time>
      </trkpt>
      <trkpt lat="45.58945" lon="4.64429">
        <ele>458.280602</ele>
        <time>2025-06-07T06:57:31.062Z</time>
      </trkpt>
      <trkpt lat="45.58938" lon="4.64419">
        <ele>458.811596</ele>
        <time>2025-06-07T06:57:35.061Z</time>
      </trkpt>
      <trkpt lat="45.58931" lon="4.64408">
        <ele>459.360032</ele>
        <time>2025-06-07T06:57:39.071Z</time>
      </trkpt>
      <trkpt lat="45.58925" lon="4.64399">
        <ele>459.836832</ele>
        <time>2025-06-07T06:57:42.058Z</time>
      </trkpt>
      <trkpt lat="45.58917" lon="4.64389">
        <ele>460.38023</ele>
        <time>2025-06-07T06:57:46.060Z</time>
      </trkpt>
      <trkpt lat="45.58909" lon="4.6438">
        <ele>460.903769</ele>
        <time>2025-06-07T06:57:50.057Z</time>
      </trkpt>
      <trkpt lat="45.58902" lon="4.64371">
        <ele>461.402412</ele>
        <time>2025-06-07T06:57:55.058Z</time>
      </trkpt>
      <trkpt lat="45.58893" lon="4.64365">
        <ele>461.9739</ele>
        <time>2025-06-07T06:58:02.057Z</time>
      </trkpt>
      <trkpt lat="45.58884" lon="4.64357">
        <ele>462.52357</ele>
        <time>2025-06-07T06:58:07.065Z</time>
      </trkpt>
      <trkpt lat="45.58876" lon="4.64347">
        <ele>463.089881</ele>
        <time>2025-06-07T06:58:11.059Z</time>
      </trkpt>
      <trkpt lat="45.58869" lon="4.64339">
        <ele>463.600353</ele>
        <time>2025-06-07T06:58:15.057Z</time>
      </trkpt>
      <trkpt lat="45.58862" lon="4.64327">
        <ele>464.206414</ele>
        <time>2025-06-07T06:58:19.075Z</time>
      </trkpt>
      <trkpt lat="45.58857" lon="4.64314">
        <ele>464.765826</ele>
        <time>2025-06-07T06:58:23.063Z</time>
      </trkpt>
      <trkpt lat="45.58856" lon="4.64298">
        <ele>465.352078</ele>
        <time>2025-06-07T06:58:27.060Z</time>
      </trkpt>
      <trkpt lat="45.58855" lon="4.64282">
        <ele>465.96403</ele>
        <time>2025-06-07T06:58:31.064Z</time>
      </trkpt>
      <trkpt lat="45.58856" lon="4.64267">
        <ele>466.541069</ele>
        <time>2025-06-07T06:58:35.063Z</time>
      </trkpt>
      <trkpt lat="45.58854" lon="4.64254">
        <ele>467.053968</ele>
        <time>2025-06-07T06:58:38.063Z</time>
      </trkpt>
      <trkpt lat="45.58854" lon="4.6424">
        <ele>467.56714</ele>
        <time>2025-06-07T06:58:41.057Z</time>
      </trkpt>
      <trkpt lat="45.58852" lon="4.64227">
        <ele>468.064681</ele>
        <time>2025-06-07T06:58:45.052Z</time>
      </trkpt>
      <trkpt lat="45.5885" lon="4.64214">
        <ele>468.562125</ele>
        <time>2025-06-07T06:58:48.072Z</time>
      </trkpt>
      <trkpt lat="45.58849" lon="4.64198">
        <ele>469.176952</ele>
        <time>2025-06-07T06:58:52.070Z</time>
      </trkpt>
      <trkpt lat="45.5884" lon="4.64195">
        <ele>469.705201</ele>
        <time>2025-06-07T06:58:58.069Z</time>
      </trkpt>
      <trkpt lat="45.58831" lon="4.642">
        <ele>470.215819</ele>
        <time>2025-06-07T06:59:01.060Z</time>
      </trkpt>
      <trkpt lat="45.58821" lon="4.64204">
        <ele>470.758979</ele>
        <time>2025-06-07T06:59:04.055Z</time>
      </trkpt>
      <trkpt lat="45.58811" lon="4.64208">
        <ele>470.930166</ele>
        <time>2025-06-07T06:59:07.077Z</time>
      </trkpt>
      <trkpt lat="45.58801" lon="4.64213">
        <ele>471.042868</ele>
        <time>2025-06-07T06:59:10.044Z</time>
      </trkpt>
      <trkpt lat="45.58791" lon="4.64217">
        <ele>471.156015</ele>
        <time>2025-06-07T06:59:13.056Z</time>
      </trkpt>
      <trkpt lat="45.5878" lon="4.64222">
        <ele>471.274654</ele>
        <time>2025-06-07T06:59:16.034Z</time>
      </trkpt>
      <trkpt lat="45.58768" lon="4.64226">
        <ele>471.410849</ele>
        <time>2025-06-07T06:59:19.060Z</time>
      </trkpt>
      <trkpt lat="45.58758" lon="4.64229">
        <ele>471.524028</ele>
        <time>2025-06-07T06:59:22.050Z</time>
      </trkpt>
      <trkpt lat="45.58746" lon="4.64233">
        <ele>471.64725</ele>
        <time>2025-06-07T06:59:27.066Z</time>
      </trkpt>
      <trkpt lat="45.58737" lon="4.64242">
        <ele>471.768189</ele>
        <time>2025-06-07T06:59:30.052Z</time>
      </trkpt>
      <trkpt lat="45.58725" lon="4.64241">
        <ele>471.894279</ele>
        <time>2025-06-07T06:59:33.082Z</time>
      </trkpt>
      <trkpt lat="45.58713" lon="4.64236">
        <ele>472.026082</ele>
        <time>2025-06-07T06:59:36.058Z</time>
      </trkpt>
      <trkpt lat="45.58702" lon="4.6423">
        <ele>472.157275</ele>
        <time>2025-06-07T06:59:39.055Z</time>
      </trkpt>
      <trkpt lat="45.58693" lon="4.64225">
        <ele>472.257813</ele>
        <time>2025-06-07T06:59:41.056Z</time>
      </trkpt>
      <trkpt lat="45.58684" lon="4.64221">
        <ele>472.356379</ele>
        <time>2025-06-07T06:59:43.060Z</time>
      </trkpt>
      <trkpt lat="45.58671" lon="4.64215">
        <ele>472.499111</ele>
        <time>2025-06-07T06:59:46.048Z</time>
      </trkpt>
      <trkpt lat="45.5866" lon="4.6421">
        <ele>472.629674</ele>
        <time>2025-06-07T06:59:49.091Z</time>
      </trkpt>
      <trkpt lat="45.5865" lon="4.64207">
        <ele>472.732397</ele>
        <time>2025-06-07T06:59:52.045Z</time>
      </trkpt>
      <trkpt lat="45.5864" lon="4.64215">
        <ele>472.680628</ele>
        <time>2025-06-07T06:59:56.055Z</time>
      </trkpt>
      <trkpt lat="45.58628" lon="4.6422">
        <ele>472.589324</ele>
        <time>2025-06-07T06:59:59.064Z</time>
      </trkpt>
      <trkpt lat="45.58619" lon="4.64217">
        <ele>472.519472</ele>
        <time>2025-06-07T07:00:01.063Z</time>
      </trkpt>
      <trkpt lat="45.58608" lon="4.64211">
        <ele>472.42426</ele>
        <time>2025-06-07T07:00:04.055Z</time>
      </trkpt>
      <trkpt lat="45.58597" lon="4.64206">
        <ele>472.336863</ele>
        <time>2025-06-07T07:00:07.043Z</time>
      </trkpt>
      <trkpt lat="45.58585" lon="4.64199">
        <ele>472.241819</ele>
        <time>2025-06-07T07:00:10.070Z</time>
      </trkpt>
      <trkpt lat="45.58574" lon="4.64189">
        <ele>472.146902</ele>
        <time>2025-06-07T07:00:13.052Z</time>
      </trkpt>
      <trkpt lat="45.58564" lon="4.64179">
        <ele>472.051129</ele>
        <time>2025-06-07T07:00:16.046Z</time>
      </trkpt>
      <trkpt lat="45.58555" lon="4.64174">
        <ele>471.978973</ele>
        <time>2025-06-07T07:00:29.054Z</time>
      </trkpt>
      <trkpt lat="45.58551" lon="4.64162">
        <ele>471.910065</ele>
        <time>2025-06-07T07:00:42.055Z</time>
      </trkpt>
      <trkpt lat="45.58547" lon="4.64147">
        <ele>471.823342</ele>
        <time>2025-06-07T07:00:46.069Z</time>
      </trkpt>
      <trkpt lat="45.58542" lon="4.64131">
        <ele>471.729351</ele>
        <time>2025-06-07T07:00:49.045Z</time>
      </trkpt>
      <trkpt lat="45.58537" lon="4.64113">
        <ele>471.629539</ele>
        <time>2025-06-07T07:00:52.059Z</time>
      </trkpt>
      <trkpt lat="45.58533" lon="4.64095">
        <ele>471.528854</ele>
        <time>2025-06-07T07:00:55.055Z</time>
      </trkpt>
      <trkpt lat="45.5853" lon="4.64079">
        <ele>471.443081</ele>
        <time>2025-06-07T07:00:58.055Z</time>
      </trkpt>
      <trkpt lat="45.58524" lon="4.64062">
        <ele>471.27313</ele>
        <time>2025-06-07T07:01:01.056Z</time>
      </trkpt>
      <trkpt lat="45.58518" lon="4.64052">
        <ele>471.114607</ele>
        <time>2025-06-07T07:01:03.058Z</time>
      </trkpt>
      <trkpt lat="45.58513" lon="4.64041">
        <ele>470.960067</ele>
        <time>2025-06-07T07:01:05.061Z</time>
      </trkpt>
      <trkpt lat="45.58507" lon="4.6403">
        <ele>470.79105</ele>
        <time>2025-06-07T07:01:07.058Z</time>
      </trkpt>
      <trkpt lat="45.585" lon="4.64017">
        <ele>470.59572</ele>
        <time>2025-06-07T07:01:09.064Z</time>
      </trkpt>
      <trkpt lat="45.58492" lon="4.64006">
        <ele>470.403705</ele>
        <time>2025-06-07T07:01:11.068Z</time>
      </trkpt>
      <trkpt lat="45.58482" lon="4.63997">
        <ele>470.208133</ele>
        <time>2025-06-07T07:01:13.071Z</time>
      </trkpt>
      <trkpt lat="45.58474" lon="4.63985">
        <ele>470.009904</ele>
        <time>2025-06-07T07:01:15.062Z</time>
      </trkpt>
      <trkpt lat="45.58465" lon="4.63973">
        <ele>469.792799</ele>
        <time>2025-06-07T07:01:17.052Z</time>
      </trkpt>
      <trkpt lat="45.58456" lon="4.6396">
        <ele>469.585169</ele>
        <time>2025-06-07T07:01:19.055Z</time>
      </trkpt>
      <trkpt lat="45.58447" lon="4.63951">
        <ele>469.398759</ele>
        <time>2025-06-07T07:01:21.057Z</time>
      </trkpt>
      <trkpt lat="45.58439" lon="4.63944">
        <ele>469.23654</ele>
        <time>2025-06-07T07:01:23.054Z</time>
      </trkpt>
      <trkpt lat="45.58431" lon="4.63937">
        <ele>469.083167</ele>
        <time>2025-06-07T07:01:25.062Z</time>
      </trkpt>
      <trkpt lat="45.5842" lon="4.63927">
        <ele>468.849714</ele>
        <time>2025-06-07T07:01:28.053Z</time>
      </trkpt>
      <trkpt lat="45.58409" lon="4.63919">
        <ele>468.650294</ele>
        <time>2025-06-07T07:01:30.069Z</time>
      </trkpt>
      <trkpt lat="45.58398" lon="4.63915">
        <ele>468.452444</ele>
        <time>2025-06-07T07:01:32.056Z</time>
      </trkpt>
      <trkpt lat="45.58387" lon="4.6391">
        <ele>468.252424</ele>
        <time>2025-06-07T07:01:34.050Z</time>
      </trkpt>
      <trkpt lat="45.58375" lon="4.63908">
        <ele>468.046526</ele>
        <time>2025-06-07T07:01:36.050Z</time>
      </trkpt>
      <trkpt lat="45.58363" lon="4.63906">
        <ele>467.843656</ele>
        <time>2025-06-07T07:01:38.068Z</time>
      </trkpt>
      <trkpt lat="45.58353" lon="4.63905">
        <ele>467.672257</ele>
        <time>2025-06-07T07:01:40.071Z</time>
      </trkpt>
      <trkpt lat="45.58344" lon="4.63902">
        <ele>467.502771</ele>
        <time>2025-06-07T07:01:42.052Z</time>
      </trkpt>
      <trkpt lat="45.58334" lon="4.63899">
        <ele>467.336948</ele>
        <time>2025-06-07T07:01:44.053Z</time>
      </trkpt>
      <trkpt lat="45.58321" lon="4.63893">
        <ele>467.103008</ele>
        <time>2025-06-07T07:01:47.052Z</time>
      </trkpt>
      <trkpt lat="45.5831" lon="4.63891">
        <ele>466.903408</ele>
        <time>2025-06-07T07:01:49.054Z</time>
      </trkpt>
      <trkpt lat="45.58298" lon="4.63891">
        <ele>466.705326</ele>
        <time>2025-06-07T07:01:51.052Z</time>
      </trkpt>
      <trkpt lat="45.58288" lon="4.63891">
        <ele>466.521109</ele>
        <time>2025-06-07T07:01:53.055Z</time>
      </trkpt>
      <trkpt lat="45.58278" lon="4.6389">
        <ele>466.359054</ele>
        <time>2025-06-07T07:01:55.046Z</time>
      </trkpt>
      <trkpt lat="45.58269" lon="4.6389">
        <ele>466.192036</ele>
        <time>2025-06-07T07:01:57.052Z</time>
      </trkpt>
      <trkpt lat="45.58258" lon="4.6389">
        <ele>466.011226</ele>
        <time>2025-06-07T07:01:59.050Z</time>
      </trkpt>
      <trkpt lat="45.58248" lon="4.6389">
        <ele>465.830437</ele>
        <time>2025-06-07T07:02:01.053Z</time>
      </trkpt>
      <trkpt lat="45.58237" lon="4.63889">
        <ele>465.649518</ele>
        <time>2025-06-07T07:02:03.061Z</time>
      </trkpt>
      <trkpt lat="45.58227" lon="4.63889">
        <ele>465.472041</ele>
        <time>2025-06-07T07:02:05.058Z</time>
      </trkpt>
      <trkpt lat="45.58217" lon="4.63888">
        <ele>465.296366</ele>
        <time>2025-06-07T07:02:07.048Z</time>
      </trkpt>
      <trkpt lat="45.58206" lon="4.63888">
        <ele>465.337973</ele>
        <time>2025-06-07T07:02:09.056Z</time>
      </trkpt>
      <trkpt lat="45.58197" lon="4.63888">
        <ele>465.490209</ele>
        <time>2025-06-07T07:02:11.055Z</time>
      </trkpt>
      <trkpt lat="45.58187" lon="4.63887">
        <ele>465.636544</ele>
        <time>2025-06-07T07:02:13.046Z</time>
      </trkpt>
      <trkpt lat="45.58178" lon="4.63887">
        <ele>465.779483</ele>
        <time>2025-06-07T07:02:15.042Z</time>
      </trkpt>
      <trkpt lat="45.58166" lon="4.63884">
        <ele>465.974313</ele>
        <time>2025-06-07T07:02:18.063Z</time>
      </trkpt>
      <trkpt lat="45.58154" lon="4.63879">
        <ele>466.165801</ele>
        <time>2025-06-07T07:02:21.054Z</time>
      </trkpt>
      <trkpt lat="45.58141" lon="4.63873">
        <ele>466.371089</ele>
        <time>2025-06-07T07:02:24.059Z</time>
      </trkpt>
      <trkpt lat="45.58129" lon="4.63867">
        <ele>466.570804</ele>
        <time>2025-06-07T07:02:27.048Z</time>
      </trkpt>
      <trkpt lat="45.58117" lon="4.6386">
        <ele>466.768677</ele>
        <time>2025-06-07T07:02:30.053Z</time>
      </trkpt>
      <trkpt lat="45.58106" lon="4.63853">
        <ele>466.955278</ele>
        <time>2025-06-07T07:02:33.047Z</time>
      </trkpt>
      <trkpt lat="45.58096" lon="4.63846">
        <ele>467.130202</ele>
        <time>2025-06-07T07:02:36.059Z</time>
      </trkpt>
      <trkpt lat="45.58086" lon="4.63839">
        <ele>467.306443</ele>
        <time>2025-06-07T07:02:39.055Z</time>
      </trkpt>
      <trkpt lat="45.58076" lon="4.63833">
        <ele>467.475522</ele>
        <time>2025-06-07T07:02:42.051Z</time>
      </trkpt>
      <trkpt lat="45.58065" lon="4.6383">
        <ele>467.644032</ele>
        <time>2025-06-07T07:02:45.058Z</time>
      </trkpt>
      <trkpt lat="45.58054" lon="4.63828">
        <ele>467.820639</ele>
        <time>2025-06-07T07:02:48.052Z</time>
      </trkpt>
      <trkpt lat="45.58041" lon="4.63828">
        <ele>468.018052</ele>
        <time>2025-06-07T07:02:51.060Z</time>
      </trkpt>
      <trkpt lat="45.58028" lon="4.63828">
        <ele>467.611984</ele>
        <time>2025-06-07T07:02:54.055Z</time>
      </trkpt>
      <trkpt lat="45.58016" lon="4.63826">
        <ele>467.20172</ele>
        <time>2025-06-07T07:02:57.051Z</time>
      </trkpt>
      <trkpt lat="45.58006" lon="4.63825">
        <ele>466.836795</ele>
        <time>2025-06-07T07:03:00.056Z</time>
      </trkpt>
      <trkpt lat="45.57995" lon="4.63823">
        <ele>466.46153</ele>
        <time>2025-06-07T07:03:03.062Z</time>
      </trkpt>
      <trkpt lat="45.57986" lon="4.63822">
        <ele>466.147458</ele>
        <time>2025-06-07T07:03:06.062Z</time>
      </trkpt>
      <trkpt lat="45.57976" lon="4.63823">
        <ele>465.818797</ele>
        <time>2025-06-07T07:03:10.044Z</time>
      </trkpt>
      <trkpt lat="45.57971" lon="4.63837">
        <ele>465.457233</ele>
        <time>2025-06-07T07:03:13.064Z</time>
      </trkpt>
      <trkpt lat="45.5797" lon="4.63851">
        <ele>465.121006</ele>
        <time>2025-06-07T07:03:15.060Z</time>
      </trkpt>
      <trkpt lat="45.57969" lon="4.63868">
        <ele>464.726955</ele>
        <time>2025-06-07T07:03:17.056Z</time>
      </trkpt>
      <trkpt lat="45.57968" lon="4.63886">
        <ele>464.282165</ele>
        <time>2025-06-07T07:03:19.059Z</time>
      </trkpt>
      <trkpt lat="45.57966" lon="4.63907">
        <ele>463.788085</ele>
        <time>2025-06-07T07:03:21.050Z</time>
      </trkpt>
      <trkpt lat="45.57965" lon="4.63929">
        <ele>463.242179</ele>
        <time>2025-06-07T07:03:23.058Z</time>
      </trkpt>
      <trkpt lat="45.57964" lon="4.63952">
        <ele>462.714816</ele>
        <time>2025-06-07T07:03:25.057Z</time>
      </trkpt>
      <trkpt lat="45.57963" lon="4.63971">
        <ele>462.240132</ele>
        <time>2025-06-07T07:03:27.055Z</time>
      </trkpt>
      <trkpt lat="45.57963" lon="4.6399">
        <ele>461.841768</ele>
        <time>2025-06-07T07:03:29.057Z</time>
      </trkpt>
      <trkpt lat="45.57963" lon="4.64005">
        <ele>461.644476</ele>
        <time>2025-06-07T07:03:31.062Z</time>
      </trkpt>
      <trkpt lat="45.57963" lon="4.64021">
        <ele>461.440607</ele>
        <time>2025-06-07T07:03:34.032Z</time>
      </trkpt>
      <trkpt lat="45.57957" lon="4.64031">
        <ele>461.270216</ele>
        <time>2025-06-07T07:03:38.060Z</time>
      </trkpt>
      <trkpt lat="45.57946" lon="4.64031">
        <ele>461.052235</ele>
        <time>2025-06-07T07:03:42.044Z</time>
      </trkpt>
      <trkpt lat="45.57935" lon="4.64031">
        <ele>460.851169</ele>
        <time>2025-06-07T07:03:46.070Z</time>
      </trkpt>
      <trkpt lat="45.57924" lon="4.64032">
        <ele>460.644128</ele>
        <time>2025-06-07T07:03:50.058Z</time>
      </trkpt>
      <trkpt lat="45.57913" lon="4.64034">
        <ele>460.429002</ele>
        <time>2025-06-07T07:03:54.051Z</time>
      </trkpt>
      <trkpt lat="45.57903" lon="4.64033">
        <ele>460.257922</ele>
        <time>2025-06-07T07:03:57.064Z</time>
      </trkpt>
      <trkpt lat="45.57894" lon="4.64034">
        <ele>460.079014</ele>
        <time>2025-06-07T07:04:00.056Z</time>
      </trkpt>
      <trkpt lat="45.57884" lon="4.64035">
        <ele>459.892684</ele>
        <time>2025-06-07T07:04:03.052Z</time>
      </trkpt>
      <trkpt lat="45.57874" lon="4.64037">
        <ele>459.707179</ele>
        <time>2025-06-07T07:04:06.064Z</time>
      </trkpt>
      <trkpt lat="45.57864" lon="4.64037">
        <ele>459.513518</ele>
        <time>2025-06-07T07:04:09.064Z</time>
      </trkpt>
      <trkpt lat="45.57853" lon="4.64036">
        <ele>459.300381</ele>
        <time>2025-06-07T07:04:13.054Z</time>
      </trkpt>
      <trkpt lat="45.57841" lon="4.64037">
        <ele>459.084858</ele>
        <time>2025-06-07T07:04:16.066Z</time>
      </trkpt>
      <trkpt lat="45.57831" lon="4.6404">
        <ele>458.888959</ele>
        <time>2025-06-07T07:04:19.053Z</time>
      </trkpt>
      <trkpt lat="45.5782" lon="4.64041">
        <ele>458.681918</ele>
        <time>2025-06-07T07:04:22.067Z</time>
      </trkpt>
      <trkpt lat="45.57808" lon="4.64042">
        <ele>458.519019</ele>
        <time>2025-06-07T07:04:25.048Z</time>
      </trkpt>
      <trkpt lat="45.57796" lon="4.64043">
        <ele>458.50343</ele>
        <time>2025-06-07T07:04:28.056Z</time>
      </trkpt>
      <trkpt lat="45.57786" lon="4.64044">
        <ele>458.491623</ele>
        <time>2025-06-07T07:04:30.080Z</time>
      </trkpt>
      <trkpt lat="45.57777" lon="4.64046">
        <ele>458.479436</ele>
        <time>2025-06-07T07:04:32.055Z</time>
      </trkpt>
      <trkpt lat="45.57767" lon="4.64047">
        <ele>458.466394</ele>
        <time>2025-06-07T07:04:34.058Z</time>
      </trkpt>
      <trkpt lat="45.57758" lon="4.64048">
        <ele>458.454867</ele>
        <time>2025-06-07T07:04:36.050Z</time>
      </trkpt>
      <trkpt lat="45.57745" lon="4.6405">
        <ele>458.438404</ele>
        <time>2025-06-07T07:04:39.046Z</time>
      </trkpt>
      <trkpt lat="45.57736" lon="4.64053">
        <ele>458.426186</ele>
        <time>2025-06-07T07:04:41.059Z</time>
      </trkpt>
      <trkpt lat="45.57726" lon="4.64055">
        <ele>458.413386</ele>
        <time>2025-06-07T07:04:43.048Z</time>
      </trkpt>
      <trkpt lat="45.57716" lon="4.64058">
        <ele>458.400247</ele>
        <time>2025-06-07T07:04:45.059Z</time>
      </trkpt>
      <trkpt lat="45.57706" lon="4.64062">
        <ele>458.387523</ele>
        <time>2025-06-07T07:04:47.057Z</time>
      </trkpt>
      <trkpt lat="45.57694" lon="4.64065">
        <ele>458.371911</ele>
        <time>2025-06-07T07:04:50.061Z</time>
      </trkpt>
      <trkpt lat="45.57684" lon="4.64069">
        <ele>458.35888</ele>
        <time>2025-06-07T07:04:53.056Z</time>
      </trkpt>
      <trkpt lat="45.57675" lon="4.64074">
        <ele>458.346438</ele>
        <time>2025-06-07T07:04:56.054Z</time>
      </trkpt>
      <trkpt lat="45.57665" lon="4.64074">
        <ele>458.333037</ele>
        <time>2025-06-07T07:05:00.071Z</time>
      </trkpt>
      <trkpt lat="45.5766" lon="4.64061">
        <ele>458.319923</ele>
        <time>2025-06-07T07:05:03.055Z</time>
      </trkpt>
      <trkpt lat="45.57656" lon="4.64045">
        <ele>458.30452</ele>
        <time>2025-06-07T07:05:06.053Z</time>
      </trkpt>
      <trkpt lat="45.57651" lon="4.6403">
        <ele>458.31</ele>
        <time>2025-06-07T07:05:09.061Z</time>
      </trkpt>
      <trkpt lat="45.57647" lon="4.64016">
        <ele>458.360751</ele>
        <time>2025-06-07T07:05:12.053Z</time>
      </trkpt>
      <trkpt lat="45.57644" lon="4.64002">
        <ele>458.408441</ele>
        <time>2025-06-07T07:05:15.059Z</time>
      </trkpt>
      <trkpt lat="45.5764" lon="4.63989">
        <ele>458.456131</ele>
        <time>2025-06-07T07:05:18.045Z</time>
      </trkpt>
      <trkpt lat="45.57638" lon="4.63976">
        <ele>458.50166</ele>
        <time>2025-06-07T07:05:21.067Z</time>
      </trkpt>
      <trkpt lat="45.57636" lon="4.63962">
        <ele>458.548603</ele>
        <time>2025-06-07T07:05:27.058Z</time>
      </trkpt>
      <trkpt lat="45.57633" lon="4.63948">
        <ele>458.595356</ele>
        <time>2025-06-07T07:05:32.041Z</time>
      </trkpt>
      <trkpt lat="45.57628" lon="4.63934">
        <ele>458.649274</ele>
        <time>2025-06-07T07:05:36.048Z</time>
      </trkpt>
      <trkpt lat="45.5762" lon="4.63924">
        <ele>458.69869</ele>
        <time>2025-06-07T07:05:39.071Z</time>
      </trkpt>
      <trkpt lat="45.57613" lon="4.63913">
        <ele>458.750066</ele>
        <time>2025-06-07T07:05:42.045Z</time>
      </trkpt>
      <trkpt lat="45.57607" lon="4.63902">
        <ele>458.796194</ele>
        <time>2025-06-07T07:05:45.065Z</time>
      </trkpt>
      <trkpt lat="45.57601" lon="4.63892">
        <ele>458.84135</ele>
        <time>2025-06-07T07:05:48.045Z</time>
      </trkpt>
      <trkpt lat="45.57593" lon="4.63879">
        <ele>458.897348</ele>
        <time>2025-06-07T07:05:51.061Z</time>
      </trkpt>
      <trkpt lat="45.57587" lon="4.63868">
        <ele>458.941382</ele>
        <time>2025-06-07T07:05:53.068Z</time>
      </trkpt>
      <trkpt lat="45.57581" lon="4.63857">
        <ele>458.990449</ele>
        <time>2025-06-07T07:05:55.055Z</time>
      </trkpt>
      <trkpt lat="45.57574" lon="4.63845">
        <ele>459.040332</ele>
        <time>2025-06-07T07:05:57.050Z</time>
      </trkpt>
      <trkpt lat="45.57568" lon="4.63834">
        <ele>459.087192</ele>
        <time>2025-06-07T07:05:59.067Z</time>
      </trkpt>
      <trkpt lat="45.57563" lon="4.63822">
        <ele>459.133613</ele>
        <time>2025-06-07T07:06:02.063Z</time>
      </trkpt>
      <trkpt lat="45.57558" lon="4.63806">
        <ele>459.019813</ele>
        <time>2025-06-07T07:06:06.047Z</time>
      </trkpt>
      <trkpt lat="45.57551" lon="4.63791">
        <ele>458.838101</ele>
        <time>2025-06-07T07:06:09.058Z</time>
      </trkpt>
      <trkpt lat="45.57545" lon="4.63775">
        <ele>458.655084</ele>
        <time>2025-06-07T07:06:12.038Z</time>
      </trkpt>
      <trkpt lat="45.57539" lon="4.6376">
        <ele>458.478325</ele>
        <time>2025-06-07T07:06:15.063Z</time>
      </trkpt>
      <trkpt lat="45.57531" lon="4.63747">
        <ele>458.307317</ele>
        <time>2025-06-07T07:06:18.075Z</time>
      </trkpt>
      <trkpt lat="45.57524" lon="4.63734">
        <ele>458.137366</ele>
        <time>2025-06-07T07:06:21.047Z</time>
      </trkpt>
      <trkpt lat="45.57516" lon="4.63722">
        <ele>457.972305</ele>
        <time>2025-06-07T07:06:24.046Z</time>
      </trkpt>
      <trkpt lat="45.57507" lon="4.63712">
        <ele>457.804614</ele>
        <time>2025-06-07T07:06:28.059Z</time>
      </trkpt>
      <trkpt lat="45.57494" lon="4.63714">
        <ele>457.618298</ele>
        <time>2025-06-07T07:06:31.059Z</time>
      </trkpt>
      <trkpt lat="45.57485" lon="4.63715">
        <ele>457.482846</ele>
        <time>2025-06-07T07:06:33.054Z</time>
      </trkpt>
      <trkpt lat="45.57475" lon="4.63712">
        <ele>457.347602</ele>
        <time>2025-06-07T07:06:35.055Z</time>
      </trkpt>
      <trkpt lat="45.57467" lon="4.63704">
        <ele>457.197941</ele>
        <time>2025-06-07T07:06:38.080Z</time>
      </trkpt>
      <trkpt lat="45.57457" lon="4.63701">
        <ele>457.051999</ele>
        <time>2025-06-07T07:06:41.051Z</time>
      </trkpt>
      <trkpt lat="45.57445" lon="4.63704">
        <ele>456.886852</ele>
        <time>2025-06-07T07:06:44.053Z</time>
      </trkpt>
      <trkpt lat="45.57433" lon="4.63706">
        <ele>456.705943</ele>
        <time>2025-06-07T07:06:47.047Z</time>
      </trkpt>
      <trkpt lat="45.57425" lon="4.63699">
        <ele>456.573139</ele>
        <time>2025-06-07T07:06:50.041Z</time>
      </trkpt>
      <trkpt lat="45.5742" lon="4.63687">
        <ele>456.590852</ele>
        <time>2025-06-07T07:06:53.056Z</time>
      </trkpt>
      <trkpt lat="45.57417" lon="4.63669">
        <ele>456.638849</ele>
        <time>2025-06-07T07:06:56.069Z</time>
      </trkpt>
      <trkpt lat="45.57415" lon="4.63656">
        <ele>456.67262</ele>
        <time>2025-06-07T07:06:58.064Z</time>
      </trkpt>
      <trkpt lat="45.57413" lon="4.63639">
        <ele>456.716306</ele>
        <time>2025-06-07T07:07:01.053Z</time>
      </trkpt>
      <trkpt lat="45.57411" lon="4.63624">
        <ele>456.756276</ele>
        <time>2025-06-07T07:07:04.055Z</time>
      </trkpt>
      <trkpt lat="45.57408" lon="4.63607">
        <ele>456.800352</ele>
        <time>2025-06-07T07:07:07.048Z</time>
      </trkpt>
      <trkpt lat="45.57406" lon="4.63589">
        <ele>456.84498</ele>
        <time>2025-06-07T07:07:10.057Z</time>
      </trkpt>
      <trkpt lat="45.57406" lon="4.63575">
        <ele>456.88308</ele>
        <time>2025-06-07T07:07:13.048Z</time>
      </trkpt>
      <trkpt lat="45.57405" lon="4.63558">
        <ele>456.926147</ele>
        <time>2025-06-07T07:07:16.067Z</time>
      </trkpt>
      <trkpt lat="45.57404" lon="4.6354">
        <ele>456.972017</ele>
        <time>2025-06-07T07:07:19.060Z</time>
      </trkpt>
      <trkpt lat="45.57402" lon="4.63525">
        <ele>457.010605</ele>
        <time>2025-06-07T07:07:22.045Z</time>
      </trkpt>
      <trkpt lat="45.574" lon="4.63511">
        <ele>457.045983</ele>
        <time>2025-06-07T07:07:25.056Z</time>
      </trkpt>
      <trkpt lat="45.57395" lon="4.63495">
        <ele>457.092738</ele>
        <time>2025-06-07T07:07:28.058Z</time>
      </trkpt>
      <trkpt lat="45.57389" lon="4.63483">
        <ele>457.129593</ele>
        <time>2025-06-07T07:07:30.053Z</time>
      </trkpt>
      <trkpt lat="45.57383" lon="4.63472">
        <ele>457.165998</ele>
        <time>2025-06-07T07:07:32.053Z</time>
      </trkpt>
      <trkpt lat="45.57376" lon="4.63461">
        <ele>457.204007</ele>
        <time>2025-06-07T07:07:34.046Z</time>
      </trkpt>
      <trkpt lat="45.57367" lon="4.63452">
        <ele>457.002971</ele>
        <time>2025-06-07T07:07:36.055Z</time>
      </trkpt>
      <trkpt lat="45.57358" lon="4.63443">
        <ele>456.724826</ele>
        <time>2025-06-07T07:07:38.060Z</time>
      </trkpt>
      <trkpt lat="45.57349" lon="4.63437">
        <ele>456.467632</ele>
        <time>2025-06-07T07:07:40.049Z</time>
      </trkpt>
      <trkpt lat="45.5734" lon="4.6343">
        <ele>456.213932</ele>
        <time>2025-06-07T07:07:42.053Z</time>
      </trkpt>
      <trkpt lat="45.57331" lon="4.63425">
        <ele>455.961465</ele>
        <time>2025-06-07T07:07:44.050Z</time>
      </trkpt>
      <trkpt lat="45.57323" lon="4.6342">
        <ele>455.719569</ele>
        <time>2025-06-07T07:07:46.058Z</time>
      </trkpt>
      <trkpt lat="45.57314" lon="4.63414">
        <ele>455.459755</ele>
        <time>2025-06-07T07:07:48.051Z</time>
      </trkpt>
      <trkpt lat="45.57305" lon="4.63407">
        <ele>455.19441</ele>
        <time>2025-06-07T07:07:50.067Z</time>
      </trkpt>
      <trkpt lat="45.57297" lon="4.634">
        <ele>454.942654</ele>
        <time>2025-06-07T07:07:52.052Z</time>
      </trkpt>
      <trkpt lat="45.57288" lon="4.63393">
        <ele>454.695422</ele>
        <time>2025-06-07T07:07:54.050Z</time>
      </trkpt>
      <trkpt lat="45.5728" lon="4.63386">
        <ele>454.430076</ele>
        <time>2025-06-07T07:07:56.060Z</time>
      </trkpt>
      <trkpt lat="45.57271" lon="4.63378">
        <ele>454.154911</ele>
        <time>2025-06-07T07:07:58.048Z</time>
      </trkpt>
      <trkpt lat="45.57262" lon="4.63371">
        <ele>453.904934</ele>
        <time>2025-06-07T07:08:00.052Z</time>
      </trkpt>
      <trkpt lat="45.57253" lon="4.63361">
        <ele>453.59379</ele>
        <time>2025-06-07T07:08:03.060Z</time>
      </trkpt>
      <trkpt lat="45.57253" lon="4.63347">
        <ele>453.340074</ele>
        <time>2025-06-07T07:08:06.046Z</time>
      </trkpt>
      <trkpt lat="45.57254" lon="4.6333">
        <ele>453.027634</ele>
        <time>2025-06-07T07:08:09.059Z</time>
      </trkpt>
      <trkpt lat="45.57255" lon="4.63313">
        <ele>452.720807</ele>
        <time>2025-06-07T07:08:12.050Z</time>
      </trkpt>
      <trkpt lat="45.57255" lon="4.63295">
        <ele>452.401986</ele>
        <time>2025-06-07T07:08:15.054Z</time>
      </trkpt>
      <trkpt lat="45.57255" lon="4.63278">
        <ele>452.094042</ele>
        <time>2025-06-07T07:08:18.051Z</time>
      </trkpt>
      <trkpt lat="45.57255" lon="4.63261">
        <ele>451.79331</ele>
        <time>2025-06-07T07:08:21.051Z</time>
      </trkpt>
      <trkpt lat="45.57255" lon="4.63245">
        <ele>451.505139</ele>
        <time>2025-06-07T07:08:24.044Z</time>
      </trkpt>
      <trkpt lat="45.57256" lon="4.63229">
        <ele>451.215144</ele>
        <time>2025-06-07T07:08:27.060Z</time>
      </trkpt>
      <trkpt lat="45.57256" lon="4.63213">
        <ele>450.937712</ele>
        <time>2025-06-07T07:08:30.046Z</time>
      </trkpt>
      <trkpt lat="45.57256" lon="4.63197">
        <ele>450.636849</ele>
        <time>2025-06-07T07:08:33.038Z</time>
      </trkpt>
      <trkpt lat="45.57256" lon="4.6318">
        <ele>450.332484</ele>
        <time>2025-06-07T07:08:36.050Z</time>
      </trkpt>
      <trkpt lat="45.57256" lon="4.63164">
        <ele>450.051065</ele>
        <time>2025-06-07T07:08:39.062Z</time>
      </trkpt>
      <trkpt lat="45.57253" lon="4.63149">
        <ele>449.782048</ele>
        <time>2025-06-07T07:08:43.044Z</time>
      </trkpt>
      <trkpt lat="45.57243" lon="4.6314">
        <ele>449.472074</ele>
        <time>2025-06-07T07:08:47.048Z</time>
      </trkpt>
      <trkpt lat="45.57243" lon="4.63124">
        <ele>449.178366</ele>
        <time>2025-06-07T07:08:50.048Z</time>
      </trkpt>
      <trkpt lat="45.57251" lon="4.6311">
        <ele>448.858113</ele>
        <time>2025-06-07T07:08:53.061Z</time>
      </trkpt>
      <trkpt lat="45.57258" lon="4.631">
        <ele>448.613671</ele>
        <time>2025-06-07T07:08:56.044Z</time>
      </trkpt>
      <trkpt lat="45.57253" lon="4.63084">
        <ele>448.291868</ele>
        <time>2025-06-07T07:09:00.059Z</time>
      </trkpt>
      <trkpt lat="45.57245" lon="4.63077">
        <ele>448.048111</ele>
        <time>2025-06-07T07:09:02.073Z</time>
      </trkpt>
      <trkpt lat="45.57237" lon="4.6307">
        <ele>447.62035</ele>
        <time>2025-06-07T07:09:04.069Z</time>
      </trkpt>
      <trkpt lat="45.57229" lon="4.63062">
        <ele>447.005848</ele>
        <time>2025-06-07T07:09:06.052Z</time>
      </trkpt>
      <trkpt lat="45.5722" lon="4.63054">
        <ele>446.366069</ele>
        <time>2025-06-07T07:09:08.057Z</time>
      </trkpt>
      <trkpt lat="45.57211" lon="4.63047">
        <ele>445.719803</ele>
        <time>2025-06-07T07:09:10.059Z</time>
      </trkpt>
      <trkpt lat="45.57201" lon="4.6304">
        <ele>445.0194</ele>
        <time>2025-06-07T07:09:12.054Z</time>
      </trkpt>
      <trkpt lat="45.57191" lon="4.63032">
        <ele>444.273932</ele>
        <time>2025-06-07T07:09:14.048Z</time>
      </trkpt>
      <trkpt lat="45.5718" lon="4.63025">
        <ele>443.496173</ele>
        <time>2025-06-07T07:09:16.057Z</time>
      </trkpt>
      <trkpt lat="45.57168" lon="4.63016">
        <ele>442.674427</ele>
        <time>2025-06-07T07:09:18.048Z</time>
      </trkpt>
      <trkpt lat="45.57156" lon="4.63008">
        <ele>441.807293</ele>
        <time>2025-06-07T07:09:20.060Z</time>
      </trkpt>
      <trkpt lat="45.57144" lon="4.62999">
        <ele>440.966626</ele>
        <time>2025-06-07T07:09:22.050Z</time>
      </trkpt>
      <trkpt lat="45.57132" lon="4.62991">
        <ele>440.124163</ele>
        <time>2025-06-07T07:09:24.061Z</time>
      </trkpt>
      <trkpt lat="45.57119" lon="4.62983">
        <ele>439.266511</ele>
        <time>2025-06-07T07:09:26.054Z</time>
      </trkpt>
      <trkpt lat="45.57107" lon="4.62975">
        <ele>438.444966</ele>
        <time>2025-06-07T07:09:28.055Z</time>
      </trkpt>
      <trkpt lat="45.57094" lon="4.62967">
        <ele>437.52642</ele>
        <time>2025-06-07T07:09:30.048Z</time>
      </trkpt>
      <trkpt lat="45.57081" lon="4.62959">
        <ele>436.627171</ele>
        <time>2025-06-07T07:09:32.054Z</time>
      </trkpt>
      <trkpt lat="45.57069" lon="4.62952">
        <ele>435.760449</ele>
        <time>2025-06-07T07:09:34.050Z</time>
      </trkpt>
      <trkpt lat="45.5706" lon="4.62948">
        <ele>435.138773</ele>
        <time>2025-06-07T07:09:36.055Z</time>
      </trkpt>
      <trkpt lat="45.57055" lon="4.62934">
        <ele>434.416274</ele>
        <time>2025-06-07T07:09:41.064Z</time>
      </trkpt>
      <trkpt lat="45.57057" lon="4.62921">
        <ele>433.778074</ele>
        <time>2025-06-07T07:09:44.070Z</time>
      </trkpt>
      <trkpt lat="45.57059" lon="4.62906">
        <ele>433.055123</ele>
        <time>2025-06-07T07:09:47.057Z</time>
      </trkpt>
      <trkpt lat="45.57052" lon="4.6289">
        <ele>432.162658</ele>
        <time>2025-06-07T07:09:50.059Z</time>
      </trkpt>
      <trkpt lat="45.57047" lon="4.62879">
        <ele>431.54614</ele>
        <time>2025-06-07T07:09:52.064Z</time>
      </trkpt>
      <trkpt lat="45.57039" lon="4.62865">
        <ele>430.696139</ele>
        <time>2025-06-07T07:09:55.050Z</time>
      </trkpt>
      <trkpt lat="45.57033" lon="4.62855">
        <ele>430.070173</ele>
        <time>2025-06-07T07:09:57.050Z</time>
      </trkpt>
      <trkpt lat="45.57026" lon="4.62844">
        <ele>429.396705</ele>
        <time>2025-06-07T07:09:59.052Z</time>
      </trkpt>
      <trkpt lat="45.57019" lon="4.62833">
        <ele>428.69052</ele>
        <time>2025-06-07T07:10:01.055Z</time>
      </trkpt>
      <trkpt lat="45.57013" lon="4.62822">
        <ele>428.049761</ele>
        <time>2025-06-07T07:10:03.045Z</time>
      </trkpt>
      <trkpt lat="45.57005" lon="4.6281">
        <ele>427.272642</ele>
        <time>2025-06-07T07:10:06.054Z</time>
      </trkpt>
      <trkpt lat="45.56997" lon="4.62797">
        <ele>426.451442</ele>
        <time>2025-06-07T07:10:09.056Z</time>
      </trkpt>
      <trkpt lat="45.56991" lon="4.62787">
        <ele>425.823265</ele>
        <time>2025-06-07T07:10:11.056Z</time>
      </trkpt>
      <trkpt lat="45.56984" lon="4.62777">
        <ele>425.184341</ele>
        <time>2025-06-07T07:10:13.042Z</time>
      </trkpt>
      <trkpt lat="45.5698" lon="4.62766">
        <ele>424.581678</ele>
        <time>2025-06-07T07:10:15.044Z</time>
      </trkpt>
      <trkpt lat="45.56974" lon="4.62754">
        <ele>423.333456</ele>
        <time>2025-06-07T07:10:17.055Z</time>
      </trkpt>
      <trkpt lat="45.56966" lon="4.6274">
        <ele>421.764179</ele>
        <time>2025-06-07T07:10:19.053Z</time>
      </trkpt>
      <trkpt lat="45.56958" lon="4.62725">
        <ele>420.118696</ele>
        <time>2025-06-07T07:10:21.048Z</time>
      </trkpt>
      <trkpt lat="45.56951" lon="4.62713">
        <ele>418.678208</ele>
        <time>2025-06-07T07:10:23.043Z</time>
      </trkpt>
      <trkpt lat="45.5694" lon="4.62704">
        <ele>417.101029</ele>
        <time>2025-06-07T07:10:26.061Z</time>
      </trkpt>
      <trkpt lat="45.56927" lon="4.62702">
        <ele>415.419241</ele>
        <time>2025-06-07T07:10:29.040Z</time>
      </trkpt>
      <trkpt lat="45.56917" lon="4.627">
        <ele>414.205698</ele>
        <time>2025-06-07T07:10:32.056Z</time>
      </trkpt>
      <trkpt lat="45.56904" lon="4.62699">
        <ele>412.460345</ele>
        <time>2025-06-07T07:10:35.048Z</time>
      </trkpt>
      <trkpt lat="45.56892" lon="4.62699">
        <ele>410.95976</ele>
        <time>2025-06-07T07:10:38.055Z</time>
      </trkpt>
      <trkpt lat="45.56876" lon="4.62698">
        <ele>408.886759</ele>
        <time>2025-06-07T07:10:41.045Z</time>
      </trkpt>
      <trkpt lat="45.56862" lon="4.62698">
        <ele>407.119223</ele>
        <time>2025-06-07T07:10:43.043Z</time>
      </trkpt>
      <trkpt lat="45.5685" lon="4.62698">
        <ele>405.618717</ele>
        <time>2025-06-07T07:10:45.058Z</time>
      </trkpt>
      <trkpt lat="45.56842" lon="4.62711">
        <ele>404.119572</ele>
        <time>2025-06-07T07:10:47.060Z</time>
      </trkpt>
      <trkpt lat="45.56838" lon="4.62723">
        <ele>402.913669</ele>
        <time>2025-06-07T07:10:50.054Z</time>
      </trkpt>
      <trkpt lat="45.56829" lon="4.62721">
        <ele>401.766617</ele>
        <time>2025-06-07T07:10:54.064Z</time>
      </trkpt>
      <trkpt lat="45.56827" lon="4.62706">
        <ele>399.783393</ele>
        <time>2025-06-07T07:10:59.041Z</time>
      </trkpt>
      <trkpt lat="45.56832" lon="4.62694">
        <ele>398.00245</ele>
        <time>2025-06-07T07:11:03.049Z</time>
      </trkpt>
      <trkpt lat="45.56821" lon="4.62692">
        <ele>395.935388</ele>
        <time>2025-06-07T07:11:09.068Z</time>
      </trkpt>
      <trkpt lat="45.5681" lon="4.627">
        <ele>393.697957</ele>
        <time>2025-06-07T07:11:12.050Z</time>
      </trkpt>
      <trkpt lat="45.56806" lon="4.62712">
        <ele>392.001655</ele>
        <time>2025-06-07T07:11:15.048Z</time>
      </trkpt>
      <trkpt lat="45.56804" lon="4.62729">
        <ele>389.698621</ele>
        <time>2025-06-07T07:11:18.041Z</time>
      </trkpt>
      <trkpt lat="45.56806" lon="4.62742">
        <ele>387.987434</ele>
        <time>2025-06-07T07:11:23.054Z</time>
      </trkpt>
      <trkpt lat="45.56797" lon="4.62731">
        <ele>385.871567</ele>
        <time>2025-06-07T07:11:37.059Z</time>
      </trkpt>
      <trkpt lat="45.56791" lon="4.62721">
        <ele>384.132256</ele>
        <time>2025-06-07T07:11:40.061Z</time>
      </trkpt>
      <trkpt lat="45.56785" lon="4.62711">
        <ele>382.360715</ele>
        <time>2025-06-07T07:11:59.055Z</time>
      </trkpt>
      <trkpt lat="45.56779" lon="4.62697">
        <ele>380.190454</ele>
        <time>2025-06-07T07:12:05.066Z</time>
      </trkpt>
      <trkpt lat="45.56779" lon="4.62682">
        <ele>378.281129</ele>
        <time>2025-06-07T07:12:09.059Z</time>
      </trkpt>
      <trkpt lat="45.5677" lon="4.62683">
        <ele>376.509915</ele>
        <time>2025-06-07T07:12:20.045Z</time>
      </trkpt>
      <trkpt lat="45.56766" lon="4.62695">
        <ele>374.743886</ele>
        <time>2025-06-07T07:12:24.054Z</time>
      </trkpt>
      <trkpt lat="45.56762" lon="4.62708">
        <ele>372.934107</ele>
        <time>2025-06-07T07:12:34.045Z</time>
      </trkpt>
      <trkpt lat="45.56754" lon="4.62698">
        <ele>371.023054</ele>
        <time>2025-06-07T07:12:43.060Z</time>
      </trkpt>
      <trkpt lat="45.5675" lon="4.62685">
        <ele>369.051198</ele>
        <time>2025-06-07T07:12:51.053Z</time>
      </trkpt>
      <trkpt lat="45.56747" lon="4.62672">
        <ele>367.83077</ele>
        <time>2025-06-07T07:12:59.056Z</time>
      </trkpt>
      <trkpt lat="45.56744" lon="4.62659">
        <ele>368.043655</ele>
        <time>2025-06-07T07:13:08.058Z</time>
      </trkpt>
      <trkpt lat="45.56743" lon="4.62645">
        <ele>368.259156</ele>
        <time>2025-06-07T07:13:11.042Z</time>
      </trkpt>
      <trkpt lat="45.56738" lon="4.62633">
        <ele>368.497787</ele>
        <time>2025-06-07T07:13:14.050Z</time>
      </trkpt>
      <trkpt lat="45.56731" lon="4.62623">
        <ele>368.704284</ele>
        <time>2025-06-07T07:13:18.053Z</time>
      </trkpt>
      <trkpt lat="45.56726" lon="4.6261">
        <ele>368.94269</ele>
        <time>2025-06-07T07:13:22.050Z</time>
      </trkpt>
      <trkpt lat="45.56735" lon="4.62585">
        <ele>369.3784</ele>
        <time>2025-06-07T07:15:16.059Z</time>
      </trkpt>
      <trkpt lat="45.56741" lon="4.62572">
        <ele>369.616662</ele>
        <time>2025-06-07T07:15:19.057Z</time>
      </trkpt>
      <trkpt lat="45.56748" lon="4.62558">
        <ele>369.891042</ele>
        <time>2025-06-07T07:15:23.058Z</time>
      </trkpt>
      <trkpt lat="45.5675" lon="4.62545">
        <ele>370.104894</ele>
        <time>2025-06-07T07:15:27.059Z</time>
      </trkpt>
      <trkpt lat="45.5674" lon="4.62543">
        <ele>370.334098</ele>
        <time>2025-06-07T07:15:32.047Z</time>
      </trkpt>
      <trkpt lat="45.56732" lon="4.62551">
        <ele>370.568029</ele>
        <time>2025-06-07T07:15:35.060Z</time>
      </trkpt>
      <trkpt lat="45.56729" lon="4.62565">
        <ele>370.784529</ele>
        <time>2025-06-07T07:15:38.058Z</time>
      </trkpt>
      <trkpt lat="45.56723" lon="4.62576">
        <ele>371.001027</ele>
        <time>2025-06-07T07:15:41.061Z</time>
      </trkpt>
      <trkpt lat="45.56716" lon="4.62585">
        <ele>371.220998</ele>
        <time>2025-06-07T07:15:44.044Z</time>
      </trkpt>
      <trkpt lat="45.56708" lon="4.62594">
        <ele>371.454187</ele>
        <time>2025-06-07T07:15:47.054Z</time>
      </trkpt>
      <trkpt lat="45.56699" lon="4.62601">
        <ele>371.674993</ele>
        <time>2025-06-07T07:15:50.042Z</time>
      </trkpt>
      <trkpt lat="45.56689" lon="4.62609">
        <ele>372.298424</ele>
        <time>2025-06-07T07:15:54.061Z</time>
      </trkpt>
      <trkpt lat="45.5668" lon="4.62613">
        <ele>373.053384</ele>
        <time>2025-06-07T07:15:57.038Z</time>
      </trkpt>
      <trkpt lat="45.5667" lon="4.62615">
        <ele>373.85397</ele>
        <time>2025-06-07T07:16:00.066Z</time>
      </trkpt>
      <trkpt lat="45.56661" lon="4.62615">
        <ele>374.600059</ele>
        <time>2025-06-07T07:16:03.044Z</time>
      </trkpt>
      <trkpt lat="45.56652" lon="4.62613">
        <ele>375.34172</ele>
        <time>2025-06-07T07:16:06.052Z</time>
      </trkpt>
      <trkpt lat="45.56642" lon="4.62612">
        <ele>376.094776</ele>
        <time>2025-06-07T07:16:09.046Z</time>
      </trkpt>
      <trkpt lat="45.56633" lon="4.62609">
        <ele>376.842986</ele>
        <time>2025-06-07T07:16:12.053Z</time>
      </trkpt>
      <trkpt lat="45.56624" lon="4.62604">
        <ele>377.625814</ele>
        <time>2025-06-07T07:16:15.047Z</time>
      </trkpt>
      <trkpt lat="45.56616" lon="4.62597">
        <ele>378.369849</ele>
        <time>2025-06-07T07:16:18.049Z</time>
      </trkpt>
      <trkpt lat="45.56607" lon="4.62588">
        <ele>379.277383</ele>
        <time>2025-06-07T07:16:22.053Z</time>
      </trkpt>
      <trkpt lat="45.56598" lon="4.62582">
        <ele>380.127986</ele>
        <time>2025-06-07T07:16:26.047Z</time>
      </trkpt>
      <trkpt lat="45.56588" lon="4.62583">
        <ele>380.91667</ele>
        <time>2025-06-07T07:16:30.061Z</time>
      </trkpt>
      <trkpt lat="45.56579" lon="4.62589">
        <ele>381.735145</ele>
        <time>2025-06-07T07:16:34.059Z</time>
      </trkpt>
      <trkpt lat="45.56569" lon="4.62593">
        <ele>382.598368</ele>
        <time>2025-06-07T07:16:38.049Z</time>
      </trkpt>
      <trkpt lat="45.56559" lon="4.62597">
        <ele>383.439019</ele>
        <time>2025-06-07T07:16:42.048Z</time>
      </trkpt>
      <trkpt lat="45.56549" lon="4.62601">
        <ele>384.259628</ele>
        <time>2025-06-07T07:16:46.051Z</time>
      </trkpt>
      <trkpt lat="45.5654" lon="4.62603">
        <ele>385.012226</ele>
        <time>2025-06-07T07:16:50.046Z</time>
      </trkpt>
      <trkpt lat="45.56531" lon="4.62606">
        <ele>385.756874</ele>
        <time>2025-06-07T07:16:54.055Z</time>
      </trkpt>
      <trkpt lat="45.56521" lon="4.62609">
        <ele>386.581384</ele>
        <time>2025-06-07T07:16:58.051Z</time>
      </trkpt>
      <trkpt lat="45.56511" lon="4.6261">
        <ele>387.458559</ele>
        <time>2025-06-07T07:17:02.048Z</time>
      </trkpt>
      <trkpt lat="45.565" lon="4.62609">
        <ele>388.357858</ele>
        <time>2025-06-07T07:17:06.048Z</time>
      </trkpt>
      <trkpt lat="45.5649" lon="4.62603">
        <ele>389.309478</ele>
        <time>2025-06-07T07:17:10.053Z</time>
      </trkpt>
      <trkpt lat="45.56482" lon="4.62592">
        <ele>390.236306</ele>
        <time>2025-06-07T07:17:14.055Z</time>
      </trkpt>
      <trkpt lat="45.56479" lon="4.62577">
        <ele>391.159227</ele>
        <time>2025-06-07T07:17:18.051Z</time>
      </trkpt>
      <trkpt lat="45.56478" lon="4.62562">
        <ele>392.050635</ele>
        <time>2025-06-07T07:17:22.066Z</time>
      </trkpt>
      <trkpt lat="45.56479" lon="4.62547">
        <ele>392.943148</ele>
        <time>2025-06-07T07:17:26.052Z</time>
      </trkpt>
      <trkpt lat="45.5648" lon="4.62532">
        <ele>393.865514</ele>
        <time>2025-06-07T07:17:30.053Z</time>
      </trkpt>
      <trkpt lat="45.5648" lon="4.62517">
        <ele>394.764525</ele>
        <time>2025-06-07T07:17:34.053Z</time>
      </trkpt>
      <trkpt lat="45.56481" lon="4.62502">
        <ele>395.627188</ele>
        <time>2025-06-07T07:17:38.055Z</time>
      </trkpt>
      <trkpt lat="45.56482" lon="4.62488">
        <ele>396.479112</ele>
        <time>2025-06-07T07:17:42.049Z</time>
      </trkpt>
      <trkpt lat="45.56482" lon="4.62475">
        <ele>397.288055</ele>
        <time>2025-06-07T07:17:46.049Z</time>
      </trkpt>
      <trkpt lat="45.56483" lon="4.62461">
        <ele>398.110932</ele>
        <time>2025-06-07T07:17:50.046Z</time>
      </trkpt>
      <trkpt lat="45.56485" lon="4.62447">
        <ele>398.943627</ele>
        <time>2025-06-07T07:17:54.050Z</time>
      </trkpt>
      <trkpt lat="45.56486" lon="4.62434">
        <ele>399.772863</ele>
        <time>2025-06-07T07:17:58.045Z</time>
      </trkpt>
      <trkpt lat="45.56488" lon="4.62419">
        <ele>400.660111</ele>
        <time>2025-06-07T07:18:02.056Z</time>
      </trkpt>
      <trkpt lat="45.56491" lon="4.62405">
        <ele>401.52007</ele>
        <time>2025-06-07T07:18:06.049Z</time>
      </trkpt>
      <trkpt lat="45.56493" lon="4.62392">
        <ele>402.218239</ele>
        <time>2025-06-07T07:18:10.045Z</time>
      </trkpt>
      <trkpt lat="45.56495" lon="4.62378">
        <ele>402.911668</ele>
        <time>2025-06-07T07:18:14.051Z</time>
      </trkpt>
      <trkpt lat="45.56497" lon="4.62364">
        <ele>403.609813</ele>
        <time>2025-06-07T07:18:18.044Z</time>
      </trkpt>
      <trkpt lat="45.565" lon="4.62349">
        <ele>404.362992</ele>
        <time>2025-06-07T07:18:22.050Z</time>
      </trkpt>
      <trkpt lat="45.56502" lon="4.62334">
        <ele>405.095658</ele>
        <time>2025-06-07T07:18:26.045Z</time>
      </trkpt>
      <trkpt lat="45.56505" lon="4.62319">
        <ele>405.839671</ele>
        <time>2025-06-07T07:18:30.052Z</time>
      </trkpt>
      <trkpt lat="45.56506" lon="4.62304">
        <ele>406.557347</ele>
        <time>2025-06-07T07:18:34.049Z</time>
      </trkpt>
      <trkpt lat="45.56504" lon="4.6229">
        <ele>407.257355</ele>
        <time>2025-06-07T07:18:38.049Z</time>
      </trkpt>
      <trkpt lat="45.56497" lon="4.62278">
        <ele>408.044041</ele>
        <time>2025-06-07T07:18:42.043Z</time>
      </trkpt>
      <trkpt lat="45.56489" lon="4.62267">
        <ele>408.797829</ele>
        <time>2025-06-07T07:18:46.067Z</time>
      </trkpt>
      <trkpt lat="45.56481" lon="4.62257">
        <ele>409.543243</ele>
        <time>2025-06-07T07:18:50.059Z</time>
      </trkpt>
      <trkpt lat="45.56472" lon="4.62246">
        <ele>410.325349</ele>
        <time>2025-06-07T07:18:54.048Z</time>
      </trkpt>
      <trkpt lat="45.56465" lon="4.62237">
        <ele>411.027715</ele>
        <time>2025-06-07T07:18:58.053Z</time>
      </trkpt>
      <trkpt lat="45.56457" lon="4.62227">
        <ele>411.764286</ele>
        <time>2025-06-07T07:19:02.051Z</time>
      </trkpt>
      <trkpt lat="45.56449" lon="4.62216">
        <ele>412.5426</ele>
        <time>2025-06-07T07:19:06.053Z</time>
      </trkpt>
      <trkpt lat="45.56442" lon="4.62206">
        <ele>413.179201</ele>
        <time>2025-06-07T07:19:09.042Z</time>
      </trkpt>
      <trkpt lat="45.56434" lon="4.62195">
        <ele>413.9674</ele>
        <time>2025-06-07T07:19:13.042Z</time>
      </trkpt>
      <trkpt lat="45.56425" lon="4.62184">
        <ele>414.764075</ele>
        <time>2025-06-07T07:19:17.040Z</time>
      </trkpt>
      <trkpt lat="45.56417" lon="4.62174">
        <ele>415.510995</ele>
        <time>2025-06-07T07:19:21.040Z</time>
      </trkpt>
      <trkpt lat="45.56408" lon="4.62164">
        <ele>416.30222</ele>
        <time>2025-06-07T07:19:25.034Z</time>
      </trkpt>
      <trkpt lat="45.56398" lon="4.62154">
        <ele>417.117687</ele>
        <time>2025-06-07T07:19:29.056Z</time>
      </trkpt>
      <trkpt lat="45.56389" lon="4.62144">
        <ele>417.883439</ele>
        <time>2025-06-07T07:19:33.044Z</time>
      </trkpt>
      <trkpt lat="45.56381" lon="4.62133">
        <ele>418.643148</ele>
        <time>2025-06-07T07:19:37.037Z</time>
      </trkpt>
      <trkpt lat="45.56372" lon="4.62122">
        <ele>419.434166</ele>
        <time>2025-06-07T07:19:41.039Z</time>
      </trkpt>
      <trkpt lat="45.56365" lon="4.62111">
        <ele>420.183929</ele>
        <time>2025-06-07T07:19:45.051Z</time>
      </trkpt>
      <trkpt lat="45.56357" lon="4.621">
        <ele>420.958906</ele>
        <time>2025-06-07T07:19:49.047Z</time>
      </trkpt>
      <trkpt lat="45.56349" lon="4.62088">
        <ele>421.730269</ele>
        <time>2025-06-07T07:19:53.046Z</time>
      </trkpt>
      <trkpt lat="45.56341" lon="4.62075">
        <ele>422.533153</ele>
        <time>2025-06-07T07:19:57.045Z</time>
      </trkpt>
      <trkpt lat="45.56334" lon="4.62063">
        <ele>423.28921</ele>
        <time>2025-06-07T07:20:01.060Z</time>
      </trkpt>
      <trkpt lat="45.56327" lon="4.62052">
        <ele>424.011772</ele>
        <time>2025-06-07T07:20:05.050Z</time>
      </trkpt>
      <trkpt lat="45.5632" lon="4.6204">
        <ele>424.765864</ele>
        <time>2025-06-07T07:20:09.052Z</time>
      </trkpt>
      <trkpt lat="45.56313" lon="4.62028">
        <ele>425.507344</ele>
        <time>2025-06-07T07:20:13.047Z</time>
      </trkpt>
      <trkpt lat="45.56305" lon="4.62017">
        <ele>426.246156</ele>
        <time>2025-06-07T07:20:17.047Z</time>
      </trkpt>
      <trkpt lat="45.56298" lon="4.62005">
        <ele>426.834891</ele>
        <time>2025-06-07T07:20:21.045Z</time>
      </trkpt>
      <trkpt lat="45.56291" lon="4.61994">
        <ele>427.346674</ele>
        <time>2025-06-07T07:20:25.044Z</time>
      </trkpt>
      <trkpt lat="45.56285" lon="4.61982">
        <ele>427.847926</ele>
        <time>2025-06-07T07:20:29.053Z</time>
      </trkpt>
      <trkpt lat="45.56279" lon="4.61972">
        <ele>428.286862</ele>
        <time>2025-06-07T07:20:32.042Z</time>
      </trkpt>
      <trkpt lat="45.56271" lon="4.6196">
        <ele>428.829196</ele>
        <time>2025-06-07T07:20:36.045Z</time>
      </trkpt>
      <trkpt lat="45.56263" lon="4.61948">
        <ele>429.387188</ele>
        <time>2025-06-07T07:20:40.045Z</time>
      </trkpt>
      <trkpt lat="45.56255" lon="4.61936">
        <ele>429.939319</ele>
        <time>2025-06-07T07:20:44.042Z</time>
      </trkpt>
      <trkpt lat="45.5625" lon="4.61924">
        <ele>430.40468</ele>
        <time>2025-06-07T07:20:48.047Z</time>
      </trkpt>
      <trkpt lat="45.5626" lon="4.61916">
        <ele>430.942707</ele>
        <time>2025-06-07T07:20:52.054Z</time>
      </trkpt>
      <trkpt lat="45.56268" lon="4.6191">
        <ele>431.375208</ele>
        <time>2025-06-07T07:20:55.052Z</time>
      </trkpt>
      <trkpt lat="45.56277" lon="4.61903">
        <ele>431.857639</ele>
        <time>2025-06-07T07:20:58.043Z</time>
      </trkpt>
      <trkpt lat="45.56286" lon="4.61896">
        <ele>432.336818</ele>
        <time>2025-06-07T07:21:01.052Z</time>
      </trkpt>
      <trkpt lat="45.56294" lon="4.61888">
        <ele>432.814769</ele>
        <time>2025-06-07T07:21:04.052Z</time>
      </trkpt>
      <trkpt lat="45.56302" lon="4.6188">
        <ele>433.285855</ele>
        <time>2025-06-07T07:21:07.060Z</time>
      </trkpt>
      <trkpt lat="45.56311" lon="4.61873">
        <ele>433.769917</ele>
        <time>2025-06-07T07:21:10.042Z</time>
      </trkpt>
      <trkpt lat="45.5632" lon="4.61864">
        <ele>434.294745</ele>
        <time>2025-06-07T07:21:13.046Z</time>
      </trkpt>
      <trkpt lat="45.56329" lon="4.61855">
        <ele>434.809761</ele>
        <time>2025-06-07T07:21:16.051Z</time>
      </trkpt>
      <trkpt lat="45.56338" lon="4.61847">
        <ele>435.337651</ele>
        <time>2025-06-07T07:21:19.039Z</time>
      </trkpt>
      <trkpt lat="45.56347" lon="4.61837">
        <ele>435.889078</ele>
        <time>2025-06-07T07:21:22.053Z</time>
      </trkpt>
      <trkpt lat="45.56355" lon="4.61828">
        <ele>436.432377</ele>
        <time>2025-06-07T07:21:25.042Z</time>
      </trkpt>
      <trkpt lat="45.56363" lon="4.6182">
        <ele>436.940798</ele>
        <time>2025-06-07T07:21:28.052Z</time>
      </trkpt>
      <trkpt lat="45.56371" lon="4.61811">
        <ele>437.437737</ele>
        <time>2025-06-07T07:21:31.043Z</time>
      </trkpt>
      <trkpt lat="45.56378" lon="4.61801">
        <ele>437.944305</ele>
        <time>2025-06-07T07:21:34.051Z</time>
      </trkpt>
      <trkpt lat="45.56385" lon="4.6179">
        <ele>438.43116</ele>
        <time>2025-06-07T07:21:37.050Z</time>
      </trkpt>
      <trkpt lat="45.56392" lon="4.61783">
        <ele>438.898251</ele>
        <time>2025-06-07T07:21:40.064Z</time>
      </trkpt>
      <trkpt lat="45.56402" lon="4.61779">
        <ele>439.405014</ele>
        <time>2025-06-07T07:21:43.047Z</time>
      </trkpt>
      <trkpt lat="45.56411" lon="4.61775">
        <ele>439.903034</ele>
        <time>2025-06-07T07:21:46.051Z</time>
      </trkpt>
      <trkpt lat="45.5642" lon="4.6177">
        <ele>440.385333</ele>
        <time>2025-06-07T07:21:49.042Z</time>
      </trkpt>
      <trkpt lat="45.5643" lon="4.61765">
        <ele>440.897642</ele>
        <time>2025-06-07T07:21:53.054Z</time>
      </trkpt>
      <trkpt lat="45.56434" lon="4.61754">
        <ele>441.353495</ele>
        <time>2025-06-07T07:22:01.036Z</time>
      </trkpt>
      <trkpt lat="45.56431" lon="4.61741">
        <ele>441.833928</ele>
        <time>2025-06-07T07:22:06.059Z</time>
      </trkpt>
      <trkpt lat="45.56426" lon="4.6173">
        <ele>442.306902</ele>
        <time>2025-06-07T07:22:12.046Z</time>
      </trkpt>
      <trkpt lat="45.56425" lon="4.61715">
        <ele>442.841668</ele>
        <time>2025-06-07T07:22:17.053Z</time>
      </trkpt>
      <trkpt lat="45.56429" lon="4.61703">
        <ele>443.30585</ele>
        <time>2025-06-07T07:22:22.045Z</time>
      </trkpt>
      <trkpt lat="45.56433" lon="4.61691">
        <ele>443.768016</ele>
        <time>2025-06-07T07:22:27.045Z</time>
      </trkpt>
      <trkpt lat="45.56436" lon="4.61677">
        <ele>444.258519</ele>
        <time>2025-06-07T07:22:33.036Z</time>
      </trkpt>
      <trkpt lat="45.56439" lon="4.61662">
        <ele>444.663133</ele>
        <time>2025-06-07T07:22:39.041Z</time>
      </trkpt>
      <trkpt lat="45.56444" lon="4.61649">
        <ele>445.059751</ele>
        <time>2025-06-07T07:22:45.059Z</time>
      </trkpt>
      <trkpt lat="45.56446" lon="4.61635">
        <ele>445.454572</ele>
        <time>2025-06-07T07:22:50.054Z</time>
      </trkpt>
      <trkpt lat="45.5645" lon="4.61621">
        <ele>445.83452</ele>
        <time>2025-06-07T07:22:56.052Z</time>
      </trkpt>
      <trkpt lat="45.56453" lon="4.61609">
        <ele>446.191406</ele>
        <time>2025-06-07T07:23:01.046Z</time>
      </trkpt>
      <trkpt lat="45.56456" lon="4.61593">
        <ele>446.603701</ele>
        <time>2025-06-07T07:23:06.051Z</time>
      </trkpt>
      <trkpt lat="45.56456" lon="4.6158">
        <ele>446.959739</ele>
        <time>2025-06-07T07:23:10.055Z</time>
      </trkpt>
      <trkpt lat="45.56455" lon="4.61566">
        <ele>447.32772</ele>
        <time>2025-06-07T07:23:14.064Z</time>
      </trkpt>
      <trkpt lat="45.56453" lon="4.61551">
        <ele>447.728965</ele>
        <time>2025-06-07T07:23:18.049Z</time>
      </trkpt>
      <trkpt lat="45.5645" lon="4.61535">
        <ele>448.160072</ele>
        <time>2025-06-07T07:23:22.038Z</time>
      </trkpt>
      <trkpt lat="45.56447" lon="4.6152">
        <ele>448.57265</ele>
        <time>2025-06-07T07:23:26.046Z</time>
      </trkpt>
      <trkpt lat="45.56444" lon="4.61506">
        <ele>448.95377</ele>
        <time>2025-06-07T07:23:30.048Z</time>
      </trkpt>
      <trkpt lat="45.56442" lon="4.61493">
        <ele>449.317199</ele>
        <time>2025-06-07T07:23:33.048Z</time>
      </trkpt>
      <trkpt lat="45.56437" lon="4.61477">
        <ele>449.766201</ele>
        <time>2025-06-07T07:23:36.047Z</time>
      </trkpt>
      <trkpt lat="45.56432" lon="4.61465">
        <ele>450.131887</ele>
        <time>2025-06-07T07:23:38.047Z</time>
      </trkpt>
      <trkpt lat="45.56428" lon="4.61451">
        <ele>450.538654</ele>
        <time>2025-06-07T07:23:40.045Z</time>
      </trkpt>
      <trkpt lat="45.56424" lon="4.61436">
        <ele>450.946235</ele>
        <time>2025-06-07T07:23:42.042Z</time>
      </trkpt>
      <trkpt lat="45.56422" lon="4.61422">
        <ele>451.124576</ele>
        <time>2025-06-07T07:23:44.046Z</time>
      </trkpt>
      <trkpt lat="45.56419" lon="4.61404">
        <ele>451.3508</ele>
        <time>2025-06-07T07:23:47.045Z</time>
      </trkpt>
      <trkpt lat="45.56417" lon="4.61387">
        <ele>451.559715</ele>
        <time>2025-06-07T07:23:50.057Z</time>
      </trkpt>
      <trkpt lat="45.56415" lon="4.61374">
        <ele>451.730135</ele>
        <time>2025-06-07T07:23:52.038Z</time>
      </trkpt>
      <trkpt lat="45.56411" lon="4.61356">
        <ele>451.955414</ele>
        <time>2025-06-07T07:23:55.047Z</time>
      </trkpt>
      <trkpt lat="45.56411" lon="4.61342">
        <ele>452.126599</ele>
        <time>2025-06-07T07:23:58.039Z</time>
      </trkpt>
      <trkpt lat="45.56411" lon="4.61326">
        <ele>452.320111</ele>
        <time>2025-06-07T07:24:01.032Z</time>
      </trkpt>
      <trkpt lat="45.5641" lon="4.61311">
        <ele>452.51132</ele>
        <time>2025-06-07T07:24:04.040Z</time>
      </trkpt>
      <trkpt lat="45.56407" lon="4.61296">
        <ele>452.704502</ele>
        <time>2025-06-07T07:24:07.055Z</time>
      </trkpt>
      <trkpt lat="45.56403" lon="4.61282">
        <ele>452.891355</ele>
        <time>2025-06-07T07:24:10.044Z</time>
      </trkpt>
      <trkpt lat="45.56399" lon="4.61268">
        <ele>453.069162</ele>
        <time>2025-06-07T07:24:13.054Z</time>
      </trkpt>
      <trkpt lat="45.56395" lon="4.61257">
        <ele>453.230261</ele>
        <time>2025-06-07T07:24:16.039Z</time>
      </trkpt>
      <trkpt lat="45.5639" lon="4.61242">
        <ele>453.436573</ele>
        <time>2025-06-07T07:24:20.054Z</time>
      </trkpt>
      <trkpt lat="45.56385" lon="4.61231">
        <ele>453.598585</ele>
        <time>2025-06-07T07:24:23.054Z</time>
      </trkpt>
      <trkpt lat="45.5638" lon="4.61219">
        <ele>453.771433</ele>
        <time>2025-06-07T07:24:26.041Z</time>
      </trkpt>
      <trkpt lat="45.56375" lon="4.61207">
        <ele>453.947077</ele>
        <time>2025-06-07T07:24:29.051Z</time>
      </trkpt>
      <trkpt lat="45.56369" lon="4.61194">
        <ele>454.186325</ele>
        <time>2025-06-07T07:24:32.052Z</time>
      </trkpt>
      <trkpt lat="45.56365" lon="4.61178">
        <ele>454.740004</ele>
        <time>2025-06-07T07:24:36.047Z</time>
      </trkpt>
      <trkpt lat="45.56363" lon="4.61162">
        <ele>455.276315</ele>
        <time>2025-06-07T07:24:40.045Z</time>
      </trkpt>
      <trkpt lat="45.56361" lon="4.61146">
        <ele>455.82319</ele>
        <time>2025-06-07T07:24:44.045Z</time>
      </trkpt>
      <trkpt lat="45.56357" lon="4.61133">
        <ele>456.291947</ele>
        <time>2025-06-07T07:24:48.034Z</time>
      </trkpt>
      <trkpt lat="45.56346" lon="4.6113">
        <ele>456.79881</ele>
        <time>2025-06-07T07:24:52.059Z</time>
      </trkpt>
      <trkpt lat="45.56337" lon="4.61131">
        <ele>457.248542</ele>
        <time>2025-06-07T07:24:55.046Z</time>
      </trkpt>
      <trkpt lat="45.56327" lon="4.61129">
        <ele>457.716244</ele>
        <time>2025-06-07T07:24:58.058Z</time>
      </trkpt>
      <trkpt lat="45.56318" lon="4.61127">
        <ele>458.141276</ele>
        <time>2025-06-07T07:25:01.040Z</time>
      </trkpt>
      <trkpt lat="45.56308" lon="4.61126">
        <ele>458.621937</ele>
        <time>2025-06-07T07:25:04.039Z</time>
      </trkpt>
      <trkpt lat="45.56299" lon="4.61124">
        <ele>459.065743</ele>
        <time>2025-06-07T07:25:07.056Z</time>
      </trkpt>
      <trkpt lat="45.56289" lon="4.61122">
        <ele>459.506241</ele>
        <time>2025-06-07T07:25:10.061Z</time>
      </trkpt>
      <trkpt lat="45.5628" lon="4.61118">
        <ele>459.952333</ele>
        <time>2025-06-07T07:25:13.054Z</time>
      </trkpt>
      <trkpt lat="45.56272" lon="4.61114">
        <ele>460.379367</ele>
        <time>2025-06-07T07:25:16.044Z</time>
      </trkpt>
      <trkpt lat="45.56262" lon="4.61107">
        <ele>460.926432</ele>
        <time>2025-06-07T07:25:20.044Z</time>
      </trkpt>
      <trkpt lat="45.56254" lon="4.611">
        <ele>461.357269</ele>
        <time>2025-06-07T07:25:23.057Z</time>
      </trkpt>
      <trkpt lat="45.56246" lon="4.61092">
        <ele>461.792655</ele>
        <time>2025-06-07T07:25:26.046Z</time>
      </trkpt>
      <trkpt lat="45.56238" lon="4.61086">
        <ele>462.237567</ele>
        <time>2025-06-07T07:25:29.041Z</time>
      </trkpt>
      <trkpt lat="45.56228" lon="4.61077">
        <ele>462.7408</ele>
        <time>2025-06-07T07:25:33.057Z</time>
      </trkpt>
      <trkpt lat="45.56218" lon="4.61068">
        <ele>463.148354</ele>
        <time>2025-06-07T07:25:37.042Z</time>
      </trkpt>
      <trkpt lat="45.56208" lon="4.61059">
        <ele>463.556999</ele>
        <time>2025-06-07T07:25:41.058Z</time>
      </trkpt>
      <trkpt lat="45.56198" lon="4.61051">
        <ele>463.957012</ele>
        <time>2025-06-07T07:25:45.044Z</time>
      </trkpt>
      <trkpt lat="45.56189" lon="4.61043">
        <ele>464.350951</ele>
        <time>2025-06-07T07:25:49.042Z</time>
      </trkpt>
      <trkpt lat="45.56179" lon="4.61034">
        <ele>464.762581</ele>
        <time>2025-06-07T07:25:53.050Z</time>
      </trkpt>
      <trkpt lat="45.5617" lon="4.61027">
        <ele>465.104477</ele>
        <time>2025-06-07T07:25:56.039Z</time>
      </trkpt>
      <trkpt lat="45.56162" lon="4.6102">
        <ele>465.441694</ele>
        <time>2025-06-07T07:25:59.054Z</time>
      </trkpt>
      <trkpt lat="45.56154" lon="4.61013">
        <ele>465.7636</ele>
        <time>2025-06-07T07:26:02.041Z</time>
      </trkpt>
      <trkpt lat="45.56144" lon="4.61004">
        <ele>466.180749</ele>
        <time>2025-06-07T07:26:06.040Z</time>
      </trkpt>
      <trkpt lat="45.56134" lon="4.60996">
        <ele>466.58993</ele>
        <time>2025-06-07T07:26:10.048Z</time>
      </trkpt>
      <trkpt lat="45.56125" lon="4.6099">
        <ele>466.918805</ele>
        <time>2025-06-07T07:26:13.041Z</time>
      </trkpt>
      <trkpt lat="45.56117" lon="4.60983">
        <ele>467.249723</ele>
        <time>2025-06-07T07:26:16.046Z</time>
      </trkpt>
      <trkpt lat="45.56109" lon="4.60975">
        <ele>467.57351</ele>
        <time>2025-06-07T07:26:19.043Z</time>
      </trkpt>
      <trkpt lat="45.561" lon="4.60965">
        <ele>467.986036</ele>
        <time>2025-06-07T07:26:23.045Z</time>
      </trkpt>
      <trkpt lat="45.56093" lon="4.60956">
        <ele>468.308877</ele>
        <time>2025-06-07T07:26:26.042Z</time>
      </trkpt>
      <trkpt lat="45.56086" lon="4.60947">
        <ele>468.642528</ele>
        <time>2025-06-07T07:26:29.043Z</time>
      </trkpt>
      <trkpt lat="45.5608" lon="4.60936">
        <ele>468.972117</ele>
        <time>2025-06-07T07:26:32.053Z</time>
      </trkpt>
      <trkpt lat="45.56074" lon="4.60925">
        <ele>469.293194</ele>
        <time>2025-06-07T07:26:35.045Z</time>
      </trkpt>
      <trkpt lat="45.56069" lon="4.60913">
        <ele>469.617053</ele>
        <time>2025-06-07T07:26:38.035Z</time>
      </trkpt>
      <trkpt lat="45.56065" lon="4.60901">
        <ele>469.931553</ele>
        <time>2025-06-07T07:26:41.048Z</time>
      </trkpt>
      <trkpt lat="45.5606" lon="4.6089">
        <ele>470.242382</ele>
        <time>2025-06-07T07:26:44.043Z</time>
      </trkpt>
      <trkpt lat="45.56056" lon="4.60878">
        <ele>470.550396</ele>
        <time>2025-06-07T07:26:47.039Z</time>
      </trkpt>
      <trkpt lat="45.56051" lon="4.60866">
        <ele>470.868154</ele>
        <time>2025-06-07T07:26:50.044Z</time>
      </trkpt>
      <trkpt lat="45.56047" lon="4.60854">
        <ele>471.17873</ele>
        <time>2025-06-07T07:26:53.044Z</time>
      </trkpt>
      <trkpt lat="45.56042" lon="4.60842">
        <ele>471.488325</ele>
        <time>2025-06-07T07:26:56.041Z</time>
      </trkpt>
      <trkpt lat="45.56038" lon="4.6083">
        <ele>471.801545</ele>
        <time>2025-06-07T07:26:59.056Z</time>
      </trkpt>
      <trkpt lat="45.56034" lon="4.60818">
        <ele>472.12247</ele>
        <time>2025-06-07T07:27:02.047Z</time>
      </trkpt>
      <trkpt lat="45.56029" lon="4.60804">
        <ele>472.496183</ele>
        <time>2025-06-07T07:27:06.050Z</time>
      </trkpt>
      <trkpt lat="45.56023" lon="4.60789">
        <ele>472.889154</ele>
        <time>2025-06-07T07:27:10.044Z</time>
      </trkpt>
      <trkpt lat="45.56017" lon="4.60775">
        <ele>473.255801</ele>
        <time>2025-06-07T07:27:13.045Z</time>
      </trkpt>
      <trkpt lat="45.56012" lon="4.60761">
        <ele>473.631762</ele>
        <time>2025-06-07T07:27:16.044Z</time>
      </trkpt>
      <trkpt lat="45.56006" lon="4.60748">
        <ele>473.990942</ele>
        <time>2025-06-07T07:27:19.048Z</time>
      </trkpt>
      <trkpt lat="45.55999" lon="4.60736">
        <ele>474.347502</ele>
        <time>2025-06-07T07:27:22.045Z</time>
      </trkpt>
      <trkpt lat="45.55991" lon="4.60725">
        <ele>474.697328</ele>
        <time>2025-06-07T07:27:25.056Z</time>
      </trkpt>
      <trkpt lat="45.55984" lon="4.60716">
        <ele>474.962121</ele>
        <time>2025-06-07T07:27:28.037Z</time>
      </trkpt>
      <trkpt lat="45.55976" lon="4.60707">
        <ele>475.163497</ele>
        <time>2025-06-07T07:27:31.045Z</time>
      </trkpt>
      <trkpt lat="45.55968" lon="4.60696">
        <ele>475.391593</ele>
        <time>2025-06-07T07:27:34.047Z</time>
      </trkpt>
      <trkpt lat="45.55961" lon="4.60683">
        <ele>475.631924</ele>
        <time>2025-06-07T07:27:37.049Z</time>
      </trkpt>
      <trkpt lat="45.55953" lon="4.60672">
        <ele>475.869434</ele>
        <time>2025-06-07T07:27:40.044Z</time>
      </trkpt>
      <trkpt lat="45.55945" lon="4.60661">
        <ele>476.095052</ele>
        <time>2025-06-07T07:27:43.053Z</time>
      </trkpt>
      <trkpt lat="45.55937" lon="4.60649">
        <ele>476.321538</ele>
        <time>2025-06-07T07:27:46.044Z</time>
      </trkpt>
      <trkpt lat="45.55929" lon="4.60637">
        <ele>476.563183</ele>
        <time>2025-06-07T07:27:49.045Z</time>
      </trkpt>
      <trkpt lat="45.5592" lon="4.60625">
        <ele>476.811627</ele>
        <time>2025-06-07T07:27:52.049Z</time>
      </trkpt>
      <trkpt lat="45.55911" lon="4.60615">
        <ele>477.053323</ele>
        <time>2025-06-07T07:27:55.056Z</time>
      </trkpt>
      <trkpt lat="45.55903" lon="4.60605">
        <ele>477.276221</ele>
        <time>2025-06-07T07:27:58.028Z</time>
      </trkpt>
      <trkpt lat="45.55894" lon="4.60596">
        <ele>477.494868</ele>
        <time>2025-06-07T07:28:01.055Z</time>
      </trkpt>
      <trkpt lat="45.55885" lon="4.60588">
        <ele>477.712643</ele>
        <time>2025-06-07T07:28:04.034Z</time>
      </trkpt>
      <trkpt lat="45.55876" lon="4.60579">
        <ele>477.936327</ele>
        <time>2025-06-07T07:28:07.054Z</time>
      </trkpt>
      <trkpt lat="45.55867" lon="4.60571">
        <ele>478.159535</ele>
        <time>2025-06-07T07:28:10.049Z</time>
      </trkpt>
      <trkpt lat="45.55858" lon="4.60563">
        <ele>478.375785</ele>
        <time>2025-06-07T07:28:13.051Z</time>
      </trkpt>
      <trkpt lat="45.55849" lon="4.60556">
        <ele>478.604455</ele>
        <time>2025-06-07T07:28:16.045Z</time>
      </trkpt>
      <trkpt lat="45.55839" lon="4.6055">
        <ele>478.865945</ele>
        <time>2025-06-07T07:28:19.039Z</time>
      </trkpt>
      <trkpt lat="45.55829" lon="4.60545">
        <ele>479.125613</ele>
        <time>2025-06-07T07:28:22.052Z</time>
      </trkpt>
      <trkpt lat="45.5582" lon="4.60539">
        <ele>479.379381</ele>
        <time>2025-06-07T07:28:25.051Z</time>
      </trkpt>
      <trkpt lat="45.55811" lon="4.60531">
        <ele>479.638279</ele>
        <time>2025-06-07T07:28:28.044Z</time>
      </trkpt>
      <trkpt lat="45.55807" lon="4.60519">
        <ele>479.877188</ele>
        <time>2025-06-07T07:28:31.054Z</time>
      </trkpt>
      <trkpt lat="45.55799" lon="4.60507">
        <ele>480.16391</ele>
        <time>2025-06-07T07:28:35.045Z</time>
      </trkpt>
      <trkpt lat="45.55791" lon="4.60499">
        <ele>480.395176</ele>
        <time>2025-06-07T07:28:38.046Z</time>
      </trkpt>
      <trkpt lat="45.55784" lon="4.60492">
        <ele>480.619865</ele>
        <time>2025-06-07T07:28:41.046Z</time>
      </trkpt>
      <trkpt lat="45.55773" lon="4.60488">
        <ele>480.90099</ele>
        <time>2025-06-07T07:28:45.045Z</time>
      </trkpt>
      <trkpt lat="45.55764" lon="4.60492">
        <ele>481.137653</ele>
        <time>2025-06-07T07:28:48.050Z</time>
      </trkpt>
      <trkpt lat="45.55754" lon="4.60497">
        <ele>481.384835</ele>
        <time>2025-06-07T07:28:51.045Z</time>
      </trkpt>
      <trkpt lat="45.55745" lon="4.60497">
        <ele>481.613195</ele>
        <time>2025-06-07T07:28:54.051Z</time>
      </trkpt>
      <trkpt lat="45.55737" lon="4.60489">
        <ele>481.856961</ele>
        <time>2025-06-07T07:28:58.051Z</time>
      </trkpt>
      <trkpt lat="45.55729" lon="4.60484">
        <ele>482.085587</ele>
        <time>2025-06-07T07:29:01.039Z</time>
      </trkpt>
      <trkpt lat="45.5572" lon="4.60477">
        <ele>482.31969</ele>
        <time>2025-06-07T07:29:04.043Z</time>
      </trkpt>
      <trkpt lat="45.55711" lon="4.60471">
        <ele>482.581902</ele>
        <time>2025-06-07T07:29:08.041Z</time>
      </trkpt>
      <trkpt lat="45.557" lon="4.60466">
        <ele>482.871158</ele>
        <time>2025-06-07T07:29:12.049Z</time>
      </trkpt>
      <trkpt lat="45.55689" lon="4.60459">
        <ele>483.255995</ele>
        <time>2025-06-07T07:29:16.047Z</time>
      </trkpt>
      <trkpt lat="45.5568" lon="4.60454">
        <ele>483.65389</ele>
        <time>2025-06-07T07:29:19.045Z</time>
      </trkpt>
      <trkpt lat="45.55671" lon="4.60448">
        <ele>484.057923</ele>
        <time>2025-06-07T07:29:22.051Z</time>
      </trkpt>
      <trkpt lat="45.5566" lon="4.60441">
        <ele>484.556608</ele>
        <time>2025-06-07T07:29:26.045Z</time>
      </trkpt>
      <trkpt lat="45.55651" lon="4.60436">
        <ele>484.960639</ele>
        <time>2025-06-07T07:29:29.040Z</time>
      </trkpt>
      <trkpt lat="45.55642" lon="4.60432">
        <ele>485.370088</ele>
        <time>2025-06-07T07:29:32.047Z</time>
      </trkpt>
      <trkpt lat="45.5563" lon="4.60427">
        <ele>485.870636</ele>
        <time>2025-06-07T07:29:36.046Z</time>
      </trkpt>
      <trkpt lat="45.55619" lon="4.60422">
        <ele>486.361527</ele>
        <time>2025-06-07T07:29:40.047Z</time>
      </trkpt>
      <trkpt lat="45.5561" lon="4.60418">
        <ele>486.748892</ele>
        <time>2025-06-07T07:29:43.047Z</time>
      </trkpt>
      <trkpt lat="45.55599" lon="4.60412">
        <ele>487.229416</ele>
        <time>2025-06-07T07:29:47.046Z</time>
      </trkpt>
      <trkpt lat="45.55589" lon="4.60407">
        <ele>487.681264</ele>
        <time>2025-06-07T07:29:51.042Z</time>
      </trkpt>
      <trkpt lat="45.55578" lon="4.60401">
        <ele>488.144532</ele>
        <time>2025-06-07T07:29:55.043Z</time>
      </trkpt>
      <trkpt lat="45.55568" lon="4.60394">
        <ele>488.627455</ele>
        <time>2025-06-07T07:29:59.040Z</time>
      </trkpt>
      <trkpt lat="45.5556" lon="4.60385">
        <ele>489.045541</ele>
        <time>2025-06-07T07:30:03.046Z</time>
      </trkpt>
      <trkpt lat="45.55552" lon="4.60376">
        <ele>489.482536</ele>
        <time>2025-06-07T07:30:08.047Z</time>
      </trkpt>
      <trkpt lat="45.55544" lon="4.60366">
        <ele>489.922923</ele>
        <time>2025-06-07T07:30:13.044Z</time>
      </trkpt>
      <trkpt lat="45.55537" lon="4.60356">
        <ele>490.299069</ele>
        <time>2025-06-07T07:30:17.049Z</time>
      </trkpt>
      <trkpt lat="45.5553" lon="4.60345">
        <ele>490.499635</ele>
        <time>2025-06-07T07:30:22.036Z</time>
      </trkpt>
      <trkpt lat="45.55523" lon="4.60333">
        <ele>490.556786</ele>
        <time>2025-06-07T07:30:26.046Z</time>
      </trkpt>
      <trkpt lat="45.55517" lon="4.60322">
        <ele>490.61005</ele>
        <time>2025-06-07T07:30:30.056Z</time>
      </trkpt>
      <trkpt lat="45.5551" lon="4.60311">
        <ele>490.663451</ele>
        <time>2025-06-07T07:30:34.047Z</time>
      </trkpt>
      <trkpt lat="45.55503" lon="4.603">
        <ele>490.722091</ele>
        <time>2025-06-07T07:30:39.049Z</time>
      </trkpt>
      <trkpt lat="45.55496" lon="4.60291">
        <ele>490.771428</ele>
        <time>2025-06-07T07:30:43.041Z</time>
      </trkpt>
      <trkpt lat="45.55487" lon="4.6028">
        <ele>490.834553</ele>
        <time>2025-06-07T07:30:47.043Z</time>
      </trkpt>
      <trkpt lat="45.55479" lon="4.60267">
        <ele>490.898307</ele>
        <time>2025-06-07T07:30:51.043Z</time>
      </trkpt>
      <trkpt lat="45.55473" lon="4.60257">
        <ele>490.948521</ele>
        <time>2025-06-07T07:30:54.039Z</time>
      </trkpt>
      <trkpt lat="45.55467" lon="4.60248">
        <ele>490.998371</ele>
        <time>2025-06-07T07:30:58.044Z</time>
      </trkpt>
      <trkpt lat="45.55459" lon="4.60238">
        <ele>491.054075</ele>
        <time>2025-06-07T07:31:02.039Z</time>
      </trkpt>
      <trkpt lat="45.55451" lon="4.60225">
        <ele>491.116909</ele>
        <time>2025-06-07T07:31:06.046Z</time>
      </trkpt>
      <trkpt lat="45.5544" lon="4.60217">
        <ele>491.186172</ele>
        <time>2025-06-07T07:31:09.051Z</time>
      </trkpt>
      <trkpt lat="45.55428" lon="4.6021">
        <ele>491.255954</ele>
        <time>2025-06-07T07:31:11.053Z</time>
      </trkpt>
      <trkpt lat="45.5542" lon="4.60199">
        <ele>491.315118</ele>
        <time>2025-06-07T07:31:13.057Z</time>
      </trkpt>
      <trkpt lat="45.55421" lon="4.60184">
        <ele>491.368978</ele>
        <time>2025-06-07T07:31:15.055Z</time>
      </trkpt>
      <trkpt lat="45.55423" lon="4.60167">
        <ele>491.453657</ele>
        <time>2025-06-07T07:31:18.048Z</time>
      </trkpt>
      <trkpt lat="45.55425" lon="4.6015">
        <ele>491.644582</ele>
        <time>2025-06-07T07:31:21.062Z</time>
      </trkpt>
      <trkpt lat="45.55427" lon="4.60132">
        <ele>491.84075</ele>
        <time>2025-06-07T07:31:24.047Z</time>
      </trkpt>
      <trkpt lat="45.55427" lon="4.60115">
        <ele>492.039004</ele>
        <time>2025-06-07T07:31:27.046Z</time>
      </trkpt>
      <trkpt lat="45.55428" lon="4.60099">
        <ele>492.218868</ele>
        <time>2025-06-07T07:31:30.051Z</time>
      </trkpt>
      <trkpt lat="45.55429" lon="4.60082">
        <ele>492.406385</ele>
        <time>2025-06-07T07:31:33.040Z</time>
      </trkpt>
      <trkpt lat="45.55431" lon="4.60066">
        <ele>492.591975</ele>
        <time>2025-06-07T07:31:36.044Z</time>
      </trkpt>
      <trkpt lat="45.55432" lon="4.60049">
        <ele>492.780607</ele>
        <time>2025-06-07T07:31:39.050Z</time>
      </trkpt>
      <trkpt lat="45.55433" lon="4.60032">
        <ele>492.971192</ele>
        <time>2025-06-07T07:31:42.045Z</time>
      </trkpt>
      <trkpt lat="45.55435" lon="4.60015">
        <ele>493.164202</ele>
        <time>2025-06-07T07:31:45.043Z</time>
      </trkpt>
      <trkpt lat="45.55437" lon="4.59999">
        <ele>493.343832</ele>
        <time>2025-06-07T07:31:48.050Z</time>
      </trkpt>
      <trkpt lat="45.55439" lon="4.59983">
        <ele>493.521865</ele>
        <time>2025-06-07T07:31:51.042Z</time>
      </trkpt>
      <trkpt lat="45.55442" lon="4.59968">
        <ele>493.70352</ele>
        <time>2025-06-07T07:31:54.050Z</time>
      </trkpt>
      <trkpt lat="45.55446" lon="4.59953">
        <ele>493.880434</ele>
        <time>2025-06-07T07:31:57.045Z</time>
      </trkpt>
      <trkpt lat="45.55449" lon="4.59937">
        <ele>494.062503</ele>
        <time>2025-06-07T07:32:00.039Z</time>
      </trkpt>
      <trkpt lat="45.55452" lon="4.5992">
        <ele>494.258598</ele>
        <time>2025-06-07T07:32:03.055Z</time>
      </trkpt>
      <trkpt lat="45.55456" lon="4.59904">
        <ele>494.657858</ele>
        <time>2025-06-07T07:32:06.040Z</time>
      </trkpt>
      <trkpt lat="45.55459" lon="4.59888">
        <ele>495.109166</ele>
        <time>2025-06-07T07:32:09.052Z</time>
      </trkpt>
      <trkpt lat="45.55462" lon="4.59871">
        <ele>495.60657</ele>
        <time>2025-06-07T07:32:12.048Z</time>
      </trkpt>
      <trkpt lat="45.55468" lon="4.59855">
        <ele>496.073466</ele>
        <time>2025-06-07T07:32:15.050Z</time>
      </trkpt>
      <trkpt lat="45.55477" lon="4.59841">
        <ele>496.606128</ele>
        <time>2025-06-07T07:32:18.054Z</time>
      </trkpt>
      <trkpt lat="45.55484" lon="4.59829">
        <ele>497.009076</ele>
        <time>2025-06-07T07:32:20.030Z</time>
      </trkpt>
      <trkpt lat="45.55489" lon="4.59818">
        <ele>497.387119</ele>
        <time>2025-06-07T07:32:22.040Z</time>
      </trkpt>
      <trkpt lat="45.55494" lon="4.59806">
        <ele>497.757222</ele>
        <time>2025-06-07T07:32:24.040Z</time>
      </trkpt>
      <trkpt lat="45.55498" lon="4.59793">
        <ele>498.13818</ele>
        <time>2025-06-07T07:32:26.045Z</time>
      </trkpt>
      <trkpt lat="45.55501" lon="4.5978">
        <ele>498.508574</ele>
        <time>2025-06-07T07:32:28.056Z</time>
      </trkpt>
      <trkpt lat="45.55503" lon="4.59768">
        <ele>498.864609</ele>
        <time>2025-06-07T07:32:30.038Z</time>
      </trkpt>
      <trkpt lat="45.55506" lon="4.59749">
        <ele>499.376853</ele>
        <time>2025-06-07T07:32:33.043Z</time>
      </trkpt>
      <trkpt lat="45.55507" lon="4.59731">
        <ele>499.865661</ele>
        <time>2025-06-07T07:32:36.047Z</time>
      </trkpt>
      <trkpt lat="45.55511" lon="4.59716">
        <ele>500.29545</ele>
        <time>2025-06-07T07:32:39.040Z</time>
      </trkpt>
      <trkpt lat="45.55514" lon="4.59702">
        <ele>500.696609</ele>
        <time>2025-06-07T07:32:42.059Z</time>
      </trkpt>
      <trkpt lat="45.5552" lon="4.59689">
        <ele>501.112626</ele>
        <time>2025-06-07T07:32:45.039Z</time>
      </trkpt>
      <trkpt lat="45.55527" lon="4.59678">
        <ele>501.509139</ele>
        <time>2025-06-07T07:32:48.051Z</time>
      </trkpt>
      <trkpt lat="45.55533" lon="4.59667">
        <ele>501.887211</ele>
        <time>2025-06-07T07:32:51.040Z</time>
      </trkpt>
      <trkpt lat="45.55541" lon="4.59657">
        <ele>502.272672</ele>
        <time>2025-06-07T07:32:54.050Z</time>
      </trkpt>
      <trkpt lat="45.55549" lon="4.59647">
        <ele>502.688449</ele>
        <time>2025-06-07T07:32:57.050Z</time>
      </trkpt>
      <trkpt lat="45.55557" lon="4.59636">
        <ele>503.102274</ele>
        <time>2025-06-07T07:33:00.028Z</time>
      </trkpt>
      <trkpt lat="45.55565" lon="4.59625">
        <ele>503.530794</ele>
        <time>2025-06-07T07:33:03.044Z</time>
      </trkpt>
      <trkpt lat="45.55573" lon="4.59613">
        <ele>503.959547</ele>
        <time>2025-06-07T07:33:06.043Z</time>
      </trkpt>
      <trkpt lat="45.5558" lon="4.59602">
        <ele>504.370068</ele>
        <time>2025-06-07T07:33:09.046Z</time>
      </trkpt>
      <trkpt lat="45.55587" lon="4.59591">
        <ele>504.781831</ele>
        <time>2025-06-07T07:33:12.047Z</time>
      </trkpt>
      <trkpt lat="45.55594" lon="4.5958">
        <ele>505.15527</ele>
        <time>2025-06-07T07:33:15.045Z</time>
      </trkpt>
      <trkpt lat="45.55599" lon="4.59568">
        <ele>505.517547</ele>
        <time>2025-06-07T07:33:18.044Z</time>
      </trkpt>
      <trkpt lat="45.55605" lon="4.59556">
        <ele>505.923075</ele>
        <time>2025-06-07T07:33:21.042Z</time>
      </trkpt>
      <trkpt lat="45.55609" lon="4.59543">
        <ele>506.301879</ele>
        <time>2025-06-07T07:33:24.049Z</time>
      </trkpt>
      <trkpt lat="45.55614" lon="4.59528">
        <ele>506.736814</ele>
        <time>2025-06-07T07:33:27.043Z</time>
      </trkpt>
      <trkpt lat="45.55619" lon="4.59515">
        <ele>507.13266</ele>
        <time>2025-06-07T07:33:30.040Z</time>
      </trkpt>
      <trkpt lat="45.55624" lon="4.59502">
        <ele>507.526147</ele>
        <time>2025-06-07T07:33:33.044Z</time>
      </trkpt>
      <trkpt lat="45.55629" lon="4.59488">
        <ele>507.963818</ele>
        <time>2025-06-07T07:33:36.049Z</time>
      </trkpt>
      <trkpt lat="45.55635" lon="4.59474">
        <ele>508.404411</ele>
        <time>2025-06-07T07:33:39.041Z</time>
      </trkpt>
      <trkpt lat="45.55642" lon="4.59462">
        <ele>508.827545</ele>
        <time>2025-06-07T07:33:42.042Z</time>
      </trkpt>
      <trkpt lat="45.55649" lon="4.59451">
        <ele>509.234622</ele>
        <time>2025-06-07T07:33:45.050Z</time>
      </trkpt>
      <trkpt lat="45.55657" lon="4.59441">
        <ele>509.647258</ele>
        <time>2025-06-07T07:33:48.046Z</time>
      </trkpt>
      <trkpt lat="45.55665" lon="4.59431">
        <ele>510.057714</ele>
        <time>2025-06-07T07:33:51.047Z</time>
      </trkpt>
      <trkpt lat="45.55672" lon="4.59421">
        <ele>510.446891</ele>
        <time>2025-06-07T07:33:54.039Z</time>
      </trkpt>
      <trkpt lat="45.5568" lon="4.59412">
        <ele>510.844307</ele>
        <time>2025-06-07T07:33:57.046Z</time>
      </trkpt>
      <trkpt lat="45.55687" lon="4.59403">
        <ele>511.232208</ele>
        <time>2025-06-07T07:34:00.038Z</time>
      </trkpt>
      <trkpt lat="45.55695" lon="4.59393">
        <ele>511.628792</ele>
        <time>2025-06-07T07:34:03.043Z</time>
      </trkpt>
      <trkpt lat="45.55702" lon="4.59384">
        <ele>512.00804</ele>
        <time>2025-06-07T07:34:06.046Z</time>
      </trkpt>
      <trkpt lat="45.5571" lon="4.59375">
        <ele>512.379343</ele>
        <time>2025-06-07T07:34:09.045Z</time>
      </trkpt>
      <trkpt lat="45.55716" lon="4.59366">
        <ele>512.739026</ele>
        <time>2025-06-07T07:34:12.038Z</time>
      </trkpt>
      <trkpt lat="45.55722" lon="4.59355">
        <ele>513.116136</ele>
        <time>2025-06-07T07:34:15.044Z</time>
      </trkpt>
      <trkpt lat="45.55726" lon="4.59342">
        <ele>513.505938</ele>
        <time>2025-06-07T07:34:18.051Z</time>
      </trkpt>
      <trkpt lat="45.55729" lon="4.59329">
        <ele>513.884632</ele>
        <time>2025-06-07T07:34:21.059Z</time>
      </trkpt>
      <trkpt lat="45.55732" lon="4.59316">
        <ele>514.262797</ele>
        <time>2025-06-07T07:34:24.044Z</time>
      </trkpt>
      <trkpt lat="45.55734" lon="4.59303">
        <ele>514.625501</ele>
        <time>2025-06-07T07:34:27.042Z</time>
      </trkpt>
      <trkpt lat="45.55734" lon="4.59289">
        <ele>515.000711</ele>
        <time>2025-06-07T07:34:30.041Z</time>
      </trkpt>
      <trkpt lat="45.55734" lon="4.59275">
        <ele>515.383873</ele>
        <time>2025-06-07T07:34:33.041Z</time>
      </trkpt>
      <trkpt lat="45.55732" lon="4.59261">
        <ele>515.739857</ele>
        <time>2025-06-07T07:34:36.038Z</time>
      </trkpt>
      <trkpt lat="45.5573" lon="4.59248">
        <ele>516.101948</ele>
        <time>2025-06-07T07:34:39.044Z</time>
      </trkpt>
      <trkpt lat="45.55727" lon="4.59235">
        <ele>516.470672</ele>
        <time>2025-06-07T07:34:42.050Z</time>
      </trkpt>
      <trkpt lat="45.55721" lon="4.59221">
        <ele>516.891132</ele>
        <time>2025-06-07T07:34:45.043Z</time>
      </trkpt>
      <trkpt lat="45.55715" lon="4.59209">
        <ele>517.284932</ele>
        <time>2025-06-07T07:34:48.050Z</time>
      </trkpt>
      <trkpt lat="45.55708" lon="4.59197">
        <ele>517.667342</ele>
        <time>2025-06-07T07:34:51.042Z</time>
      </trkpt>
      <trkpt lat="45.55701" lon="4.59187">
        <ele>518.040227</ele>
        <time>2025-06-07T07:34:54.042Z</time>
      </trkpt>
      <trkpt lat="45.55693" lon="4.59179">
        <ele>518.418351</ele>
        <time>2025-06-07T07:34:57.046Z</time>
      </trkpt>
      <trkpt lat="45.55684" lon="4.59171">
        <ele>518.801264</ele>
        <time>2025-06-07T07:35:00.075Z</time>
      </trkpt>
      <trkpt lat="45.55674" lon="4.59166">
        <ele>519.197581</ele>
        <time>2025-06-07T07:35:03.037Z</time>
      </trkpt>
      <trkpt lat="45.55664" lon="4.59162">
        <ele>519.581433</ele>
        <time>2025-06-07T07:35:06.043Z</time>
      </trkpt>
      <trkpt lat="45.55654" lon="4.59159">
        <ele>519.98226</ele>
        <time>2025-06-07T07:35:09.044Z</time>
      </trkpt>
      <trkpt lat="45.55643" lon="4.59159">
        <ele>520.37774</ele>
        <time>2025-06-07T07:35:12.052Z</time>
      </trkpt>
      <trkpt lat="45.55633" lon="4.59161">
        <ele>520.741224</ele>
        <time>2025-06-07T07:35:15.039Z</time>
      </trkpt>
      <trkpt lat="45.55624" lon="4.59164">
        <ele>521.111528</ele>
        <time>2025-06-07T07:35:18.038Z</time>
      </trkpt>
      <trkpt lat="45.55614" lon="4.5917">
        <ele>521.496736</ele>
        <time>2025-06-07T07:35:21.032Z</time>
      </trkpt>
      <trkpt lat="45.55605" lon="4.59179">
        <ele>521.886682</ele>
        <time>2025-06-07T07:35:24.052Z</time>
      </trkpt>
      <trkpt lat="45.55597" lon="4.59189">
        <ele>522.194888</ele>
        <time>2025-06-07T07:35:27.043Z</time>
      </trkpt>
      <trkpt lat="45.55589" lon="4.59201">
        <ele>522.522056</ele>
        <time>2025-06-07T07:35:30.057Z</time>
      </trkpt>
      <trkpt lat="45.55582" lon="4.59214">
        <ele>522.843439</ele>
        <time>2025-06-07T07:35:33.039Z</time>
      </trkpt>
      <trkpt lat="45.55576" lon="4.59227">
        <ele>523.159478</ele>
        <time>2025-06-07T07:35:36.050Z</time>
      </trkpt>
      <trkpt lat="45.55568" lon="4.59239">
        <ele>523.473498</ele>
        <time>2025-06-07T07:35:39.040Z</time>
      </trkpt>
      <trkpt lat="45.55561" lon="4.59251">
        <ele>523.790855</ele>
        <time>2025-06-07T07:35:42.036Z</time>
      </trkpt>
      <trkpt lat="45.55553" lon="4.59261">
        <ele>524.092504</ele>
        <time>2025-06-07T07:35:45.048Z</time>
      </trkpt>
      <trkpt lat="45.55542" lon="4.59268">
        <ele>524.419031</ele>
        <time>2025-06-07T07:35:48.032Z</time>
      </trkpt>
      <trkpt lat="45.55531" lon="4.59274">
        <ele>524.758872</ele>
        <time>2025-06-07T07:35:51.046Z</time>
      </trkpt>
      <trkpt lat="45.55519" lon="4.59277">
        <ele>525.093314</ele>
        <time>2025-06-07T07:35:54.048Z</time>
      </trkpt>
      <trkpt lat="45.55508" lon="4.59279">
        <ele>525.417241</ele>
        <time>2025-06-07T07:35:57.058Z</time>
      </trkpt>
      <trkpt lat="45.55497" lon="4.59281">
        <ele>525.743975</ele>
        <time>2025-06-07T07:36:00.029Z</time>
      </trkpt>
      <trkpt lat="45.55485" lon="4.59283">
        <ele>526.071665</ele>
        <time>2025-06-07T07:36:03.040Z</time>
      </trkpt>
      <trkpt lat="45.55474" lon="4.59286">
        <ele>526.393138</ele>
        <time>2025-06-07T07:36:06.037Z</time>
      </trkpt>
      <trkpt lat="45.55463" lon="4.59288">
        <ele>526.698449</ele>
        <time>2025-06-07T07:36:09.049Z</time>
      </trkpt>
      <trkpt lat="45.55453" lon="4.5929">
        <ele>527.000105</ele>
        <time>2025-06-07T07:36:12.045Z</time>
      </trkpt>
      <trkpt lat="45.55442" lon="4.59293">
        <ele>527.314376</ele>
        <time>2025-06-07T07:36:15.042Z</time>
      </trkpt>
      <trkpt lat="45.55431" lon="4.59295">
        <ele>527.621697</ele>
        <time>2025-06-07T07:36:18.040Z</time>
      </trkpt>
      <trkpt lat="45.55421" lon="4.59297">
        <ele>527.918818</ele>
        <time>2025-06-07T07:36:21.032Z</time>
      </trkpt>
      <trkpt lat="45.55411" lon="4.593">
        <ele>528.215273</ele>
        <time>2025-06-07T07:36:24.041Z</time>
      </trkpt>
      <trkpt lat="45.55401" lon="4.59301">
        <ele>528.5203</ele>
        <time>2025-06-07T07:36:27.043Z</time>
      </trkpt>
      <trkpt lat="45.5539" lon="4.59302">
        <ele>528.826378</ele>
        <time>2025-06-07T07:36:30.055Z</time>
      </trkpt>
      <trkpt lat="45.55379" lon="4.59304">
        <ele>529.144921</ele>
        <time>2025-06-07T07:36:33.037Z</time>
      </trkpt>
      <trkpt lat="45.55369" lon="4.59306">
        <ele>529.457714</ele>
        <time>2025-06-07T07:36:36.057Z</time>
      </trkpt>
      <trkpt lat="45.55357" lon="4.59307">
        <ele>529.786013</ele>
        <time>2025-06-07T07:36:39.036Z</time>
      </trkpt>
      <trkpt lat="45.55346" lon="4.59308">
        <ele>530.110711</ele>
        <time>2025-06-07T07:36:42.045Z</time>
      </trkpt>
      <trkpt lat="45.55335" lon="4.59307">
        <ele>530.438879</ele>
        <time>2025-06-07T07:36:45.050Z</time>
      </trkpt>
      <trkpt lat="45.55324" lon="4.59306">
        <ele>530.741014</ele>
        <time>2025-06-07T07:36:48.057Z</time>
      </trkpt>
      <trkpt lat="45.55314" lon="4.59304">
        <ele>531.052461</ele>
        <time>2025-06-07T07:36:51.038Z</time>
      </trkpt>
      <trkpt lat="45.55303" lon="4.59303">
        <ele>531.358135</ele>
        <time>2025-06-07T07:36:54.054Z</time>
      </trkpt>
      <trkpt lat="45.55292" lon="4.59301">
        <ele>531.675745</ele>
        <time>2025-06-07T07:36:57.042Z</time>
      </trkpt>
      <trkpt lat="45.55282" lon="4.59299">
        <ele>531.989387</ele>
        <time>2025-06-07T07:37:00.043Z</time>
      </trkpt>
      <trkpt lat="45.55272" lon="4.59296">
        <ele>532.161136</ele>
        <time>2025-06-07T07:37:03.043Z</time>
      </trkpt>
      <trkpt lat="45.55263" lon="4.59292">
        <ele>532.184856</ele>
        <time>2025-06-07T07:37:06.027Z</time>
      </trkpt>
      <trkpt lat="45.55254" lon="4.59288">
        <ele>532.207667</ele>
        <time>2025-06-07T07:37:09.042Z</time>
      </trkpt>
      <trkpt lat="45.55245" lon="4.59281">
        <ele>532.23518</ele>
        <time>2025-06-07T07:37:12.040Z</time>
      </trkpt>
      <trkpt lat="45.55234" lon="4.59274">
        <ele>532.263652</ele>
        <time>2025-06-07T07:37:15.043Z</time>
      </trkpt>
      <trkpt lat="45.55224" lon="4.59268">
        <ele>532.292052</ele>
        <time>2025-06-07T07:37:18.041Z</time>
      </trkpt>
      <trkpt lat="45.55216" lon="4.59262">
        <ele>532.314905</ele>
        <time>2025-06-07T07:37:20.043Z</time>
      </trkpt>
      <trkpt lat="45.55204" lon="4.59256">
        <ele>532.347623</ele>
        <time>2025-06-07T07:37:23.053Z</time>
      </trkpt>
      <trkpt lat="45.55193" lon="4.59249">
        <ele>532.376183</ele>
        <time>2025-06-07T07:37:26.048Z</time>
      </trkpt>
      <trkpt lat="45.55183" lon="4.59241">
        <ele>532.405754</ele>
        <time>2025-06-07T07:37:29.043Z</time>
      </trkpt>
      <trkpt lat="45.55172" lon="4.59234">
        <ele>532.436495</ele>
        <time>2025-06-07T07:37:32.040Z</time>
      </trkpt>
      <trkpt lat="45.55161" lon="4.59227">
        <ele>532.468005</ele>
        <time>2025-06-07T07:37:35.042Z</time>
      </trkpt>
      <trkpt lat="45.55149" lon="4.59219">
        <ele>532.499885</ele>
        <time>2025-06-07T07:37:38.038Z</time>
      </trkpt>
      <trkpt lat="45.55138" lon="4.59211">
        <ele>532.530511</ele>
        <time>2025-06-07T07:37:41.045Z</time>
      </trkpt>
      <trkpt lat="45.55127" lon="4.59202">
        <ele>532.56197</ele>
        <time>2025-06-07T07:37:44.040Z</time>
      </trkpt>
      <trkpt lat="45.55117" lon="4.59192">
        <ele>532.594433</ele>
        <time>2025-06-07T07:37:47.047Z</time>
      </trkpt>
      <trkpt lat="45.55105" lon="4.59184">
        <ele>532.540061</ele>
        <time>2025-06-07T07:37:50.048Z</time>
      </trkpt>
      <trkpt lat="45.55097" lon="4.59179">
        <ele>532.480426</ele>
        <time>2025-06-07T07:37:52.038Z</time>
      </trkpt>
      <trkpt lat="45.55088" lon="4.59173">
        <ele>532.418659</ele>
        <time>2025-06-07T07:37:54.028Z</time>
      </trkpt>
      <trkpt lat="45.55079" lon="4.59167">
        <ele>532.354033</ele>
        <time>2025-06-07T07:37:56.035Z</time>
      </trkpt>
      <trkpt lat="45.5507" lon="4.59161">
        <ele>532.286283</ele>
        <time>2025-06-07T07:37:58.029Z</time>
      </trkpt>
      <trkpt lat="45.5506" lon="4.59156">
        <ele>532.217277</ele>
        <time>2025-06-07T07:38:00.043Z</time>
      </trkpt>
      <trkpt lat="45.55051" lon="4.5915">
        <ele>532.148688</ele>
        <time>2025-06-07T07:38:02.043Z</time>
      </trkpt>
      <trkpt lat="45.55041" lon="4.59145">
        <ele>532.077912</ele>
        <time>2025-06-07T07:38:04.042Z</time>
      </trkpt>
      <trkpt lat="45.55031" lon="4.59139">
        <ele>532.005735</ele>
        <time>2025-06-07T07:38:06.036Z</time>
      </trkpt>
      <trkpt lat="45.55021" lon="4.59134">
        <ele>531.934107</ele>
        <time>2025-06-07T07:38:08.039Z</time>
      </trkpt>
      <trkpt lat="45.5501" lon="4.59127">
        <ele>531.860289</ele>
        <time>2025-06-07T07:38:10.037Z</time>
      </trkpt>
      <trkpt lat="45.55" lon="4.59122">
        <ele>531.785629</ele>
        <time>2025-06-07T07:38:12.040Z</time>
      </trkpt>
      <trkpt lat="45.54989" lon="4.59117">
        <ele>531.71102</ele>
        <time>2025-06-07T07:38:14.029Z</time>
      </trkpt>
      <trkpt lat="45.54978" lon="4.59113">
        <ele>531.63395</ele>
        <time>2025-06-07T07:38:16.044Z</time>
      </trkpt>
      <trkpt lat="45.54967" lon="4.59111">
        <ele>531.565005</ele>
        <time>2025-06-07T07:38:18.045Z</time>
      </trkpt>
      <trkpt lat="45.54958" lon="4.59106">
        <ele>531.502134</ele>
        <time>2025-06-07T07:38:22.039Z</time>
      </trkpt>
      <trkpt lat="45.54964" lon="4.59096">
        <ele>531.441086</ele>
        <time>2025-06-07T07:38:27.046Z</time>
      </trkpt>
      <trkpt lat="45.54972" lon="4.59089">
        <ele>531.524343</ele>
        <time>2025-06-07T07:38:30.048Z</time>
      </trkpt>
      <trkpt lat="45.54982" lon="4.5908">
        <ele>531.786361</ele>
        <time>2025-06-07T07:38:34.033Z</time>
      </trkpt>
      <trkpt lat="45.5499" lon="4.59068">
        <ele>532.045528</ele>
        <time>2025-06-07T07:38:38.037Z</time>
      </trkpt>
      <trkpt lat="45.54994" lon="4.59054">
        <ele>532.278657</ele>
        <time>2025-06-07T07:38:42.025Z</time>
      </trkpt>
      <trkpt lat="45.55" lon="4.59042">
        <ele>532.514535</ele>
        <time>2025-06-07T07:38:47.050Z</time>
      </trkpt>
      <trkpt lat="45.55009" lon="4.59043">
        <ele>532.718361</ele>
        <time>2025-06-07T07:38:50.040Z</time>
      </trkpt>
      <trkpt lat="45.55018" lon="4.59044">
        <ele>532.929322</ele>
        <time>2025-06-07T07:38:53.046Z</time>
      </trkpt>
      <trkpt lat="45.55029" lon="4.59041">
        <ele>533.189396</ele>
        <time>2025-06-07T07:38:57.047Z</time>
      </trkpt>
      <trkpt lat="45.55034" lon="4.59029">
        <ele>533.401637</ele>
        <time>2025-06-07T07:39:00.042Z</time>
      </trkpt>
      <trkpt lat="45.55039" lon="4.59013">
        <ele>533.668291</ele>
        <time>2025-06-07T07:39:04.038Z</time>
      </trkpt>
      <trkpt lat="45.55043" lon="4.59002">
        <ele>533.872451</ele>
        <time>2025-06-07T07:39:07.046Z</time>
      </trkpt>
      <trkpt lat="45.55047" lon="4.5899">
        <ele>534.086108</ele>
        <time>2025-06-07T07:39:10.037Z</time>
      </trkpt>
      <trkpt lat="45.55051" lon="4.58977">
        <ele>534.311287</ele>
        <time>2025-06-07T07:39:13.055Z</time>
      </trkpt>
      <trkpt lat="45.55056" lon="4.58964">
        <ele>534.539304</ele>
        <time>2025-06-07T07:39:16.040Z</time>
      </trkpt>
      <trkpt lat="45.55061" lon="4.58952">
        <ele>534.766232</ele>
        <time>2025-06-07T07:39:19.048Z</time>
      </trkpt>
      <trkpt lat="45.55065" lon="4.58939">
        <ele>534.982991</ele>
        <time>2025-06-07T07:39:22.043Z</time>
      </trkpt>
      <trkpt lat="45.55066" lon="4.58923">
        <ele>535.241669</ele>
        <time>2025-06-07T07:39:25.045Z</time>
      </trkpt>
      <trkpt lat="45.55065" lon="4.58904">
        <ele>535.344521</ele>
        <time>2025-06-07T07:39:28.054Z</time>
      </trkpt>
      <trkpt lat="45.55064" lon="4.5889">
        <ele>534.953318</ele>
        <time>2025-06-07T07:39:30.055Z</time>
      </trkpt>
      <trkpt lat="45.55064" lon="4.58877">
        <ele>534.556961</ele>
        <time>2025-06-07T07:39:32.050Z</time>
      </trkpt>
      <trkpt lat="45.55067" lon="4.58863">
        <ele>534.119526</ele>
        <time>2025-06-07T07:39:34.061Z</time>
      </trkpt>
      <trkpt lat="45.55071" lon="4.58848">
        <ele>533.661269</ele>
        <time>2025-06-07T07:39:36.041Z</time>
      </trkpt>
      <trkpt lat="45.55076" lon="4.58833">
        <ele>533.156951</ele>
        <time>2025-06-07T07:39:39.044Z</time>
      </trkpt>
      <trkpt lat="45.55083" lon="4.58822">
        <ele>532.715517</ele>
        <time>2025-06-07T07:39:43.037Z</time>
      </trkpt>
      <trkpt lat="45.55095" lon="4.58823">
        <ele>532.215583</ele>
        <time>2025-06-07T07:39:46.044Z</time>
      </trkpt>
      <trkpt lat="45.55106" lon="4.58823">
        <ele>531.721839</ele>
        <time>2025-06-07T07:39:49.040Z</time>
      </trkpt>
      <trkpt lat="45.55119" lon="4.58824">
        <ele>531.189909</ele>
        <time>2025-06-07T07:39:52.034Z</time>
      </trkpt>
      <trkpt lat="45.55131" lon="4.58824">
        <ele>530.68347</ele>
        <time>2025-06-07T07:39:55.040Z</time>
      </trkpt>
      <trkpt lat="45.55143" lon="4.58821">
        <ele>530.183783</ele>
        <time>2025-06-07T07:39:58.051Z</time>
      </trkpt>
      <trkpt lat="45.55155" lon="4.58818">
        <ele>529.666498</ele>
        <time>2025-06-07T07:40:01.040Z</time>
      </trkpt>
      <trkpt lat="45.55167" lon="4.58814">
        <ele>529.154006</ele>
        <time>2025-06-07T07:40:04.036Z</time>
      </trkpt>
      <trkpt lat="45.55175" lon="4.58807">
        <ele>528.749409</ele>
        <time>2025-06-07T07:40:06.041Z</time>
      </trkpt>
      <trkpt lat="45.55184" lon="4.588">
        <ele>528.319935</ele>
        <time>2025-06-07T07:40:08.039Z</time>
      </trkpt>
      <trkpt lat="45.55193" lon="4.58791">
        <ele>527.874721</ele>
        <time>2025-06-07T07:40:10.045Z</time>
      </trkpt>
      <trkpt lat="45.55201" lon="4.58781">
        <ele>527.617247</ele>
        <time>2025-06-07T07:40:12.051Z</time>
      </trkpt>
      <trkpt lat="45.55208" lon="4.5877">
        <ele>527.35567</ele>
        <time>2025-06-07T07:40:14.035Z</time>
      </trkpt>
      <trkpt lat="45.55214" lon="4.58757">
        <ele>527.091734</ele>
        <time>2025-06-07T07:40:16.053Z</time>
      </trkpt>
      <trkpt lat="45.55218" lon="4.58745">
        <ele>526.858671</ele>
        <time>2025-06-07T07:40:18.045Z</time>
      </trkpt>
      <trkpt lat="45.55221" lon="4.58732">
        <ele>526.628989</ele>
        <time>2025-06-07T07:40:20.074Z</time>
      </trkpt>
      <trkpt lat="45.55224" lon="4.58718">
        <ele>526.374211</ele>
        <time>2025-06-07T07:40:22.054Z</time>
      </trkpt>
      <trkpt lat="45.55229" lon="4.58704">
        <ele>526.113407</ele>
        <time>2025-06-07T07:40:24.043Z</time>
      </trkpt>
      <trkpt lat="45.55233" lon="4.5869">
        <ele>525.864185</ele>
        <time>2025-06-07T07:40:26.048Z</time>
      </trkpt>
      <trkpt lat="45.55236" lon="4.58676">
        <ele>525.619273</ele>
        <time>2025-06-07T07:40:28.052Z</time>
      </trkpt>
      <trkpt lat="45.55239" lon="4.58663">
        <ele>525.372786</ele>
        <time>2025-06-07T07:40:30.046Z</time>
      </trkpt>
      <trkpt lat="45.55242" lon="4.58649">
        <ele>525.126827</ele>
        <time>2025-06-07T07:40:32.047Z</time>
      </trkpt>
      <trkpt lat="45.55244" lon="4.58634">
        <ele>524.873569</ele>
        <time>2025-06-07T07:40:34.044Z</time>
      </trkpt>
      <trkpt lat="45.55245" lon="4.58619">
        <ele>524.607682</ele>
        <time>2025-06-07T07:40:36.040Z</time>
      </trkpt>
      <trkpt lat="45.55245" lon="4.58603">
        <ele>524.335962</ele>
        <time>2025-06-07T07:40:38.064Z</time>
      </trkpt>
      <trkpt lat="45.55243" lon="4.58586">
        <ele>524.0511</ele>
        <time>2025-06-07T07:40:40.048Z</time>
      </trkpt>
      <trkpt lat="45.55239" lon="4.5857">
        <ele>523.761258</ele>
        <time>2025-06-07T07:40:42.044Z</time>
      </trkpt>
      <trkpt lat="45.55235" lon="4.58556">
        <ele>523.516838</ele>
        <time>2025-06-07T07:40:44.044Z</time>
      </trkpt>
      <trkpt lat="45.5523" lon="4.58543">
        <ele>523.37704</ele>
        <time>2025-06-07T07:40:46.040Z</time>
      </trkpt>
      <trkpt lat="45.55224" lon="4.58532">
        <ele>523.239627</ele>
        <time>2025-06-07T07:40:48.054Z</time>
      </trkpt>
      <trkpt lat="45.55216" lon="4.58522">
        <ele>523.099789</ele>
        <time>2025-06-07T07:40:50.052Z</time>
      </trkpt>
      <trkpt lat="45.55208" lon="4.58513">
        <ele>522.962798</ele>
        <time>2025-06-07T07:40:52.051Z</time>
      </trkpt>
      <trkpt lat="45.55199" lon="4.58506">
        <ele>522.828803</ele>
        <time>2025-06-07T07:40:54.047Z</time>
      </trkpt>
      <trkpt lat="45.5519" lon="4.58499">
        <ele>522.688931</ele>
        <time>2025-06-07T07:40:56.059Z</time>
      </trkpt>
      <trkpt lat="45.5518" lon="4.58493">
        <ele>522.538479</ele>
        <time>2025-06-07T07:40:58.050Z</time>
      </trkpt>
      <trkpt lat="45.55169" lon="4.58486">
        <ele>522.384299</ele>
        <time>2025-06-07T07:41:00.050Z</time>
      </trkpt>
      <trkpt lat="45.55159" lon="4.5848">
        <ele>522.234338</ele>
        <time>2025-06-07T07:41:02.043Z</time>
      </trkpt>
      <trkpt lat="45.5515" lon="4.58474">
        <ele>522.097363</ele>
        <time>2025-06-07T07:41:04.048Z</time>
      </trkpt>
      <trkpt lat="45.5514" lon="4.58469">
        <ele>521.962931</ele>
        <time>2025-06-07T07:41:06.043Z</time>
      </trkpt>
      <trkpt lat="45.55132" lon="4.58463">
        <ele>521.83451</ele>
        <time>2025-06-07T07:41:08.059Z</time>
      </trkpt>
      <trkpt lat="45.55123" lon="4.58456">
        <ele>521.703096</ele>
        <time>2025-06-07T07:41:10.039Z</time>
      </trkpt>
      <trkpt lat="45.55115" lon="4.58448">
        <ele>521.566072</ele>
        <time>2025-06-07T07:41:12.056Z</time>
      </trkpt>
      <trkpt lat="45.55107" lon="4.58438">
        <ele>521.426321</ele>
        <time>2025-06-07T07:41:14.054Z</time>
      </trkpt>
      <trkpt lat="45.551" lon="4.58428">
        <ele>521.293995</ele>
        <time>2025-06-07T07:41:16.050Z</time>
      </trkpt>
      <trkpt lat="45.55095" lon="4.58416">
        <ele>521.159602</ele>
        <time>2025-06-07T07:41:18.045Z</time>
      </trkpt>
      <trkpt lat="45.5509" lon="4.58404">
        <ele>521.069849</ele>
        <time>2025-06-07T07:41:20.054Z</time>
      </trkpt>
      <trkpt lat="45.55086" lon="4.5839">
        <ele>521.003936</ele>
        <time>2025-06-07T07:41:22.039Z</time>
      </trkpt>
      <trkpt lat="45.55082" lon="4.58372">
        <ele>520.921513</ele>
        <time>2025-06-07T07:41:25.043Z</time>
      </trkpt>
      <trkpt lat="45.5508" lon="4.58354">
        <ele>520.843938</ele>
        <time>2025-06-07T07:41:28.047Z</time>
      </trkpt>
      <trkpt lat="45.55081" lon="4.58337">
        <ele>520.766242</ele>
        <time>2025-06-07T07:41:31.048Z</time>
      </trkpt>
      <trkpt lat="45.55081" lon="4.58324">
        <ele>520.708803</ele>
        <time>2025-06-07T07:41:33.034Z</time>
      </trkpt>
      <trkpt lat="45.55084" lon="4.5831">
        <ele>520.647365</ele>
        <time>2025-06-07T07:41:35.037Z</time>
      </trkpt>
      <trkpt lat="45.55088" lon="4.58297">
        <ele>520.584763</ele>
        <time>2025-06-07T07:41:37.030Z</time>
      </trkpt>
      <trkpt lat="45.55092" lon="4.58284">
        <ele>520.52099</ele>
        <time>2025-06-07T07:41:39.037Z</time>
      </trkpt>
      <trkpt lat="45.55098" lon="4.58272">
        <ele>520.457119</ele>
        <time>2025-06-07T07:41:41.044Z</time>
      </trkpt>
      <trkpt lat="45.55105" lon="4.58261">
        <ele>520.393916</ele>
        <time>2025-06-07T07:41:43.039Z</time>
      </trkpt>
      <trkpt lat="45.55113" lon="4.5825">
        <ele>520.324892</ele>
        <time>2025-06-07T07:41:46.061Z</time>
      </trkpt>
      <trkpt lat="45.5512" lon="4.58242">
        <ele>520.263516</ele>
        <time>2025-06-07T07:41:53.047Z</time>
      </trkpt>
      <trkpt lat="45.55138" lon="4.58228">
        <ele>520.138336</ele>
        <time>2025-06-07T07:42:41.048Z</time>
      </trkpt>
      <trkpt lat="45.5515" lon="4.58223">
        <ele>520.061554</ele>
        <time>2025-06-07T07:42:44.055Z</time>
      </trkpt>
      <trkpt lat="45.55159" lon="4.5822">
        <ele>520.003229</ele>
        <time>2025-06-07T07:42:46.048Z</time>
      </trkpt>
      <trkpt lat="45.55168" lon="4.58216">
        <ele>519.991257</ele>
        <time>2025-06-07T07:42:48.049Z</time>
      </trkpt>
      <trkpt lat="45.55178" lon="4.58212">
        <ele>520.002651</ele>
        <time>2025-06-07T07:42:50.044Z</time>
      </trkpt>
      <trkpt lat="45.55187" lon="4.58206">
        <ele>520.014103</ele>
        <time>2025-06-07T07:42:52.045Z</time>
      </trkpt>
      <trkpt lat="45.55195" lon="4.58198">
        <ele>520.024698</ele>
        <time>2025-06-07T07:42:54.038Z</time>
      </trkpt>
      <trkpt lat="45.55203" lon="4.58189">
        <ele>520.035579</ele>
        <time>2025-06-07T07:42:56.052Z</time>
      </trkpt>
      <trkpt lat="45.55209" lon="4.58178">
        <ele>520.046899</ele>
        <time>2025-06-07T07:42:58.046Z</time>
      </trkpt>
      <trkpt lat="45.55214" lon="4.58164">
        <ele>520.058656</ele>
        <time>2025-06-07T07:43:00.043Z</time>
      </trkpt>
      <trkpt lat="45.55218" lon="4.58149">
        <ele>520.070934</ele>
        <time>2025-06-07T07:43:02.037Z</time>
      </trkpt>
      <trkpt lat="45.55219" lon="4.58133">
        <ele>520.083957</ele>
        <time>2025-06-07T07:43:04.055Z</time>
      </trkpt>
      <trkpt lat="45.55219" lon="4.58116">
        <ele>520.097277</ele>
        <time>2025-06-07T07:43:06.047Z</time>
      </trkpt>
      <trkpt lat="45.55217" lon="4.58099">
        <ele>520.110799</ele>
        <time>2025-06-07T07:43:08.041Z</time>
      </trkpt>
      <trkpt lat="45.55214" lon="4.58083">
        <ele>520.123261</ele>
        <time>2025-06-07T07:43:10.052Z</time>
      </trkpt>
      <trkpt lat="45.55208" lon="4.58069">
        <ele>520.136133</ele>
        <time>2025-06-07T07:43:12.050Z</time>
      </trkpt>
      <trkpt lat="45.55201" lon="4.58057">
        <ele>520.148441</ele>
        <time>2025-06-07T07:43:14.036Z</time>
      </trkpt>
      <trkpt lat="45.55193" lon="4.58047">
        <ele>520.160153</ele>
        <time>2025-06-07T07:43:16.060Z</time>
      </trkpt>
      <trkpt lat="45.55184" lon="4.58039">
        <ele>520.17234</ele>
        <time>2025-06-07T07:43:18.036Z</time>
      </trkpt>
      <trkpt lat="45.55175" lon="4.58035">
        <ele>520.182695</ele>
        <time>2025-06-07T07:43:20.047Z</time>
      </trkpt>
      <trkpt lat="45.55166" lon="4.58032">
        <ele>520.180838</ele>
        <time>2025-06-07T07:43:22.032Z</time>
      </trkpt>
      <trkpt lat="45.55153" lon="4.5803">
        <ele>520.176428</ele>
        <time>2025-06-07T07:43:24.052Z</time>
      </trkpt>
      <trkpt lat="45.55142" lon="4.58032">
        <ele>520.172372</ele>
        <time>2025-06-07T07:43:26.034Z</time>
      </trkpt>
      <trkpt lat="45.55131" lon="4.58034">
        <ele>520.168269</ele>
        <time>2025-06-07T07:43:28.030Z</time>
      </trkpt>
      <trkpt lat="45.55121" lon="4.58038">
        <ele>520.164517</ele>
        <time>2025-06-07T07:43:30.040Z</time>
      </trkpt>
      <trkpt lat="45.55109" lon="4.58044">
        <ele>520.16004</ele>
        <time>2025-06-07T07:43:32.034Z</time>
      </trkpt>
      <trkpt lat="45.55098" lon="4.58051">
        <ele>520.155724</ele>
        <time>2025-06-07T07:43:34.029Z</time>
      </trkpt>
      <trkpt lat="45.55089" lon="4.58058">
        <ele>520.152359</ele>
        <time>2025-06-07T07:43:36.030Z</time>
      </trkpt>
      <trkpt lat="45.55081" lon="4.58062">
        <ele>520.148957</ele>
        <time>2025-06-07T07:43:38.049Z</time>
      </trkpt>
      <trkpt lat="45.55071" lon="4.58068">
        <ele>520.14537</ele>
        <time>2025-06-07T07:43:40.027Z</time>
      </trkpt>
      <trkpt lat="45.55062" lon="4.58075">
        <ele>520.141827</ele>
        <time>2025-06-07T07:43:42.064Z</time>
      </trkpt>
      <trkpt lat="45.55053" lon="4.5808">
        <ele>520.138109</ele>
        <time>2025-06-07T07:43:44.036Z</time>
      </trkpt>
      <trkpt lat="45.55044" lon="4.58085">
        <ele>520.134573</ele>
        <time>2025-06-07T07:43:46.059Z</time>
      </trkpt>
      <trkpt lat="45.55035" lon="4.58091">
        <ele>520.131104</ele>
        <time>2025-06-07T07:43:48.050Z</time>
      </trkpt>
      <trkpt lat="45.55026" lon="4.58096">
        <ele>520.127777</ele>
        <time>2025-06-07T07:43:51.034Z</time>
      </trkpt>
      <trkpt lat="45.55017" lon="4.58101">
        <ele>520.124281</ele>
        <time>2025-06-07T07:43:56.056Z</time>
      </trkpt>
      <trkpt lat="45.55008" lon="4.58107">
        <ele>520.120715</ele>
        <time>2025-06-07T07:44:00.034Z</time>
      </trkpt>
      <trkpt lat="45.55" lon="4.58112">
        <ele>520.287527</ele>
        <time>2025-06-07T07:44:03.046Z</time>
      </trkpt>
      <trkpt lat="45.5499" lon="4.58117">
        <ele>520.560153</ele>
        <time>2025-06-07T07:44:06.043Z</time>
      </trkpt>
      <trkpt lat="45.5498" lon="4.58122">
        <ele>520.858497</ele>
        <time>2025-06-07T07:44:09.042Z</time>
      </trkpt>
      <trkpt lat="45.54968" lon="4.58128">
        <ele>521.197758</ele>
        <time>2025-06-07T07:44:12.034Z</time>
      </trkpt>
      <trkpt lat="45.54958" lon="4.58133">
        <ele>521.492871</ele>
        <time>2025-06-07T07:44:15.050Z</time>
      </trkpt>
      <trkpt lat="45.54947" lon="4.58137">
        <ele>521.802527</ele>
        <time>2025-06-07T07:44:18.041Z</time>
      </trkpt>
      <trkpt lat="45.54935" lon="4.5814">
        <ele>522.123973</ele>
        <time>2025-06-07T07:44:21.060Z</time>
      </trkpt>
      <trkpt lat="45.54923" lon="4.58142">
        <ele>522.449919</ele>
        <time>2025-06-07T07:44:24.052Z</time>
      </trkpt>
      <trkpt lat="45.54912" lon="4.58144">
        <ele>522.767172</ele>
        <time>2025-06-07T07:44:27.029Z</time>
      </trkpt>
      <trkpt lat="45.549" lon="4.58143">
        <ele>523.099919</ele>
        <time>2025-06-07T07:44:30.045Z</time>
      </trkpt>
      <trkpt lat="45.54887" lon="4.58141">
        <ele>523.438724</ele>
        <time>2025-06-07T07:44:33.040Z</time>
      </trkpt>
      <trkpt lat="45.54875" lon="4.5814">
        <ele>523.76196</ele>
        <time>2025-06-07T07:44:36.082Z</time>
      </trkpt>
      <trkpt lat="45.54864" lon="4.58137">
        <ele>524.062078</ele>
        <time>2025-06-07T07:44:39.026Z</time>
      </trkpt>
      <trkpt lat="45.54856" lon="4.5813">
        <ele>524.34552</ele>
        <time>2025-06-07T07:44:42.061Z</time>
      </trkpt>
      <trkpt lat="45.54845" lon="4.58128">
        <ele>524.638368</ele>
        <time>2025-06-07T07:44:45.046Z</time>
      </trkpt>
      <trkpt lat="45.54833" lon="4.58127">
        <ele>524.974782</ele>
        <time>2025-06-07T07:44:48.043Z</time>
      </trkpt>
      <trkpt lat="45.54821" lon="4.58123">
        <ele>525.21218</ele>
        <time>2025-06-07T07:44:51.034Z</time>
      </trkpt>
      <trkpt lat="45.54809" lon="4.5812">
        <ele>525.428651</ele>
        <time>2025-06-07T07:44:54.026Z</time>
      </trkpt>
      <trkpt lat="45.54797" lon="4.58117">
        <ele>525.64589</ele>
        <time>2025-06-07T07:44:57.051Z</time>
      </trkpt>
      <trkpt lat="45.54785" lon="4.58114">
        <ele>525.860811</ele>
        <time>2025-06-07T07:45:00.031Z</time>
      </trkpt>
      <trkpt lat="45.54774" lon="4.5811">
        <ele>526.068437</ele>
        <time>2025-06-07T07:45:03.045Z</time>
      </trkpt>
      <trkpt lat="45.54762" lon="4.58106">
        <ele>526.283465</ele>
        <time>2025-06-07T07:45:06.050Z</time>
      </trkpt>
      <trkpt lat="45.54751" lon="4.58102">
        <ele>526.49579</ele>
        <time>2025-06-07T07:45:09.044Z</time>
      </trkpt>
      <trkpt lat="45.5474" lon="4.58097">
        <ele>526.709748</ele>
        <time>2025-06-07T07:45:12.039Z</time>
      </trkpt>
      <trkpt lat="45.54728" lon="4.58092">
        <ele>526.927078</ele>
        <time>2025-06-07T07:45:15.043Z</time>
      </trkpt>
      <trkpt lat="45.54718" lon="4.58084">
        <ele>527.145809</ele>
        <time>2025-06-07T07:45:18.035Z</time>
      </trkpt>
      <trkpt lat="45.54708" lon="4.58074">
        <ele>527.359837</ele>
        <time>2025-06-07T07:45:21.045Z</time>
      </trkpt>
      <trkpt lat="45.54699" lon="4.58063">
        <ele>527.571069</ele>
        <time>2025-06-07T07:45:24.038Z</time>
      </trkpt>
      <trkpt lat="45.54692" lon="4.5805">
        <ele>527.7817</ele>
        <time>2025-06-07T07:45:27.058Z</time>
      </trkpt>
      <trkpt lat="45.54685" lon="4.58036">
        <ele>527.988017</ele>
        <time>2025-06-07T07:45:30.035Z</time>
      </trkpt>
      <trkpt lat="45.54681" lon="4.58021">
        <ele>528.191684</ele>
        <time>2025-06-07T07:45:33.048Z</time>
      </trkpt>
      <trkpt lat="45.54678" lon="4.58004">
        <ele>528.004033</ele>
        <time>2025-06-07T07:45:36.037Z</time>
      </trkpt>
      <trkpt lat="45.54676" lon="4.57991">
        <ele>527.723995</ele>
        <time>2025-06-07T07:45:38.034Z</time>
      </trkpt>
      <trkpt lat="45.54675" lon="4.57978">
        <ele>527.435784</ele>
        <time>2025-06-07T07:45:40.055Z</time>
      </trkpt>
      <trkpt lat="45.54675" lon="4.57965">
        <ele>527.156253</ele>
        <time>2025-06-07T07:45:42.046Z</time>
      </trkpt>
      <trkpt lat="45.54678" lon="4.57951">
        <ele>526.841773</ele>
        <time>2025-06-07T07:45:45.051Z</time>
      </trkpt>
      <trkpt lat="45.54679" lon="4.57938">
        <ele>526.557843</ele>
        <time>2025-06-07T07:45:49.044Z</time>
      </trkpt>
      <trkpt lat="45.54682" lon="4.57925">
        <ele>526.251719</ele>
        <time>2025-06-07T07:45:54.046Z</time>
      </trkpt>
      <trkpt lat="45.54685" lon="4.57912">
        <ele>525.957616</ele>
        <time>2025-06-07T07:45:57.057Z</time>
      </trkpt>
      <trkpt lat="45.54688" lon="4.57899">
        <ele>525.658643</ele>
        <time>2025-06-07T07:45:59.018Z</time>
      </trkpt>
      <trkpt lat="45.54692" lon="4.57885">
        <ele>525.339149</ele>
        <time>2025-06-07T07:46:01.037Z</time>
      </trkpt>
      <trkpt lat="45.54697" lon="4.57872">
        <ele>525.013195</ele>
        <time>2025-06-07T07:46:03.034Z</time>
      </trkpt>
      <trkpt lat="45.54702" lon="4.57859">
        <ele>524.693548</ele>
        <time>2025-06-07T07:46:05.040Z</time>
      </trkpt>
      <trkpt lat="45.54709" lon="4.57847">
        <ele>524.351116</ele>
        <time>2025-06-07T07:46:07.038Z</time>
      </trkpt>
      <trkpt lat="45.54717" lon="4.57836">
        <ele>524.010442</ele>
        <time>2025-06-07T07:46:09.044Z</time>
      </trkpt>
      <trkpt lat="45.54726" lon="4.57826">
        <ele>523.669663</ele>
        <time>2025-06-07T07:46:11.039Z</time>
      </trkpt>
      <trkpt lat="45.54735" lon="4.57817">
        <ele>523.325427</ele>
        <time>2025-06-07T07:46:13.037Z</time>
      </trkpt>
      <trkpt lat="45.54744" lon="4.57809">
        <ele>522.989451</ele>
        <time>2025-06-07T07:46:15.041Z</time>
      </trkpt>
      <trkpt lat="45.54753" lon="4.578">
        <ele>522.651313</ele>
        <time>2025-06-07T07:46:17.032Z</time>
      </trkpt>
      <trkpt lat="45.54761" lon="4.5779">
        <ele>522.302924</ele>
        <time>2025-06-07T07:46:19.038Z</time>
      </trkpt>
      <trkpt lat="45.54769" lon="4.57781">
        <ele>521.969442</ele>
        <time>2025-06-07T07:46:21.044Z</time>
      </trkpt>
      <trkpt lat="45.54776" lon="4.57771">
        <ele>521.649907</ele>
        <time>2025-06-07T07:46:23.034Z</time>
      </trkpt>
      <trkpt lat="45.54782" lon="4.5776">
        <ele>521.315977</ele>
        <time>2025-06-07T07:46:25.033Z</time>
      </trkpt>
      <trkpt lat="45.54787" lon="4.57747">
        <ele>520.971115</ele>
        <time>2025-06-07T07:46:27.039Z</time>
      </trkpt>
      <trkpt lat="45.54791" lon="4.57733">
        <ele>520.635954</ele>
        <time>2025-06-07T07:46:29.042Z</time>
      </trkpt>
      <trkpt lat="45.54795" lon="4.57719">
        <ele>520.2895</ele>
        <time>2025-06-07T07:46:31.038Z</time>
      </trkpt>
      <trkpt lat="45.54797" lon="4.57703">
        <ele>519.916637</ele>
        <time>2025-06-07T07:46:33.040Z</time>
      </trkpt>
      <trkpt lat="45.54796" lon="4.57686">
        <ele>519.52543</ele>
        <time>2025-06-07T07:46:35.036Z</time>
      </trkpt>
      <trkpt lat="45.54795" lon="4.57669">
        <ele>519.132612</ele>
        <time>2025-06-07T07:46:37.051Z</time>
      </trkpt>
      <trkpt lat="45.54793" lon="4.57652">
        <ele>518.739362</ele>
        <time>2025-06-07T07:46:39.043Z</time>
      </trkpt>
      <trkpt lat="45.54791" lon="4.57636">
        <ele>518.35001</ele>
        <time>2025-06-07T07:46:41.042Z</time>
      </trkpt>
      <trkpt lat="45.54789" lon="4.57618">
        <ele>517.928895</ele>
        <time>2025-06-07T07:46:43.031Z</time>
      </trkpt>
      <trkpt lat="45.54789" lon="4.576">
        <ele>517.523724</ele>
        <time>2025-06-07T07:46:45.026Z</time>
      </trkpt>
      <trkpt lat="45.54791" lon="4.57583">
        <ele>517.135895</ele>
        <time>2025-06-07T07:46:47.036Z</time>
      </trkpt>
      <trkpt lat="45.54794" lon="4.57568">
        <ele>516.775915</ele>
        <time>2025-06-07T07:46:49.028Z</time>
      </trkpt>
      <trkpt lat="45.54798" lon="4.57553">
        <ele>516.522016</ele>
        <time>2025-06-07T07:46:51.031Z</time>
      </trkpt>
      <trkpt lat="45.54804" lon="4.57539">
        <ele>516.269029</ele>
        <time>2025-06-07T07:46:53.050Z</time>
      </trkpt>
      <trkpt lat="45.54813" lon="4.57526">
        <ele>515.97581</ele>
        <time>2025-06-07T07:46:55.047Z</time>
      </trkpt>
      <trkpt lat="45.54823" lon="4.57515">
        <ele>515.673426</ele>
        <time>2025-06-07T07:46:57.057Z</time>
      </trkpt>
      <trkpt lat="45.54834" lon="4.57507">
        <ele>515.387277</ele>
        <time>2025-06-07T07:46:59.031Z</time>
      </trkpt>
      <trkpt lat="45.54846" lon="4.57502">
        <ele>515.109373</ele>
        <time>2025-06-07T07:47:01.048Z</time>
      </trkpt>
      <trkpt lat="45.54858" lon="4.57497">
        <ele>514.829198</ele>
        <time>2025-06-07T07:47:03.050Z</time>
      </trkpt>
      <trkpt lat="45.54869" lon="4.57491">
        <ele>514.560579</ele>
        <time>2025-06-07T07:47:05.027Z</time>
      </trkpt>
      <trkpt lat="45.54878" lon="4.57484">
        <ele>514.322679</ele>
        <time>2025-06-07T07:47:07.034Z</time>
      </trkpt>
      <trkpt lat="45.54886" lon="4.57477">
        <ele>514.11289</ele>
        <time>2025-06-07T07:47:09.029Z</time>
      </trkpt>
      <trkpt lat="45.54894" lon="4.57467">
        <ele>513.866398</ele>
        <time>2025-06-07T07:47:12.047Z</time>
      </trkpt>
      <trkpt lat="45.54903" lon="4.57453">
        <ele>513.558327</ele>
        <time>2025-06-07T07:47:15.056Z</time>
      </trkpt>
      <trkpt lat="45.54909" lon="4.5744">
        <ele>513.316452</ele>
        <time>2025-06-07T07:47:17.046Z</time>
      </trkpt>
      <trkpt lat="45.54915" lon="4.57427">
        <ele>513.062098</ele>
        <time>2025-06-07T07:47:19.049Z</time>
      </trkpt>
      <trkpt lat="45.54919" lon="4.57411">
        <ele>512.795434</ele>
        <time>2025-06-07T07:47:21.060Z</time>
      </trkpt>
      <trkpt lat="45.54922" lon="4.57394">
        <ele>512.62708</ele>
        <time>2025-06-07T07:47:23.052Z</time>
      </trkpt>
      <trkpt lat="45.54923" lon="4.57376">
        <ele>512.506887</ele>
        <time>2025-06-07T07:47:25.043Z</time>
      </trkpt>
      <trkpt lat="45.54925" lon="4.57358">
        <ele>512.384564</ele>
        <time>2025-06-07T07:47:27.039Z</time>
      </trkpt>
      <trkpt lat="45.54927" lon="4.57341">
        <ele>512.264845</ele>
        <time>2025-06-07T07:47:29.052Z</time>
      </trkpt>
      <trkpt lat="45.54929" lon="4.57326">
        <ele>512.159313</ele>
        <time>2025-06-07T07:47:31.043Z</time>
      </trkpt>
      <trkpt lat="45.54933" lon="4.57311">
        <ele>512.059249</ele>
        <time>2025-06-07T07:47:33.045Z</time>
      </trkpt>
      <trkpt lat="45.54938" lon="4.57298">
        <ele>511.955107</ele>
        <time>2025-06-07T07:47:35.054Z</time>
      </trkpt>
      <trkpt lat="45.54944" lon="4.57284">
        <ele>511.846494</ele>
        <time>2025-06-07T07:47:37.051Z</time>
      </trkpt>
      <trkpt lat="45.5495" lon="4.57271">
        <ele>511.738305</ele>
        <time>2025-06-07T07:47:39.046Z</time>
      </trkpt>
      <trkpt lat="45.54956" lon="4.57258">
        <ele>511.634922</ele>
        <time>2025-06-07T07:47:41.043Z</time>
      </trkpt>
      <trkpt lat="45.5496" lon="4.57243">
        <ele>511.531278</ele>
        <time>2025-06-07T07:47:43.039Z</time>
      </trkpt>
      <trkpt lat="45.54962" lon="4.57228">
        <ele>511.42483</ele>
        <time>2025-06-07T07:47:45.038Z</time>
      </trkpt>
      <trkpt lat="45.54962" lon="4.57212">
        <ele>511.318376</ele>
        <time>2025-06-07T07:47:47.045Z</time>
      </trkpt>
      <trkpt lat="45.54961" lon="4.57195">
        <ele>511.200793</ele>
        <time>2025-06-07T07:47:49.043Z</time>
      </trkpt>
      <trkpt lat="45.54956" lon="4.57176">
        <ele>511.068316</ele>
        <time>2025-06-07T07:47:51.039Z</time>
      </trkpt>
      <trkpt lat="45.54949" lon="4.57158">
        <ele>511.423402</ele>
        <time>2025-06-07T07:47:53.044Z</time>
      </trkpt>
      <trkpt lat="45.54941" lon="4.57143">
        <ele>512.723807</ele>
        <time>2025-06-07T07:47:55.045Z</time>
      </trkpt>
      <trkpt lat="45.54931" lon="4.57131">
        <ele>513.953916</ele>
        <time>2025-06-07T07:47:57.050Z</time>
      </trkpt>
      <trkpt lat="45.54921" lon="4.57121">
        <ele>515.098524</ele>
        <time>2025-06-07T07:47:59.044Z</time>
      </trkpt>
      <trkpt lat="45.54914" lon="4.5711">
        <ele>516.108095</ele>
        <time>2025-06-07T07:48:01.053Z</time>
      </trkpt>
      <trkpt lat="45.54907" lon="4.57097">
        <ele>517.1986</ele>
        <time>2025-06-07T07:48:04.029Z</time>
      </trkpt>
      <trkpt lat="45.549" lon="4.57086">
        <ele>518.212587</ele>
        <time>2025-06-07T07:48:08.036Z</time>
      </trkpt>
      <trkpt lat="45.54897" lon="4.57072">
        <ele>519.117802</ele>
        <time>2025-06-07T07:48:12.031Z</time>
      </trkpt>
      <trkpt lat="45.54899" lon="4.57059">
        <ele>520.022413</ele>
        <time>2025-06-07T07:48:16.034Z</time>
      </trkpt>
      <trkpt lat="45.54901" lon="4.57045">
        <ele>520.973272</ele>
        <time>2025-06-07T07:48:21.049Z</time>
      </trkpt>
      <trkpt lat="45.54903" lon="4.57032">
        <ele>521.836929</ele>
        <time>2025-06-07T07:48:26.025Z</time>
      </trkpt>
      <trkpt lat="45.54904" lon="4.57019">
        <ele>522.725378</ele>
        <time>2025-06-07T07:48:31.043Z</time>
      </trkpt>
      <trkpt lat="45.54904" lon="4.57005">
        <ele>523.650442</ele>
        <time>2025-06-07T07:48:36.029Z</time>
      </trkpt>
      <trkpt lat="45.54904" lon="4.56992">
        <ele>524.535988</ele>
        <time>2025-06-07T07:48:41.031Z</time>
      </trkpt>
      <trkpt lat="45.54895" lon="4.56983">
        <ele>525.487282</ele>
        <time>2025-06-07T07:48:46.018Z</time>
      </trkpt>
      <trkpt lat="45.54885" lon="4.56984">
        <ele>526.467516</ele>
        <time>2025-06-07T07:48:50.024Z</time>
      </trkpt>
      <trkpt lat="45.54875" lon="4.56986">
        <ele>527.393337</ele>
        <time>2025-06-07T07:48:54.031Z</time>
      </trkpt>
      <trkpt lat="45.54865" lon="4.56986">
        <ele>528.329711</ele>
        <time>2025-06-07T07:48:58.042Z</time>
      </trkpt>
      <trkpt lat="45.54854" lon="4.56988">
        <ele>529.330055</ele>
        <time>2025-06-07T07:49:02.034Z</time>
      </trkpt>
      <trkpt lat="45.54844" lon="4.56986">
        <ele>530.281005</ele>
        <time>2025-06-07T07:49:06.027Z</time>
      </trkpt>
      <trkpt lat="45.54834" lon="4.5698">
        <ele>531.257896</ele>
        <time>2025-06-07T07:49:10.031Z</time>
      </trkpt>
      <trkpt lat="45.54826" lon="4.5697">
        <ele>532.211071</ele>
        <time>2025-06-07T07:49:14.034Z</time>
      </trkpt>
      <trkpt lat="45.54818" lon="4.56958">
        <ele>533.252357</ele>
        <time>2025-06-07T07:49:18.030Z</time>
      </trkpt>
      <trkpt lat="45.54809" lon="4.56946">
        <ele>534.310274</ele>
        <time>2025-06-07T07:49:22.033Z</time>
      </trkpt>
      <trkpt lat="45.54804" lon="4.56936">
        <ele>535.14852</ele>
        <time>2025-06-07T07:49:26.031Z</time>
      </trkpt>
      <trkpt lat="45.5482" lon="4.5694">
        <ele>536.673748</ele>
        <time>2025-06-07T07:49:50.047Z</time>
      </trkpt>
      <trkpt lat="45.54829" lon="4.5693">
        <ele>537.663229</ele>
        <time>2025-06-07T07:49:54.039Z</time>
      </trkpt>
      <trkpt lat="45.54836" lon="4.56918">
        <ele>538.650087</ele>
        <time>2025-06-07T07:49:58.036Z</time>
      </trkpt>
      <trkpt lat="45.54842" lon="4.56907">
        <ele>539.566958</ele>
        <time>2025-06-07T07:50:02.043Z</time>
      </trkpt>
      <trkpt lat="45.54848" lon="4.56895">
        <ele>540.456838</ele>
        <time>2025-06-07T07:50:06.037Z</time>
      </trkpt>
      <trkpt lat="45.54855" lon="4.56882">
        <ele>541.515984</ele>
        <time>2025-06-07T07:50:10.033Z</time>
      </trkpt>
      <trkpt lat="45.54861" lon="4.56869">
        <ele>542.42697</ele>
        <time>2025-06-07T07:50:14.030Z</time>
      </trkpt>
      <trkpt lat="45.54867" lon="4.56859">
        <ele>543.287147</ele>
        <time>2025-06-07T07:50:18.028Z</time>
      </trkpt>
      <trkpt lat="45.54875" lon="4.56849">
        <ele>544.239755</ele>
        <time>2025-06-07T07:50:22.024Z</time>
      </trkpt>
      <trkpt lat="45.54884" lon="4.56841">
        <ele>545.341062</ele>
        <time>2025-06-07T07:50:26.049Z</time>
      </trkpt>
      <trkpt lat="45.54891" lon="4.56829">
        <ele>546.486555</ele>
        <time>2025-06-07T07:50:30.038Z</time>
      </trkpt>
      <trkpt lat="45.54897" lon="4.56818">
        <ele>547.402901</ele>
        <time>2025-06-07T07:50:33.047Z</time>
      </trkpt>
      <trkpt lat="45.54901" lon="4.56806">
        <ele>548.353819</ele>
        <time>2025-06-07T07:50:36.041Z</time>
      </trkpt>
      <trkpt lat="45.54904" lon="4.5679">
        <ele>549.547222</ele>
        <time>2025-06-07T07:50:40.038Z</time>
      </trkpt>
      <trkpt lat="45.54904" lon="4.56774">
        <ele>550.693846</ele>
        <time>2025-06-07T07:50:44.046Z</time>
      </trkpt>
      <trkpt lat="45.54903" lon="4.56758">
        <ele>551.831739</ele>
        <time>2025-06-07T07:50:48.032Z</time>
      </trkpt>
      <trkpt lat="45.54901" lon="4.56741">
        <ele>553.036688</ele>
        <time>2025-06-07T07:50:52.035Z</time>
      </trkpt>
      <trkpt lat="45.54896" lon="4.56729">
        <ele>554.056714</ele>
        <time>2025-06-07T07:50:56.033Z</time>
      </trkpt>
      <trkpt lat="45.54892" lon="4.56716">
        <ele>555.042171</ele>
        <time>2025-06-07T07:51:00.038Z</time>
      </trkpt>
      <trkpt lat="45.54892" lon="4.56702">
        <ele>556.075648</ele>
        <time>2025-06-07T07:51:04.026Z</time>
      </trkpt>
      <trkpt lat="45.54893" lon="4.56687">
        <ele>557.122695</ele>
        <time>2025-06-07T07:51:09.044Z</time>
      </trkpt>
      <trkpt lat="45.54894" lon="4.56674">
        <ele>558.050551</ele>
        <time>2025-06-07T07:51:14.025Z</time>
      </trkpt>
      <trkpt lat="45.54895" lon="4.56659">
        <ele>559.115573</ele>
        <time>2025-06-07T07:51:20.036Z</time>
      </trkpt>
      <trkpt lat="45.54896" lon="4.56646">
        <ele>560.044988</ele>
        <time>2025-06-07T07:51:25.041Z</time>
      </trkpt>
      <trkpt lat="45.54897" lon="4.56633">
        <ele>560.974402</ele>
        <time>2025-06-07T07:51:30.030Z</time>
      </trkpt>
      <trkpt lat="45.549" lon="4.56619">
        <ele>562.062069</ele>
        <time>2025-06-07T07:51:36.035Z</time>
      </trkpt>
      <trkpt lat="45.54904" lon="4.56605">
        <ele>563.243926</ele>
        <time>2025-06-07T07:51:42.032Z</time>
      </trkpt>
      <trkpt lat="45.54911" lon="4.56593">
        <ele>564.480927</ele>
        <time>2025-06-07T07:51:48.051Z</time>
      </trkpt>
      <trkpt lat="45.54918" lon="4.56584">
        <ele>565.586872</ele>
        <time>2025-06-07T07:51:53.039Z</time>
      </trkpt>
      <trkpt lat="45.54926" lon="4.56578">
        <ele>566.646211</ele>
        <time>2025-06-07T07:51:58.023Z</time>
      </trkpt>
      <trkpt lat="45.54937" lon="4.56574">
        <ele>567.886963</ele>
        <time>2025-06-07T07:52:04.030Z</time>
      </trkpt>
      <trkpt lat="45.54945" lon="4.56569">
        <ele>568.974535</ele>
        <time>2025-06-07T07:52:09.039Z</time>
      </trkpt>
      <trkpt lat="45.54952" lon="4.56558">
        <ele>570.155685</ele>
        <time>2025-06-07T07:52:15.036Z</time>
      </trkpt>
      <trkpt lat="45.54952" lon="4.56544">
        <ele>571.332096</ele>
        <time>2025-06-07T07:52:21.035Z</time>
      </trkpt>
      <trkpt lat="45.54947" lon="4.5653">
        <ele>572.56849</ele>
        <time>2025-06-07T07:52:27.036Z</time>
      </trkpt>
      <trkpt lat="45.54942" lon="4.56517">
        <ele>573.739024</ele>
        <time>2025-06-07T07:52:33.035Z</time>
      </trkpt>
      <trkpt lat="45.54937" lon="4.56504">
        <ele>574.972549</ele>
        <time>2025-06-07T07:52:38.042Z</time>
      </trkpt>
      <trkpt lat="45.54931" lon="4.56495">
        <ele>576.021752</ele>
        <time>2025-06-07T07:52:42.030Z</time>
      </trkpt>
      <trkpt lat="45.54924" lon="4.56483">
        <ele>577.292119</ele>
        <time>2025-06-07T07:52:47.048Z</time>
      </trkpt>
      <trkpt lat="45.54918" lon="4.56473">
        <ele>578.349245</ele>
        <time>2025-06-07T07:52:51.040Z</time>
      </trkpt>
      <trkpt lat="45.54913" lon="4.56462">
        <ele>579.405771</ele>
        <time>2025-06-07T07:52:55.044Z</time>
      </trkpt>
      <trkpt lat="45.54906" lon="4.5645">
        <ele>580.695381</ele>
        <time>2025-06-07T07:52:59.050Z</time>
      </trkpt>
      <trkpt lat="45.549" lon="4.56438">
        <ele>581.905358</ele>
        <time>2025-06-07T07:53:03.044Z</time>
      </trkpt>
      <trkpt lat="45.54893" lon="4.56424">
        <ele>583.240846</ele>
        <time>2025-06-07T07:53:07.040Z</time>
      </trkpt>
      <trkpt lat="45.54888" lon="4.56413">
        <ele>583.314133</ele>
        <time>2025-06-07T07:53:10.029Z</time>
      </trkpt>
      <trkpt lat="45.54882" lon="4.564">
        <ele>583.333267</ele>
        <time>2025-06-07T07:53:14.036Z</time>
      </trkpt>
      <trkpt lat="45.54877" lon="4.56388">
        <ele>583.349843</ele>
        <time>2025-06-07T07:53:18.034Z</time>
      </trkpt>
      <trkpt lat="45.54874" lon="4.56376">
        <ele>583.365541</ele>
        <time>2025-06-07T07:53:22.037Z</time>
      </trkpt>
      <trkpt lat="45.54872" lon="4.56362">
        <ele>583.382699</ele>
        <time>2025-06-07T07:53:27.030Z</time>
      </trkpt>
      <trkpt lat="45.54873" lon="4.56348">
        <ele>583.400159</ele>
        <time>2025-06-07T07:53:32.039Z</time>
      </trkpt>
      <trkpt lat="45.54878" lon="4.56335">
        <ele>583.416948</ele>
        <time>2025-06-07T07:53:36.027Z</time>
      </trkpt>
      <trkpt lat="45.54884" lon="4.56323">
        <ele>583.435901</ele>
        <time>2025-06-07T07:53:40.043Z</time>
      </trkpt>
      <trkpt lat="45.5489" lon="4.5631">
        <ele>583.454245</ele>
        <time>2025-06-07T07:53:43.028Z</time>
      </trkpt>
      <trkpt lat="45.54895" lon="4.56297">
        <ele>583.472582</ele>
        <time>2025-06-07T07:53:46.046Z</time>
      </trkpt>
      <trkpt lat="45.549" lon="4.56284">
        <ele>583.48937</ele>
        <time>2025-06-07T07:53:49.043Z</time>
      </trkpt>
      <trkpt lat="45.54904" lon="4.56272">
        <ele>583.50599</ele>
        <time>2025-06-07T07:53:52.037Z</time>
      </trkpt>
      <trkpt lat="45.54909" lon="4.56258">
        <ele>583.524974</ele>
        <time>2025-06-07T07:53:55.023Z</time>
      </trkpt>
      <trkpt lat="45.54913" lon="4.56243">
        <ele>583.544601</ele>
        <time>2025-06-07T07:53:58.034Z</time>
      </trkpt>
      <trkpt lat="45.54917" lon="4.56226">
        <ele>583.565396</ele>
        <time>2025-06-07T07:54:01.030Z</time>
      </trkpt>
      <trkpt lat="45.54921" lon="4.5621">
        <ele>583.586716</ele>
        <time>2025-06-07T07:54:04.036Z</time>
      </trkpt>
      <trkpt lat="45.54925" lon="4.56193">
        <ele>583.608304</ele>
        <time>2025-06-07T07:54:07.035Z</time>
      </trkpt>
      <trkpt lat="45.54927" lon="4.56174">
        <ele>583.165508</ele>
        <time>2025-06-07T07:54:10.047Z</time>
      </trkpt>
      <trkpt lat="45.54929" lon="4.56155">
        <ele>582.712751</ele>
        <time>2025-06-07T07:54:13.027Z</time>
      </trkpt>
      <trkpt lat="45.5493" lon="4.56137">
        <ele>582.276932</ele>
        <time>2025-06-07T07:54:16.037Z</time>
      </trkpt>
      <trkpt lat="45.54933" lon="4.56119">
        <ele>581.831877</ele>
        <time>2025-06-07T07:54:19.034Z</time>
      </trkpt>
      <trkpt lat="45.5494" lon="4.56104">
        <ele>581.41173</ele>
        <time>2025-06-07T07:54:22.040Z</time>
      </trkpt>
      <trkpt lat="45.54947" lon="4.56093">
        <ele>581.041633</ele>
        <time>2025-06-07T07:54:25.037Z</time>
      </trkpt>
      <trkpt lat="45.54955" lon="4.56083">
        <ele>580.69207</ele>
        <time>2025-06-07T07:54:28.041Z</time>
      </trkpt>
      <trkpt lat="45.54963" lon="4.56072">
        <ele>580.308675</ele>
        <time>2025-06-07T07:54:31.040Z</time>
      </trkpt>
      <trkpt lat="45.54963" lon="4.56057">
        <ele>579.962384</ele>
        <time>2025-06-07T07:54:35.046Z</time>
      </trkpt>
      <trkpt lat="45.54963" lon="4.56044">
        <ele>579.649406</ele>
        <time>2025-06-07T07:54:38.039Z</time>
      </trkpt>
      <trkpt lat="45.54964" lon="4.5603">
        <ele>579.326409</ele>
        <time>2025-06-07T07:54:41.048Z</time>
      </trkpt>
      <trkpt lat="45.54965" lon="4.56014">
        <ele>578.942779</ele>
        <time>2025-06-07T07:54:44.035Z</time>
      </trkpt>
      <trkpt lat="45.54966" lon="4.55997">
        <ele>578.517054</ele>
        <time>2025-06-07T07:54:47.033Z</time>
      </trkpt>
      <trkpt lat="45.54967" lon="4.55978">
        <ele>578.065953</ele>
        <time>2025-06-07T07:54:50.042Z</time>
      </trkpt>
      <trkpt lat="45.54969" lon="4.55965">
        <ele>577.747142</ele>
        <time>2025-06-07T07:54:52.034Z</time>
      </trkpt>
      <trkpt lat="45.5497" lon="4.55952">
        <ele>577.2883</ele>
        <time>2025-06-07T07:54:54.036Z</time>
      </trkpt>
      <trkpt lat="45.54971" lon="4.55939">
        <ele>576.059075</ele>
        <time>2025-06-07T07:54:56.043Z</time>
      </trkpt>
      <trkpt lat="45.54973" lon="4.55924">
        <ele>574.641646</ele>
        <time>2025-06-07T07:54:58.042Z</time>
      </trkpt>
      <trkpt lat="45.54975" lon="4.55907">
        <ele>573.002561</ele>
        <time>2025-06-07T07:55:00.037Z</time>
      </trkpt>
      <trkpt lat="45.54977" lon="4.55888">
        <ele>571.229557</ele>
        <time>2025-06-07T07:55:02.038Z</time>
      </trkpt>
      <trkpt lat="45.54981" lon="4.55871">
        <ele>569.546671</ele>
        <time>2025-06-07T07:55:04.040Z</time>
      </trkpt>
      <trkpt lat="45.54985" lon="4.55855">
        <ele>567.931873</ele>
        <time>2025-06-07T07:55:06.046Z</time>
      </trkpt>
      <trkpt lat="45.54992" lon="4.55839">
        <ele>566.248904</ele>
        <time>2025-06-07T07:55:08.049Z</time>
      </trkpt>
      <trkpt lat="45.55002" lon="4.55825">
        <ele>564.369071</ele>
        <time>2025-06-07T07:55:10.041Z</time>
      </trkpt>
      <trkpt lat="45.5501" lon="4.55817">
        <ele>563.028991</ele>
        <time>2025-06-07T07:55:12.035Z</time>
      </trkpt>
      <trkpt lat="45.5502" lon="4.55811">
        <ele>561.576969</ele>
        <time>2025-06-07T07:55:14.035Z</time>
      </trkpt>
      <trkpt lat="45.5503" lon="4.55806">
        <ele>560.142213</ele>
        <time>2025-06-07T07:55:16.042Z</time>
      </trkpt>
      <trkpt lat="45.55041" lon="4.55801">
        <ele>558.635109</ele>
        <time>2025-06-07T07:55:18.045Z</time>
      </trkpt>
      <trkpt lat="45.55053" lon="4.55793">
        <ele>556.861778</ele>
        <time>2025-06-07T07:55:20.050Z</time>
      </trkpt>
      <trkpt lat="45.55066" lon="4.55787">
        <ele>555.064102</ele>
        <time>2025-06-07T07:55:22.030Z</time>
      </trkpt>
      <trkpt lat="45.55077" lon="4.55782">
        <ele>553.427902</ele>
        <time>2025-06-07T07:55:24.024Z</time>
      </trkpt>
      <trkpt lat="45.55088" lon="4.55776">
        <ele>552.157525</ele>
        <time>2025-06-07T07:55:26.034Z</time>
      </trkpt>
      <trkpt lat="45.55098" lon="4.55769">
        <ele>550.94857</ele>
        <time>2025-06-07T07:55:28.026Z</time>
      </trkpt>
      <trkpt lat="45.5511" lon="4.55759">
        <ele>549.539103</ele>
        <time>2025-06-07T07:55:30.026Z</time>
      </trkpt>
      <trkpt lat="45.55121" lon="4.55752">
        <ele>548.218248</ele>
        <time>2025-06-07T07:55:32.030Z</time>
      </trkpt>
      <trkpt lat="45.55132" lon="4.55745">
        <ele>546.964939</ele>
        <time>2025-06-07T07:55:34.029Z</time>
      </trkpt>
      <trkpt lat="45.55141" lon="4.55733">
        <ele>545.638599</ele>
        <time>2025-06-07T07:55:36.033Z</time>
      </trkpt>
      <trkpt lat="45.55153" lon="4.55719">
        <ele>543.988754</ele>
        <time>2025-06-07T07:55:38.044Z</time>
      </trkpt>
      <trkpt lat="45.55164" lon="4.55704">
        <ele>542.358562</ele>
        <time>2025-06-07T07:55:40.036Z</time>
      </trkpt>
      <trkpt lat="45.55174" lon="4.5569">
        <ele>540.890339</ele>
        <time>2025-06-07T07:55:42.039Z</time>
      </trkpt>
      <trkpt lat="45.55184" lon="4.55679">
        <ele>539.538109</ele>
        <time>2025-06-07T07:55:44.047Z</time>
      </trkpt>
      <trkpt lat="45.55192" lon="4.55667">
        <ele>538.29111</ele>
        <time>2025-06-07T07:55:46.037Z</time>
      </trkpt>
      <trkpt lat="45.55201" lon="4.55654">
        <ele>536.958676</ele>
        <time>2025-06-07T07:55:49.039Z</time>
      </trkpt>
      <trkpt lat="45.55199" lon="4.55641">
        <ele>535.900763</ele>
        <time>2025-06-07T07:55:53.039Z</time>
      </trkpt>
      <trkpt lat="45.55191" lon="4.55631">
        <ele>534.766769</ele>
        <time>2025-06-07T07:55:56.037Z</time>
      </trkpt>
      <trkpt lat="45.55181" lon="4.5562">
        <ele>534.292936</ele>
        <time>2025-06-07T07:55:59.050Z</time>
      </trkpt>
      <trkpt lat="45.55173" lon="4.55608">
        <ele>534.360652</ele>
        <time>2025-06-07T07:56:02.036Z</time>
      </trkpt>
      <trkpt lat="45.55166" lon="4.55597">
        <ele>534.419299</ele>
        <time>2025-06-07T07:56:05.030Z</time>
      </trkpt>
      <trkpt lat="45.55158" lon="4.55585">
        <ele>534.480239</ele>
        <time>2025-06-07T07:56:08.035Z</time>
      </trkpt>
      <trkpt lat="45.55151" lon="4.55574">
        <ele>534.543005</ele>
        <time>2025-06-07T07:56:11.026Z</time>
      </trkpt>
      <trkpt lat="45.55143" lon="4.55561">
        <ele>534.608945</ele>
        <time>2025-06-07T07:56:14.034Z</time>
      </trkpt>
      <trkpt lat="45.55137" lon="4.55547">
        <ele>534.671665</ele>
        <time>2025-06-07T07:56:17.041Z</time>
      </trkpt>
      <trkpt lat="45.55132" lon="4.55533">
        <ele>534.732579</ele>
        <time>2025-06-07T07:56:20.032Z</time>
      </trkpt>
      <trkpt lat="45.55128" lon="4.55519">
        <ele>534.794273</ele>
        <time>2025-06-07T07:56:23.037Z</time>
      </trkpt>
      <trkpt lat="45.55123" lon="4.55503">
        <ele>534.86208</ele>
        <time>2025-06-07T07:56:27.042Z</time>
      </trkpt>
      <trkpt lat="45.55118" lon="4.55487">
        <ele>534.928523</ele>
        <time>2025-06-07T07:56:30.039Z</time>
      </trkpt>
      <trkpt lat="45.55117" lon="4.55474">
        <ele>534.982014</ele>
        <time>2025-06-07T07:56:32.035Z</time>
      </trkpt>
      <trkpt lat="45.55116" lon="4.55461">
        <ele>535.034907</ele>
        <time>2025-06-07T07:56:34.045Z</time>
      </trkpt>
      <trkpt lat="45.55115" lon="4.55443">
        <ele>535.105484</ele>
        <time>2025-06-07T07:56:37.034Z</time>
      </trkpt>
      <trkpt lat="45.55117" lon="4.55426">
        <ele>535.171953</ele>
        <time>2025-06-07T07:56:40.036Z</time>
      </trkpt>
      <trkpt lat="45.55118" lon="4.55411">
        <ele>535.229194</ele>
        <time>2025-06-07T07:56:43.032Z</time>
      </trkpt>
      <trkpt lat="45.55118" lon="4.55397">
        <ele>535.244585</ele>
        <time>2025-06-07T07:56:46.036Z</time>
      </trkpt>
      <trkpt lat="45.55118" lon="4.55382">
        <ele>535.212254</ele>
        <time>2025-06-07T07:56:49.027Z</time>
      </trkpt>
      <trkpt lat="45.55118" lon="4.55367">
        <ele>535.178367</ele>
        <time>2025-06-07T07:56:52.037Z</time>
      </trkpt>
      <trkpt lat="45.55117" lon="4.55352">
        <ele>535.143875</ele>
        <time>2025-06-07T07:56:55.029Z</time>
      </trkpt>
      <trkpt lat="45.55115" lon="4.55335">
        <ele>535.105979</ele>
        <time>2025-06-07T07:56:58.041Z</time>
      </trkpt>
      <trkpt lat="45.55114" lon="4.55321">
        <ele>535.075107</ele>
        <time>2025-06-07T07:57:00.042Z</time>
      </trkpt>
      <trkpt lat="45.55114" lon="4.55306">
        <ele>535.041453</ele>
        <time>2025-06-07T07:57:02.035Z</time>
      </trkpt>
      <trkpt lat="45.55117" lon="4.55294">
        <ele>535.012588</ele>
        <time>2025-06-07T07:57:04.047Z</time>
      </trkpt>
      <trkpt lat="45.55122" lon="4.5528">
        <ele>534.978742</ele>
        <time>2025-06-07T07:57:06.023Z</time>
      </trkpt>
      <trkpt lat="45.55129" lon="4.55266">
        <ele>534.94102</ele>
        <time>2025-06-07T07:57:08.035Z</time>
      </trkpt>
      <trkpt lat="45.55137" lon="4.55254">
        <ele>534.9032</ele>
        <time>2025-06-07T07:57:10.030Z</time>
      </trkpt>
      <trkpt lat="45.55144" lon="4.55242">
        <ele>534.868588</ele>
        <time>2025-06-07T07:57:12.036Z</time>
      </trkpt>
      <trkpt lat="45.55151" lon="4.55229">
        <ele>534.833913</ele>
        <time>2025-06-07T07:57:14.029Z</time>
      </trkpt>
      <trkpt lat="45.55157" lon="4.55218">
        <ele>534.801217</ele>
        <time>2025-06-07T07:57:16.036Z</time>
      </trkpt>
      <trkpt lat="45.55163" lon="4.55207">
        <ele>534.771656</ele>
        <time>2025-06-07T07:57:18.044Z</time>
      </trkpt>
      <trkpt lat="45.55171" lon="4.55193">
        <ele>534.730907</ele>
        <time>2025-06-07T07:57:21.037Z</time>
      </trkpt>
      <trkpt lat="45.55178" lon="4.55183">
        <ele>534.699532</ele>
        <time>2025-06-07T07:57:24.041Z</time>
      </trkpt>
      <trkpt lat="45.55185" lon="4.55173">
        <ele>534.695693</ele>
        <time>2025-06-07T07:57:27.032Z</time>
      </trkpt>
      <trkpt lat="45.55192" lon="4.55163">
        <ele>534.702339</ele>
        <time>2025-06-07T07:57:30.034Z</time>
      </trkpt>
      <trkpt lat="45.55198" lon="4.55154">
        <ele>534.70878</ele>
        <time>2025-06-07T07:57:33.034Z</time>
      </trkpt>
      <trkpt lat="45.55204" lon="4.55144">
        <ele>534.715138</ele>
        <time>2025-06-07T07:57:36.043Z</time>
      </trkpt>
      <trkpt lat="45.55213" lon="4.55134">
        <ele>534.722779</ele>
        <time>2025-06-07T07:57:40.044Z</time>
      </trkpt>
      <trkpt lat="45.5522" lon="4.55124">
        <ele>534.729976</ele>
        <time>2025-06-07T07:57:44.039Z</time>
      </trkpt>
      <trkpt lat="45.55227" lon="4.55115">
        <ele>534.736453</ele>
        <time>2025-06-07T07:57:47.036Z</time>
      </trkpt>
      <trkpt lat="45.55235" lon="4.55105">
        <ele>534.743512</ele>
        <time>2025-06-07T07:57:50.045Z</time>
      </trkpt>
      <trkpt lat="45.55242" lon="4.55095">
        <ele>534.750944</ele>
        <time>2025-06-07T07:57:53.036Z</time>
      </trkpt>
      <trkpt lat="45.5525" lon="4.55084">
        <ele>534.758324</ele>
        <time>2025-06-07T07:57:56.035Z</time>
      </trkpt>
      <trkpt lat="45.55258" lon="4.55073">
        <ele>534.766112</ele>
        <time>2025-06-07T07:57:59.043Z</time>
      </trkpt>
      <trkpt lat="45.55264" lon="4.55064">
        <ele>534.772497</ele>
        <time>2025-06-07T07:58:01.040Z</time>
      </trkpt>
      <trkpt lat="45.55272" lon="4.55055">
        <ele>534.779471</ele>
        <time>2025-06-07T07:58:03.031Z</time>
      </trkpt>
      <trkpt lat="45.55281" lon="4.55046">
        <ele>534.787337</ele>
        <time>2025-06-07T07:58:05.030Z</time>
      </trkpt>
      <trkpt lat="45.55291" lon="4.55035">
        <ele>534.795719</ele>
        <time>2025-06-07T07:58:07.022Z</time>
      </trkpt>
      <trkpt lat="45.55301" lon="4.55022">
        <ele>534.804986</ele>
        <time>2025-06-07T07:58:09.031Z</time>
      </trkpt>
      <trkpt lat="45.55311" lon="4.55009">
        <ele>534.814656</ele>
        <time>2025-06-07T07:58:11.036Z</time>
      </trkpt>
      <trkpt lat="45.55321" lon="4.54995">
        <ele>533.834602</ele>
        <time>2025-06-07T07:58:13.043Z</time>
      </trkpt>
      <trkpt lat="45.5533" lon="4.54985">
        <ele>532.861259</ele>
        <time>2025-06-07T07:58:15.031Z</time>
      </trkpt>
      <trkpt lat="45.55339" lon="4.54977">
        <ele>531.978862</ele>
        <time>2025-06-07T07:58:17.038Z</time>
      </trkpt>
      <trkpt lat="45.55349" lon="4.54973">
        <ele>531.149945</ele>
        <time>2025-06-07T07:58:19.030Z</time>
      </trkpt>
      <trkpt lat="45.5536" lon="4.5497">
        <ele>530.218663</ele>
        <time>2025-06-07T07:58:21.052Z</time>
      </trkpt>
      <trkpt lat="45.5537" lon="4.54967">
        <ele>529.372496</ele>
        <time>2025-06-07T07:58:23.046Z</time>
      </trkpt>
      <trkpt lat="45.5538" lon="4.54962">
        <ele>528.46292</ele>
        <time>2025-06-07T07:58:25.039Z</time>
      </trkpt>
      <trkpt lat="45.5539" lon="4.54957">
        <ele>527.525793</ele>
        <time>2025-06-07T07:58:27.045Z</time>
      </trkpt>
      <trkpt lat="45.55402" lon="4.54951">
        <ele>526.508014</ele>
        <time>2025-06-07T07:58:29.040Z</time>
      </trkpt>
      <trkpt lat="45.55414" lon="4.54943">
        <ele>525.400731</ele>
        <time>2025-06-07T07:58:31.044Z</time>
      </trkpt>
      <trkpt lat="45.5543" lon="4.54934">
        <ele>523.989071</ele>
        <time>2025-06-07T07:58:33.040Z</time>
      </trkpt>
      <trkpt lat="45.55442" lon="4.54928">
        <ele>522.868777</ele>
        <time>2025-06-07T07:58:35.033Z</time>
      </trkpt>
      <trkpt lat="45.55453" lon="4.54921">
        <ele>521.914857</ele>
        <time>2025-06-07T07:58:37.027Z</time>
      </trkpt>
      <trkpt lat="45.55461" lon="4.54914">
        <ele>521.085632</ele>
        <time>2025-06-07T07:58:39.041Z</time>
      </trkpt>
      <trkpt lat="45.55468" lon="4.54904">
        <ele>520.306757</ele>
        <time>2025-06-07T07:58:41.029Z</time>
      </trkpt>
      <trkpt lat="45.55472" lon="4.54891">
        <ele>519.727456</ele>
        <time>2025-06-07T07:58:43.028Z</time>
      </trkpt>
      <trkpt lat="45.55478" lon="4.54878">
        <ele>519.569802</ele>
        <time>2025-06-07T07:58:45.027Z</time>
      </trkpt>
      <trkpt lat="45.55488" lon="4.54866">
        <ele>519.387918</ele>
        <time>2025-06-07T07:58:47.027Z</time>
      </trkpt>
      <trkpt lat="45.55499" lon="4.54854">
        <ele>519.192216</ele>
        <time>2025-06-07T07:58:49.037Z</time>
      </trkpt>
      <trkpt lat="45.55509" lon="4.54844">
        <ele>519.022186</ele>
        <time>2025-06-07T07:58:51.038Z</time>
      </trkpt>
      <trkpt lat="45.55517" lon="4.54837">
        <ele>518.884821</ele>
        <time>2025-06-07T07:58:53.049Z</time>
      </trkpt>
      <trkpt lat="45.55529" lon="4.54827">
        <ele>518.694144</ele>
        <time>2025-06-07T07:58:56.035Z</time>
      </trkpt>
      <trkpt lat="45.55539" lon="4.54826">
        <ele>518.556993</ele>
        <time>2025-06-07T07:58:58.053Z</time>
      </trkpt>
      <trkpt lat="45.55546" lon="4.54816">
        <ele>518.427984</ele>
        <time>2025-06-07T07:59:00.022Z</time>
      </trkpt>
      <trkpt lat="45.55546" lon="4.548">
        <ele>518.270671</ele>
        <time>2025-06-07T07:59:03.031Z</time>
      </trkpt>
      <trkpt lat="45.55552" lon="4.54786">
        <ele>518.10711</ele>
        <time>2025-06-07T07:59:07.042Z</time>
      </trkpt>
      <trkpt lat="45.55562" lon="4.54779">
        <ele>517.956134</ele>
        <time>2025-06-07T07:59:11.038Z</time>
      </trkpt>
      <trkpt lat="45.55568" lon="4.54769">
        <ele>517.825024</ele>
        <time>2025-06-07T07:59:15.026Z</time>
      </trkpt>
      <trkpt lat="45.55576" lon="4.54758">
        <ele>517.666923</ele>
        <time>2025-06-07T07:59:19.030Z</time>
      </trkpt>
      <trkpt lat="45.55585" lon="4.54747">
        <ele>517.503086</ele>
        <time>2025-06-07T07:59:23.029Z</time>
      </trkpt>
      <trkpt lat="45.55593" lon="4.54736">
        <ele>517.347037</ele>
        <time>2025-06-07T07:59:27.032Z</time>
      </trkpt>
      <trkpt lat="45.556" lon="4.54727">
        <ele>517.540435</ele>
        <time>2025-06-07T07:59:30.030Z</time>
      </trkpt>
      <trkpt lat="45.55607" lon="4.54714">
        <ele>518.528768</ele>
        <time>2025-06-07T07:59:33.032Z</time>
      </trkpt>
      <trkpt lat="45.55609" lon="4.54697">
        <ele>519.618176</ele>
        <time>2025-06-07T07:59:36.040Z</time>
      </trkpt>
      <trkpt lat="45.55606" lon="4.54682">
        <ele>520.598417</ele>
        <time>2025-06-07T07:59:39.044Z</time>
      </trkpt>
      <trkpt lat="45.55604" lon="4.54668">
        <ele>521.503278</ele>
        <time>2025-06-07T07:59:42.023Z</time>
      </trkpt>
      <trkpt lat="45.55604" lon="4.54654">
        <ele>522.413555</ele>
        <time>2025-06-07T07:59:45.033Z</time>
      </trkpt>
      <trkpt lat="45.55603" lon="4.5464">
        <ele>523.252022</ele>
        <time>2025-06-07T07:59:48.031Z</time>
      </trkpt>
      <trkpt lat="45.55603" lon="4.54626">
        <ele>524.136848</ele>
        <time>2025-06-07T07:59:52.029Z</time>
      </trkpt>
      <trkpt lat="45.55603" lon="4.54612">
        <ele>525.021809</ele>
        <time>2025-06-07T07:59:57.036Z</time>
      </trkpt>
      <trkpt lat="45.55604" lon="4.54599">
        <ele>525.847786</ele>
        <time>2025-06-07T08:00:02.026Z</time>
      </trkpt>
      <trkpt lat="45.55605" lon="4.54586">
        <ele>526.674685</ele>
        <time>2025-06-07T08:00:07.041Z</time>
      </trkpt>
      <trkpt lat="45.55606" lon="4.54572">
        <ele>527.543602</ele>
        <time>2025-06-07T08:00:12.030Z</time>
      </trkpt>
      <trkpt lat="45.55607" lon="4.54559">
        <ele>528.400013</ele>
        <time>2025-06-07T08:00:17.041Z</time>
      </trkpt>
      <trkpt lat="45.55608" lon="4.54545">
        <ele>529.239153</ele>
        <time>2025-06-07T08:00:22.015Z</time>
      </trkpt>
      <trkpt lat="45.5561" lon="4.54532">
        <ele>530.07518</ele>
        <time>2025-06-07T08:00:27.033Z</time>
      </trkpt>
      <trkpt lat="45.55612" lon="4.5452">
        <ele>530.898332</ele>
        <time>2025-06-07T08:00:32.031Z</time>
      </trkpt>
      <trkpt lat="45.55614" lon="4.54505">
        <ele>531.809042</ele>
        <time>2025-06-07T08:00:37.036Z</time>
      </trkpt>
      <trkpt lat="45.55617" lon="4.5449">
        <ele>532.76647</ele>
        <time>2025-06-07T08:00:42.027Z</time>
      </trkpt>
      <trkpt lat="45.55618" lon="4.54474">
        <ele>533.970334</ele>
        <time>2025-06-07T08:00:47.033Z</time>
      </trkpt>
      <trkpt lat="45.55617" lon="4.5446">
        <ele>535.329206</ele>
        <time>2025-06-07T08:00:52.027Z</time>
      </trkpt>
      <trkpt lat="45.55616" lon="4.54445">
        <ele>536.677401</ele>
        <time>2025-06-07T08:00:57.041Z</time>
      </trkpt>
      <trkpt lat="45.55615" lon="4.5443">
        <ele>538.090085</ele>
        <time>2025-06-07T08:01:02.029Z</time>
      </trkpt>
      <trkpt lat="45.55614" lon="4.54415">
        <ele>539.521605</ele>
        <time>2025-06-07T08:01:07.032Z</time>
      </trkpt>
      <trkpt lat="45.55616" lon="4.544">
        <ele>540.912158</ele>
        <time>2025-06-07T08:01:12.023Z</time>
      </trkpt>
      <trkpt lat="45.55619" lon="4.54385">
        <ele>542.3585</ele>
        <time>2025-06-07T08:01:17.036Z</time>
      </trkpt>
      <trkpt lat="45.55623" lon="4.54374">
        <ele>543.553687</ele>
        <time>2025-06-07T08:01:32.034Z</time>
      </trkpt>
      <trkpt lat="45.55625" lon="4.54358">
        <ele>545.024648</ele>
        <time>2025-06-07T08:01:36.038Z</time>
      </trkpt>
      <trkpt lat="45.55628" lon="4.54342">
        <ele>546.53483</ele>
        <time>2025-06-07T08:01:40.038Z</time>
      </trkpt>
      <trkpt lat="45.55632" lon="4.54329">
        <ele>547.903129</ele>
        <time>2025-06-07T08:01:44.026Z</time>
      </trkpt>
      <trkpt lat="45.55631" lon="4.54315">
        <ele>549.16848</ele>
        <time>2025-06-07T08:01:49.034Z</time>
      </trkpt>
      <trkpt lat="45.5563" lon="4.54302">
        <ele>550.427703</ele>
        <time>2025-06-07T08:01:55.046Z</time>
      </trkpt>
      <trkpt lat="45.55628" lon="4.54288">
        <ele>551.704116</ele>
        <time>2025-06-07T08:02:01.050Z</time>
      </trkpt>
      <trkpt lat="45.55627" lon="4.54274">
        <ele>553.028408</ele>
        <time>2025-06-07T08:02:07.052Z</time>
      </trkpt>
      <trkpt lat="45.55627" lon="4.54261">
        <ele>554.245109</ele>
        <time>2025-06-07T08:02:12.032Z</time>
      </trkpt>
      <trkpt lat="45.55629" lon="4.54247">
        <ele>555.565506</ele>
        <time>2025-06-07T08:02:18.034Z</time>
      </trkpt>
      <trkpt lat="45.5563" lon="4.54234">
        <ele>556.769278</ele>
        <time>2025-06-07T08:02:23.030Z</time>
      </trkpt>
      <trkpt lat="45.55629" lon="4.54221">
        <ele>557.610363</ele>
        <time>2025-06-07T08:02:29.038Z</time>
      </trkpt>
      <trkpt lat="45.55629" lon="4.54189">
        <ele>559.01491</ele>
        <time>2025-06-07T08:02:47.033Z</time>
      </trkpt>
      <trkpt lat="45.55629" lon="4.54173">
        <ele>559.721706</ele>
        <time>2025-06-07T08:02:51.029Z</time>
      </trkpt>
      <trkpt lat="45.5563" lon="4.5416">
        <ele>560.333333</ele>
        <time>2025-06-07T08:02:55.031Z</time>
      </trkpt>
      <trkpt lat="45.55631" lon="4.54145">
        <ele>560.981941</ele>
        <time>2025-06-07T08:02:59.031Z</time>
      </trkpt>
      <trkpt lat="45.55633" lon="4.54131">
        <ele>561.635447</ele>
        <time>2025-06-07T08:03:03.031Z</time>
      </trkpt>
      <trkpt lat="45.55635" lon="4.54116">
        <ele>562.333665</ele>
        <time>2025-06-07T08:03:07.040Z</time>
      </trkpt>
      <trkpt lat="45.55637" lon="4.54101">
        <ele>563.004426</ele>
        <time>2025-06-07T08:03:12.030Z</time>
      </trkpt>
      <trkpt lat="45.55645" lon="4.54094">
        <ele>563.616829</ele>
        <time>2025-06-07T08:03:18.037Z</time>
      </trkpt>
      <trkpt lat="45.55643" lon="4.54071">
        <ele>564.650662</ele>
        <time>2025-06-07T08:03:45.035Z</time>
      </trkpt>
      <trkpt lat="45.55645" lon="4.54055">
        <ele>565.410813</ele>
        <time>2025-06-07T08:03:48.030Z</time>
      </trkpt>
      <trkpt lat="45.55647" lon="4.54036">
        <ele>566.252478</ele>
        <time>2025-06-07T08:03:51.038Z</time>
      </trkpt>
      <trkpt lat="45.55648" lon="4.54023">
        <ele>566.838953</ele>
        <time>2025-06-07T08:03:53.026Z</time>
      </trkpt>
      <trkpt lat="45.55649" lon="4.5401">
        <ele>567.43795</ele>
        <time>2025-06-07T08:03:55.035Z</time>
      </trkpt>
      <trkpt lat="45.5565" lon="4.53996">
        <ele>568.058472</ele>
        <time>2025-06-07T08:03:57.024Z</time>
      </trkpt>
      <trkpt lat="45.55652" lon="4.53982">
        <ele>568.676826</ele>
        <time>2025-06-07T08:03:59.025Z</time>
      </trkpt>
      <trkpt lat="45.55653" lon="4.53967">
        <ele>568.879333</ele>
        <time>2025-06-07T08:04:01.034Z</time>
      </trkpt>
      <trkpt lat="45.55656" lon="4.53952">
        <ele>569.061559</ele>
        <time>2025-06-07T08:04:03.053Z</time>
      </trkpt>
      <trkpt lat="45.55659" lon="4.53936">
        <ele>569.253869</ele>
        <time>2025-06-07T08:04:05.035Z</time>
      </trkpt>
      <trkpt lat="45.55664" lon="4.53921">
        <ele>569.453496</ele>
        <time>2025-06-07T08:04:07.027Z</time>
      </trkpt>
      <trkpt lat="45.5567" lon="4.53905">
        <ele>569.652555</ele>
        <time>2025-06-07T08:04:09.040Z</time>
      </trkpt>
      <trkpt lat="45.55674" lon="4.53889">
        <ele>569.859662</ele>
        <time>2025-06-07T08:04:11.034Z</time>
      </trkpt>
      <trkpt lat="45.55677" lon="4.53872">
        <ele>570.054383</ele>
        <time>2025-06-07T08:04:13.042Z</time>
      </trkpt>
      <trkpt lat="45.55677" lon="4.53857">
        <ele>570.23379</ele>
        <time>2025-06-07T08:04:15.046Z</time>
      </trkpt>
      <trkpt lat="45.55675" lon="4.53842">
        <ele>570.400527</ele>
        <time>2025-06-07T08:04:17.042Z</time>
      </trkpt>
      <trkpt lat="45.55673" lon="4.53829">
        <ele>570.562082</ele>
        <time>2025-06-07T08:04:19.043Z</time>
      </trkpt>
      <trkpt lat="45.55669" lon="4.53816">
        <ele>570.724963</ele>
        <time>2025-06-07T08:04:21.027Z</time>
      </trkpt>
      <trkpt lat="45.55666" lon="4.53803">
        <ele>570.878474</ele>
        <time>2025-06-07T08:04:23.056Z</time>
      </trkpt>
      <trkpt lat="45.55663" lon="4.5379">
        <ele>571.041813</ele>
        <time>2025-06-07T08:04:25.040Z</time>
      </trkpt>
      <trkpt lat="45.55662" lon="4.53776">
        <ele>571.201428</ele>
        <time>2025-06-07T08:04:27.039Z</time>
      </trkpt>
      <trkpt lat="45.55661" lon="4.53763">
        <ele>571.353626</ele>
        <time>2025-06-07T08:04:29.038Z</time>
      </trkpt>
      <trkpt lat="45.55662" lon="4.53745">
        <ele>571.5648</ele>
        <time>2025-06-07T08:04:32.034Z</time>
      </trkpt>
      <trkpt lat="45.55663" lon="4.53728">
        <ele>572.255863</ele>
        <time>2025-06-07T08:04:35.032Z</time>
      </trkpt>
      <trkpt lat="45.55665" lon="4.53711">
        <ele>573.704699</ele>
        <time>2025-06-07T08:04:38.038Z</time>
      </trkpt>
      <trkpt lat="45.55667" lon="4.53695">
        <ele>575.088499</ele>
        <time>2025-06-07T08:04:41.039Z</time>
      </trkpt>
      <trkpt lat="45.55671" lon="4.5368">
        <ele>576.392413</ele>
        <time>2025-06-07T08:04:44.042Z</time>
      </trkpt>
      <trkpt lat="45.55675" lon="4.53667">
        <ele>577.623833</ele>
        <time>2025-06-07T08:04:47.017Z</time>
      </trkpt>
      <trkpt lat="45.55671" lon="4.53653">
        <ele>578.89974</ele>
        <time>2025-06-07T08:04:50.047Z</time>
      </trkpt>
      <trkpt lat="45.55665" lon="4.53642">
        <ele>580.164115</ele>
        <time>2025-06-07T08:04:53.037Z</time>
      </trkpt>
      <trkpt lat="45.55659" lon="4.5363">
        <ele>581.372291</ele>
        <time>2025-06-07T08:04:57.018Z</time>
      </trkpt>
      <trkpt lat="45.55653" lon="4.53619">
        <ele>582.527533</ele>
        <time>2025-06-07T08:05:01.025Z</time>
      </trkpt>
      <trkpt lat="45.55647" lon="4.53607">
        <ele>583.770354</ele>
        <time>2025-06-07T08:05:06.035Z</time>
      </trkpt>
      <trkpt lat="45.55642" lon="4.53595">
        <ele>584.931256</ele>
        <time>2025-06-07T08:05:11.026Z</time>
      </trkpt>
      <trkpt lat="45.55637" lon="4.53585">
        <ele>586.049131</ele>
        <time>2025-06-07T08:05:16.033Z</time>
      </trkpt>
      <trkpt lat="45.55633" lon="4.53573">
        <ele>587.144945</ele>
        <time>2025-06-07T08:05:21.036Z</time>
      </trkpt>
      <trkpt lat="45.55629" lon="4.53559">
        <ele>588.404532</ele>
        <time>2025-06-07T08:05:27.017Z</time>
      </trkpt>
      <trkpt lat="45.55624" lon="4.53549">
        <ele>589.488148</ele>
        <time>2025-06-07T08:05:32.038Z</time>
      </trkpt>
      <trkpt lat="45.55617" lon="4.53537">
        <ele>590.800373</ele>
        <time>2025-06-07T08:05:37.029Z</time>
      </trkpt>
      <trkpt lat="45.55613" lon="4.53522">
        <ele>592.116821</ele>
        <time>2025-06-07T08:05:42.037Z</time>
      </trkpt>
      <trkpt lat="45.55611" lon="4.53508">
        <ele>593.393649</ele>
        <time>2025-06-07T08:05:47.026Z</time>
      </trkpt>
      <trkpt lat="45.55609" lon="4.53493">
        <ele>593.773326</ele>
        <time>2025-06-07T08:05:52.027Z</time>
      </trkpt>
      <trkpt lat="45.55607" lon="4.5348">
        <ele>594.082249</ele>
        <time>2025-06-07T08:05:57.032Z</time>
      </trkpt>
      <trkpt lat="45.55608" lon="4.53467">
        <ele>594.38676</ele>
        <time>2025-06-07T08:06:02.033Z</time>
      </trkpt>
      <trkpt lat="45.55613" lon="4.53453">
        <ele>594.726119</ele>
        <time>2025-06-07T08:06:08.036Z</time>
      </trkpt>
      <trkpt lat="45.55619" lon="4.53441">
        <ele>595.054509</ele>
        <time>2025-06-07T08:06:13.023Z</time>
      </trkpt>
      <trkpt lat="45.55617" lon="4.53408">
        <ele>595.806442</ele>
        <time>2025-06-07T08:06:39.014Z</time>
      </trkpt>
      <trkpt lat="45.55612" lon="4.53394">
        <ele>596.164368</ele>
        <time>2025-06-07T08:06:42.052Z</time>
      </trkpt>
      <trkpt lat="45.55605" lon="4.5338">
        <ele>596.544692</ele>
        <time>2025-06-07T08:06:45.019Z</time>
      </trkpt>
      <trkpt lat="45.55598" lon="4.53366">
        <ele>596.932315</ele>
        <time>2025-06-07T08:06:48.046Z</time>
      </trkpt>
      <trkpt lat="45.55592" lon="4.53351">
        <ele>597.334182</ele>
        <time>2025-06-07T08:06:51.026Z</time>
      </trkpt>
      <trkpt lat="45.55588" lon="4.53337">
        <ele>597.685279</ele>
        <time>2025-06-07T08:06:54.038Z</time>
      </trkpt>
      <trkpt lat="45.55587" lon="4.53323">
        <ele>598.005566</ele>
        <time>2025-06-07T08:06:56.039Z</time>
      </trkpt>
      <trkpt lat="45.55589" lon="4.53307">
        <ele>598.371909</ele>
        <time>2025-06-07T08:06:59.031Z</time>
      </trkpt>
      <trkpt lat="45.55591" lon="4.53293">
        <ele>598.686482</ele>
        <time>2025-06-07T08:07:02.042Z</time>
      </trkpt>
      <trkpt lat="45.55596" lon="4.53282">
        <ele>598.987662</ele>
        <time>2025-06-07T08:07:05.044Z</time>
      </trkpt>
      <trkpt lat="45.55602" lon="4.53268">
        <ele>599.34931</ele>
        <time>2025-06-07T08:07:09.034Z</time>
      </trkpt>
      <trkpt lat="45.55608" lon="4.53258">
        <ele>599.621328</ele>
        <time>2025-06-07T08:07:13.026Z</time>
      </trkpt>
      <trkpt lat="45.55615" lon="4.53249">
        <ele>599.890638</ele>
        <time>2025-06-07T08:07:18.032Z</time>
      </trkpt>
      <trkpt lat="45.55623" lon="4.53239">
        <ele>600.190898</ele>
        <time>2025-06-07T08:07:23.033Z</time>
      </trkpt>
      <trkpt lat="45.55627" lon="4.53224">
        <ele>600.522304</ele>
        <time>2025-06-07T08:07:28.032Z</time>
      </trkpt>
      <trkpt lat="45.55632" lon="4.5321">
        <ele>600.848395</ele>
        <time>2025-06-07T08:07:33.019Z</time>
      </trkpt>
      <trkpt lat="45.55636" lon="4.53199">
        <ele>601.114551</ele>
        <time>2025-06-07T08:07:37.035Z</time>
      </trkpt>
      <trkpt lat="45.55641" lon="4.53186">
        <ele>601.40826</ele>
        <time>2025-06-07T08:07:41.018Z</time>
      </trkpt>
      <trkpt lat="45.55645" lon="4.53174">
        <ele>601.676626</ele>
        <time>2025-06-07T08:07:44.035Z</time>
      </trkpt>
      <trkpt lat="45.5565" lon="4.53162">
        <ele>601.969533</ele>
        <time>2025-06-07T08:07:47.026Z</time>
      </trkpt>
      <trkpt lat="45.55656" lon="4.53147">
        <ele>602.315298</ele>
        <time>2025-06-07T08:07:50.051Z</time>
      </trkpt>
      <trkpt lat="45.55663" lon="4.53137">
        <ele>602.604328</ele>
        <time>2025-06-07T08:07:52.028Z</time>
      </trkpt>
      <trkpt lat="45.5567" lon="4.53128">
        <ele>602.890029</ele>
        <time>2025-06-07T08:07:54.040Z</time>
      </trkpt>
      <trkpt lat="45.55679" lon="4.53115">
        <ele>603.270156</ele>
        <time>2025-06-07T08:07:57.027Z</time>
      </trkpt>
      <trkpt lat="45.55681" lon="4.53101">
        <ele>603.543127</ele>
        <time>2025-06-07T08:08:00.023Z</time>
      </trkpt>
      <trkpt lat="45.55678" lon="4.53085">
        <ele>603.878315</ele>
        <time>2025-06-07T08:08:04.027Z</time>
      </trkpt>
      <trkpt lat="45.55675" lon="4.53073">
        <ele>604.159277</ele>
        <time>2025-06-07T08:08:07.040Z</time>
      </trkpt>
      <trkpt lat="45.55672" lon="4.53059">
        <ele>604.440842</ele>
        <time>2025-06-07T08:08:10.034Z</time>
      </trkpt>
      <trkpt lat="45.55667" lon="4.53048">
        <ele>604.721644</ele>
        <time>2025-06-07T08:08:13.024Z</time>
      </trkpt>
      <trkpt lat="45.5566" lon="4.53038">
        <ele>605.027921</ele>
        <time>2025-06-07T08:08:16.015Z</time>
      </trkpt>
      <trkpt lat="45.55653" lon="4.53029">
        <ele>605.331298</ele>
        <time>2025-06-07T08:08:19.027Z</time>
      </trkpt>
      <trkpt lat="45.55646" lon="4.53019">
        <ele>605.63911</ele>
        <time>2025-06-07T08:08:22.032Z</time>
      </trkpt>
      <trkpt lat="45.55639" lon="4.53011">
        <ele>605.925842</ele>
        <time>2025-06-07T08:08:25.031Z</time>
      </trkpt>
      <trkpt lat="45.55632" lon="4.53003">
        <ele>606.208473</ele>
        <time>2025-06-07T08:08:28.036Z</time>
      </trkpt>
      <trkpt lat="45.55625" lon="4.52995">
        <ele>606.494614</ele>
        <time>2025-06-07T08:08:31.031Z</time>
      </trkpt>
      <trkpt lat="45.55618" lon="4.52985">
        <ele>606.804283</ele>
        <time>2025-06-07T08:08:34.034Z</time>
      </trkpt>
      <trkpt lat="45.55612" lon="4.52974">
        <ele>607.108953</ele>
        <time>2025-06-07T08:08:37.030Z</time>
      </trkpt>
      <trkpt lat="45.55606" lon="4.52964">
        <ele>607.398251</ele>
        <time>2025-06-07T08:08:40.027Z</time>
      </trkpt>
      <trkpt lat="45.556" lon="4.52954">
        <ele>607.685948</ele>
        <time>2025-06-07T08:08:43.029Z</time>
      </trkpt>
      <trkpt lat="45.55593" lon="4.52945">
        <ele>607.971775</ele>
        <time>2025-06-07T08:08:46.021Z</time>
      </trkpt>
      <trkpt lat="45.55587" lon="4.52936">
        <ele>608.258935</ele>
        <time>2025-06-07T08:08:49.019Z</time>
      </trkpt>
      <trkpt lat="45.5558" lon="4.52922">
        <ele>608.635384</ele>
        <time>2025-06-07T08:08:53.028Z</time>
      </trkpt>
      <trkpt lat="45.55576" lon="4.5291">
        <ele>608.932341</ele>
        <time>2025-06-07T08:08:57.025Z</time>
      </trkpt>
      <trkpt lat="45.55569" lon="4.52897">
        <ele>609.279966</ele>
        <time>2025-06-07T08:09:02.027Z</time>
      </trkpt>
      <trkpt lat="45.55568" lon="4.52883">
        <ele>609.586134</ele>
        <time>2025-06-07T08:09:05.038Z</time>
      </trkpt>
      <trkpt lat="45.55568" lon="4.52864">
        <ele>610.010548</ele>
        <time>2025-06-07T08:09:08.027Z</time>
      </trkpt>
      <trkpt lat="45.55569" lon="4.52848">
        <ele>610.05529</ele>
        <time>2025-06-07T08:09:10.015Z</time>
      </trkpt>
      <trkpt lat="45.55572" lon="4.52831">
        <ele>609.797513</ele>
        <time>2025-06-07T08:09:12.026Z</time>
      </trkpt>
      <trkpt lat="45.55576" lon="4.52814">
        <ele>609.53892</ele>
        <time>2025-06-07T08:09:14.036Z</time>
      </trkpt>
      <trkpt lat="45.55582" lon="4.52802">
        <ele>609.324587</ele>
        <time>2025-06-07T08:09:16.030Z</time>
      </trkpt>
      <trkpt lat="45.55589" lon="4.52791">
        <ele>609.105534</ele>
        <time>2025-06-07T08:09:18.024Z</time>
      </trkpt>
      <trkpt lat="45.55605" lon="4.52779">
        <ele>608.7289</ele>
        <time>2025-06-07T08:11:03.012Z</time>
      </trkpt>
      <trkpt lat="45.55614" lon="4.52774">
        <ele>608.538941</ele>
        <time>2025-06-07T08:11:05.023Z</time>
      </trkpt>
      <trkpt lat="45.55624" lon="4.52767">
        <ele>608.289869</ele>
        <time>2025-06-07T08:11:08.011Z</time>
      </trkpt>
      <trkpt lat="45.55633" lon="4.52761">
        <ele>608.092267</ele>
        <time>2025-06-07T08:11:11.034Z</time>
      </trkpt>
      <trkpt lat="45.55644" lon="4.52737">
        <ele>607.668682</ele>
        <time>2025-06-07T08:11:48.016Z</time>
      </trkpt>
      <trkpt lat="45.55646" lon="4.52722">
        <ele>607.444803</ele>
        <time>2025-06-07T08:11:52.039Z</time>
      </trkpt>
      <trkpt lat="45.55644" lon="4.52693">
        <ele>607.031183</ele>
        <time>2025-06-07T08:12:14.046Z</time>
      </trkpt>
      <trkpt lat="45.55643" lon="4.5268">
        <ele>606.838649</ele>
        <time>2025-06-07T08:12:17.023Z</time>
      </trkpt>
      <trkpt lat="45.55641" lon="4.52666">
        <ele>606.629929</ele>
        <time>2025-06-07T08:12:20.041Z</time>
      </trkpt>
      <trkpt lat="45.55643" lon="4.52652">
        <ele>606.425449</ele>
        <time>2025-06-07T08:12:23.036Z</time>
      </trkpt>
      <trkpt lat="45.55644" lon="4.52637">
        <ele>606.042236</ele>
        <time>2025-06-07T08:12:26.027Z</time>
      </trkpt>
      <trkpt lat="45.55645" lon="4.52621">
        <ele>605.665767</ele>
        <time>2025-06-07T08:12:29.011Z</time>
      </trkpt>
      <trkpt lat="45.55645" lon="4.52605">
        <ele>605.251196</ele>
        <time>2025-06-07T08:12:32.046Z</time>
      </trkpt>
      <trkpt lat="45.55647" lon="4.52589">
        <ele>604.865682</ele>
        <time>2025-06-07T08:12:35.024Z</time>
      </trkpt>
      <trkpt lat="45.55649" lon="4.52576">
        <ele>604.532652</ele>
        <time>2025-06-07T08:12:38.037Z</time>
      </trkpt>
      <trkpt lat="45.55651" lon="4.52562">
        <ele>604.188745</ele>
        <time>2025-06-07T08:12:42.033Z</time>
      </trkpt>
      <trkpt lat="45.55653" lon="4.52547">
        <ele>603.809838</ele>
        <time>2025-06-07T08:12:46.023Z</time>
      </trkpt>
      <trkpt lat="45.55659" lon="4.52532">
        <ele>603.37374</ele>
        <time>2025-06-07T08:12:49.026Z</time>
      </trkpt>
      <trkpt lat="45.55665" lon="4.52519">
        <ele>602.996253</ele>
        <time>2025-06-07T08:12:51.042Z</time>
      </trkpt>
      <trkpt lat="45.55671" lon="4.52507">
        <ele>602.648816</ele>
        <time>2025-06-07T08:12:53.037Z</time>
      </trkpt>
      <trkpt lat="45.55677" lon="4.52497">
        <ele>602.316905</ele>
        <time>2025-06-07T08:12:55.027Z</time>
      </trkpt>
      <trkpt lat="45.55687" lon="4.52486">
        <ele>601.889126</ele>
        <time>2025-06-07T08:12:58.019Z</time>
      </trkpt>
      <trkpt lat="45.55698" lon="4.52477">
        <ele>601.434021</ele>
        <time>2025-06-07T08:13:01.043Z</time>
      </trkpt>
      <trkpt lat="45.55709" lon="4.52477">
        <ele>601.056071</ele>
        <time>2025-06-07T08:13:03.040Z</time>
      </trkpt>
      <trkpt lat="45.55719" lon="4.52476">
        <ele>600.691661</ele>
        <time>2025-06-07T08:13:05.048Z</time>
      </trkpt>
      <trkpt lat="45.55731" lon="4.52475">
        <ele>600.281824</ele>
        <time>2025-06-07T08:13:07.044Z</time>
      </trkpt>
      <trkpt lat="45.55741" lon="4.52473">
        <ele>600.172281</ele>
        <time>2025-06-07T08:13:10.027Z</time>
      </trkpt>
      <trkpt lat="45.5576" lon="4.52461">
        <ele>600.306682</ele>
        <time>2025-06-07T08:13:49.035Z</time>
      </trkpt>
      <trkpt lat="45.55768" lon="4.52455">
        <ele>600.367893</ele>
        <time>2025-06-07T08:13:53.032Z</time>
      </trkpt>
      <trkpt lat="45.55775" lon="4.52446">
        <ele>600.428335</ele>
        <time>2025-06-07T08:13:57.043Z</time>
      </trkpt>
      <trkpt lat="45.55774" lon="4.52432">
        <ele>600.493783</ele>
        <time>2025-06-07T08:14:01.029Z</time>
      </trkpt>
      <trkpt lat="45.5577" lon="4.52418">
        <ele>600.558267</ele>
        <time>2025-06-07T08:14:05.030Z</time>
      </trkpt>
      <trkpt lat="45.55767" lon="4.52404">
        <ele>600.625533</ele>
        <time>2025-06-07T08:14:09.029Z</time>
      </trkpt>
      <trkpt lat="45.55766" lon="4.52389">
        <ele>600.695093</ele>
        <time>2025-06-07T08:14:13.030Z</time>
      </trkpt>
      <trkpt lat="45.55766" lon="4.52376">
        <ele>600.754737</ele>
        <time>2025-06-07T08:14:16.021Z</time>
      </trkpt>
      <trkpt lat="45.55769" lon="4.52362">
        <ele>600.819835</ele>
        <time>2025-06-07T08:14:20.029Z</time>
      </trkpt>
      <trkpt lat="45.55776" lon="4.52354">
        <ele>600.878192</ele>
        <time>2025-06-07T08:14:24.026Z</time>
      </trkpt>
      <trkpt lat="45.55786" lon="4.52345">
        <ele>600.950967</ele>
        <time>2025-06-07T08:14:28.016Z</time>
      </trkpt>
      <trkpt lat="45.55795" lon="4.52337">
        <ele>601.021576</ele>
        <time>2025-06-07T08:14:32.027Z</time>
      </trkpt>
      <trkpt lat="45.55803" lon="4.5233">
        <ele>601.08314</ele>
        <time>2025-06-07T08:14:36.035Z</time>
      </trkpt>
      <trkpt lat="45.55813" lon="4.5232">
        <ele>601.159036</ele>
        <time>2025-06-07T08:14:40.018Z</time>
      </trkpt>
      <trkpt lat="45.55822" lon="4.52311">
        <ele>601.232314</ele>
        <time>2025-06-07T08:14:44.033Z</time>
      </trkpt>
      <trkpt lat="45.5583" lon="4.52304">
        <ele>601.294064</ele>
        <time>2025-06-07T08:14:47.034Z</time>
      </trkpt>
      <trkpt lat="45.55839" lon="4.52294">
        <ele>601.721221</ele>
        <time>2025-06-07T08:14:51.038Z</time>
      </trkpt>
      <trkpt lat="45.55847" lon="4.52286">
        <ele>602.085335</ele>
        <time>2025-06-07T08:14:54.035Z</time>
      </trkpt>
      <trkpt lat="45.55856" lon="4.52276">
        <ele>602.510637</ele>
        <time>2025-06-07T08:14:58.022Z</time>
      </trkpt>
      <trkpt lat="45.55865" lon="4.52268">
        <ele>602.94343</ele>
        <time>2025-06-07T08:15:02.025Z</time>
      </trkpt>
      <trkpt lat="45.55874" lon="4.52261">
        <ele>603.324564</ele>
        <time>2025-06-07T08:15:05.029Z</time>
      </trkpt>
      <trkpt lat="45.55881" lon="4.52253">
        <ele>603.673088</ele>
        <time>2025-06-07T08:15:08.020Z</time>
      </trkpt>
      <trkpt lat="45.55891" lon="4.52244">
        <ele>604.120461</ele>
        <time>2025-06-07T08:15:12.026Z</time>
      </trkpt>
      <trkpt lat="45.55901" lon="4.52236">
        <ele>604.571876</ele>
        <time>2025-06-07T08:15:16.036Z</time>
      </trkpt>
      <trkpt lat="45.55909" lon="4.52228">
        <ele>604.948638</ele>
        <time>2025-06-07T08:15:19.022Z</time>
      </trkpt>
      <trkpt lat="45.55917" lon="4.52221">
        <ele>605.325077</ele>
        <time>2025-06-07T08:15:22.035Z</time>
      </trkpt>
      <trkpt lat="45.55925" lon="4.52214">
        <ele>605.682742</ele>
        <time>2025-06-07T08:15:25.019Z</time>
      </trkpt>
      <trkpt lat="45.55933" lon="4.52207">
        <ele>606.042188</ele>
        <time>2025-06-07T08:15:28.032Z</time>
      </trkpt>
      <trkpt lat="45.55942" lon="4.52198">
        <ele>606.467543</ele>
        <time>2025-06-07T08:15:32.035Z</time>
      </trkpt>
      <trkpt lat="45.55952" lon="4.52189">
        <ele>606.918352</ele>
        <time>2025-06-07T08:15:36.033Z</time>
      </trkpt>
      <trkpt lat="45.55959" lon="4.52181">
        <ele>607.266744</ele>
        <time>2025-06-07T08:15:39.026Z</time>
      </trkpt>
      <trkpt lat="45.55966" lon="4.5217">
        <ele>607.671142</ele>
        <time>2025-06-07T08:15:42.021Z</time>
      </trkpt>
      <trkpt lat="45.55971" lon="4.52159">
        <ele>608.016228</ele>
        <time>2025-06-07T08:15:44.027Z</time>
      </trkpt>
      <trkpt lat="45.55979" lon="4.52146">
        <ele>609.302474</ele>
        <time>2025-06-07T08:15:47.039Z</time>
      </trkpt>
      <trkpt lat="45.5598" lon="4.52131">
        <ele>610.940265</ele>
        <time>2025-06-07T08:15:51.029Z</time>
      </trkpt>
      <trkpt lat="45.55971" lon="4.52124">
        <ele>612.443755</ele>
        <time>2025-06-07T08:15:55.017Z</time>
      </trkpt>
      <trkpt lat="45.55962" lon="4.52119">
        <ele>613.913115</ele>
        <time>2025-06-07T08:15:59.039Z</time>
      </trkpt>
      <trkpt lat="45.55953" lon="4.52112">
        <ele>615.546024</ele>
        <time>2025-06-07T08:16:04.043Z</time>
      </trkpt>
      <trkpt lat="45.55946" lon="4.52103">
        <ele>616.975241</ele>
        <time>2025-06-07T08:16:28.020Z</time>
      </trkpt>
      <trkpt lat="45.5594" lon="4.52094">
        <ele>618.406778</ele>
        <time>2025-06-07T08:16:44.019Z</time>
      </trkpt>
      <trkpt lat="45.55932" lon="4.52079">
        <ele>620.475964</ele>
        <time>2025-06-07T08:17:22.025Z</time>
      </trkpt>
      <trkpt lat="45.55925" lon="4.5207">
        <ele>621.876496</ele>
        <time>2025-06-07T08:17:40.028Z</time>
      </trkpt>
      <trkpt lat="45.55918" lon="4.52062">
        <ele>623.319006</ele>
        <time>2025-06-07T08:17:59.032Z</time>
      </trkpt>
      <trkpt lat="45.55913" lon="4.5205">
        <ele>624.8399</ele>
        <time>2025-06-07T08:18:18.034Z</time>
      </trkpt>
      <trkpt lat="45.55908" lon="4.52038">
        <ele>626.287817</ele>
        <time>2025-06-07T08:18:30.021Z</time>
      </trkpt>
      <trkpt lat="45.55907" lon="4.52025">
        <ele>627.762781</ele>
        <time>2025-06-07T08:18:40.028Z</time>
      </trkpt>
      <trkpt lat="45.55904" lon="4.52012">
        <ele>629.245247</ele>
        <time>2025-06-07T08:18:54.030Z</time>
      </trkpt>
      <trkpt lat="45.55907" lon="4.51999">
        <ele>630.747976</ele>
        <time>2025-06-07T08:18:59.031Z</time>
      </trkpt>
      <trkpt lat="45.5591" lon="4.51984">
        <ele>632.391901</ele>
        <time>2025-06-07T08:19:04.036Z</time>
      </trkpt>
      <trkpt lat="45.55916" lon="4.51973">
        <ele>633.92296</ele>
        <time>2025-06-07T08:19:09.021Z</time>
      </trkpt>
      <trkpt lat="45.55924" lon="4.51965">
        <ele>635.427262</ele>
        <time>2025-06-07T08:19:15.030Z</time>
      </trkpt>
      <trkpt lat="45.55931" lon="4.51957">
        <ele>636.783553</ele>
        <time>2025-06-07T08:19:20.036Z</time>
      </trkpt>
      <trkpt lat="45.55938" lon="4.51947">
        <ele>637.947624</ele>
        <time>2025-06-07T08:19:25.022Z</time>
      </trkpt>
      <trkpt lat="45.55947" lon="4.5194">
        <ele>639.238115</ele>
        <time>2025-06-07T08:19:31.027Z</time>
      </trkpt>
      <trkpt lat="45.55956" lon="4.51936">
        <ele>640.395009</ele>
        <time>2025-06-07T08:19:37.014Z</time>
      </trkpt>
      <trkpt lat="45.55966" lon="4.51932">
        <ele>641.585689</ele>
        <time>2025-06-07T08:19:42.049Z</time>
      </trkpt>
      <trkpt lat="45.55974" lon="4.51924">
        <ele>642.912312</ele>
        <time>2025-06-07T08:19:48.053Z</time>
      </trkpt>
      <trkpt lat="45.5598" lon="4.51914">
        <ele>644.038565</ele>
        <time>2025-06-07T08:19:53.019Z</time>
      </trkpt>
      <trkpt lat="45.55986" lon="4.51903">
        <ele>645.174524</ele>
        <time>2025-06-07T08:19:58.031Z</time>
      </trkpt>
      <trkpt lat="45.55993" lon="4.51893">
        <ele>646.410776</ele>
        <time>2025-06-07T08:20:04.032Z</time>
      </trkpt>
      <trkpt lat="45.56" lon="4.51886">
        <ele>647.521602</ele>
        <time>2025-06-07T08:20:10.027Z</time>
      </trkpt>
      <trkpt lat="45.56016" lon="4.51888">
        <ele>649.484241</ele>
        <time>2025-06-07T08:20:27.020Z</time>
      </trkpt>
      <trkpt lat="45.56027" lon="4.51885">
        <ele>650.837604</ele>
        <time>2025-06-07T08:20:31.029Z</time>
      </trkpt>
      <trkpt lat="45.56037" lon="4.51882">
        <ele>652.128956</ele>
        <time>2025-06-07T08:20:35.023Z</time>
      </trkpt>
      <trkpt lat="45.56048" lon="4.5188">
        <ele>653.497725</ele>
        <time>2025-06-07T08:20:39.025Z</time>
      </trkpt>
      <trkpt lat="45.56058" lon="4.51875">
        <ele>654.725665</ele>
        <time>2025-06-07T08:20:43.022Z</time>
      </trkpt>
      <trkpt lat="45.56066" lon="4.51869">
        <ele>655.906662</ele>
        <time>2025-06-07T08:20:47.016Z</time>
      </trkpt>
      <trkpt lat="45.56076" lon="4.51865">
        <ele>657.144233</ele>
        <time>2025-06-07T08:20:51.038Z</time>
      </trkpt>
      <trkpt lat="45.56086" lon="4.51862">
        <ele>658.342907</ele>
        <time>2025-06-07T08:20:55.031Z</time>
      </trkpt>
      <trkpt lat="45.56096" lon="4.5186">
        <ele>659.177082</ele>
        <time>2025-06-07T08:21:00.033Z</time>
      </trkpt>
      <trkpt lat="45.56106" lon="4.51859">
        <ele>659.971558</ele>
        <time>2025-06-07T08:21:04.023Z</time>
      </trkpt>
      <trkpt lat="45.56116" lon="4.51859">
        <ele>660.812252</ele>
        <time>2025-06-07T08:21:08.021Z</time>
      </trkpt>
      <trkpt lat="45.56126" lon="4.51859">
        <ele>661.620778</ele>
        <time>2025-06-07T08:21:12.023Z</time>
      </trkpt>
      <trkpt lat="45.56135" lon="4.51859">
        <ele>662.349256</ele>
        <time>2025-06-07T08:21:16.022Z</time>
      </trkpt>
      <trkpt lat="45.56145" lon="4.51861">
        <ele>663.155038</ele>
        <time>2025-06-07T08:21:21.033Z</time>
      </trkpt>
      <trkpt lat="45.56154" lon="4.51856">
        <ele>663.921251</ele>
        <time>2025-06-07T08:21:26.033Z</time>
      </trkpt>
      <trkpt lat="45.56144" lon="4.5185">
        <ele>664.786528</ele>
        <time>2025-06-07T08:21:30.030Z</time>
      </trkpt>
      <trkpt lat="45.56132" lon="4.51848">
        <ele>665.698719</ele>
        <time>2025-06-07T08:21:34.043Z</time>
      </trkpt>
      <trkpt lat="45.5612" lon="4.51846">
        <ele>666.684551</ele>
        <time>2025-06-07T08:21:38.037Z</time>
      </trkpt>
      <trkpt lat="45.5611" lon="4.51842">
        <ele>667.502329</ele>
        <time>2025-06-07T08:21:41.013Z</time>
      </trkpt>
      <trkpt lat="45.56101" lon="4.51838">
        <ele>668.244342</ele>
        <time>2025-06-07T08:21:44.040Z</time>
      </trkpt>
      <trkpt lat="45.56092" lon="4.51836">
        <ele>669.041248</ele>
        <time>2025-06-07T08:21:48.036Z</time>
      </trkpt>
      <trkpt lat="45.56082" lon="4.51831">
        <ele>669.872421</ele>
        <time>2025-06-07T08:21:52.040Z</time>
      </trkpt>
      <trkpt lat="45.56072" lon="4.51824">
        <ele>670.732518</ele>
        <time>2025-06-07T08:21:56.041Z</time>
      </trkpt>
      <trkpt lat="45.56063" lon="4.51816">
        <ele>671.584076</ele>
        <time>2025-06-07T08:22:00.032Z</time>
      </trkpt>
      <trkpt lat="45.56057" lon="4.51804">
        <ele>672.438316</ele>
        <time>2025-06-07T08:22:04.035Z</time>
      </trkpt>
      <trkpt lat="45.56056" lon="4.51789">
        <ele>673.896626</ele>
        <time>2025-06-07T08:22:08.047Z</time>
      </trkpt>
      <trkpt lat="45.56055" lon="4.51776">
        <ele>675.714676</ele>
        <time>2025-06-07T08:22:12.042Z</time>
      </trkpt>
      <trkpt lat="45.56054" lon="4.51762">
        <ele>677.540106</ele>
        <time>2025-06-07T08:22:17.035Z</time>
      </trkpt>
      <trkpt lat="45.56065" lon="4.51756">
        <ele>679.863545</ele>
        <time>2025-06-07T08:22:46.026Z</time>
      </trkpt>
      <trkpt lat="45.56071" lon="4.51745">
        <ele>681.794084</ele>
        <time>2025-06-07T08:22:53.039Z</time>
      </trkpt>
      <trkpt lat="45.56076" lon="4.51732">
        <ele>683.736656</ele>
        <time>2025-06-07T08:23:00.012Z</time>
      </trkpt>
      <trkpt lat="45.56082" lon="4.5172">
        <ele>685.67806</ele>
        <time>2025-06-07T08:23:06.024Z</time>
      </trkpt>
      <trkpt lat="45.56091" lon="4.51714">
        <ele>687.57414</ele>
        <time>2025-06-07T08:23:12.028Z</time>
      </trkpt>
      <trkpt lat="45.56099" lon="4.51723">
        <ele>689.555687</ele>
        <time>2025-06-07T08:23:18.013Z</time>
      </trkpt>
      <trkpt lat="45.56106" lon="4.51732">
        <ele>691.455019</ele>
        <time>2025-06-07T08:23:24.032Z</time>
      </trkpt>
      <trkpt lat="45.56114" lon="4.5174">
        <ele>693.288112</ele>
        <time>2025-06-07T08:23:30.012Z</time>
      </trkpt>
      <trkpt lat="45.56123" lon="4.51739">
        <ele>695.033646</ele>
        <time>2025-06-07T08:23:37.033Z</time>
      </trkpt>
      <trkpt lat="45.56133" lon="4.51737">
        <ele>696.997358</ele>
        <time>2025-06-07T08:23:43.017Z</time>
      </trkpt>
      <trkpt lat="45.56143" lon="4.51732">
        <ele>698.912889</ele>
        <time>2025-06-07T08:23:50.014Z</time>
      </trkpt>
      <trkpt lat="45.56151" lon="4.51726">
        <ele>700.769709</ele>
        <time>2025-06-07T08:23:57.035Z</time>
      </trkpt>
      <trkpt lat="45.5616" lon="4.51722">
        <ele>702.490848</ele>
        <time>2025-06-07T08:24:03.019Z</time>
      </trkpt>
      <trkpt lat="45.56168" lon="4.51718">
        <ele>704.263529</ele>
        <time>2025-06-07T08:24:09.037Z</time>
      </trkpt>
      <trkpt lat="45.56166" lon="4.51699">
        <ele>706.920985</ele>
        <time>2025-06-07T08:25:09.037Z</time>
      </trkpt>
      <trkpt lat="45.56161" lon="4.51685">
        <ele>708.818183</ele>
        <time>2025-06-07T08:25:14.019Z</time>
      </trkpt>
      <trkpt lat="45.56159" lon="4.51672">
        <ele>710.441721</ele>
        <time>2025-06-07T08:25:19.023Z</time>
      </trkpt>
      <trkpt lat="45.56159" lon="4.51657">
        <ele>712.274855</ele>
        <time>2025-06-07T08:25:25.023Z</time>
      </trkpt>
      <trkpt lat="45.56158" lon="4.51643">
        <ele>713.95082</ele>
        <time>2025-06-07T08:25:30.013Z</time>
      </trkpt>
      <trkpt lat="45.56159" lon="4.51628">
        <ele>715.706756</ele>
        <time>2025-06-07T08:25:35.042Z</time>
      </trkpt>
      <trkpt lat="45.5616" lon="4.51613">
        <ele>717.51973</ele>
        <time>2025-06-07T08:25:40.019Z</time>
      </trkpt>
      <trkpt lat="45.56162" lon="4.51598">
        <ele>719.345812</ele>
        <time>2025-06-07T08:25:46.023Z</time>
      </trkpt>
      <trkpt lat="45.56163" lon="4.51586">
        <ele>720.897987</ele>
        <time>2025-06-07T08:25:51.030Z</time>
      </trkpt>
      <trkpt lat="45.56165" lon="4.51573">
        <ele>722.525625</ele>
        <time>2025-06-07T08:25:57.031Z</time>
      </trkpt>
      <trkpt lat="45.56172" lon="4.51561">
        <ele>724.332612</ele>
        <time>2025-06-07T08:26:03.025Z</time>
      </trkpt>
      <trkpt lat="45.56179" lon="4.51551">
        <ele>726.115921</ele>
        <time>2025-06-07T08:26:09.027Z</time>
      </trkpt>
      <trkpt lat="45.56187" lon="4.51541">
        <ele>727.940604</ele>
        <time>2025-06-07T08:26:14.025Z</time>
      </trkpt>
      <trkpt lat="45.56193" lon="4.51529">
        <ele>729.717703</ele>
        <time>2025-06-07T08:26:20.010Z</time>
      </trkpt>
      <trkpt lat="45.56198" lon="4.51517">
        <ele>731.378673</ele>
        <time>2025-06-07T08:26:26.015Z</time>
      </trkpt>
      <trkpt lat="45.56203" lon="4.51504">
        <ele>733.163368</ele>
        <time>2025-06-07T08:26:33.033Z</time>
      </trkpt>
      <trkpt lat="45.56206" lon="4.51491">
        <ele>734.7989</ele>
        <time>2025-06-07T08:26:40.011Z</time>
      </trkpt>
      <trkpt lat="45.5621" lon="4.51479">
        <ele>736.343325</ele>
        <time>2025-06-07T08:26:45.034Z</time>
      </trkpt>
      <trkpt lat="45.56212" lon="4.51465">
        <ele>738.1078</ele>
        <time>2025-06-07T08:26:51.019Z</time>
      </trkpt>
      <trkpt lat="45.56213" lon="4.5145">
        <ele>739.823392</ele>
        <time>2025-06-07T08:26:57.020Z</time>
      </trkpt>
      <trkpt lat="45.56216" lon="4.51438">
        <ele>741.355325</ele>
        <time>2025-06-07T08:27:03.019Z</time>
      </trkpt>
      <trkpt lat="45.5622" lon="4.51426">
        <ele>742.840727</ele>
        <time>2025-06-07T08:27:09.023Z</time>
      </trkpt>
      <trkpt lat="45.56226" lon="4.51415">
        <ele>744.48154</ele>
        <time>2025-06-07T08:27:15.020Z</time>
      </trkpt>
      <trkpt lat="45.56231" lon="4.51403">
        <ele>746.075065</ele>
        <time>2025-06-07T08:27:21.019Z</time>
      </trkpt>
      <trkpt lat="45.56237" lon="4.51392">
        <ele>747.649797</ele>
        <time>2025-06-07T08:27:27.025Z</time>
      </trkpt>
      <trkpt lat="45.56242" lon="4.51381">
        <ele>749.21532</ele>
        <time>2025-06-07T08:27:33.028Z</time>
      </trkpt>
      <trkpt lat="45.56248" lon="4.51369">
        <ele>750.799377</ele>
        <time>2025-06-07T08:27:39.011Z</time>
      </trkpt>
      <trkpt lat="45.56253" lon="4.51357">
        <ele>752.464612</ele>
        <time>2025-06-07T08:27:45.017Z</time>
      </trkpt>
      <trkpt lat="45.56257" lon="4.51344">
        <ele>754.097725</ele>
        <time>2025-06-07T08:27:51.033Z</time>
      </trkpt>
      <trkpt lat="45.56263" lon="4.51334">
        <ele>755.627012</ele>
        <time>2025-06-07T08:27:57.023Z</time>
      </trkpt>
      <trkpt lat="45.56269" lon="4.51323">
        <ele>757.231105</ele>
        <time>2025-06-07T08:28:03.018Z</time>
      </trkpt>
      <trkpt lat="45.56275" lon="4.51311">
        <ele>758.900188</ele>
        <time>2025-06-07T08:28:09.023Z</time>
      </trkpt>
      <trkpt lat="45.56279" lon="4.51298">
        <ele>760.528244</ele>
        <time>2025-06-07T08:28:15.008Z</time>
      </trkpt>
      <trkpt lat="45.56282" lon="4.51285">
        <ele>762.115769</ele>
        <time>2025-06-07T08:28:22.018Z</time>
      </trkpt>
      <trkpt lat="45.56284" lon="4.51271">
        <ele>763.789915</ele>
        <time>2025-06-07T08:28:29.016Z</time>
      </trkpt>
      <trkpt lat="45.56287" lon="4.51256">
        <ele>765.534858</ele>
        <time>2025-06-07T08:28:36.030Z</time>
      </trkpt>
      <trkpt lat="45.5629" lon="4.51243">
        <ele>767.155458</ele>
        <time>2025-06-07T08:28:43.010Z</time>
      </trkpt>
      <trkpt lat="45.56292" lon="4.51229">
        <ele>768.496756</ele>
        <time>2025-06-07T08:28:50.020Z</time>
      </trkpt>
      <trkpt lat="45.56295" lon="4.51216">
        <ele>769.521561</ele>
        <time>2025-06-07T08:28:57.028Z</time>
      </trkpt>
      <trkpt lat="45.56297" lon="4.51203">
        <ele>770.592912</ele>
        <time>2025-06-07T08:29:04.026Z</time>
      </trkpt>
      <trkpt lat="45.563" lon="4.5119">
        <ele>771.613612</ele>
        <time>2025-06-07T08:29:11.012Z</time>
      </trkpt>
      <trkpt lat="45.56303" lon="4.51178">
        <ele>772.607224</ele>
        <time>2025-06-07T08:29:17.011Z</time>
      </trkpt>
      <trkpt lat="45.56307" lon="4.51165">
        <ele>773.621741</ele>
        <time>2025-06-07T08:29:24.028Z</time>
      </trkpt>
      <trkpt lat="45.5631" lon="4.51152">
        <ele>774.697368</ele>
        <time>2025-06-07T08:29:31.008Z</time>
      </trkpt>
      <trkpt lat="45.56314" lon="4.51139">
        <ele>775.738413</ele>
        <time>2025-06-07T08:29:38.020Z</time>
      </trkpt>
      <trkpt lat="45.56317" lon="4.51127">
        <ele>776.732023</ele>
        <time>2025-06-07T08:29:44.024Z</time>
      </trkpt>
      <trkpt lat="45.56321" lon="4.51114">
        <ele>777.795599</ele>
        <time>2025-06-07T08:29:51.006Z</time>
      </trkpt>
      <trkpt lat="45.56326" lon="4.51102">
        <ele>778.866438</ele>
        <time>2025-06-07T08:29:58.014Z</time>
      </trkpt>
      <trkpt lat="45.5633" lon="4.51088">
        <ele>779.964512</ele>
        <time>2025-06-07T08:30:05.023Z</time>
      </trkpt>
      <trkpt lat="45.56334" lon="4.51075">
        <ele>781.052486</ele>
        <time>2025-06-07T08:30:12.018Z</time>
      </trkpt>
      <trkpt lat="45.56338" lon="4.51062">
        <ele>782.134528</ele>
        <time>2025-06-07T08:30:19.031Z</time>
      </trkpt>
      <trkpt lat="45.56342" lon="4.51051">
        <ele>783.118333</ele>
        <time>2025-06-07T08:30:25.034Z</time>
      </trkpt>
      <trkpt lat="45.56346" lon="4.51039">
        <ele>784.102356</ele>
        <time>2025-06-07T08:30:31.038Z</time>
      </trkpt>
      <trkpt lat="45.56351" lon="4.51027">
        <ele>785.1207</ele>
        <time>2025-06-07T08:30:37.020Z</time>
      </trkpt>
      <trkpt lat="45.56356" lon="4.51016">
        <ele>786.101071</ele>
        <time>2025-06-07T08:30:42.009Z</time>
      </trkpt>
      <trkpt lat="45.56362" lon="4.51005">
        <ele>787.172212</ele>
        <time>2025-06-07T08:30:48.009Z</time>
      </trkpt>
      <trkpt lat="45.56371" lon="4.50997">
        <ele>788.259288</ele>
        <time>2025-06-07T08:30:54.029Z</time>
      </trkpt>
      <trkpt lat="45.56379" lon="4.50994">
        <ele>789.18075</ele>
        <time>2025-06-07T08:30:59.015Z</time>
      </trkpt>
      <trkpt lat="45.5639" lon="4.5099">
        <ele>790.297242</ele>
        <time>2025-06-07T08:31:05.023Z</time>
      </trkpt>
      <trkpt lat="45.564" lon="4.50985">
        <ele>791.37481</ele>
        <time>2025-06-07T08:31:10.025Z</time>
      </trkpt>
      <trkpt lat="45.5641" lon="4.50983">
        <ele>792.426195</ele>
        <time>2025-06-07T08:31:14.022Z</time>
      </trkpt>
      <trkpt lat="45.5642" lon="4.50982">
        <ele>793.433932</ele>
        <time>2025-06-07T08:31:18.023Z</time>
      </trkpt>
      <trkpt lat="45.5643" lon="4.50983">
        <ele>794.504123</ele>
        <time>2025-06-07T08:31:22.024Z</time>
      </trkpt>
      <trkpt lat="45.56441" lon="4.50984">
        <ele>795.584538</ele>
        <time>2025-06-07T08:31:26.028Z</time>
      </trkpt>
      <trkpt lat="45.5645" lon="4.50985">
        <ele>796.508105</ele>
        <time>2025-06-07T08:31:29.021Z</time>
      </trkpt>
      <trkpt lat="45.56458" lon="4.50989">
        <ele>797.433429</ele>
        <time>2025-06-07T08:31:34.027Z</time>
      </trkpt>
      <trkpt lat="45.56467" lon="4.50995">
        <ele>798.446926</ele>
        <time>2025-06-07T08:31:41.026Z</time>
      </trkpt>
      <trkpt lat="45.56478" lon="4.50995">
        <ele>799.53418</ele>
        <time>2025-06-07T08:31:48.042Z</time>
      </trkpt>
      <trkpt lat="45.56488" lon="4.50996">
        <ele>800.54511</ele>
        <time>2025-06-07T08:31:54.028Z</time>
      </trkpt>
      <trkpt lat="45.56503" lon="4.50995">
        <ele>802.167288</ele>
        <time>2025-06-07T08:32:24.024Z</time>
      </trkpt>
      <trkpt lat="45.56514" lon="4.50995">
        <ele>803.244357</ele>
        <time>2025-06-07T08:32:31.030Z</time>
      </trkpt>
      <trkpt lat="45.56523" lon="4.5099">
        <ele>804.260672</ele>
        <time>2025-06-07T08:32:37.018Z</time>
      </trkpt>
      <trkpt lat="45.5653" lon="4.50981">
        <ele>805.201712</ele>
        <time>2025-06-07T08:32:42.013Z</time>
      </trkpt>
      <trkpt lat="45.56537" lon="4.5097">
        <ele>806.320436</ele>
        <time>2025-06-07T08:32:47.021Z</time>
      </trkpt>
      <trkpt lat="45.56545" lon="4.50966">
        <ele>807.427371</ele>
        <time>2025-06-07T08:33:01.017Z</time>
      </trkpt>
      <trkpt lat="45.56554" lon="4.50957">
        <ele>808.757549</ele>
        <time>2025-06-07T08:33:27.035Z</time>
      </trkpt>
      <trkpt lat="45.56563" lon="4.5095">
        <ele>809.967485</ele>
        <time>2025-06-07T08:33:34.021Z</time>
      </trkpt>
      <trkpt lat="45.56569" lon="4.50939">
        <ele>811.1359</ele>
        <time>2025-06-07T08:33:39.006Z</time>
      </trkpt>
      <trkpt lat="45.56576" lon="4.50928">
        <ele>812.384927</ele>
        <time>2025-06-07T08:33:44.027Z</time>
      </trkpt>
      <trkpt lat="45.56582" lon="4.50917">
        <ele>813.660767</ele>
        <time>2025-06-07T08:33:50.011Z</time>
      </trkpt>
      <trkpt lat="45.56589" lon="4.50906">
        <ele>814.87124</ele>
        <time>2025-06-07T08:33:56.002Z</time>
      </trkpt>
      <trkpt lat="45.56594" lon="4.50896">
        <ele>815.968029</ele>
        <time>2025-06-07T08:34:01.004Z</time>
      </trkpt>
      <trkpt lat="45.56601" lon="4.50883">
        <ele>817.345316</ele>
        <time>2025-06-07T08:34:06.058Z</time>
      </trkpt>
      <trkpt lat="45.56607" lon="4.5087">
        <ele>818.701522</ele>
        <time>2025-06-07T08:34:10.025Z</time>
      </trkpt>
      <trkpt lat="45.56612" lon="4.50858">
        <ele>819.869166</ele>
        <time>2025-06-07T08:34:13.005Z</time>
      </trkpt>
      <trkpt lat="45.56618" lon="4.50846">
        <ele>821.133145</ele>
        <time>2025-06-07T08:34:18.020Z</time>
      </trkpt>
      <trkpt lat="45.5662" lon="4.50833">
        <ele>822.305051</ele>
        <time>2025-06-07T08:34:23.014Z</time>
      </trkpt>
      <trkpt lat="45.56615" lon="4.5082">
        <ele>823.525548</ele>
        <time>2025-06-07T08:34:28.029Z</time>
      </trkpt>
      <trkpt lat="45.56607" lon="4.50797">
        <ele>825.780662</ele>
        <time>2025-06-07T08:38:39.004Z</time>
      </trkpt>
      <trkpt lat="45.56608" lon="4.50781">
        <ele>827.086353</ele>
        <time>2025-06-07T08:38:45.004Z</time>
      </trkpt>
      <trkpt lat="45.56611" lon="4.50768">
        <ele>828.295773</ele>
        <time>2025-06-07T08:38:50.004Z</time>
      </trkpt>
      <trkpt lat="45.56611" lon="4.50751">
        <ele>829.864408</ele>
        <time>2025-06-07T08:38:55.011Z</time>
      </trkpt>
      <trkpt lat="45.5661" lon="4.50725">
        <ele>832.185952</ele>
        <time>2025-06-07T08:38:58.023Z</time>
      </trkpt>
      <trkpt lat="45.56613" lon="4.50712">
        <ele>833.38215</ele>
        <time>2025-06-07T08:39:03.023Z</time>
      </trkpt>
      <trkpt lat="45.56615" lon="4.50699">
        <ele>834.589019</ele>
        <time>2025-06-07T08:39:07.020Z</time>
      </trkpt>
      <trkpt lat="45.56616" lon="4.50686">
        <ele>835.773511</ele>
        <time>2025-06-07T08:39:10.022Z</time>
      </trkpt>
      <trkpt lat="45.56619" lon="4.50673">
        <ele>837.057265</ele>
        <time>2025-06-07T08:39:15.019Z</time>
      </trkpt>
      <trkpt lat="45.56621" lon="4.5066">
        <ele>838.265737</ele>
        <time>2025-06-07T08:39:19.018Z</time>
      </trkpt>
      <trkpt lat="45.56623" lon="4.50647">
        <ele>839.478768</ele>
        <time>2025-06-07T08:39:23.022Z</time>
      </trkpt>
      <trkpt lat="45.56625" lon="4.50632">
        <ele>840.887712</ele>
        <time>2025-06-07T08:39:28.027Z</time>
      </trkpt>
      <trkpt lat="45.56626" lon="4.50619">
        <ele>842.081225</ele>
        <time>2025-06-07T08:39:33.010Z</time>
      </trkpt>
      <trkpt lat="45.56627" lon="4.50605">
        <ele>843.279851</ele>
        <time>2025-06-07T08:39:38.016Z</time>
      </trkpt>
      <trkpt lat="45.56626" lon="4.50592">
        <ele>844.541859</ele>
        <time>2025-06-07T08:39:43.037Z</time>
      </trkpt>
      <trkpt lat="45.56627" lon="4.50578">
        <ele>845.767031</ele>
        <time>2025-06-07T08:39:48.009Z</time>
      </trkpt>
      <trkpt lat="45.56629" lon="4.50564">
        <ele>847.04446</ele>
        <time>2025-06-07T08:39:54.018Z</time>
      </trkpt>
      <trkpt lat="45.56631" lon="4.50552">
        <ele>848.230867</ele>
        <time>2025-06-07T08:39:58.011Z</time>
      </trkpt>
      <trkpt lat="45.56633" lon="4.50539">
        <ele>849.387633</ele>
        <time>2025-06-07T08:40:03.030Z</time>
      </trkpt>
      <trkpt lat="45.56633" lon="4.50524">
        <ele>850.748271</ele>
        <time>2025-06-07T08:40:08.026Z</time>
      </trkpt>
      <trkpt lat="45.56633" lon="4.50511">
        <ele>851.872466</ele>
        <time>2025-06-07T08:40:13.022Z</time>
      </trkpt>
      <trkpt lat="45.56631" lon="4.50495">
        <ele>853.058491</ele>
        <time>2025-06-07T08:40:18.020Z</time>
      </trkpt>
      <trkpt lat="45.56631" lon="4.50481">
        <ele>854.202106</ele>
        <time>2025-06-07T08:40:22.038Z</time>
      </trkpt>
      <trkpt lat="45.56633" lon="4.50467">
        <ele>855.226755</ele>
        <time>2025-06-07T08:40:26.019Z</time>
      </trkpt>
      <trkpt lat="45.56635" lon="4.50452">
        <ele>856.406225</ele>
        <time>2025-06-07T08:40:31.018Z</time>
      </trkpt>
      <trkpt lat="45.56637" lon="4.5044">
        <ele>857.42176</ele>
        <time>2025-06-07T08:40:35.013Z</time>
      </trkpt>
      <trkpt lat="45.5664" lon="4.50426">
        <ele>858.501123</ele>
        <time>2025-06-07T08:40:40.022Z</time>
      </trkpt>
      <trkpt lat="45.56645" lon="4.50413">
        <ele>859.613935</ele>
        <time>2025-06-07T08:40:45.012Z</time>
      </trkpt>
      <trkpt lat="45.56648" lon="4.50399">
        <ele>860.773511</ele>
        <time>2025-06-07T08:41:00.018Z</time>
      </trkpt>
      <trkpt lat="45.56651" lon="4.50385">
        <ele>861.860567</ele>
        <time>2025-06-07T08:41:05.011Z</time>
      </trkpt>
      <trkpt lat="45.56655" lon="4.50373">
        <ele>862.888034</ele>
        <time>2025-06-07T08:41:10.007Z</time>
      </trkpt>
      <trkpt lat="45.56659" lon="4.5036">
        <ele>863.99847</ele>
        <time>2025-06-07T08:41:15.015Z</time>
      </trkpt>
      <trkpt lat="45.56663" lon="4.50348">
        <ele>865.014581</ele>
        <time>2025-06-07T08:41:19.011Z</time>
      </trkpt>
      <trkpt lat="45.56668" lon="4.50335">
        <ele>866.140982</ele>
        <time>2025-06-07T08:41:23.014Z</time>
      </trkpt>
      <trkpt lat="45.56673" lon="4.50321">
        <ele>867.367757</ele>
        <time>2025-06-07T08:41:27.004Z</time>
      </trkpt>
      <trkpt lat="45.56677" lon="4.50309">
        <ele>868.373971</ele>
        <time>2025-06-07T08:41:31.021Z</time>
      </trkpt>
      <trkpt lat="45.56682" lon="4.50295">
        <ele>869.624821</ele>
        <time>2025-06-07T08:41:35.028Z</time>
      </trkpt>
      <trkpt lat="45.56689" lon="4.5028">
        <ele>870.956184</ele>
        <time>2025-06-07T08:41:39.008Z</time>
      </trkpt>
      <trkpt lat="45.56694" lon="4.50266">
        <ele>871.605466</ele>
        <time>2025-06-07T08:41:42.008Z</time>
      </trkpt>
      <trkpt lat="45.567" lon="4.50254">
        <ele>872.240528</ele>
        <time>2025-06-07T08:41:45.019Z</time>
      </trkpt>
      <trkpt lat="45.56707" lon="4.50243">
        <ele>872.859809</ele>
        <time>2025-06-07T08:41:49.001Z</time>
      </trkpt>
      <trkpt lat="45.56714" lon="4.50232">
        <ele>873.478202</ele>
        <time>2025-06-07T08:41:54.000Z</time>
      </trkpt>
      <trkpt lat="45.56722" lon="4.50223">
        <ele>874.05853</ele>
        <time>2025-06-07T08:41:58.020Z</time>
      </trkpt>
      <trkpt lat="45.56728" lon="4.50214">
        <ele>874.6062</ele>
        <time>2025-06-07T08:42:01.030Z</time>
      </trkpt>
      <trkpt lat="45.56737" lon="4.50204">
        <ele>875.25818</ele>
        <time>2025-06-07T08:42:05.027Z</time>
      </trkpt>
      <trkpt lat="45.56742" lon="4.50192">
        <ele>875.845983</ele>
        <time>2025-06-07T08:42:09.031Z</time>
      </trkpt>
      <trkpt lat="45.56743" lon="4.50176">
        <ele>876.503045</ele>
        <time>2025-06-07T08:42:13.025Z</time>
      </trkpt>
      <trkpt lat="45.56742" lon="4.50161">
        <ele>877.136057</ele>
        <time>2025-06-07T08:42:17.025Z</time>
      </trkpt>
      <trkpt lat="45.5674" lon="4.50147">
        <ele>877.724794</ele>
        <time>2025-06-07T08:42:21.012Z</time>
      </trkpt>
      <trkpt lat="45.56739" lon="4.50133">
        <ele>878.294417</ele>
        <time>2025-06-07T08:42:25.016Z</time>
      </trkpt>
      <trkpt lat="45.56738" lon="4.50119">
        <ele>878.88726</ele>
        <time>2025-06-07T08:42:28.999Z</time>
      </trkpt>
      <trkpt lat="45.56737" lon="4.50106">
        <ele>879.447988</ele>
        <time>2025-06-07T08:42:33.097Z</time>
      </trkpt>
      <trkpt lat="45.56734" lon="4.5009">
        <ele>880.104995</ele>
        <time>2025-06-07T08:42:37.996Z</time>
      </trkpt>
      <trkpt lat="45.5674" lon="4.50077">
        <ele>880.7504</ele>
        <time>2025-06-07T08:42:43.014Z</time>
      </trkpt>
      <trkpt lat="45.56749" lon="4.50069">
        <ele>881.392449</ele>
        <time>2025-06-07T08:42:48.009Z</time>
      </trkpt>
      <trkpt lat="45.56758" lon="4.50061">
        <ele>882.02612</ele>
        <time>2025-06-07T08:42:54.019Z</time>
      </trkpt>
      <trkpt lat="45.56766" lon="4.50053">
        <ele>882.745473</ele>
        <time>2025-06-07T08:43:00.025Z</time>
      </trkpt>
      <trkpt lat="45.56773" lon="4.50074">
        <ele>883.864361</ele>
        <time>2025-06-07T08:51:20.025Z</time>
      </trkpt>
      <trkpt lat="45.56782" lon="4.50083">
        <ele>884.614145</ele>
        <time>2025-06-07T08:51:23.008Z</time>
      </trkpt>
      <trkpt lat="45.56789" lon="4.50091">
        <ele>885.240462</ele>
        <time>2025-06-07T08:51:26.030Z</time>
      </trkpt>
      <trkpt lat="45.56796" lon="4.50104">
        <ele>886.062288</ele>
        <time>2025-06-07T08:51:30.021Z</time>
      </trkpt>
      <trkpt lat="45.56801" lon="4.50115">
        <ele>886.704278</ele>
        <time>2025-06-07T08:51:33.018Z</time>
      </trkpt>
      <trkpt lat="45.56808" lon="4.50126">
        <ele>887.418521</ele>
        <time>2025-06-07T08:51:37.002Z</time>
      </trkpt>
      <trkpt lat="45.56815" lon="4.50137">
        <ele>888.110007</ele>
        <time>2025-06-07T08:51:41.021Z</time>
      </trkpt>
      <trkpt lat="45.56821" lon="4.50147">
        <ele>888.771158</ele>
        <time>2025-06-07T08:51:45.010Z</time>
      </trkpt>
      <trkpt lat="45.56828" lon="4.50159">
        <ele>889.530735</ele>
        <time>2025-06-07T08:51:50.014Z</time>
      </trkpt>
      <trkpt lat="45.56834" lon="4.50169">
        <ele>890.175452</ele>
        <time>2025-06-07T08:51:54.026Z</time>
      </trkpt>
      <trkpt lat="45.5684" lon="4.50181">
        <ele>890.86962</ele>
        <time>2025-06-07T08:51:58.023Z</time>
      </trkpt>
      <trkpt lat="45.56847" lon="4.50192">
        <ele>891.60401</ele>
        <time>2025-06-07T08:52:02.024Z</time>
      </trkpt>
      <trkpt lat="45.56854" lon="4.50204">
        <ele>892.354433</ele>
        <time>2025-06-07T08:52:07.027Z</time>
      </trkpt>
      <trkpt lat="45.56859" lon="4.50216">
        <ele>893.048204</ele>
        <time>2025-06-07T08:52:12.000Z</time>
      </trkpt>
      <trkpt lat="45.56865" lon="4.50228">
        <ele>893.751169</ele>
        <time>2025-06-07T08:52:16.998Z</time>
      </trkpt>
      <trkpt lat="45.56869" lon="4.50241">
        <ele>894.759541</ele>
        <time>2025-06-07T08:52:22.014Z</time>
      </trkpt>
      <trkpt lat="45.56872" lon="4.50255">
        <ele>896.279194</ele>
        <time>2025-06-07T08:52:28.010Z</time>
      </trkpt>
      <trkpt lat="45.56874" lon="4.50268">
        <ele>897.611001</ele>
        <time>2025-06-07T08:52:33.015Z</time>
      </trkpt>
      <trkpt lat="45.56876" lon="4.50282">
        <ele>899.087645</ele>
        <time>2025-06-07T08:52:38.011Z</time>
      </trkpt>
      <trkpt lat="45.56876" lon="4.50296">
        <ele>900.547833</ele>
        <time>2025-06-07T08:52:43.014Z</time>
      </trkpt>
      <trkpt lat="45.56875" lon="4.5031">
        <ele>901.945341</ele>
        <time>2025-06-07T08:52:48.010Z</time>
      </trkpt>
      <trkpt lat="45.56874" lon="4.50323">
        <ele>903.364402</ele>
        <time>2025-06-07T08:52:53.019Z</time>
      </trkpt>
      <trkpt lat="45.56874" lon="4.50338">
        <ele>904.855437</ele>
        <time>2025-06-07T08:52:59.016Z</time>
      </trkpt>
      <trkpt lat="45.56875" lon="4.50351">
        <ele>906.252945</ele>
        <time>2025-06-07T08:53:05.009Z</time>
      </trkpt>
      <trkpt lat="45.56877" lon="4.50364">
        <ele>907.618491</ele>
        <time>2025-06-07T08:53:11.021Z</time>
      </trkpt>
      <trkpt lat="45.56879" lon="4.50378">
        <ele>909.077634</ele>
        <time>2025-06-07T08:53:17.021Z</time>
      </trkpt>
      <trkpt lat="45.56881" lon="4.50391">
        <ele>910.452688</ele>
        <time>2025-06-07T08:53:22.007Z</time>
      </trkpt>
      <trkpt lat="45.56882" lon="4.50405">
        <ele>911.853895</ele>
        <time>2025-06-07T08:53:29.005Z</time>
      </trkpt>
      <trkpt lat="45.56882" lon="4.50421">
        <ele>913.458568</ele>
        <time>2025-06-07T08:53:35.002Z</time>
      </trkpt>
      <trkpt lat="45.56884" lon="4.50434">
        <ele>914.884561</ele>
        <time>2025-06-07T08:53:41.161Z</time>
      </trkpt>
      <trkpt lat="45.56884" lon="4.50449">
        <ele>916.458054</ele>
        <time>2025-06-07T08:53:46.990Z</time>
      </trkpt>
      <trkpt lat="45.56885" lon="4.50462">
        <ele>917.777159</ele>
        <time>2025-06-07T08:53:52.024Z</time>
      </trkpt>
      <trkpt lat="45.5689" lon="4.50475">
        <ele>919.297518</ele>
        <time>2025-06-07T08:53:58.026Z</time>
      </trkpt>
      <trkpt lat="45.56894" lon="4.50489">
        <ele>920.69006</ele>
        <time>2025-06-07T08:54:04.018Z</time>
      </trkpt>
      <trkpt lat="45.56897" lon="4.50503">
        <ele>921.378576</ele>
        <time>2025-06-07T08:54:10.015Z</time>
      </trkpt>
      <trkpt lat="45.569" lon="4.50516">
        <ele>922.042326</ele>
        <time>2025-06-07T08:54:16.013Z</time>
      </trkpt>
      <trkpt lat="45.56903" lon="4.50529">
        <ele>922.656883</ele>
        <time>2025-06-07T08:54:22.016Z</time>
      </trkpt>
      <trkpt lat="45.56906" lon="4.50542">
        <ele>923.314245</ele>
        <time>2025-06-07T08:54:28.021Z</time>
      </trkpt>
      <trkpt lat="45.56908" lon="4.50555">
        <ele>923.938697</ele>
        <time>2025-06-07T08:54:33.017Z</time>
      </trkpt>
      <trkpt lat="45.5691" lon="4.50568">
        <ele>924.576112</ele>
        <time>2025-06-07T08:54:39.008Z</time>
      </trkpt>
      <trkpt lat="45.56912" lon="4.50581">
        <ele>925.19875</ele>
        <time>2025-06-07T08:54:44.021Z</time>
      </trkpt>
      <trkpt lat="45.56915" lon="4.50594">
        <ele>925.841388</ele>
        <time>2025-06-07T08:54:49.009Z</time>
      </trkpt>
      <trkpt lat="45.56917" lon="4.50606">
        <ele>926.45768</ele>
        <time>2025-06-07T08:54:54.017Z</time>
      </trkpt>
      <trkpt lat="45.5692" lon="4.50619">
        <ele>927.089409</ele>
        <time>2025-06-07T08:54:59.030Z</time>
      </trkpt>
      <trkpt lat="45.56922" lon="4.50632">
        <ele>927.706879</ele>
        <time>2025-06-07T08:55:03.998Z</time>
      </trkpt>
      <trkpt lat="45.56924" lon="4.50645">
        <ele>928.344292</ele>
        <time>2025-06-07T08:55:09.010Z</time>
      </trkpt>
      <trkpt lat="45.56926" lon="4.50658">
        <ele>928.991471</ele>
        <time>2025-06-07T08:55:13.996Z</time>
      </trkpt>
      <trkpt lat="45.56928" lon="4.50673">
        <ele>929.694656</ele>
        <time>2025-06-07T08:55:19.013Z</time>
      </trkpt>
      <trkpt lat="45.56928" lon="4.50689">
        <ele>930.454512</ele>
        <time>2025-06-07T08:55:24.026Z</time>
      </trkpt>
      <trkpt lat="45.56929" lon="4.50705">
        <ele>931.193851</ele>
        <time>2025-06-07T08:55:28.022Z</time>
      </trkpt>
      <trkpt lat="45.5693" lon="4.50721">
        <ele>931.94259</ele>
        <time>2025-06-07T08:55:31.017Z</time>
      </trkpt>
      <trkpt lat="45.56929" lon="4.50739">
        <ele>932.553545</ele>
        <time>2025-06-07T08:55:34.032Z</time>
      </trkpt>
      <trkpt lat="45.56929" lon="4.50755">
        <ele>931.918191</ele>
        <time>2025-06-07T08:55:36.015Z</time>
      </trkpt>
      <trkpt lat="45.56933" lon="4.50772">
        <ele>931.134593</ele>
        <time>2025-06-07T08:55:38.039Z</time>
      </trkpt>
      <trkpt lat="45.5694" lon="4.50791">
        <ele>930.267545</ele>
        <time>2025-06-07T08:55:40.034Z</time>
      </trkpt>
      <trkpt lat="45.56947" lon="4.50811">
        <ele>929.332876</ele>
        <time>2025-06-07T08:55:42.012Z</time>
      </trkpt>
      <trkpt lat="45.56952" lon="4.50833">
        <ele>928.328062</ele>
        <time>2025-06-07T08:55:44.000Z</time>
      </trkpt>
      <trkpt lat="45.56959" lon="4.50855">
        <ele>927.31211</ele>
        <time>2025-06-07T08:55:46.020Z</time>
      </trkpt>
      <trkpt lat="45.56966" lon="4.50878">
        <ele>926.279093</ele>
        <time>2025-06-07T08:55:48.016Z</time>
      </trkpt>
      <trkpt lat="45.56971" lon="4.50902">
        <ele>925.238118</ele>
        <time>2025-06-07T08:55:50.001Z</time>
      </trkpt>
      <trkpt lat="45.56974" lon="4.50927">
        <ele>924.188707</ele>
        <time>2025-06-07T08:55:52.010Z</time>
      </trkpt>
      <trkpt lat="45.56977" lon="4.5095">
        <ele>923.164777</ele>
        <time>2025-06-07T08:55:54.019Z</time>
      </trkpt>
      <trkpt lat="45.5698" lon="4.50974">
        <ele>922.177377</ele>
        <time>2025-06-07T08:55:56.018Z</time>
      </trkpt>
      <trkpt lat="45.56981" lon="4.50996">
        <ele>921.978671</ele>
        <time>2025-06-07T08:55:58.009Z</time>
      </trkpt>
      <trkpt lat="45.56983" lon="4.51016">
        <ele>922.078456</ele>
        <time>2025-06-07T08:56:00.023Z</time>
      </trkpt>
      <trkpt lat="45.56985" lon="4.51034">
        <ele>922.170861</ele>
        <time>2025-06-07T08:56:02.011Z</time>
      </trkpt>
      <trkpt lat="45.56989" lon="4.5105">
        <ele>922.254478</ele>
        <time>2025-06-07T08:56:04.012Z</time>
      </trkpt>
      <trkpt lat="45.56991" lon="4.51064">
        <ele>922.324415</ele>
        <time>2025-06-07T08:56:06.014Z</time>
      </trkpt>
      <trkpt lat="45.56994" lon="4.5108">
        <ele>922.404398</ele>
        <time>2025-06-07T08:56:09.010Z</time>
      </trkpt>
      <trkpt lat="45.56997" lon="4.51095">
        <ele>922.480542</ele>
        <time>2025-06-07T08:56:12.020Z</time>
      </trkpt>
      <trkpt lat="45.57" lon="4.51111">
        <ele>922.566147</ele>
        <time>2025-06-07T08:56:15.012Z</time>
      </trkpt>
      <trkpt lat="45.57003" lon="4.51128">
        <ele>922.654435</ele>
        <time>2025-06-07T08:56:18.026Z</time>
      </trkpt>
      <trkpt lat="45.57008" lon="4.51145">
        <ele>922.743023</ele>
        <time>2025-06-07T08:56:21.002Z</time>
      </trkpt>
      <trkpt lat="45.57013" lon="4.51162">
        <ele>922.834436</ele>
        <time>2025-06-07T08:56:24.007Z</time>
      </trkpt>
      <trkpt lat="45.57017" lon="4.51179">
        <ele>922.921788</ele>
        <time>2025-06-07T08:56:27.016Z</time>
      </trkpt>
      <trkpt lat="45.57022" lon="4.51195">
        <ele>923.005865</ele>
        <time>2025-06-07T08:56:30.020Z</time>
      </trkpt>
      <trkpt lat="45.57025" lon="4.5121">
        <ele>923.087044</ele>
        <time>2025-06-07T08:56:33.008Z</time>
      </trkpt>
      <trkpt lat="45.57027" lon="4.51226">
        <ele>923.167332</ele>
        <time>2025-06-07T08:56:36.019Z</time>
      </trkpt>
      <trkpt lat="45.57029" lon="4.51243">
        <ele>922.734026</ele>
        <time>2025-06-07T08:56:38.999Z</time>
      </trkpt>
      <trkpt lat="45.5703" lon="4.51259">
        <ele>922.268242</ele>
        <time>2025-06-07T08:56:42.014Z</time>
      </trkpt>
      <trkpt lat="45.5703" lon="4.51276">
        <ele>921.798458</ele>
        <time>2025-06-07T08:56:44.994Z</time>
      </trkpt>
      <trkpt lat="45.57031" lon="4.51294">
        <ele>921.281093</ele>
        <time>2025-06-07T08:56:48.022Z</time>
      </trkpt>
      <trkpt lat="45.5703" lon="4.51308">
        <ele>920.888319</ele>
        <time>2025-06-07T08:56:50.017Z</time>
      </trkpt>
      <trkpt lat="45.57028" lon="4.51324">
        <ele>920.454083</ele>
        <time>2025-06-07T08:56:52.028Z</time>
      </trkpt>
      <trkpt lat="45.57027" lon="4.51341">
        <ele>919.975464</ele>
        <time>2025-06-07T08:56:54.011Z</time>
      </trkpt>
      <trkpt lat="45.57024" lon="4.51357">
        <ele>919.516019</ele>
        <time>2025-06-07T08:56:56.000Z</time>
      </trkpt>
      <trkpt lat="45.57021" lon="4.51375">
        <ele>918.983175</ele>
        <time>2025-06-07T08:56:58.008Z</time>
      </trkpt>
      <trkpt lat="45.5702" lon="4.51395">
        <ele>918.439765</ele>
        <time>2025-06-07T08:57:00.011Z</time>
      </trkpt>
      <trkpt lat="45.57021" lon="4.51408">
        <ele>918.059242</ele>
        <time>2025-06-07T08:57:03.017Z</time>
      </trkpt>
      <trkpt lat="45.57005" lon="4.51432">
        <ele>917.127682</ele>
        <time>2025-06-07T08:57:23.026Z</time>
      </trkpt>
      <trkpt lat="45.56997" lon="4.51446">
        <ele>916.619139</ele>
        <time>2025-06-07T08:57:26.018Z</time>
      </trkpt>
      <trkpt lat="45.56995" lon="4.51463">
        <ele>916.138026</ele>
        <time>2025-06-07T08:57:28.990Z</time>
      </trkpt>
      <trkpt lat="45.56994" lon="4.5148">
        <ele>916.25484</ele>
        <time>2025-06-07T08:57:31.997Z</time>
      </trkpt>
      <trkpt lat="45.56993" lon="4.51493">
        <ele>916.551246</ele>
        <time>2025-06-07T08:57:34.004Z</time>
      </trkpt>
      <trkpt lat="45.56992" lon="4.51512">
        <ele>916.97748</ele>
        <time>2025-06-07T08:57:37.001Z</time>
      </trkpt>
      <trkpt lat="45.56992" lon="4.51528">
        <ele>917.363671</ele>
        <time>2025-06-07T08:57:40.001Z</time>
      </trkpt>
      <trkpt lat="45.56991" lon="4.51545">
        <ele>917.746352</ele>
        <time>2025-06-07T08:57:42.997Z</time>
      </trkpt>
      <trkpt lat="45.56989" lon="4.51559">
        <ele>918.074123</ele>
        <time>2025-06-07T08:57:46.004Z</time>
      </trkpt>
      <trkpt lat="45.56989" lon="4.51576">
        <ele>918.476468</ele>
        <time>2025-06-07T08:57:48.995Z</time>
      </trkpt>
      <trkpt lat="45.56988" lon="4.51593">
        <ele>918.847038</ele>
        <time>2025-06-07T08:57:51.999Z</time>
      </trkpt>
      <trkpt lat="45.56987" lon="4.51608">
        <ele>919.210916</ele>
        <time>2025-06-07T08:57:55.003Z</time>
      </trkpt>
      <trkpt lat="45.56986" lon="4.51624">
        <ele>919.573259</ele>
        <time>2025-06-07T08:57:57.995Z</time>
      </trkpt>
      <trkpt lat="45.56985" lon="4.51638">
        <ele>919.899299</ele>
        <time>2025-06-07T08:58:00.999Z</time>
      </trkpt>
      <trkpt lat="45.56983" lon="4.51656">
        <ele>920.318219</ele>
        <time>2025-06-07T08:58:03.996Z</time>
      </trkpt>
      <trkpt lat="45.56982" lon="4.51672">
        <ele>920.690024</ele>
        <time>2025-06-07T08:58:07.016Z</time>
      </trkpt>
      <trkpt lat="45.56982" lon="4.51686">
        <ele>920.998451</ele>
        <time>2025-06-07T08:58:09.998Z</time>
      </trkpt>
      <trkpt lat="45.56981" lon="4.51699">
        <ele>921.306597</ele>
        <time>2025-06-07T08:58:13.003Z</time>
      </trkpt>
      <trkpt lat="45.56982" lon="4.51713">
        <ele>921.617163</ele>
        <time>2025-06-07T08:58:16.004Z</time>
      </trkpt>
      <trkpt lat="45.56982" lon="4.51726">
        <ele>921.993548</ele>
        <time>2025-06-07T08:58:18.995Z</time>
      </trkpt>
      <trkpt lat="45.56983" lon="4.5174">
        <ele>923.007889</ele>
        <time>2025-06-07T08:58:23.004Z</time>
      </trkpt>
      <trkpt lat="45.56985" lon="4.51755">
        <ele>924.053239</ele>
        <time>2025-06-07T08:58:28.003Z</time>
      </trkpt>
      <trkpt lat="45.56989" lon="4.51769">
        <ele>925.0835</ele>
        <time>2025-06-07T08:58:33.002Z</time>
      </trkpt>
      <trkpt lat="45.56989" lon="4.51783">
        <ele>926.058793</ele>
        <time>2025-06-07T08:58:38.010Z</time>
      </trkpt>
      <trkpt lat="45.56991" lon="4.51796">
        <ele>927.049561</ele>
        <time>2025-06-07T08:58:44.001Z</time>
      </trkpt>
      <trkpt lat="45.56993" lon="4.5181">
        <ele>928.060314</ele>
        <time>2025-06-07T08:58:50.002Z</time>
      </trkpt>
      <trkpt lat="45.56997" lon="4.51823">
        <ele>929.025446</ele>
        <time>2025-06-07T08:58:56.003Z</time>
      </trkpt>
      <trkpt lat="45.57" lon="4.51836">
        <ele>930.015469</ele>
        <time>2025-06-07T08:59:02.998Z</time>
      </trkpt>
      <trkpt lat="45.57004" lon="4.51849">
        <ele>930.960034</ele>
        <time>2025-06-07T08:59:16.999Z</time>
      </trkpt>
      <trkpt lat="45.57006" lon="4.51864">
        <ele>932.03567</ele>
        <time>2025-06-07T08:59:22.999Z</time>
      </trkpt>
      <trkpt lat="45.57011" lon="4.51876">
        <ele>933.025006</ele>
        <time>2025-06-07T08:59:29.006Z</time>
      </trkpt>
      <trkpt lat="45.57012" lon="4.51891">
        <ele>934.057589</ele>
        <time>2025-06-07T08:59:36.021Z</time>
      </trkpt>
      <trkpt lat="45.5701" lon="4.51906">
        <ele>935.117087</ele>
        <time>2025-06-07T08:59:42.012Z</time>
      </trkpt>
      <trkpt lat="45.57008" lon="4.51919">
        <ele>936.067507</ele>
        <time>2025-06-07T08:59:47.015Z</time>
      </trkpt>
      <trkpt lat="45.57004" lon="4.51933">
        <ele>937.110519</ele>
        <time>2025-06-07T08:59:52.006Z</time>
      </trkpt>
      <trkpt lat="45.57001" lon="4.51948">
        <ele>938.210719</ele>
        <time>2025-06-07T08:59:57.010Z</time>
      </trkpt>
      <trkpt lat="45.56995" lon="4.51959">
        <ele>939.176572</ele>
        <time>2025-06-07T09:00:02.000Z</time>
      </trkpt>
      <trkpt lat="45.5699" lon="4.51969">
        <ele>939.917305</ele>
        <time>2025-06-07T09:00:05.000Z</time>
      </trkpt>
      <trkpt lat="45.56985" lon="4.51981">
        <ele>939.903455</ele>
        <time>2025-06-07T09:00:08.013Z</time>
      </trkpt>
      <trkpt lat="45.56986" lon="4.51998">
        <ele>939.885217</ele>
        <time>2025-06-07T09:00:11.046Z</time>
      </trkpt>
      <trkpt lat="45.56987" lon="4.52013">
        <ele>939.869722</ele>
        <time>2025-06-07T09:00:13.015Z</time>
      </trkpt>
      <trkpt lat="45.56988" lon="4.52027">
        <ele>939.855147</ele>
        <time>2025-06-07T09:00:15.015Z</time>
      </trkpt>
      <trkpt lat="45.56991" lon="4.52044">
        <ele>939.83606</ele>
        <time>2025-06-07T09:00:18.006Z</time>
      </trkpt>
      <trkpt lat="45.56991" lon="4.52058">
        <ele>939.821996</ele>
        <time>2025-06-07T09:00:21.021Z</time>
      </trkpt>
      <trkpt lat="45.56989" lon="4.52071">
        <ele>939.807482</ele>
        <time>2025-06-07T09:00:23.008Z</time>
      </trkpt>
      <trkpt lat="45.56986" lon="4.52085">
        <ele>939.792059</ele>
        <time>2025-06-07T09:00:25.028Z</time>
      </trkpt>
      <trkpt lat="45.56984" lon="4.52101">
        <ele>939.77567</ele>
        <time>2025-06-07T09:00:27.008Z</time>
      </trkpt>
      <trkpt lat="45.56985" lon="4.52114">
        <ele>939.761858</ele>
        <time>2025-06-07T09:00:29.020Z</time>
      </trkpt>
      <trkpt lat="45.56988" lon="4.52128">
        <ele>939.745952</ele>
        <time>2025-06-07T09:00:32.010Z</time>
      </trkpt>
      <trkpt lat="45.56992" lon="4.52143">
        <ele>939.728985</ele>
        <time>2025-06-07T09:00:35.001Z</time>
      </trkpt>
      <trkpt lat="45.56997" lon="4.52158">
        <ele>939.712211</ele>
        <time>2025-06-07T09:00:37.001Z</time>
      </trkpt>
      <trkpt lat="45.57" lon="4.5217">
        <ele>939.698199</ele>
        <time>2025-06-07T09:00:39.009Z</time>
      </trkpt>
      <trkpt lat="45.57002" lon="4.52187">
        <ele>939.680844</ele>
        <time>2025-06-07T09:00:42.000Z</time>
      </trkpt>
      <trkpt lat="45.57002" lon="4.52203">
        <ele>939.663551</ele>
        <time>2025-06-07T09:00:44.997Z</time>
      </trkpt>
      <trkpt lat="45.57001" lon="4.52217">
        <ele>939.605806</ele>
        <time>2025-06-07T09:00:48.002Z</time>
      </trkpt>
      <trkpt lat="45.57" lon="4.52235">
        <ele>938.903045</ele>
        <time>2025-06-07T09:00:51.002Z</time>
      </trkpt>
      <trkpt lat="45.57" lon="4.52255">
        <ele>938.131624</ele>
        <time>2025-06-07T09:00:53.997Z</time>
      </trkpt>
      <trkpt lat="45.57002" lon="4.52275">
        <ele>937.320748</ele>
        <time>2025-06-07T09:00:57.002Z</time>
      </trkpt>
      <trkpt lat="45.57006" lon="4.5229">
        <ele>936.715736</ele>
        <time>2025-06-07T09:00:58.993Z</time>
      </trkpt>
      <trkpt lat="45.57012" lon="4.52308">
        <ele>935.961056</ele>
        <time>2025-06-07T09:01:01.001Z</time>
      </trkpt>
      <trkpt lat="45.57016" lon="4.52328">
        <ele>935.135948</ele>
        <time>2025-06-07T09:01:02.997Z</time>
      </trkpt>
      <trkpt lat="45.5702" lon="4.52348">
        <ele>934.353485</ele>
        <time>2025-06-07T09:01:04.987Z</time>
      </trkpt>
      <trkpt lat="45.57025" lon="4.52368">
        <ele>933.497943</ele>
        <time>2025-06-07T09:01:06.996Z</time>
      </trkpt>
      <trkpt lat="45.57033" lon="4.52389">
        <ele>932.586893</ele>
        <time>2025-06-07T09:01:08.993Z</time>
      </trkpt>
      <trkpt lat="45.57038" lon="4.52399">
        <ele>932.085601</ele>
        <time>2025-06-07T09:01:09.998Z</time>
      </trkpt>
      <trkpt lat="45.57044" lon="4.52409">
        <ele>931.575524</ele>
        <time>2025-06-07T09:01:11.008Z</time>
      </trkpt>
      <trkpt lat="45.57056" lon="4.52427">
        <ele>930.651485</ele>
        <time>2025-06-07T09:01:13.268Z</time>
      </trkpt>
      <trkpt lat="45.57065" lon="4.52446">
        <ele>929.750381</ele>
        <time>2025-06-07T09:01:14.989Z</time>
      </trkpt>
      <trkpt lat="45.57071" lon="4.52469">
        <ele>929.747811</ele>
        <time>2025-06-07T09:01:17.013Z</time>
      </trkpt>
      <trkpt lat="45.57076" lon="4.5249">
        <ele>929.7934</ele>
        <time>2025-06-07T09:01:18.995Z</time>
      </trkpt>
      <trkpt lat="45.57081" lon="4.52502">
        <ele>929.821779</ele>
        <time>2025-06-07T09:01:22.002Z</time>
      </trkpt>
      <trkpt lat="45.57089" lon="4.52511">
        <ele>929.850196</ele>
        <time>2025-06-07T09:01:26.003Z</time>
      </trkpt>
      <trkpt lat="45.57097" lon="4.52518">
        <ele>929.877601</ele>
        <time>2025-06-07T09:01:29.000Z</time>
      </trkpt>
      <trkpt lat="45.57104" lon="4.52527">
        <ele>929.905044</ele>
        <time>2025-06-07T09:01:32.004Z</time>
      </trkpt>
      <trkpt lat="45.57111" lon="4.52536">
        <ele>929.932522</ele>
        <time>2025-06-07T09:01:34.999Z</time>
      </trkpt>
      <trkpt lat="45.57118" lon="4.52547">
        <ele>929.964289</ele>
        <time>2025-06-07T09:01:39.020Z</time>
      </trkpt>
      <trkpt lat="45.57123" lon="4.52561">
        <ele>929.996986</ele>
        <time>2025-06-07T09:01:43.012Z</time>
      </trkpt>
      <trkpt lat="45.57128" lon="4.52572">
        <ele>930.02398</ele>
        <time>2025-06-07T09:01:45.996Z</time>
      </trkpt>
      <trkpt lat="45.57136" lon="4.52585">
        <ele>930.057498</ele>
        <time>2025-06-07T09:01:48.998Z</time>
      </trkpt>
      <trkpt lat="45.57143" lon="4.52595">
        <ele>930.087604</ele>
        <time>2025-06-07T09:01:51.025Z</time>
      </trkpt>
      <trkpt lat="45.5715" lon="4.52606">
        <ele>930.117929</ele>
        <time>2025-06-07T09:01:53.008Z</time>
      </trkpt>
      <trkpt lat="45.57157" lon="4.52616">
        <ele>930.146548</ele>
        <time>2025-06-07T09:01:55.016Z</time>
      </trkpt>
      <trkpt lat="45.57164" lon="4.5263">
        <ele>930.182833</ele>
        <time>2025-06-07T09:01:58.018Z</time>
      </trkpt>
      <trkpt lat="45.57168" lon="4.52644">
        <ele>930.214432</ele>
        <time>2025-06-07T09:02:01.009Z</time>
      </trkpt>
      <trkpt lat="45.57172" lon="4.52659">
        <ele>930.314162</ele>
        <time>2025-06-07T09:02:04.010Z</time>
      </trkpt>
      <trkpt lat="45.57175" lon="4.52673">
        <ele>930.445478</ele>
        <time>2025-06-07T09:02:07.010Z</time>
      </trkpt>
      <trkpt lat="45.57178" lon="4.52687">
        <ele>930.578932</ele>
        <time>2025-06-07T09:02:10.017Z</time>
      </trkpt>
      <trkpt lat="45.57182" lon="4.52701">
        <ele>930.714105</ele>
        <time>2025-06-07T09:02:12.998Z</time>
      </trkpt>
      <trkpt lat="45.57184" lon="4.52715">
        <ele>930.846024</ele>
        <time>2025-06-07T09:02:16.018Z</time>
      </trkpt>
      <trkpt lat="45.57186" lon="4.52731">
        <ele>930.996954</ele>
        <time>2025-06-07T09:02:20.005Z</time>
      </trkpt>
      <trkpt lat="45.57189" lon="4.52746">
        <ele>931.138724</ele>
        <time>2025-06-07T09:02:25.002Z</time>
      </trkpt>
      <trkpt lat="45.57192" lon="4.5276">
        <ele>931.269946</ele>
        <time>2025-06-07T09:02:28.011Z</time>
      </trkpt>
      <trkpt lat="45.57197" lon="4.52773">
        <ele>931.405067</ele>
        <time>2025-06-07T09:02:31.006Z</time>
      </trkpt>
      <trkpt lat="45.57202" lon="4.52785">
        <ele>931.532237</ele>
        <time>2025-06-07T09:02:34.995Z</time>
      </trkpt>
      <trkpt lat="45.57207" lon="4.52799">
        <ele>931.681871</ele>
        <time>2025-06-07T09:02:40.001Z</time>
      </trkpt>
      <trkpt lat="45.57211" lon="4.52815">
        <ele>931.834669</ele>
        <time>2025-06-07T09:02:44.019Z</time>
      </trkpt>
      <trkpt lat="45.57217" lon="4.52826">
        <ele>931.955855</ele>
        <time>2025-06-07T09:02:46.009Z</time>
      </trkpt>
      <trkpt lat="45.57224" lon="4.52844">
        <ele>932.143655</ele>
        <time>2025-06-07T09:02:49.008Z</time>
      </trkpt>
      <trkpt lat="45.57233" lon="4.52856">
        <ele>932.305069</ele>
        <time>2025-06-07T09:02:50.990Z</time>
      </trkpt>
      <trkpt lat="45.57242" lon="4.52866">
        <ele>932.461495</ele>
        <time>2025-06-07T09:02:52.991Z</time>
      </trkpt>
      <trkpt lat="45.5725" lon="4.52874">
        <ele>932.544139</ele>
        <time>2025-06-07T09:02:55.011Z</time>
      </trkpt>
      <trkpt lat="45.5726" lon="4.52879">
        <ele>932.268648</ele>
        <time>2025-06-07T09:02:59.000Z</time>
      </trkpt>
      <trkpt lat="45.57272" lon="4.52906">
        <ele>931.676722</ele>
        <time>2025-06-07T09:03:17.005Z</time>
      </trkpt>
      <trkpt lat="45.57276" lon="4.52919">
        <ele>931.406018</ele>
        <time>2025-06-07T09:03:19.001Z</time>
      </trkpt>
      <trkpt lat="45.57279" lon="4.52936">
        <ele>931.091505</ele>
        <time>2025-06-07T09:03:20.995Z</time>
      </trkpt>
      <trkpt lat="45.57282" lon="4.52953">
        <ele>930.752755</ele>
        <time>2025-06-07T09:03:23.009Z</time>
      </trkpt>
      <trkpt lat="45.57283" lon="4.5297">
        <ele>930.437893</ele>
        <time>2025-06-07T09:03:25.000Z</time>
      </trkpt>
      <trkpt lat="45.57284" lon="4.52987">
        <ele>930.108794</ele>
        <time>2025-06-07T09:03:27.002Z</time>
      </trkpt>
      <trkpt lat="45.57286" lon="4.53005">
        <ele>929.785273</ele>
        <time>2025-06-07T09:03:29.015Z</time>
      </trkpt>
      <trkpt lat="45.57287" lon="4.53022">
        <ele>929.46547</ele>
        <time>2025-06-07T09:03:31.012Z</time>
      </trkpt>
      <trkpt lat="45.57288" lon="4.5304">
        <ele>929.124928</ele>
        <time>2025-06-07T09:03:33.013Z</time>
      </trkpt>
      <trkpt lat="45.5729" lon="4.53058">
        <ele>928.779705</ele>
        <time>2025-06-07T09:03:35.015Z</time>
      </trkpt>
      <trkpt lat="45.57291" lon="4.53077">
        <ele>928.423751</ele>
        <time>2025-06-07T09:03:37.020Z</time>
      </trkpt>
      <trkpt lat="45.57291" lon="4.53097">
        <ele>928.051569</ele>
        <time>2025-06-07T09:03:39.008Z</time>
      </trkpt>
      <trkpt lat="45.57291" lon="4.53117">
        <ele>927.729379</ele>
        <time>2025-06-07T09:03:41.014Z</time>
      </trkpt>
      <trkpt lat="45.57291" lon="4.53136">
        <ele>927.570412</ele>
        <time>2025-06-07T09:03:42.998Z</time>
      </trkpt>
      <trkpt lat="45.57291" lon="4.53155">
        <ele>927.41554</ele>
        <time>2025-06-07T09:03:45.009Z</time>
      </trkpt>
      <trkpt lat="45.5729" lon="4.53174">
        <ele>927.261984</ele>
        <time>2025-06-07T09:03:47.018Z</time>
      </trkpt>
      <trkpt lat="45.57289" lon="4.53191">
        <ele>927.119204</ele>
        <time>2025-06-07T09:03:48.996Z</time>
      </trkpt>
      <trkpt lat="45.57289" lon="4.53207">
        <ele>926.984806</ele>
        <time>2025-06-07T09:03:50.998Z</time>
      </trkpt>
      <trkpt lat="45.57288" lon="4.53222">
        <ele>926.866786</ele>
        <time>2025-06-07T09:03:53.023Z</time>
      </trkpt>
      <trkpt lat="45.57288" lon="4.53235">
        <ele>926.755151</ele>
        <time>2025-06-07T09:03:55.010Z</time>
      </trkpt>
      <trkpt lat="45.57287" lon="4.5325">
        <ele>926.637298</ele>
        <time>2025-06-07T09:03:56.990Z</time>
      </trkpt>
      <trkpt lat="45.57286" lon="4.53264">
        <ele>926.51886</ele>
        <time>2025-06-07T09:03:59.000Z</time>
      </trkpt>
      <trkpt lat="45.57284" lon="4.53278">
        <ele>926.400404</ele>
        <time>2025-06-07T09:04:01.020Z</time>
      </trkpt>
      <trkpt lat="45.57283" lon="4.53292">
        <ele>926.289043</ele>
        <time>2025-06-07T09:04:03.226Z</time>
      </trkpt>
      <trkpt lat="45.57281" lon="4.53304">
        <ele>926.183732</ele>
        <time>2025-06-07T09:04:04.988Z</time>
      </trkpt>
      <trkpt lat="45.57277" lon="4.53323">
        <ele>926.02832</ele>
        <time>2025-06-07T09:04:07.987Z</time>
      </trkpt>
      <trkpt lat="45.57275" lon="4.53341">
        <ele>925.875793</ele>
        <time>2025-06-07T09:04:10.997Z</time>
      </trkpt>
      <trkpt lat="45.57272" lon="4.53355">
        <ele>925.754937</ele>
        <time>2025-06-07T09:04:13.005Z</time>
      </trkpt>
      <trkpt lat="45.57272" lon="4.53373">
        <ele>925.600763</ele>
        <time>2025-06-07T09:04:14.997Z</time>
      </trkpt>
      <trkpt lat="45.57274" lon="4.53391">
        <ele>925.413836</ele>
        <time>2025-06-07T09:04:17.000Z</time>
      </trkpt>
      <trkpt lat="45.57278" lon="4.53411">
        <ele>925.209958</ele>
        <time>2025-06-07T09:04:19.003Z</time>
      </trkpt>
      <trkpt lat="45.57282" lon="4.53431">
        <ele>925.001961</ele>
        <time>2025-06-07T09:04:21.001Z</time>
      </trkpt>
      <trkpt lat="45.57288" lon="4.53451">
        <ele>924.790141</ele>
        <time>2025-06-07T09:04:23.003Z</time>
      </trkpt>
      <trkpt lat="45.57295" lon="4.53469">
        <ele>924.581747</ele>
        <time>2025-06-07T09:04:24.996Z</time>
      </trkpt>
      <trkpt lat="45.57303" lon="4.53484">
        <ele>924.391028</ele>
        <time>2025-06-07T09:04:27.011Z</time>
      </trkpt>
      <trkpt lat="45.57309" lon="4.53498">
        <ele>924.224681</ele>
        <time>2025-06-07T09:04:29.008Z</time>
      </trkpt>
      <trkpt lat="45.57316" lon="4.53513">
        <ele>924.053447</ele>
        <time>2025-06-07T09:04:30.990Z</time>
      </trkpt>
      <trkpt lat="45.57322" lon="4.53527">
        <ele>923.883084</ele>
        <time>2025-06-07T09:04:33.011Z</time>
      </trkpt>
      <trkpt lat="45.57327" lon="4.53543">
        <ele>923.710463</ele>
        <time>2025-06-07T09:04:35.004Z</time>
      </trkpt>
      <trkpt lat="45.57329" lon="4.53561">
        <ele>923.53039</ele>
        <time>2025-06-07T09:04:37.005Z</time>
      </trkpt>
      <trkpt lat="45.57331" lon="4.53578">
        <ele>923.35561</ele>
        <time>2025-06-07T09:04:39.009Z</time>
      </trkpt>
      <trkpt lat="45.57336" lon="4.53594">
        <ele>923.178614</ele>
        <time>2025-06-07T09:04:41.005Z</time>
      </trkpt>
      <trkpt lat="45.57343" lon="4.5361">
        <ele>922.880635</ele>
        <time>2025-06-07T09:04:43.021Z</time>
      </trkpt>
      <trkpt lat="45.5735" lon="4.53625">
        <ele>922.502231</ele>
        <time>2025-06-07T09:04:45.014Z</time>
      </trkpt>
      <trkpt lat="45.57357" lon="4.5364">
        <ele>922.130071</ele>
        <time>2025-06-07T09:04:47.003Z</time>
      </trkpt>
      <trkpt lat="45.57364" lon="4.53655">
        <ele>921.76174</ele>
        <time>2025-06-07T09:04:49.006Z</time>
      </trkpt>
      <trkpt lat="45.57371" lon="4.53669">
        <ele>921.407126</ele>
        <time>2025-06-07T09:04:50.987Z</time>
      </trkpt>
      <trkpt lat="45.57379" lon="4.53682">
        <ele>921.05287</ele>
        <time>2025-06-07T09:04:52.991Z</time>
      </trkpt>
      <trkpt lat="45.57387" lon="4.53693">
        <ele>920.705805</ele>
        <time>2025-06-07T09:04:54.994Z</time>
      </trkpt>
      <trkpt lat="45.57396" lon="4.53704">
        <ele>920.35989</ele>
        <time>2025-06-07T09:04:56.987Z</time>
      </trkpt>
      <trkpt lat="45.57404" lon="4.53715">
        <ele>920.026956</ele>
        <time>2025-06-07T09:04:59.001Z</time>
      </trkpt>
      <trkpt lat="45.57413" lon="4.53725">
        <ele>919.703489</ele>
        <time>2025-06-07T09:05:00.996Z</time>
      </trkpt>
      <trkpt lat="45.57421" lon="4.53736">
        <ele>919.376448</ele>
        <time>2025-06-07T09:05:02.983Z</time>
      </trkpt>
      <trkpt lat="45.57429" lon="4.53747">
        <ele>919.052211</ele>
        <time>2025-06-07T09:05:04.995Z</time>
      </trkpt>
      <trkpt lat="45.57437" lon="4.53757">
        <ele>918.729199</ele>
        <time>2025-06-07T09:05:06.992Z</time>
      </trkpt>
      <trkpt lat="45.57444" lon="4.53768">
        <ele>918.414765</ele>
        <time>2025-06-07T09:05:09.000Z</time>
      </trkpt>
      <trkpt lat="45.57452" lon="4.53778">
        <ele>918.112682</ele>
        <time>2025-06-07T09:05:11.069Z</time>
      </trkpt>
      <trkpt lat="45.57459" lon="4.53788">
        <ele>917.80635</ele>
        <time>2025-06-07T09:05:13.110Z</time>
      </trkpt>
      <trkpt lat="45.57466" lon="4.538">
        <ele>917.37491</ele>
        <time>2025-06-07T09:05:14.992Z</time>
      </trkpt>
      <trkpt lat="45.57473" lon="4.53812">
        <ele>916.893482</ele>
        <time>2025-06-07T09:05:16.992Z</time>
      </trkpt>
      <trkpt lat="45.57479" lon="4.53826">
        <ele>916.412594</ele>
        <time>2025-06-07T09:05:18.984Z</time>
      </trkpt>
      <trkpt lat="45.57486" lon="4.5384">
        <ele>915.912391</ele>
        <time>2025-06-07T09:05:20.992Z</time>
      </trkpt>
      <trkpt lat="45.57494" lon="4.53852">
        <ele>915.402215</ele>
        <time>2025-06-07T09:05:22.994Z</time>
      </trkpt>
      <trkpt lat="45.57503" lon="4.53865">
        <ele>914.890129</ele>
        <time>2025-06-07T09:05:25.180Z</time>
      </trkpt>
      <trkpt lat="45.5751" lon="4.53878">
        <ele>914.384256</ele>
        <time>2025-06-07T09:05:26.993Z</time>
      </trkpt>
      <trkpt lat="45.57518" lon="4.53892">
        <ele>913.865825</ele>
        <time>2025-06-07T09:05:29.042Z</time>
      </trkpt>
      <trkpt lat="45.57525" lon="4.53907">
        <ele>913.312221</ele>
        <time>2025-06-07T09:05:31.005Z</time>
      </trkpt>
      <trkpt lat="45.57533" lon="4.53922">
        <ele>912.765876</ele>
        <time>2025-06-07T09:05:33.011Z</time>
      </trkpt>
      <trkpt lat="45.5754" lon="4.53937">
        <ele>912.20489</ele>
        <time>2025-06-07T09:05:35.004Z</time>
      </trkpt>
      <trkpt lat="45.57547" lon="4.53954">
        <ele>911.633052</ele>
        <time>2025-06-07T09:05:37.003Z</time>
      </trkpt>
      <trkpt lat="45.57554" lon="4.53971">
        <ele>911.066168</ele>
        <time>2025-06-07T09:05:39.002Z</time>
      </trkpt>
      <trkpt lat="45.5756" lon="4.53988">
        <ele>910.501132</ele>
        <time>2025-06-07T09:05:41.007Z</time>
      </trkpt>
      <trkpt lat="45.57565" lon="4.54004">
        <ele>910.112778</ele>
        <time>2025-06-07T09:05:42.998Z</time>
      </trkpt>
      <trkpt lat="45.5757" lon="4.54019">
        <ele>909.970218</ele>
        <time>2025-06-07T09:05:45.001Z</time>
      </trkpt>
      <trkpt lat="45.57574" lon="4.54034">
        <ele>909.839925</ele>
        <time>2025-06-07T09:05:47.006Z</time>
      </trkpt>
      <trkpt lat="45.57578" lon="4.54048">
        <ele>909.719111</ele>
        <time>2025-06-07T09:05:49.006Z</time>
      </trkpt>
      <trkpt lat="45.57581" lon="4.5406">
        <ele>909.606502</ele>
        <time>2025-06-07T09:05:51.001Z</time>
      </trkpt>
      <trkpt lat="45.57583" lon="4.54078">
        <ele>909.459802</ele>
        <time>2025-06-07T09:05:53.992Z</time>
      </trkpt>
      <trkpt lat="45.57587" lon="4.54093">
        <ele>909.327909</ele>
        <time>2025-06-07T09:05:57.022Z</time>
      </trkpt>
      <trkpt lat="45.5759" lon="4.54111">
        <ele>909.172626</ele>
        <time>2025-06-07T09:06:00.029Z</time>
      </trkpt>
      <trkpt lat="45.57596" lon="4.54125">
        <ele>909.03542</ele>
        <time>2025-06-07T09:06:02.015Z</time>
      </trkpt>
      <trkpt lat="45.57602" lon="4.54141">
        <ele>908.885123</ele>
        <time>2025-06-07T09:06:04.004Z</time>
      </trkpt>
      <trkpt lat="45.57609" lon="4.54155">
        <ele>908.740314</ele>
        <time>2025-06-07T09:06:06.013Z</time>
      </trkpt>
      <trkpt lat="45.57616" lon="4.54166">
        <ele>908.612909</ele>
        <time>2025-06-07T09:06:08.052Z</time>
      </trkpt>
      <trkpt lat="45.57625" lon="4.54179">
        <ele>908.467225</ele>
        <time>2025-06-07T09:06:10.003Z</time>
      </trkpt>
      <trkpt lat="45.57635" lon="4.54191">
        <ele>908.313114</ele>
        <time>2025-06-07T09:06:12.000Z</time>
      </trkpt>
      <trkpt lat="45.57645" lon="4.54201">
        <ele>908.166268</ele>
        <time>2025-06-07T09:06:13.993Z</time>
      </trkpt>
      <trkpt lat="45.57655" lon="4.54211">
        <ele>907.985002</ele>
        <time>2025-06-07T09:06:15.991Z</time>
      </trkpt>
      <trkpt lat="45.57666" lon="4.5422">
        <ele>907.509094</ele>
        <time>2025-06-07T09:06:17.991Z</time>
      </trkpt>
      <trkpt lat="45.57675" lon="4.54229">
        <ele>907.046893</ele>
        <time>2025-06-07T09:06:20.348Z</time>
      </trkpt>
      <trkpt lat="45.57686" lon="4.54239">
        <ele>906.553489</ele>
        <time>2025-06-07T09:06:22.010Z</time>
      </trkpt>
      <trkpt lat="45.57694" lon="4.54247">
        <ele>906.131298</ele>
        <time>2025-06-07T09:06:23.996Z</time>
      </trkpt>
      <trkpt lat="45.57703" lon="4.54256">
        <ele>905.696301</ele>
        <time>2025-06-07T09:06:26.002Z</time>
      </trkpt>
      <trkpt lat="45.57711" lon="4.54266">
        <ele>905.280012</ele>
        <time>2025-06-07T09:06:28.007Z</time>
      </trkpt>
      <trkpt lat="45.57721" lon="4.54276">
        <ele>904.810938</ele>
        <time>2025-06-07T09:06:29.988Z</time>
      </trkpt>
      <trkpt lat="45.57731" lon="4.54285">
        <ele>904.316174</ele>
        <time>2025-06-07T09:06:31.994Z</time>
      </trkpt>
      <trkpt lat="45.57741" lon="4.54296">
        <ele>903.820734</ele>
        <time>2025-06-07T09:06:34.025Z</time>
      </trkpt>
      <trkpt lat="45.57751" lon="4.54306">
        <ele>903.348165</ele>
        <time>2025-06-07T09:06:35.984Z</time>
      </trkpt>
      <trkpt lat="45.57759" lon="4.54316">
        <ele>902.91451</ele>
        <time>2025-06-07T09:06:37.988Z</time>
      </trkpt>
      <trkpt lat="45.57769" lon="4.54326">
        <ele>902.424172</ele>
        <time>2025-06-07T09:06:39.991Z</time>
      </trkpt>
      <trkpt lat="45.57778" lon="4.54337">
        <ele>901.949171</ele>
        <time>2025-06-07T09:06:41.994Z</time>
      </trkpt>
      <trkpt lat="45.57788" lon="4.54345">
        <ele>901.514123</ele>
        <time>2025-06-07T09:06:44.010Z</time>
      </trkpt>
      <trkpt lat="45.57796" lon="4.54353">
        <ele>901.116274</ele>
        <time>2025-06-07T09:06:46.003Z</time>
      </trkpt>
      <trkpt lat="45.57805" lon="4.54363">
        <ele>900.656965</ele>
        <time>2025-06-07T09:06:48.008Z</time>
      </trkpt>
      <trkpt lat="45.57814" lon="4.54373">
        <ele>900.149267</ele>
        <time>2025-06-07T09:06:49.999Z</time>
      </trkpt>
      <trkpt lat="45.57824" lon="4.54386">
        <ele>899.59143</ele>
        <time>2025-06-07T09:06:52.000Z</time>
      </trkpt>
      <trkpt lat="45.57833" lon="4.54398">
        <ele>899.052552</ele>
        <time>2025-06-07T09:06:53.992Z</time>
      </trkpt>
      <trkpt lat="45.57843" lon="4.54412">
        <ele>898.474415</ele>
        <time>2025-06-07T09:06:55.991Z</time>
      </trkpt>
      <trkpt lat="45.57851" lon="4.54427">
        <ele>897.908819</ele>
        <time>2025-06-07T09:06:57.999Z</time>
      </trkpt>
      <trkpt lat="45.5786" lon="4.54443">
        <ele>897.299888</ele>
        <time>2025-06-07T09:06:59.999Z</time>
      </trkpt>
      <trkpt lat="45.57868" lon="4.54455">
        <ele>896.829184</ele>
        <time>2025-06-07T09:07:02.001Z</time>
      </trkpt>
      <trkpt lat="45.57879" lon="4.54472">
        <ele>896.13564</ele>
        <time>2025-06-07T09:07:03.991Z</time>
      </trkpt>
      <trkpt lat="45.57885" lon="4.54489">
        <ele>895.580568</ele>
        <time>2025-06-07T09:07:05.995Z</time>
      </trkpt>
      <trkpt lat="45.57893" lon="4.54508">
        <ele>894.909609</ele>
        <time>2025-06-07T09:07:08.003Z</time>
      </trkpt>
      <trkpt lat="45.57897" lon="4.54523">
        <ele>894.446955</ele>
        <time>2025-06-07T09:07:09.990Z</time>
      </trkpt>
      <trkpt lat="45.57898" lon="4.54536">
        <ele>894.046686</ele>
        <time>2025-06-07T09:07:14.996Z</time>
      </trkpt>
      <trkpt lat="45.57903" lon="4.54548">
        <ele>893.640481</ele>
        <time>2025-06-07T09:07:17.993Z</time>
      </trkpt>
      <trkpt lat="45.57905" lon="4.54562">
        <ele>893.194135</ele>
        <time>2025-06-07T09:07:19.985Z</time>
      </trkpt>
      <trkpt lat="45.57905" lon="4.54576">
        <ele>892.589836</ele>
        <time>2025-06-07T09:07:22.000Z</time>
      </trkpt>
      <trkpt lat="45.57908" lon="4.54591">
        <ele>891.862856</ele>
        <time>2025-06-07T09:07:23.989Z</time>
      </trkpt>
      <trkpt lat="45.57911" lon="4.54609">
        <ele>891.048906</ele>
        <time>2025-06-07T09:07:25.994Z</time>
      </trkpt>
      <trkpt lat="45.57909" lon="4.54624">
        <ele>890.370337</ele>
        <time>2025-06-07T09:07:27.995Z</time>
      </trkpt>
      <trkpt lat="45.57909" lon="4.54637">
        <ele>889.779251</ele>
        <time>2025-06-07T09:07:29.992Z</time>
      </trkpt>
      <trkpt lat="45.5791" lon="4.54652">
        <ele>889.072178</ele>
        <time>2025-06-07T09:07:31.992Z</time>
      </trkpt>
      <trkpt lat="45.57907" lon="4.54667">
        <ele>888.384134</ele>
        <time>2025-06-07T09:07:33.991Z</time>
      </trkpt>
      <trkpt lat="45.57903" lon="4.54685">
        <ele>887.515247</ele>
        <time>2025-06-07T09:07:36.002Z</time>
      </trkpt>
      <trkpt lat="45.579" lon="4.54705">
        <ele>886.604592</ele>
        <time>2025-06-07T09:07:39.003Z</time>
      </trkpt>
      <trkpt lat="45.57901" lon="4.54724">
        <ele>885.774407</ele>
        <time>2025-06-07T09:07:41.002Z</time>
      </trkpt>
      <trkpt lat="45.57899" lon="4.54739">
        <ele>885.065848</ele>
        <time>2025-06-07T09:07:42.983Z</time>
      </trkpt>
      <trkpt lat="45.57898" lon="4.54756">
        <ele>884.280499</ele>
        <time>2025-06-07T09:07:44.991Z</time>
      </trkpt>
      <trkpt lat="45.57897" lon="4.54776">
        <ele>883.39875</ele>
        <time>2025-06-07T09:07:47.039Z</time>
      </trkpt>
      <trkpt lat="45.57897" lon="4.54794">
        <ele>882.599883</ele>
        <time>2025-06-07T09:07:48.987Z</time>
      </trkpt>
      <trkpt lat="45.57896" lon="4.54809">
        <ele>881.895632</ele>
        <time>2025-06-07T09:07:50.992Z</time>
      </trkpt>
      <trkpt lat="45.57895" lon="4.54825">
        <ele>881.201668</ele>
        <time>2025-06-07T09:07:53.990Z</time>
      </trkpt>
      <trkpt lat="45.579" lon="4.54839">
        <ele>880.577216</ele>
        <time>2025-06-07T09:08:06.007Z</time>
      </trkpt>
      <trkpt lat="45.579" lon="4.54852">
        <ele>880.036756</ele>
        <time>2025-06-07T09:08:08.998Z</time>
      </trkpt>
      <trkpt lat="45.57897" lon="4.54865">
        <ele>879.48704</ele>
        <time>2025-06-07T09:08:12.306Z</time>
      </trkpt>
      <trkpt lat="45.57896" lon="4.54906">
        <ele>877.774941</ele>
        <time>2025-06-07T09:08:41.255Z</time>
      </trkpt>
      <trkpt lat="45.57895" lon="4.54923">
        <ele>877.077383</ele>
        <time>2025-06-07T09:08:42.996Z</time>
      </trkpt>
      <trkpt lat="45.57894" lon="4.54942">
        <ele>876.267385</ele>
        <time>2025-06-07T09:08:44.992Z</time>
      </trkpt>
      <trkpt lat="45.57893" lon="4.54963">
        <ele>875.381378</ele>
        <time>2025-06-07T09:08:46.993Z</time>
      </trkpt>
      <trkpt lat="45.5789" lon="4.54985">
        <ele>874.476384</ele>
        <time>2025-06-07T09:08:48.996Z</time>
      </trkpt>
      <trkpt lat="45.57885" lon="4.55004">
        <ele>873.614875</ele>
        <time>2025-06-07T09:08:50.996Z</time>
      </trkpt>
      <trkpt lat="45.5788" lon="4.55025">
        <ele>872.692487</ele>
        <time>2025-06-07T09:08:52.988Z</time>
      </trkpt>
      <trkpt lat="45.57874" lon="4.55048">
        <ele>871.685508</ele>
        <time>2025-06-07T09:08:54.991Z</time>
      </trkpt>
      <trkpt lat="45.57868" lon="4.55072">
        <ele>870.907</ele>
        <time>2025-06-07T09:08:56.995Z</time>
      </trkpt>
      <trkpt lat="45.57865" lon="4.5509">
        <ele>870.710944</ele>
        <time>2025-06-07T09:08:58.995Z</time>
      </trkpt>
      <trkpt lat="45.57861" lon="4.55107">
        <ele>870.521181</ele>
        <time>2025-06-07T09:09:01.152Z</time>
      </trkpt>
      <trkpt lat="45.57858" lon="4.55124">
        <ele>870.340159</ele>
        <time>2025-06-07T09:09:02.995Z</time>
      </trkpt>
      <trkpt lat="45.57856" lon="4.5514">
        <ele>870.164552</ele>
        <time>2025-06-07T09:09:05.085Z</time>
      </trkpt>
      <trkpt lat="45.57856" lon="4.55155">
        <ele>870.014198</ele>
        <time>2025-06-07T09:09:06.984Z</time>
      </trkpt>
      <trkpt lat="45.57855" lon="4.55172">
        <ele>869.829523</ele>
        <time>2025-06-07T09:09:09.989Z</time>
      </trkpt>
      <trkpt lat="45.57854" lon="4.55191">
        <ele>869.636087</ele>
        <time>2025-06-07T09:09:12.989Z</time>
      </trkpt>
      <trkpt lat="45.57853" lon="4.5521">
        <ele>869.43261</ele>
        <time>2025-06-07T09:09:15.999Z</time>
      </trkpt>
      <trkpt lat="45.5785" lon="4.55223">
        <ele>869.296363</ele>
        <time>2025-06-07T09:09:17.990Z</time>
      </trkpt>
      <trkpt lat="45.57848" lon="4.55236">
        <ele>869.15258</ele>
        <time>2025-06-07T09:09:19.989Z</time>
      </trkpt>
      <trkpt lat="45.57847" lon="4.5525">
        <ele>869.011244</ele>
        <time>2025-06-07T09:09:21.993Z</time>
      </trkpt>
      <trkpt lat="45.57848" lon="4.55264">
        <ele>868.861042</ele>
        <time>2025-06-07T09:09:24.000Z</time>
      </trkpt>
      <trkpt lat="45.5785" lon="4.55279">
        <ele>868.700558</ele>
        <time>2025-06-07T09:09:25.985Z</time>
      </trkpt>
      <trkpt lat="45.57853" lon="4.55295">
        <ele>868.53379</ele>
        <time>2025-06-07T09:09:27.983Z</time>
      </trkpt>
      <trkpt lat="45.57853" lon="4.5531">
        <ele>868.372995</ele>
        <time>2025-06-07T09:09:29.988Z</time>
      </trkpt>
      <trkpt lat="45.57854" lon="4.55326">
        <ele>868.145668</ele>
        <time>2025-06-07T09:09:31.987Z</time>
      </trkpt>
      <trkpt lat="45.57857" lon="4.55342">
        <ele>867.878652</ele>
        <time>2025-06-07T09:09:33.988Z</time>
      </trkpt>
      <trkpt lat="45.5786" lon="4.55358">
        <ele>867.609811</ele>
        <time>2025-06-07T09:09:35.987Z</time>
      </trkpt>
      <trkpt lat="45.57864" lon="4.55373">
        <ele>867.347283</ele>
        <time>2025-06-07T09:09:37.991Z</time>
      </trkpt>
      <trkpt lat="45.57869" lon="4.55388">
        <ele>867.086564</ele>
        <time>2025-06-07T09:09:39.989Z</time>
      </trkpt>
      <trkpt lat="45.57873" lon="4.55402">
        <ele>866.834217</ele>
        <time>2025-06-07T09:09:41.990Z</time>
      </trkpt>
      <trkpt lat="45.57879" lon="4.55414">
        <ele>866.591902</ele>
        <time>2025-06-07T09:09:43.985Z</time>
      </trkpt>
      <trkpt lat="45.57886" lon="4.55426">
        <ele>866.34227</ele>
        <time>2025-06-07T09:09:45.987Z</time>
      </trkpt>
      <trkpt lat="45.57893" lon="4.55438">
        <ele>866.082888</ele>
        <time>2025-06-07T09:09:47.996Z</time>
      </trkpt>
      <trkpt lat="45.579" lon="4.55451">
        <ele>865.823139</ele>
        <time>2025-06-07T09:09:49.990Z</time>
      </trkpt>
      <trkpt lat="45.57904" lon="4.55466">
        <ele>865.561467</ele>
        <time>2025-06-07T09:09:51.994Z</time>
      </trkpt>
      <trkpt lat="45.57906" lon="4.55483">
        <ele>865.288082</ele>
        <time>2025-06-07T09:09:53.987Z</time>
      </trkpt>
      <trkpt lat="45.57908" lon="4.55498">
        <ele>865.025573</ele>
        <time>2025-06-07T09:09:55.996Z</time>
      </trkpt>
      <trkpt lat="45.57912" lon="4.55514">
        <ele>864.754796</ele>
        <time>2025-06-07T09:09:58.000Z</time>
      </trkpt>
      <trkpt lat="45.57916" lon="4.55528">
        <ele>864.502181</ele>
        <time>2025-06-07T09:10:00.175Z</time>
      </trkpt>
      <trkpt lat="45.57918" lon="4.55545">
        <ele>864.236328</ele>
        <time>2025-06-07T09:10:01.990Z</time>
      </trkpt>
      <trkpt lat="45.57919" lon="4.55561">
        <ele>863.922211</ele>
        <time>2025-06-07T09:10:03.983Z</time>
      </trkpt>
      <trkpt lat="45.5792" lon="4.55574">
        <ele>863.648756</ele>
        <time>2025-06-07T09:10:05.991Z</time>
      </trkpt>
      <trkpt lat="45.57924" lon="4.5559">
        <ele>863.302576</ele>
        <time>2025-06-07T09:10:08.990Z</time>
      </trkpt>
      <trkpt lat="45.5793" lon="4.55603">
        <ele>862.988749</ele>
        <time>2025-06-07T09:10:11.995Z</time>
      </trkpt>
      <trkpt lat="45.57936" lon="4.55616">
        <ele>862.662138</ele>
        <time>2025-06-07T09:10:15.995Z</time>
      </trkpt>
      <trkpt lat="45.57943" lon="4.5563">
        <ele>862.310369</ele>
        <time>2025-06-07T09:10:20.002Z</time>
      </trkpt>
      <trkpt lat="45.57948" lon="4.55642">
        <ele>862.025683</ele>
        <time>2025-06-07T09:10:22.987Z</time>
      </trkpt>
      <trkpt lat="45.57952" lon="4.55656">
        <ele>861.725326</ele>
        <time>2025-06-07T09:10:26.992Z</time>
      </trkpt>
      <trkpt lat="45.57957" lon="4.55667">
        <ele>861.458239</ele>
        <time>2025-06-07T09:10:30.999Z</time>
      </trkpt>
      <trkpt lat="45.57962" lon="4.55679">
        <ele>861.156955</ele>
        <time>2025-06-07T09:10:34.994Z</time>
      </trkpt>
      <trkpt lat="45.57969" lon="4.55692">
        <ele>860.821783</ele>
        <time>2025-06-07T09:10:38.996Z</time>
      </trkpt>
      <trkpt lat="45.57975" lon="4.55702">
        <ele>860.544905</ele>
        <time>2025-06-07T09:10:42.001Z</time>
      </trkpt>
      <trkpt lat="45.57982" lon="4.55714">
        <ele>860.24601</ele>
        <time>2025-06-07T09:10:44.986Z</time>
      </trkpt>
      <trkpt lat="45.57991" lon="4.55724">
        <ele>859.904166</ele>
        <time>2025-06-07T09:10:48.195Z</time>
      </trkpt>
      <trkpt lat="45.58" lon="4.55727">
        <ele>859.637115</ele>
        <time>2025-06-07T09:10:49.990Z</time>
      </trkpt>
      <trkpt lat="45.58009" lon="4.55731">
        <ele>859.347416</ele>
        <time>2025-06-07T09:10:51.995Z</time>
      </trkpt>
      <trkpt lat="45.58018" lon="4.55739">
        <ele>859.023748</ele>
        <time>2025-06-07T09:10:54.028Z</time>
      </trkpt>
      <trkpt lat="45.58027" lon="4.55746">
        <ele>858.567685</ele>
        <time>2025-06-07T09:10:56.015Z</time>
      </trkpt>
      <trkpt lat="45.58036" lon="4.55753">
        <ele>857.932311</ele>
        <time>2025-06-07T09:10:57.992Z</time>
      </trkpt>
      <trkpt lat="45.58045" lon="4.55763">
        <ele>857.171899</ele>
        <time>2025-06-07T09:11:00.021Z</time>
      </trkpt>
      <trkpt lat="45.58055" lon="4.55776">
        <ele>856.288585</ele>
        <time>2025-06-07T09:11:01.988Z</time>
      </trkpt>
      <trkpt lat="45.58065" lon="4.55792">
        <ele>855.343507</ele>
        <time>2025-06-07T09:11:03.990Z</time>
      </trkpt>
      <trkpt lat="45.58075" lon="4.55807">
        <ele>854.374642</ele>
        <time>2025-06-07T09:11:06.000Z</time>
      </trkpt>
      <trkpt lat="45.58082" lon="4.55827">
        <ele>853.385642</ele>
        <time>2025-06-07T09:11:08.008Z</time>
      </trkpt>
      <trkpt lat="45.58087" lon="4.55845">
        <ele>852.474882</ele>
        <time>2025-06-07T09:11:09.993Z</time>
      </trkpt>
      <trkpt lat="45.58096" lon="4.55862">
        <ele>851.492523</ele>
        <time>2025-06-07T09:11:11.991Z</time>
      </trkpt>
      <trkpt lat="45.58101" lon="4.55874">
        <ele>850.831473</ele>
        <time>2025-06-07T09:11:13.993Z</time>
      </trkpt>
      <trkpt lat="45.58107" lon="4.55886">
        <ele>850.182153</ele>
        <time>2025-06-07T09:11:15.986Z</time>
      </trkpt>
      <trkpt lat="45.58112" lon="4.559">
        <ele>849.498867</ele>
        <time>2025-06-07T09:11:18.018Z</time>
      </trkpt>
      <trkpt lat="45.58119" lon="4.55911">
        <ele>848.777725</ele>
        <time>2025-06-07T09:11:20.003Z</time>
      </trkpt>
      <trkpt lat="45.58126" lon="4.55925">
        <ele>848.012791</ele>
        <time>2025-06-07T09:11:22.155Z</time>
      </trkpt>
      <trkpt lat="45.58133" lon="4.55938">
        <ele>847.23626</ele>
        <time>2025-06-07T09:11:24.022Z</time>
      </trkpt>
      <trkpt lat="45.58142" lon="4.55952">
        <ele>846.788812</ele>
        <time>2025-06-07T09:11:26.064Z</time>
      </trkpt>
      <trkpt lat="45.58148" lon="4.55967">
        <ele>846.411007</ele>
        <time>2025-06-07T09:11:28.012Z</time>
      </trkpt>
      <trkpt lat="45.58155" lon="4.55979">
        <ele>846.095389</ele>
        <time>2025-06-07T09:11:29.985Z</time>
      </trkpt>
      <trkpt lat="45.5816" lon="4.55996">
        <ele>845.707479</ele>
        <time>2025-06-07T09:11:31.987Z</time>
      </trkpt>
      <trkpt lat="45.58166" lon="4.56014">
        <ele>845.276532</ele>
        <time>2025-06-07T09:11:33.983Z</time>
      </trkpt>
      <trkpt lat="45.58179" lon="4.56028">
        <ele>844.80776</ele>
        <time>2025-06-07T09:11:35.986Z</time>
      </trkpt>
      <trkpt lat="45.58187" lon="4.56044">
        <ele>844.391089</ele>
        <time>2025-06-07T09:11:38.094Z</time>
      </trkpt>
      <trkpt lat="45.58196" lon="4.5606">
        <ele>843.958397</ele>
        <time>2025-06-07T09:11:40.023Z</time>
      </trkpt>
      <trkpt lat="45.58206" lon="4.56074">
        <ele>843.545873</ele>
        <time>2025-06-07T09:11:42.015Z</time>
      </trkpt>
      <trkpt lat="45.58209" lon="4.5609">
        <ele>843.209146</ele>
        <time>2025-06-07T09:11:44.263Z</time>
      </trkpt>
      <trkpt lat="45.58216" lon="4.56106">
        <ele>842.803156</ele>
        <time>2025-06-07T09:11:45.997Z</time>
      </trkpt>
      <trkpt lat="45.58221" lon="4.5612">
        <ele>842.480833</ele>
        <time>2025-06-07T09:11:48.303Z</time>
      </trkpt>
      <trkpt lat="45.58228" lon="4.56133">
        <ele>842.13911</ele>
        <time>2025-06-07T09:11:50.015Z</time>
      </trkpt>
      <trkpt lat="45.58235" lon="4.56148">
        <ele>841.746837</ele>
        <time>2025-06-07T09:11:51.982Z</time>
      </trkpt>
      <trkpt lat="45.58243" lon="4.56162">
        <ele>841.13378</ele>
        <time>2025-06-07T09:11:54.007Z</time>
      </trkpt>
      <trkpt lat="45.58251" lon="4.56175">
        <ele>840.524771</ele>
        <time>2025-06-07T09:11:56.039Z</time>
      </trkpt>
      <trkpt lat="45.58259" lon="4.56187">
        <ele>839.955027</ele>
        <time>2025-06-07T09:11:58.107Z</time>
      </trkpt>
      <trkpt lat="45.58267" lon="4.562">
        <ele>839.341241</ele>
        <time>2025-06-07T09:11:59.995Z</time>
      </trkpt>
      <trkpt lat="45.58274" lon="4.56213">
        <ele>838.747413</ele>
        <time>2025-06-07T09:12:01.998Z</time>
      </trkpt>
      <trkpt lat="45.58283" lon="4.56227">
        <ele>838.115777</ele>
        <time>2025-06-07T09:12:04.013Z</time>
      </trkpt>
      <trkpt lat="45.58292" lon="4.56236">
        <ele>837.527284</ele>
        <time>2025-06-07T09:12:05.992Z</time>
      </trkpt>
      <trkpt lat="45.58304" lon="4.56249">
        <ele>836.767157</ele>
        <time>2025-06-07T09:12:08.152Z</time>
      </trkpt>
      <trkpt lat="45.58322" lon="4.5627">
        <ele>835.62248</ele>
        <time>2025-06-07T09:12:12.960Z</time>
      </trkpt>
      <trkpt lat="45.58331" lon="4.5628">
        <ele>835.027838</ele>
        <time>2025-06-07T09:12:15.000Z</time>
      </trkpt>
      <trkpt lat="45.58343" lon="4.5629">
        <ele>834.351012</ele>
        <time>2025-06-07T09:12:18.010Z</time>
      </trkpt>
      <trkpt lat="45.58353" lon="4.56299">
        <ele>833.731441</ele>
        <time>2025-06-07T09:12:20.002Z</time>
      </trkpt>
      <trkpt lat="45.58362" lon="4.56304">
        <ele>833.24305</ele>
        <time>2025-06-07T09:12:22.002Z</time>
      </trkpt>
      <trkpt lat="45.58371" lon="4.56311">
        <ele>832.738094</ele>
        <time>2025-06-07T09:12:24.006Z</time>
      </trkpt>
      <trkpt lat="45.58381" lon="4.5632">
        <ele>832.225917</ele>
        <time>2025-06-07T09:12:26.018Z</time>
      </trkpt>
      <trkpt lat="45.5839" lon="4.56326">
        <ele>831.758889</ele>
        <time>2025-06-07T09:12:28.210Z</time>
      </trkpt>
      <trkpt lat="45.58399" lon="4.56336">
        <ele>831.251364</ele>
        <time>2025-06-07T09:12:29.993Z</time>
      </trkpt>
      <trkpt lat="45.58406" lon="4.56346">
        <ele>830.794392</ele>
        <time>2025-06-07T09:12:31.990Z</time>
      </trkpt>
      <trkpt lat="45.58414" lon="4.56357">
        <ele>830.322261</ele>
        <time>2025-06-07T09:12:33.989Z</time>
      </trkpt>
      <trkpt lat="45.58424" lon="4.56365">
        <ele>829.808586</ele>
        <time>2025-06-07T09:12:36.003Z</time>
      </trkpt>
      <trkpt lat="45.58433" lon="4.56376">
        <ele>829.262769</ele>
        <time>2025-06-07T09:12:37.992Z</time>
      </trkpt>
      <trkpt lat="45.58443" lon="4.56386">
        <ele>828.748082</ele>
        <time>2025-06-07T09:12:40.031Z</time>
      </trkpt>
      <trkpt lat="45.58451" lon="4.56395">
        <ele>828.287486</ele>
        <time>2025-06-07T09:12:42.016Z</time>
      </trkpt>
      <trkpt lat="45.58456" lon="4.56405">
        <ele>827.88301</ele>
        <time>2025-06-07T09:12:44.057Z</time>
      </trkpt>
      <trkpt lat="45.58466" lon="4.56418">
        <ele>827.287618</ele>
        <time>2025-06-07T09:12:47.002Z</time>
      </trkpt>
      <trkpt lat="45.58473" lon="4.56429">
        <ele>826.800177</ele>
        <time>2025-06-07T09:12:48.994Z</time>
      </trkpt>
      <trkpt lat="45.58483" lon="4.56439">
        <ele>826.285491</ele>
        <time>2025-06-07T09:12:51.000Z</time>
      </trkpt>
      <trkpt lat="45.58491" lon="4.56447">
        <ele>825.829203</ele>
        <time>2025-06-07T09:12:51.998Z</time>
      </trkpt>
      <trkpt lat="45.585" lon="4.56455">
        <ele>825.341656</ele>
        <time>2025-06-07T09:12:53.999Z</time>
      </trkpt>
      <trkpt lat="45.58512" lon="4.56464">
        <ele>824.74586</ele>
        <time>2025-06-07T09:12:56.039Z</time>
      </trkpt>
      <trkpt lat="45.58523" lon="4.56474">
        <ele>824.262234</ele>
        <time>2025-06-07T09:12:57.992Z</time>
      </trkpt>
      <trkpt lat="45.58532" lon="4.5648">
        <ele>823.883447</ele>
        <time>2025-06-07T09:12:59.983Z</time>
      </trkpt>
      <trkpt lat="45.58543" lon="4.56484">
        <ele>823.446334</ele>
        <time>2025-06-07T09:13:01.995Z</time>
      </trkpt>
      <trkpt lat="45.58557" lon="4.5649">
        <ele>822.91151</ele>
        <time>2025-06-07T09:13:05.069Z</time>
      </trkpt>
      <trkpt lat="45.5857" lon="4.56494">
        <ele>822.40825</ele>
        <time>2025-06-07T09:13:07.987Z</time>
      </trkpt>
      <trkpt lat="45.58586" lon="4.565">
        <ele>821.818874</ele>
        <time>2025-06-07T09:13:11.002Z</time>
      </trkpt>
      <trkpt lat="45.58596" lon="4.56505">
        <ele>821.393176</ele>
        <time>2025-06-07T09:13:13.991Z</time>
      </trkpt>
      <trkpt lat="45.58605" lon="4.5651">
        <ele>821.044363</ele>
        <time>2025-06-07T09:13:16.003Z</time>
      </trkpt>
      <trkpt lat="45.58616" lon="4.56515">
        <ele>820.616559</ele>
        <time>2025-06-07T09:13:20.163Z</time>
      </trkpt>
      <trkpt lat="45.58625" lon="4.56519">
        <ele>820.263816</ele>
        <time>2025-06-07T09:13:22.984Z</time>
      </trkpt>
      <trkpt lat="45.58636" lon="4.56523">
        <ele>819.869488</ele>
        <time>2025-06-07T09:13:26.001Z</time>
      </trkpt>
      <trkpt lat="45.58649" lon="4.56527">
        <ele>819.353585</ele>
        <time>2025-06-07T09:13:28.997Z</time>
      </trkpt>
      <trkpt lat="45.58658" lon="4.56529">
        <ele>819.008068</ele>
        <time>2025-06-07T09:13:29.995Z</time>
      </trkpt>
      <trkpt lat="45.58668" lon="4.5653">
        <ele>818.639904</ele>
        <time>2025-06-07T09:13:31.990Z</time>
      </trkpt>
      <trkpt lat="45.58678" lon="4.56535">
        <ele>818.24118</ele>
        <time>2025-06-07T09:13:34.005Z</time>
      </trkpt>
      <trkpt lat="45.58688" lon="4.56538">
        <ele>817.826157</ele>
        <time>2025-06-07T09:13:35.996Z</time>
      </trkpt>
      <trkpt lat="45.58698" lon="4.56541">
        <ele>817.220189</ele>
        <time>2025-06-07T09:13:38.006Z</time>
      </trkpt>
      <trkpt lat="45.58714" lon="4.56541">
        <ele>816.300191</ele>
        <time>2025-06-07T09:13:41.016Z</time>
      </trkpt>
      <trkpt lat="45.58725" lon="4.56541">
        <ele>815.633469</ele>
        <time>2025-06-07T09:13:43.000Z</time>
      </trkpt>
      <trkpt lat="45.58738" lon="4.56544">
        <ele>814.854808</ele>
        <time>2025-06-07T09:13:45.996Z</time>
      </trkpt>
      <trkpt lat="45.5875" lon="4.56546">
        <ele>814.131916</ele>
        <time>2025-06-07T09:13:47.994Z</time>
      </trkpt>
      <trkpt lat="45.58763" lon="4.56546">
        <ele>813.388802</ele>
        <time>2025-06-07T09:13:49.994Z</time>
      </trkpt>
      <trkpt lat="45.58776" lon="4.56546">
        <ele>812.627762</ele>
        <time>2025-06-07T09:13:52.015Z</time>
      </trkpt>
      <trkpt lat="45.58786" lon="4.56547">
        <ele>812.002424</ele>
        <time>2025-06-07T09:13:53.997Z</time>
      </trkpt>
      <trkpt lat="45.588" lon="4.56552">
        <ele>811.165424</ele>
        <time>2025-06-07T09:13:57.159Z</time>
      </trkpt>
      <trkpt lat="45.58812" lon="4.56555">
        <ele>810.46776</ele>
        <time>2025-06-07T09:13:59.995Z</time>
      </trkpt>
      <trkpt lat="45.58821" lon="4.56556">
        <ele>809.909962</ele>
        <time>2025-06-07T09:14:01.988Z</time>
      </trkpt>
      <trkpt lat="45.58831" lon="4.56555">
        <ele>809.294958</ele>
        <time>2025-06-07T09:14:04.003Z</time>
      </trkpt>
      <trkpt lat="45.58841" lon="4.56554">
        <ele>808.714135</ele>
        <time>2025-06-07T09:14:05.985Z</time>
      </trkpt>
      <trkpt lat="45.58852" lon="4.56551">
        <ele>808.084963</ele>
        <time>2025-06-07T09:14:07.033Z</time>
      </trkpt>
      <trkpt lat="45.58864" lon="4.56549">
        <ele>807.379678</ele>
        <time>2025-06-07T09:14:09.082Z</time>
      </trkpt>
      <trkpt lat="45.58878" lon="4.56548">
        <ele>806.059614</ele>
        <time>2025-06-07T09:14:11.001Z</time>
      </trkpt>
      <trkpt lat="45.58889" lon="4.56549">
        <ele>804.927033</ele>
        <time>2025-06-07T09:14:12.998Z</time>
      </trkpt>
      <trkpt lat="45.589" lon="4.56549">
        <ele>803.874836</ele>
        <time>2025-06-07T09:14:15.000Z</time>
      </trkpt>
      <trkpt lat="45.58913" lon="4.56551">
        <ele>802.624868</ele>
        <time>2025-06-07T09:14:17.112Z</time>
      </trkpt>
      <trkpt lat="45.58927" lon="4.56552">
        <ele>801.331065</ele>
        <time>2025-06-07T09:14:19.002Z</time>
      </trkpt>
      <trkpt lat="45.58941" lon="4.5655">
        <ele>799.961697</ele>
        <time>2025-06-07T09:14:21.008Z</time>
      </trkpt>
      <trkpt lat="45.58958" lon="4.56553">
        <ele>798.347214</ele>
        <time>2025-06-07T09:14:22.993Z</time>
      </trkpt>
      <trkpt lat="45.58973" lon="4.56554">
        <ele>796.872937</ele>
        <time>2025-06-07T09:14:24.994Z</time>
      </trkpt>
      <trkpt lat="45.58988" lon="4.56555">
        <ele>795.454183</ele>
        <time>2025-06-07T09:14:26.994Z</time>
      </trkpt>
      <trkpt lat="45.59003" lon="4.56556">
        <ele>794.019336</ele>
        <time>2025-06-07T09:14:28.987Z</time>
      </trkpt>
      <trkpt lat="45.59018" lon="4.56561">
        <ele>792.576792</ele>
        <time>2025-06-07T09:14:31.007Z</time>
      </trkpt>
      <trkpt lat="45.59033" lon="4.56564">
        <ele>791.115649</ele>
        <time>2025-06-07T09:14:33.004Z</time>
      </trkpt>
      <trkpt lat="45.5905" lon="4.56564">
        <ele>789.801068</ele>
        <time>2025-06-07T09:14:34.999Z</time>
      </trkpt>
      <trkpt lat="45.59065" lon="4.56566">
        <ele>789.025545</ele>
        <time>2025-06-07T09:14:37.002Z</time>
      </trkpt>
      <trkpt lat="45.5908" lon="4.56568">
        <ele>788.25403</ele>
        <time>2025-06-07T09:14:39.139Z</time>
      </trkpt>
      <trkpt lat="45.59096" lon="4.5657">
        <ele>787.428594</ele>
        <time>2025-06-07T09:14:40.998Z</time>
      </trkpt>
      <trkpt lat="45.59111" lon="4.56574">
        <ele>786.683522</ele>
        <time>2025-06-07T09:14:42.999Z</time>
      </trkpt>
      <trkpt lat="45.59124" lon="4.56581">
        <ele>785.964224</ele>
        <time>2025-06-07T09:14:44.998Z</time>
      </trkpt>
      <trkpt lat="45.59137" lon="4.56586">
        <ele>785.280392</ele>
        <time>2025-06-07T09:14:47.006Z</time>
      </trkpt>
      <trkpt lat="45.59147" lon="4.56591">
        <ele>784.733458</ele>
        <time>2025-06-07T09:14:49.002Z</time>
      </trkpt>
      <trkpt lat="45.59161" lon="4.56598">
        <ele>784.02128</ele>
        <time>2025-06-07T09:14:52.020Z</time>
      </trkpt>
      <trkpt lat="45.59171" lon="4.56608">
        <ele>783.381032</ele>
        <time>2025-06-07T09:14:54.000Z</time>
      </trkpt>
      <trkpt lat="45.5918" lon="4.56616">
        <ele>782.826866</ele>
        <time>2025-06-07T09:14:56.010Z</time>
      </trkpt>
      <trkpt lat="45.59188" lon="4.56624">
        <ele>782.359728</ele>
        <time>2025-06-07T09:14:58.006Z</time>
      </trkpt>
      <trkpt lat="45.59196" lon="4.56632">
        <ele>781.855489</ele>
        <time>2025-06-07T09:15:00.984Z</time>
      </trkpt>
      <trkpt lat="45.59206" lon="4.56642">
        <ele>781.242079</ele>
        <time>2025-06-07T09:15:04.988Z</time>
      </trkpt>
      <trkpt lat="45.59215" lon="4.56647">
        <ele>780.966979</ele>
        <time>2025-06-07T09:15:06.987Z</time>
      </trkpt>
      <trkpt lat="45.59224" lon="4.56653">
        <ele>780.829385</ele>
        <time>2025-06-07T09:15:08.995Z</time>
      </trkpt>
      <trkpt lat="45.59232" lon="4.5666">
        <ele>780.69438</ele>
        <time>2025-06-07T09:15:10.990Z</time>
      </trkpt>
      <trkpt lat="45.59239" lon="4.56669">
        <ele>780.565376</ele>
        <time>2025-06-07T09:15:13.008Z</time>
      </trkpt>
      <trkpt lat="45.59246" lon="4.56677">
        <ele>780.43849</ele>
        <time>2025-06-07T09:15:14.998Z</time>
      </trkpt>
      <trkpt lat="45.59254" lon="4.56689">
        <ele>780.28583</ele>
        <time>2025-06-07T09:15:17.991Z</time>
      </trkpt>
      <trkpt lat="45.59259" lon="4.56705">
        <ele>780.109936</ele>
        <time>2025-06-07T09:15:20.990Z</time>
      </trkpt>
      <trkpt lat="45.59265" lon="4.56721">
        <ele>779.934473</ele>
        <time>2025-06-07T09:15:24.002Z</time>
      </trkpt>
      <trkpt lat="45.59272" lon="4.56736">
        <ele>779.764143</ele>
        <time>2025-06-07T09:15:26.992Z</time>
      </trkpt>
      <trkpt lat="45.59274" lon="4.56749">
        <ele>779.636123</ele>
        <time>2025-06-07T09:15:28.994Z</time>
      </trkpt>
      <trkpt lat="45.59278" lon="4.5676">
        <ele>779.509982</ele>
        <time>2025-06-07T09:15:30.984Z</time>
      </trkpt>
      <trkpt lat="45.59281" lon="4.56778">
        <ele>779.339596</ele>
        <time>2025-06-07T09:15:33.992Z</time>
      </trkpt>
      <trkpt lat="45.59283" lon="4.56793">
        <ele>779.186151</ele>
        <time>2025-06-07T09:15:37.002Z</time>
      </trkpt>
      <trkpt lat="45.59283" lon="4.56809">
        <ele>779.030529</ele>
        <time>2025-06-07T09:15:40.000Z</time>
      </trkpt>
      <trkpt lat="45.59282" lon="4.56826">
        <ele>778.865866</ele>
        <time>2025-06-07T09:15:42.993Z</time>
      </trkpt>
      <trkpt lat="45.59279" lon="4.56842">
        <ele>778.704573</ele>
        <time>2025-06-07T09:15:46.003Z</time>
      </trkpt>
      <trkpt lat="45.5928" lon="4.56862">
        <ele>778.590735</ele>
        <time>2025-06-07T09:15:48.996Z</time>
      </trkpt>
      <trkpt lat="45.59283" lon="4.56875">
        <ele>778.695659</ele>
        <time>2025-06-07T09:15:51.151Z</time>
      </trkpt>
      <trkpt lat="45.59289" lon="4.56886">
        <ele>778.804455</ele>
        <time>2025-06-07T09:15:52.994Z</time>
      </trkpt>
      <trkpt lat="45.59297" lon="4.56897">
        <ele>778.92426</ele>
        <time>2025-06-07T09:15:54.987Z</time>
      </trkpt>
      <trkpt lat="45.59304" lon="4.56911">
        <ele>779.06693</ele>
        <time>2025-06-07T09:15:58.002Z</time>
      </trkpt>
      <trkpt lat="45.5931" lon="4.56926">
        <ele>779.199576</ele>
        <time>2025-06-07T09:16:00.996Z</time>
      </trkpt>
      <trkpt lat="45.59317" lon="4.56939">
        <ele>779.32554</ele>
        <time>2025-06-07T09:16:04.018Z</time>
      </trkpt>
      <trkpt lat="45.59325" lon="4.56953">
        <ele>779.464401</ele>
        <time>2025-06-07T09:16:06.995Z</time>
      </trkpt>
      <trkpt lat="45.59333" lon="4.56963">
        <ele>779.580388</ele>
        <time>2025-06-07T09:16:08.992Z</time>
      </trkpt>
      <trkpt lat="45.5934" lon="4.56972">
        <ele>779.686935</ele>
        <time>2025-06-07T09:16:10.993Z</time>
      </trkpt>
      <trkpt lat="45.59348" lon="4.56983">
        <ele>779.810154</ele>
        <time>2025-06-07T09:16:13.998Z</time>
      </trkpt>
      <trkpt lat="45.59356" lon="4.56995">
        <ele>779.939655</ele>
        <time>2025-06-07T09:16:17.990Z</time>
      </trkpt>
      <trkpt lat="45.59367" lon="4.56991">
        <ele>780.067629</ele>
        <time>2025-06-07T09:16:22.982Z</time>
      </trkpt>
      <trkpt lat="45.59372" lon="4.56978">
        <ele>780.184362</ele>
        <time>2025-06-07T09:16:26.000Z</time>
      </trkpt>
      <trkpt lat="45.59375" lon="4.56962">
        <ele>780.308928</ele>
        <time>2025-06-07T09:16:28.983Z</time>
      </trkpt>
      <trkpt lat="45.59379" lon="4.56947">
        <ele>780.440379</ele>
        <time>2025-06-07T09:16:32.001Z</time>
      </trkpt>
      <trkpt lat="45.59384" lon="4.56935">
        <ele>780.546848</ele>
        <time>2025-06-07T09:16:34.014Z</time>
      </trkpt>
      <trkpt lat="45.59389" lon="4.56921">
        <ele>779.83726</ele>
        <time>2025-06-07T09:16:36.007Z</time>
      </trkpt>
      <trkpt lat="45.59395" lon="4.56906">
        <ele>778.908113</ele>
        <time>2025-06-07T09:16:38.006Z</time>
      </trkpt>
      <trkpt lat="45.59404" lon="4.56893">
        <ele>777.90194</ele>
        <time>2025-06-07T09:16:40.005Z</time>
      </trkpt>
      <trkpt lat="45.59416" lon="4.56884">
        <ele>776.839213</ele>
        <time>2025-06-07T09:16:42.010Z</time>
      </trkpt>
      <trkpt lat="45.59431" lon="4.5689">
        <ele>775.650681</ele>
        <time>2025-06-07T09:16:44.010Z</time>
      </trkpt>
      <trkpt lat="45.5944" lon="4.56905">
        <ele>774.610311</ele>
        <time>2025-06-07T09:16:46.020Z</time>
      </trkpt>
      <trkpt lat="45.59442" lon="4.56919">
        <ele>773.794321</ele>
        <time>2025-06-07T09:16:48.018Z</time>
      </trkpt>
      <trkpt lat="45.59441" lon="4.56938">
        <ele>772.765194</ele>
        <time>2025-06-07T09:16:49.998Z</time>
      </trkpt>
      <trkpt lat="45.5944" lon="4.5696">
        <ele>771.575083</ele>
        <time>2025-06-07T09:16:51.998Z</time>
      </trkpt>
      <trkpt lat="45.59442" lon="4.56985">
        <ele>770.246018</ele>
        <time>2025-06-07T09:16:53.988Z</time>
      </trkpt>
      <trkpt lat="45.59444" lon="4.56998">
        <ele>769.540116</ele>
        <time>2025-06-07T09:16:54.995Z</time>
      </trkpt>
      <trkpt lat="45.59446" lon="4.57011">
        <ele>768.804088</ele>
        <time>2025-06-07T09:16:56.016Z</time>
      </trkpt>
      <trkpt lat="45.59449" lon="4.57025">
        <ele>768.033711</ele>
        <time>2025-06-07T09:16:57.001Z</time>
      </trkpt>
      <trkpt lat="45.59453" lon="4.57039">
        <ele>767.220808</ele>
        <time>2025-06-07T09:16:58.007Z</time>
      </trkpt>
      <trkpt lat="45.59457" lon="4.57052">
        <ele>766.451167</ele>
        <time>2025-06-07T09:16:58.994Z</time>
      </trkpt>
      <trkpt lat="45.59464" lon="4.57063">
        <ele>765.648063</ele>
        <time>2025-06-07T09:17:00.008Z</time>
      </trkpt>
      <trkpt lat="45.59472" lon="4.57073">
        <ele>764.828444</ele>
        <time>2025-06-07T09:17:01.003Z</time>
      </trkpt>
      <trkpt lat="45.59481" lon="4.5708">
        <ele>763.973358</ele>
        <time>2025-06-07T09:17:02.008Z</time>
      </trkpt>
      <trkpt lat="45.59492" lon="4.57084">
        <ele>763.078583</ele>
        <time>2025-06-07T09:17:03.006Z</time>
      </trkpt>
      <trkpt lat="45.59504" lon="4.57087">
        <ele>762.161374</ele>
        <time>2025-06-07T09:17:04.019Z</time>
      </trkpt>
      <trkpt lat="45.59515" lon="4.5709">
        <ele>761.253807</ele>
        <time>2025-06-07T09:17:05.003Z</time>
      </trkpt>
      <trkpt lat="45.59527" lon="4.57093">
        <ele>760.316177</ele>
        <time>2025-06-07T09:17:06.018Z</time>
      </trkpt>
      <trkpt lat="45.59539" lon="4.57096">
        <ele>759.360349</ele>
        <time>2025-06-07T09:17:07.004Z</time>
      </trkpt>
      <trkpt lat="45.59551" lon="4.57098">
        <ele>758.397715</ele>
        <time>2025-06-07T09:17:08.008Z</time>
      </trkpt>
      <trkpt lat="45.59564" lon="4.57101">
        <ele>757.4102</ele>
        <time>2025-06-07T09:17:09.006Z</time>
      </trkpt>
      <trkpt lat="45.59576" lon="4.57102">
        <ele>756.424473</ele>
        <time>2025-06-07T09:17:10.009Z</time>
      </trkpt>
      <trkpt lat="45.59589" lon="4.57103">
        <ele>755.450305</ele>
        <time>2025-06-07T09:17:11.010Z</time>
      </trkpt>
      <trkpt lat="45.59601" lon="4.57104">
        <ele>754.483675</ele>
        <time>2025-06-07T09:17:12.015Z</time>
      </trkpt>
      <trkpt lat="45.59613" lon="4.57105">
        <ele>753.533902</ele>
        <time>2025-06-07T09:17:13.011Z</time>
      </trkpt>
      <trkpt lat="45.59625" lon="4.57104">
        <ele>752.611217</ele>
        <time>2025-06-07T09:17:14.002Z</time>
      </trkpt>
      <trkpt lat="45.59636" lon="4.57104">
        <ele>752.385707</ele>
        <time>2025-06-07T09:17:15.013Z</time>
      </trkpt>
      <trkpt lat="45.59647" lon="4.57103">
        <ele>752.16803</ele>
        <time>2025-06-07T09:17:16.007Z</time>
      </trkpt>
      <trkpt lat="45.59658" lon="4.57103">
        <ele>751.952311</ele>
        <time>2025-06-07T09:17:17.002Z</time>
      </trkpt>
      <trkpt lat="45.59669" lon="4.57102">
        <ele>751.744474</ele>
        <time>2025-06-07T09:17:18.004Z</time>
      </trkpt>
      <trkpt lat="45.5968" lon="4.57102">
        <ele>751.538597</ele>
        <time>2025-06-07T09:17:19.008Z</time>
      </trkpt>
      <trkpt lat="45.5969" lon="4.57102">
        <ele>751.336454</ele>
        <time>2025-06-07T09:17:20.010Z</time>
      </trkpt>
      <trkpt lat="45.597" lon="4.57104">
        <ele>751.139108</ele>
        <time>2025-06-07T09:17:20.983Z</time>
      </trkpt>
      <trkpt lat="45.5971" lon="4.57107">
        <ele>750.945955</ele>
        <time>2025-06-07T09:17:21.999Z</time>
      </trkpt>
      <trkpt lat="45.59719" lon="4.57109">
        <ele>750.756033</ele>
        <time>2025-06-07T09:17:23.007Z</time>
      </trkpt>
      <trkpt lat="45.59729" lon="4.5711">
        <ele>750.56417</ele>
        <time>2025-06-07T09:17:24.016Z</time>
      </trkpt>
      <trkpt lat="45.59738" lon="4.57112">
        <ele>750.376549</ele>
        <time>2025-06-07T09:17:25.018Z</time>
      </trkpt>
      <trkpt lat="45.59748" lon="4.57114">
        <ele>750.193293</ele>
        <time>2025-06-07T09:17:26.012Z</time>
      </trkpt>
      <trkpt lat="45.59757" lon="4.57114">
        <ele>750.012671</ele>
        <time>2025-06-07T09:17:27.006Z</time>
      </trkpt>
      <trkpt lat="45.59773" lon="4.57115">
        <ele>749.69301</ele>
        <time>2025-06-07T09:17:29.000Z</time>
      </trkpt>
      <trkpt lat="45.59786" lon="4.57117">
        <ele>749.440367</ele>
        <time>2025-06-07T09:17:30.991Z</time>
      </trkpt>
      <trkpt lat="45.59796" lon="4.57118">
        <ele>749.240364</ele>
        <time>2025-06-07T09:17:33.004Z</time>
      </trkpt>
      <trkpt lat="45.59806" lon="4.57115">
        <ele>749.179065</ele>
        <time>2025-06-07T09:17:34.997Z</time>
      </trkpt>
      <trkpt lat="45.59814" lon="4.57109">
        <ele>749.583971</ele>
        <time>2025-06-07T09:17:37.006Z</time>
      </trkpt>
      <trkpt lat="45.59825" lon="4.57102">
        <ele>750.132427</ele>
        <time>2025-06-07T09:17:40.011Z</time>
      </trkpt>
      <trkpt lat="45.59836" lon="4.57094">
        <ele>750.632127</ele>
        <time>2025-06-07T09:17:43.007Z</time>
      </trkpt>
      <trkpt lat="45.59847" lon="4.57089">
        <ele>751.137089</ele>
        <time>2025-06-07T09:17:46.005Z</time>
      </trkpt>
      <trkpt lat="45.59858" lon="4.57083">
        <ele>751.657479</ele>
        <time>2025-06-07T09:17:49.015Z</time>
      </trkpt>
      <trkpt lat="45.5987" lon="4.57081">
        <ele>752.207656</ele>
        <time>2025-06-07T09:17:52.012Z</time>
      </trkpt>
      <trkpt lat="45.59883" lon="4.57079">
        <ele>752.759739</ele>
        <time>2025-06-07T09:17:55.021Z</time>
      </trkpt>
      <trkpt lat="45.59894" lon="4.57074">
        <ele>753.277398</ele>
        <time>2025-06-07T09:17:58.018Z</time>
      </trkpt>
      <trkpt lat="45.59905" lon="4.57069">
        <ele>753.766977</ele>
        <time>2025-06-07T09:18:00.995Z</time>
      </trkpt>
      <trkpt lat="45.59915" lon="4.57059">
        <ele>754.287886</ele>
        <time>2025-06-07T09:18:04.014Z</time>
      </trkpt>
      <trkpt lat="45.59923" lon="4.57048">
        <ele>754.798589</ele>
        <time>2025-06-07T09:18:06.998Z</time>
      </trkpt>
      <trkpt lat="45.59932" lon="4.57038">
        <ele>755.273467</ele>
        <time>2025-06-07T09:18:10.007Z</time>
      </trkpt>
      <trkpt lat="45.5994" lon="4.57029">
        <ele>755.719787</ele>
        <time>2025-06-07T09:18:13.000Z</time>
      </trkpt>
      <trkpt lat="45.59949" lon="4.5703">
        <ele>756.119002</ele>
        <time>2025-06-07T09:18:16.018Z</time>
      </trkpt>
      <trkpt lat="45.59956" lon="4.5704">
        <ele>756.558057</ele>
        <time>2025-06-07T09:18:19.015Z</time>
      </trkpt>
      <trkpt lat="45.59965" lon="4.57046">
        <ele>756.977019</ele>
        <time>2025-06-07T09:18:22.014Z</time>
      </trkpt>
      <trkpt lat="45.59973" lon="4.57053">
        <ele>757.89976</ele>
        <time>2025-06-07T09:18:30.004Z</time>
      </trkpt>
      <trkpt lat="45.59982" lon="4.57058">
        <ele>758.763198</ele>
        <time>2025-06-07T09:18:34.017Z</time>
      </trkpt>
      <trkpt lat="45.5999" lon="4.57063">
        <ele>759.582191</ele>
        <time>2025-06-07T09:18:38.010Z</time>
      </trkpt>
      <trkpt lat="45.59998" lon="4.57075">
        <ele>760.602964</ele>
        <time>2025-06-07T09:18:42.009Z</time>
      </trkpt>
      <trkpt lat="45.60003" lon="4.57087">
        <ele>761.496977</ele>
        <time>2025-06-07T09:18:46.016Z</time>
      </trkpt>
      <trkpt lat="45.60008" lon="4.57098">
        <ele>762.326511</ele>
        <time>2025-06-07T09:18:49.997Z</time>
      </trkpt>
      <trkpt lat="45.60013" lon="4.5711">
        <ele>763.259575</ele>
        <time>2025-06-07T09:18:54.996Z</time>
      </trkpt>
      <trkpt lat="45.6002" lon="4.57121">
        <ele>764.142008</ele>
        <time>2025-06-07T09:18:59.993Z</time>
      </trkpt>
      <trkpt lat="45.60024" lon="4.57132">
        <ele>764.975864</ele>
        <time>2025-06-07T09:19:05.005Z</time>
      </trkpt>
      <trkpt lat="45.60029" lon="4.57145">
        <ele>765.932122</ele>
        <time>2025-06-07T09:19:10.994Z</time>
      </trkpt>
      <trkpt lat="45.60035" lon="4.5716">
        <ele>766.979138</ele>
        <time>2025-06-07T09:19:16.024Z</time>
      </trkpt>
      <trkpt lat="45.60041" lon="4.57171">
        <ele>767.875858</ele>
        <time>2025-06-07T09:19:20.006Z</time>
      </trkpt>
      <trkpt lat="45.60046" lon="4.57185">
        <ele>768.882938</ele>
        <time>2025-06-07T09:19:25.006Z</time>
      </trkpt>
      <trkpt lat="45.60049" lon="4.57198">
        <ele>769.759907</ele>
        <time>2025-06-07T09:19:28.996Z</time>
      </trkpt>
      <trkpt lat="45.60053" lon="4.57211">
        <ele>770.651997</ele>
        <time>2025-06-07T09:19:33.002Z</time>
      </trkpt>
      <trkpt lat="45.60056" lon="4.57224">
        <ele>771.526284</ele>
        <time>2025-06-07T09:19:37.003Z</time>
      </trkpt>
      <trkpt lat="45.60059" lon="4.57237">
        <ele>772.417068</ele>
        <time>2025-06-07T09:19:41.000Z</time>
      </trkpt>
      <trkpt lat="45.60059" lon="4.57252">
        <ele>773.344473</ele>
        <time>2025-06-07T09:19:44.999Z</time>
      </trkpt>
      <trkpt lat="45.6006" lon="4.57266">
        <ele>774.55848</ele>
        <time>2025-06-07T09:19:49.007Z</time>
      </trkpt>
      <trkpt lat="45.60061" lon="4.5728">
        <ele>775.740168</ele>
        <time>2025-06-07T09:19:53.006Z</time>
      </trkpt>
      <trkpt lat="45.60063" lon="4.57294">
        <ele>776.970588</ele>
        <time>2025-06-07T09:19:56.997Z</time>
      </trkpt>
      <trkpt lat="45.60067" lon="4.57306">
        <ele>778.094602</ele>
        <time>2025-06-07T09:20:00.999Z</time>
      </trkpt>
      <trkpt lat="45.60071" lon="4.57318">
        <ele>779.218869</ele>
        <time>2025-06-07T09:20:05.007Z</time>
      </trkpt>
      <trkpt lat="45.60078" lon="4.57329">
        <ele>780.534993</ele>
        <time>2025-06-07T09:20:10.014Z</time>
      </trkpt>
      <trkpt lat="45.60084" lon="4.5734">
        <ele>781.646158</ele>
        <time>2025-06-07T09:20:14.071Z</time>
      </trkpt>
      <trkpt lat="45.60088" lon="4.57353">
        <ele>782.849644</ele>
        <time>2025-06-07T09:20:18.998Z</time>
      </trkpt>
      <trkpt lat="45.60093" lon="4.57364">
        <ele>784.009289</ele>
        <time>2025-06-07T09:20:23.998Z</time>
      </trkpt>
      <trkpt lat="45.60098" lon="4.57376">
        <ele>785.192874</ele>
        <time>2025-06-07T09:20:28.975Z</time>
      </trkpt>
      <trkpt lat="45.60104" lon="4.57387">
        <ele>786.35404</ele>
        <time>2025-06-07T09:20:34.041Z</time>
      </trkpt>
      <trkpt lat="45.60109" lon="4.57398">
        <ele>787.452651</ele>
        <time>2025-06-07T09:20:39.346Z</time>
      </trkpt>
      <trkpt lat="45.60113" lon="4.57411">
        <ele>788.651308</ele>
        <time>2025-06-07T09:20:43.997Z</time>
      </trkpt>
      <trkpt lat="45.60118" lon="4.57422">
        <ele>789.790122</ele>
        <time>2025-06-07T09:20:48.991Z</time>
      </trkpt>
      <trkpt lat="45.60121" lon="4.57434">
        <ele>790.882552</ele>
        <time>2025-06-07T09:20:54.009Z</time>
      </trkpt>
      <trkpt lat="45.60124" lon="4.57449">
        <ele>792.15441</ele>
        <time>2025-06-07T09:20:58.995Z</time>
      </trkpt>
      <trkpt lat="45.60128" lon="4.57461">
        <ele>793.323142</ele>
        <time>2025-06-07T09:21:03.999Z</time>
      </trkpt>
      <trkpt lat="45.60133" lon="4.57475">
        <ele>794.641524</ele>
        <time>2025-06-07T09:21:08.990Z</time>
      </trkpt>
      <trkpt lat="45.60138" lon="4.57487">
        <ele>795.560298</ele>
        <time>2025-06-07T09:21:13.997Z</time>
      </trkpt>
      <trkpt lat="45.60142" lon="4.575">
        <ele>796.265686</ele>
        <time>2025-06-07T09:21:19.004Z</time>
      </trkpt>
      <trkpt lat="45.60148" lon="4.57509">
        <ele>796.942051</ele>
        <time>2025-06-07T09:21:23.999Z</time>
      </trkpt>
      <trkpt lat="45.60154" lon="4.5752">
        <ele>797.670924</ele>
        <time>2025-06-07T09:21:29.000Z</time>
      </trkpt>
      <trkpt lat="45.60158" lon="4.57531">
        <ele>798.351418</ele>
        <time>2025-06-07T09:21:33.991Z</time>
      </trkpt>
      <trkpt lat="45.60165" lon="4.57542">
        <ele>799.141381</ele>
        <time>2025-06-07T09:21:39.996Z</time>
      </trkpt>
      <trkpt lat="45.60172" lon="4.57551">
        <ele>799.833058</ele>
        <time>2025-06-07T09:21:44.989Z</time>
      </trkpt>
      <trkpt lat="45.60178" lon="4.5756">
        <ele>800.541626</ele>
        <time>2025-06-07T09:21:49.989Z</time>
      </trkpt>
      <trkpt lat="45.60185" lon="4.57571">
        <ele>801.28026</ele>
        <time>2025-06-07T09:21:55.015Z</time>
      </trkpt>
      <trkpt lat="45.60191" lon="4.57582">
        <ele>801.998968</ele>
        <time>2025-06-07T09:21:59.992Z</time>
      </trkpt>
      <trkpt lat="45.60197" lon="4.57592">
        <ele>802.757649</ele>
        <time>2025-06-07T09:22:06.005Z</time>
      </trkpt>
      <trkpt lat="45.60206" lon="4.57601">
        <ele>803.561463</ele>
        <time>2025-06-07T09:22:12.002Z</time>
      </trkpt>
      <trkpt lat="45.60215" lon="4.57609">
        <ele>804.381794</ele>
        <time>2025-06-07T09:22:18.003Z</time>
      </trkpt>
      <trkpt lat="45.60223" lon="4.57616">
        <ele>805.07307</ele>
        <time>2025-06-07T09:22:23.998Z</time>
      </trkpt>
      <trkpt lat="45.60233" lon="4.57622">
        <ele>805.833397</ele>
        <time>2025-06-07T09:22:30.008Z</time>
      </trkpt>
      <trkpt lat="45.6024" lon="4.57629">
        <ele>806.527855</ele>
        <time>2025-06-07T09:22:35.992Z</time>
      </trkpt>
      <trkpt lat="45.60248" lon="4.57637">
        <ele>807.224684</ele>
        <time>2025-06-07T09:22:41.990Z</time>
      </trkpt>
      <trkpt lat="45.6025" lon="4.5765">
        <ele>807.934138</ele>
        <time>2025-06-07T09:22:48.006Z</time>
      </trkpt>
      <trkpt lat="45.60249" lon="4.57663">
        <ele>808.621966</ele>
        <time>2025-06-07T09:22:52.003Z</time>
      </trkpt>
      <trkpt lat="45.6025" lon="4.57676">
        <ele>808.867766</ele>
        <time>2025-06-07T09:22:55.994Z</time>
      </trkpt>
      <trkpt lat="45.60251" lon="4.57691">
        <ele>809.118878</ele>
        <time>2025-06-07T09:22:59.996Z</time>
      </trkpt>
      <trkpt lat="45.60253" lon="4.57706">
        <ele>809.377354</ele>
        <time>2025-06-07T09:23:04.003Z</time>
      </trkpt>
      <trkpt lat="45.60254" lon="4.57721">
        <ele>809.628332</ele>
        <time>2025-06-07T09:23:06.997Z</time>
      </trkpt>
      <trkpt lat="45.60254" lon="4.57737">
        <ele>809.892191</ele>
        <time>2025-06-07T09:23:10.002Z</time>
      </trkpt>
      <trkpt lat="45.60253" lon="4.5775">
        <ele>810.112471</ele>
        <time>2025-06-07T09:23:12.995Z</time>
      </trkpt>
      <trkpt lat="45.6025" lon="4.57763">
        <ele>810.358776</ele>
        <time>2025-06-07T09:23:15.993Z</time>
      </trkpt>
      <trkpt lat="45.60247" lon="4.57776">
        <ele>810.588234</ele>
        <time>2025-06-07T09:23:17.996Z</time>
      </trkpt>
      <trkpt lat="45.60248" lon="4.5779">
        <ele>810.820737</ele>
        <time>2025-06-07T09:23:19.990Z</time>
      </trkpt>
      <trkpt lat="45.60251" lon="4.57807">
        <ele>811.130937</ele>
        <time>2025-06-07T09:23:22.996Z</time>
      </trkpt>
      <trkpt lat="45.60256" lon="4.57822">
        <ele>811.403229</ele>
        <time>2025-06-07T09:23:25.996Z</time>
      </trkpt>
      <trkpt lat="45.60262" lon="4.57836">
        <ele>811.678372</ele>
        <time>2025-06-07T09:23:28.993Z</time>
      </trkpt>
      <trkpt lat="45.60268" lon="4.57852">
        <ele>811.988906</ele>
        <time>2025-06-07T09:23:32.001Z</time>
      </trkpt>
      <trkpt lat="45.60273" lon="4.57868">
        <ele>812.285162</ele>
        <time>2025-06-07T09:23:35.004Z</time>
      </trkpt>
      <trkpt lat="45.60279" lon="4.57883">
        <ele>812.566838</ele>
        <time>2025-06-07T09:23:38.996Z</time>
      </trkpt>
      <trkpt lat="45.60285" lon="4.57897">
        <ele>812.850982</ele>
        <time>2025-06-07T09:23:43.003Z</time>
      </trkpt>
      <trkpt lat="45.6029" lon="4.57909">
        <ele>813.147096</ele>
        <time>2025-06-07T09:23:46.002Z</time>
      </trkpt>
      <trkpt lat="45.60295" lon="4.57922">
        <ele>813.607861</ele>
        <time>2025-06-07T09:23:48.995Z</time>
      </trkpt>
      <trkpt lat="45.603" lon="4.57935">
        <ele>814.085218</ele>
        <time>2025-06-07T09:23:51.995Z</time>
      </trkpt>
      <trkpt lat="45.60304" lon="4.57948">
        <ele>814.489809</ele>
        <time>2025-06-07T09:23:54.000Z</time>
      </trkpt>
      <trkpt lat="45.60308" lon="4.57963">
        <ele>814.996009</ele>
        <time>2025-06-07T09:23:56.991Z</time>
      </trkpt>
      <trkpt lat="45.60311" lon="4.57978">
        <ele>815.452188</ele>
        <time>2025-06-07T09:23:59.998Z</time>
      </trkpt>
      <trkpt lat="45.60313" lon="4.57992">
        <ele>815.887952</ele>
        <time>2025-06-07T09:24:03.005Z</time>
      </trkpt>
      <trkpt lat="45.60317" lon="4.58008">
        <ele>816.412997</ele>
        <time>2025-06-07T09:24:06.987Z</time>
      </trkpt>
      <trkpt lat="45.60321" lon="4.58023">
        <ele>816.920683</ele>
        <time>2025-06-07T09:24:09.996Z</time>
      </trkpt>
      <trkpt lat="45.60326" lon="4.58038">
        <ele>817.417325</ele>
        <time>2025-06-07T09:24:12.995Z</time>
      </trkpt>
      <trkpt lat="45.60329" lon="4.5805">
        <ele>817.810582</ele>
        <time>2025-06-07T09:24:15.995Z</time>
      </trkpt>
      <trkpt lat="45.60334" lon="4.58061">
        <ele>818.218553</ele>
        <time>2025-06-07T09:24:18.995Z</time>
      </trkpt>
      <trkpt lat="45.60338" lon="4.58075">
        <ele>818.664434</ele>
        <time>2025-06-07T09:24:22.009Z</time>
      </trkpt>
      <trkpt lat="45.60342" lon="4.58088">
        <ele>819.114134</ele>
        <time>2025-06-07T09:24:24.995Z</time>
      </trkpt>
      <trkpt lat="45.60347" lon="4.58103">
        <ele>819.630361</ele>
        <time>2025-06-07T09:24:27.986Z</time>
      </trkpt>
      <trkpt lat="45.60353" lon="4.5812">
        <ele>820.206391</ele>
        <time>2025-06-07T09:24:30.996Z</time>
      </trkpt>
      <trkpt lat="45.60358" lon="4.58137">
        <ele>820.764935</ele>
        <time>2025-06-07T09:24:34.004Z</time>
      </trkpt>
      <trkpt lat="45.60361" lon="4.58153">
        <ele>820.953244</ele>
        <time>2025-06-07T09:24:36.990Z</time>
      </trkpt>
      <trkpt lat="45.60364" lon="4.5817">
        <ele>821.087288</ele>
        <time>2025-06-07T09:24:39.994Z</time>
      </trkpt>
      <trkpt lat="45.60367" lon="4.58182">
        <ele>821.18988</ele>
        <time>2025-06-07T09:24:41.992Z</time>
      </trkpt>
      <trkpt lat="45.60371" lon="4.58197">
        <ele>821.314299</ele>
        <time>2025-06-07T09:24:43.999Z</time>
      </trkpt>
      <trkpt lat="45.60376" lon="4.58213">
        <ele>821.450808</ele>
        <time>2025-06-07T09:24:46.002Z</time>
      </trkpt>
      <trkpt lat="45.60379" lon="4.5823">
        <ele>821.589836</ele>
        <time>2025-06-07T09:24:48.014Z</time>
      </trkpt>
      <trkpt lat="45.60383" lon="4.58246">
        <ele>821.718723</ele>
        <time>2025-06-07T09:24:49.986Z</time>
      </trkpt>
      <trkpt lat="45.60386" lon="4.58261">
        <ele>821.840474</ele>
        <time>2025-06-07T09:24:52.003Z</time>
      </trkpt>
      <trkpt lat="45.60388" lon="4.58275">
        <ele>821.95482</ele>
        <time>2025-06-07T09:24:53.991Z</time>
      </trkpt>
      <trkpt lat="45.60393" lon="4.58289">
        <ele>822.070134</ele>
        <time>2025-06-07T09:24:55.986Z</time>
      </trkpt>
      <trkpt lat="45.60398" lon="4.58302">
        <ele>822.189064</ele>
        <time>2025-06-07T09:24:57.997Z</time>
      </trkpt>
      <trkpt lat="45.60405" lon="4.58313">
        <ele>822.302783</ele>
        <time>2025-06-07T09:24:59.991Z</time>
      </trkpt>
      <trkpt lat="45.6041" lon="4.58324">
        <ele>822.406846</ele>
        <time>2025-06-07T09:25:01.996Z</time>
      </trkpt>
      <trkpt lat="45.60418" lon="4.58339">
        <ele>822.549828</ele>
        <time>2025-06-07T09:25:04.995Z</time>
      </trkpt>
      <trkpt lat="45.60421" lon="4.58356">
        <ele>822.689198</ele>
        <time>2025-06-07T09:25:08.000Z</time>
      </trkpt>
      <trkpt lat="45.60426" lon="4.58373">
        <ele>822.831486</ele>
        <time>2025-06-07T09:25:11.028Z</time>
      </trkpt>
      <trkpt lat="45.60434" lon="4.58389">
        <ele>823.271722</ele>
        <time>2025-06-07T09:25:13.999Z</time>
      </trkpt>
      <trkpt lat="45.60441" lon="4.58402">
        <ele>823.696571</ele>
        <time>2025-06-07T09:25:16.996Z</time>
      </trkpt>
      <trkpt lat="45.60448" lon="4.58417">
        <ele>824.145223</ele>
        <time>2025-06-07T09:25:19.995Z</time>
      </trkpt>
      <trkpt lat="45.60453" lon="4.58427">
        <ele>824.471088</ele>
        <time>2025-06-07T09:25:21.996Z</time>
      </trkpt>
      <trkpt lat="45.60459" lon="4.58439">
        <ele>824.80707</ele>
        <time>2025-06-07T09:25:24.003Z</time>
      </trkpt>
      <trkpt lat="45.60466" lon="4.58454">
        <ele>825.274136</ele>
        <time>2025-06-07T09:25:26.998Z</time>
      </trkpt>
      <trkpt lat="45.60473" lon="4.5847">
        <ele>825.732748</ele>
        <time>2025-06-07T09:25:29.989Z</time>
      </trkpt>
      <trkpt lat="45.60478" lon="4.58485">
        <ele>826.153518</ele>
        <time>2025-06-07T09:25:32.995Z</time>
      </trkpt>
      <trkpt lat="45.60482" lon="4.58501">
        <ele>826.58904</ele>
        <time>2025-06-07T09:25:36.001Z</time>
      </trkpt>
      <trkpt lat="45.60485" lon="4.58513">
        <ele>826.913723</ele>
        <time>2025-06-07T09:25:38.013Z</time>
      </trkpt>
      <trkpt lat="45.60489" lon="4.58526">
        <ele>827.253687</ele>
        <time>2025-06-07T09:25:39.996Z</time>
      </trkpt>
      <trkpt lat="45.60492" lon="4.58538">
        <ele>827.590297</ele>
        <time>2025-06-07T09:25:41.995Z</time>
      </trkpt>
      <trkpt lat="45.60496" lon="4.58551">
        <ele>827.933946</ele>
        <time>2025-06-07T09:25:44.003Z</time>
      </trkpt>
      <trkpt lat="45.60503" lon="4.58568">
        <ele>828.411027</ele>
        <time>2025-06-07T09:25:46.997Z</time>
      </trkpt>
      <trkpt lat="45.60506" lon="4.5858">
        <ele>828.741828</ele>
        <time>2025-06-07T09:25:49.000Z</time>
      </trkpt>
      <trkpt lat="45.60512" lon="4.58598">
        <ele>829.229173</ele>
        <time>2025-06-07T09:25:51.989Z</time>
      </trkpt>
      <trkpt lat="45.60516" lon="4.58612">
        <ele>829.458942</ele>
        <time>2025-06-07T09:25:54.019Z</time>
      </trkpt>
      <trkpt lat="45.6052" lon="4.58627">
        <ele>829.662888</ele>
        <time>2025-06-07T09:25:55.997Z</time>
      </trkpt>
      <trkpt lat="45.60524" lon="4.5864">
        <ele>829.859515</ele>
        <time>2025-06-07T09:25:58.000Z</time>
      </trkpt>
      <trkpt lat="45.60529" lon="4.58652">
        <ele>830.031286</ele>
        <time>2025-06-07T09:26:00.008Z</time>
      </trkpt>
      <trkpt lat="45.60536" lon="4.58666">
        <ele>830.258886</ele>
        <time>2025-06-07T09:26:02.988Z</time>
      </trkpt>
      <trkpt lat="45.60543" lon="4.58679">
        <ele>830.476266</ele>
        <time>2025-06-07T09:26:06.124Z</time>
      </trkpt>
      <trkpt lat="45.6055" lon="4.58688">
        <ele>830.66063</ele>
        <time>2025-06-07T09:26:08.992Z</time>
      </trkpt>
      <trkpt lat="45.6056" lon="4.58696">
        <ele>830.863827</ele>
        <time>2025-06-07T09:26:11.994Z</time>
      </trkpt>
      <trkpt lat="45.6057" lon="4.58705">
        <ele>831.087766</ele>
        <time>2025-06-07T09:26:14.989Z</time>
      </trkpt>
      <trkpt lat="45.6058" lon="4.58714">
        <ele>831.318583</ele>
        <time>2025-06-07T09:26:18.029Z</time>
      </trkpt>
      <trkpt lat="45.60591" lon="4.58723">
        <ele>831.548268</ele>
        <time>2025-06-07T09:26:20.990Z</time>
      </trkpt>
      <trkpt lat="45.60601" lon="4.58733">
        <ele>831.773359</ele>
        <time>2025-06-07T09:26:23.996Z</time>
      </trkpt>
      <trkpt lat="45.6061" lon="4.58742">
        <ele>831.984616</ele>
        <time>2025-06-07T09:26:26.983Z</time>
      </trkpt>
      <trkpt lat="45.60618" lon="4.58749">
        <ele>832.163055</ele>
        <time>2025-06-07T09:26:29.987Z</time>
      </trkpt>
      <trkpt lat="45.60626" lon="4.58755">
        <ele>832.342605</ele>
        <time>2025-06-07T09:26:33.000Z</time>
      </trkpt>
      <trkpt lat="45.60636" lon="4.58766">
        <ele>832.568553</ele>
        <time>2025-06-07T09:26:36.079Z</time>
      </trkpt>
      <trkpt lat="45.60646" lon="4.58777">
        <ele>832.161559</ele>
        <time>2025-06-07T09:26:39.006Z</time>
      </trkpt>
      <trkpt lat="45.60651" lon="4.58787">
        <ele>831.572455</ele>
        <time>2025-06-07T09:26:41.022Z</time>
      </trkpt>
      <trkpt lat="45.60656" lon="4.58799">
        <ele>830.923222</ele>
        <time>2025-06-07T09:26:42.998Z</time>
      </trkpt>
      <trkpt lat="45.60661" lon="4.58814">
        <ele>830.172475</ele>
        <time>2025-06-07T09:26:44.997Z</time>
      </trkpt>
      <trkpt lat="45.60668" lon="4.58832">
        <ele>829.240699</ele>
        <time>2025-06-07T09:26:47.002Z</time>
      </trkpt>
      <trkpt lat="45.60676" lon="4.58853">
        <ele>828.147202</ele>
        <time>2025-06-07T09:26:49.002Z</time>
      </trkpt>
      <trkpt lat="45.60685" lon="4.58876">
        <ele>826.9682</ele>
        <time>2025-06-07T09:26:51.008Z</time>
      </trkpt>
      <trkpt lat="45.60691" lon="4.58888">
        <ele>826.324677</ele>
        <time>2025-06-07T09:26:51.990Z</time>
      </trkpt>
      <trkpt lat="45.60697" lon="4.58899">
        <ele>825.687879</ele>
        <time>2025-06-07T09:26:53.001Z</time>
      </trkpt>
      <trkpt lat="45.60704" lon="4.58909">
        <ele>825.033898</ele>
        <time>2025-06-07T09:26:54.006Z</time>
      </trkpt>
      <trkpt lat="45.60711" lon="4.58919">
        <ele>824.369785</ele>
        <time>2025-06-07T09:26:55.023Z</time>
      </trkpt>
      <trkpt lat="45.6072" lon="4.58928">
        <ele>823.679799</ele>
        <time>2025-06-07T09:26:55.994Z</time>
      </trkpt>
      <trkpt lat="45.60728" lon="4.58938">
        <ele>822.974512</ele>
        <time>2025-06-07T09:26:57.005Z</time>
      </trkpt>
      <trkpt lat="45.60737" lon="4.58947">
        <ele>822.259151</ele>
        <time>2025-06-07T09:26:57.994Z</time>
      </trkpt>
      <trkpt lat="45.60747" lon="4.58956">
        <ele>821.520005</ele>
        <time>2025-06-07T09:26:59.011Z</time>
      </trkpt>
      <trkpt lat="45.60755" lon="4.58966">
        <ele>821.018647</ele>
        <time>2025-06-07T09:26:59.982Z</time>
      </trkpt>
      <trkpt lat="45.60764" lon="4.58974">
        <ele>821.135969</ele>
        <time>2025-06-07T09:27:01.004Z</time>
      </trkpt>
      <trkpt lat="45.60772" lon="4.5898">
        <ele>821.237386</ele>
        <time>2025-06-07T09:27:01.997Z</time>
      </trkpt>
      <trkpt lat="45.60787" lon="4.58991">
        <ele>821.426274</ele>
        <time>2025-06-07T09:27:04.000Z</time>
      </trkpt>
      <trkpt lat="45.60802" lon="4.58999">
        <ele>821.602963</ele>
        <time>2025-06-07T09:27:05.995Z</time>
      </trkpt>
      <trkpt lat="45.60816" lon="4.59001">
        <ele>821.759531</ele>
        <time>2025-06-07T09:27:07.993Z</time>
      </trkpt>
      <trkpt lat="45.60827" lon="4.59007">
        <ele>821.891794</ele>
        <time>2025-06-07T09:27:10.007Z</time>
      </trkpt>
      <trkpt lat="45.60836" lon="4.59016">
        <ele>822.007676</ele>
        <time>2025-06-07T09:27:11.989Z</time>
      </trkpt>
      <trkpt lat="45.60844" lon="4.59024">
        <ele>822.120804</ele>
        <time>2025-06-07T09:27:14.003Z</time>
      </trkpt>
      <trkpt lat="45.60851" lon="4.59033">
        <ele>822.227626</ele>
        <time>2025-06-07T09:27:15.997Z</time>
      </trkpt>
      <trkpt lat="45.60857" lon="4.59044">
        <ele>822.33776</ele>
        <time>2025-06-07T09:27:17.997Z</time>
      </trkpt>
      <trkpt lat="45.60862" lon="4.59058">
        <ele>822.460496</ele>
        <time>2025-06-07T09:27:19.987Z</time>
      </trkpt>
      <trkpt lat="45.60868" lon="4.59072">
        <ele>822.582812</ele>
        <time>2025-06-07T09:27:22.006Z</time>
      </trkpt>
      <trkpt lat="45.60873" lon="4.59087">
        <ele>822.718089</ele>
        <time>2025-06-07T09:27:24.015Z</time>
      </trkpt>
      <trkpt lat="45.60879" lon="4.59102">
        <ele>822.849586</ele>
        <time>2025-06-07T09:27:26.020Z</time>
      </trkpt>
      <trkpt lat="45.60883" lon="4.59116">
        <ele>822.969726</ele>
        <time>2025-06-07T09:27:27.998Z</time>
      </trkpt>
      <trkpt lat="45.60887" lon="4.5913">
        <ele>822.862358</ele>
        <time>2025-06-07T09:27:29.988Z</time>
      </trkpt>
      <trkpt lat="45.60891" lon="4.59143">
        <ele>822.693783</ele>
        <time>2025-06-07T09:27:31.984Z</time>
      </trkpt>
      <trkpt lat="45.60895" lon="4.59159">
        <ele>822.501158</ele>
        <time>2025-06-07T09:27:33.997Z</time>
      </trkpt>
      <trkpt lat="45.60897" lon="4.59175">
        <ele>822.308138</ele>
        <time>2025-06-07T09:27:35.993Z</time>
      </trkpt>
      <trkpt lat="45.60896" lon="4.59193">
        <ele>822.105527</ele>
        <time>2025-06-07T09:27:38.006Z</time>
      </trkpt>
      <trkpt lat="45.60895" lon="4.59212">
        <ele>821.881945</ele>
        <time>2025-06-07T09:27:40.002Z</time>
      </trkpt>
      <trkpt lat="45.60895" lon="4.59231">
        <ele>821.659713</ele>
        <time>2025-06-07T09:27:41.992Z</time>
      </trkpt>
      <trkpt lat="45.60893" lon="4.59253">
        <ele>821.412662</ele>
        <time>2025-06-07T09:27:44.023Z</time>
      </trkpt>
      <trkpt lat="45.60891" lon="4.59274">
        <ele>821.1583</ele>
        <time>2025-06-07T09:27:46.019Z</time>
      </trkpt>
      <trkpt lat="45.60888" lon="4.59298">
        <ele>820.878971</ele>
        <time>2025-06-07T09:27:48.052Z</time>
      </trkpt>
      <trkpt lat="45.60887" lon="4.59323">
        <ele>820.594964</ele>
        <time>2025-06-07T09:27:50.000Z</time>
      </trkpt>
      <trkpt lat="45.60885" lon="4.59347">
        <ele>820.315142</ele>
        <time>2025-06-07T09:27:51.998Z</time>
      </trkpt>
      <trkpt lat="45.60883" lon="4.5937">
        <ele>820.04443</ele>
        <time>2025-06-07T09:27:54.004Z</time>
      </trkpt>
      <trkpt lat="45.60879" lon="4.59391">
        <ele>819.920573</ele>
        <time>2025-06-07T09:27:55.986Z</time>
      </trkpt>
      <trkpt lat="45.60875" lon="4.59409">
        <ele>819.820554</ele>
        <time>2025-06-07T09:27:57.998Z</time>
      </trkpt>
      <trkpt lat="45.60872" lon="4.59425">
        <ele>819.731234</ele>
        <time>2025-06-07T09:27:59.995Z</time>
      </trkpt>
      <trkpt lat="45.60869" lon="4.5944">
        <ele>819.649287</ele>
        <time>2025-06-07T09:28:02.000Z</time>
      </trkpt>
      <trkpt lat="45.60868" lon="4.59454">
        <ele>819.574077</ele>
        <time>2025-06-07T09:28:03.993Z</time>
      </trkpt>
      <trkpt lat="45.60867" lon="4.59468">
        <ele>819.501183</ele>
        <time>2025-06-07T09:28:05.990Z</time>
      </trkpt>
      <trkpt lat="45.60868" lon="4.59482">
        <ele>819.429218</ele>
        <time>2025-06-07T09:28:08.001Z</time>
      </trkpt>
      <trkpt lat="45.60868" lon="4.59496">
        <ele>819.353664</ele>
        <time>2025-06-07T09:28:09.980Z</time>
      </trkpt>
      <trkpt lat="45.60869" lon="4.5951">
        <ele>819.27987</ele>
        <time>2025-06-07T09:28:11.983Z</time>
      </trkpt>
      <trkpt lat="45.60871" lon="4.59525">
        <ele>819.200538</ele>
        <time>2025-06-07T09:28:13.991Z</time>
      </trkpt>
      <trkpt lat="45.60873" lon="4.59541">
        <ele>819.113811</ele>
        <time>2025-06-07T09:28:15.987Z</time>
      </trkpt>
      <trkpt lat="45.60877" lon="4.59557">
        <ele>819.020285</ele>
        <time>2025-06-07T09:28:17.993Z</time>
      </trkpt>
      <trkpt lat="45.60883" lon="4.59571">
        <ele>818.935022</ele>
        <time>2025-06-07T09:28:20.001Z</time>
      </trkpt>
      <trkpt lat="45.60889" lon="4.59583">
        <ele>818.857983</ele>
        <time>2025-06-07T09:28:21.989Z</time>
      </trkpt>
      <trkpt lat="45.60895" lon="4.59595">
        <ele>818.779497</ele>
        <time>2025-06-07T09:28:23.982Z</time>
      </trkpt>
      <trkpt lat="45.60904" lon="4.59607">
        <ele>818.690197</ele>
        <time>2025-06-07T09:28:25.981Z</time>
      </trkpt>
      <trkpt lat="45.60913" lon="4.59616">
        <ele>818.195127</ele>
        <time>2025-06-07T09:28:28.000Z</time>
      </trkpt>
      <trkpt lat="45.60922" lon="4.59624">
        <ele>817.630042</ele>
        <time>2025-06-07T09:28:29.984Z</time>
      </trkpt>
      <trkpt lat="45.6093" lon="4.59633">
        <ele>817.113587</ele>
        <time>2025-06-07T09:28:31.985Z</time>
      </trkpt>
      <trkpt lat="45.60934" lon="4.59645">
        <ele>816.622269</ele>
        <time>2025-06-07T09:28:33.989Z</time>
      </trkpt>
      <trkpt lat="45.60939" lon="4.59659">
        <ele>816.010239</ele>
        <time>2025-06-07T09:28:35.980Z</time>
      </trkpt>
      <trkpt lat="45.60947" lon="4.59676">
        <ele>815.260864</ele>
        <time>2025-06-07T09:28:37.997Z</time>
      </trkpt>
      <trkpt lat="45.60954" lon="4.59695">
        <ele>814.463851</ele>
        <time>2025-06-07T09:28:40.006Z</time>
      </trkpt>
      <trkpt lat="45.60961" lon="4.59713">
        <ele>813.683322</ele>
        <time>2025-06-07T09:28:42.015Z</time>
      </trkpt>
      <trkpt lat="45.60968" lon="4.59732">
        <ele>812.892072</ele>
        <time>2025-06-07T09:28:44.020Z</time>
      </trkpt>
      <trkpt lat="45.60974" lon="4.59752">
        <ele>812.091921</ele>
        <time>2025-06-07T09:28:45.998Z</time>
      </trkpt>
      <trkpt lat="45.60983" lon="4.59768">
        <ele>811.317726</ele>
        <time>2025-06-07T09:28:47.999Z</time>
      </trkpt>
      <trkpt lat="45.60996" lon="4.59781">
        <ele>810.441405</ele>
        <time>2025-06-07T09:28:50.001Z</time>
      </trkpt>
      <trkpt lat="45.61005" lon="4.59776">
        <ele>809.923816</ele>
        <time>2025-06-07T09:28:50.994Z</time>
      </trkpt>
      <trkpt lat="45.6102" lon="4.59779">
        <ele>809.133576</ele>
        <time>2025-06-07T09:28:53.007Z</time>
      </trkpt>
      <trkpt lat="45.61028" lon="4.59792">
        <ele>809.096853</ele>
        <time>2025-06-07T09:28:55.018Z</time>
      </trkpt>
      <trkpt lat="45.61029" lon="4.59809">
        <ele>809.117333</ele>
        <time>2025-06-07T09:28:57.017Z</time>
      </trkpt>
      <trkpt lat="45.61025" lon="4.59828">
        <ele>809.141463</ele>
        <time>2025-06-07T09:28:59.010Z</time>
      </trkpt>
      <trkpt lat="45.61021" lon="4.59848">
        <ele>809.167072</ele>
        <time>2025-06-07T09:29:01.004Z</time>
      </trkpt>
      <trkpt lat="45.61017" lon="4.59867">
        <ele>809.192824</ele>
        <time>2025-06-07T09:29:03.020Z</time>
      </trkpt>
      <trkpt lat="45.61014" lon="4.59884">
        <ele>809.214475</ele>
        <time>2025-06-07T09:29:05.007Z</time>
      </trkpt>
      <trkpt lat="45.61015" lon="4.599">
        <ele>809.233823</ele>
        <time>2025-06-07T09:29:07.026Z</time>
      </trkpt>
      <trkpt lat="45.61016" lon="4.59913">
        <ele>809.2505</ele>
        <time>2025-06-07T09:29:09.009Z</time>
      </trkpt>
      <trkpt lat="45.61022" lon="4.59929">
        <ele>809.271942</ele>
        <time>2025-06-07T09:29:12.006Z</time>
      </trkpt>
      <trkpt lat="45.61028" lon="4.59942">
        <ele>809.2918</ele>
        <time>2025-06-07T09:29:15.009Z</time>
      </trkpt>
      <trkpt lat="45.61034" lon="4.59954">
        <ele>809.310632</ele>
        <time>2025-06-07T09:29:17.995Z</time>
      </trkpt>
      <trkpt lat="45.6104" lon="4.59965">
        <ele>809.327653</ele>
        <time>2025-06-07T09:29:20.003Z</time>
      </trkpt>
      <trkpt lat="45.61049" lon="4.59976">
        <ele>809.347971</ele>
        <time>2025-06-07T09:29:23.010Z</time>
      </trkpt>
      <trkpt lat="45.61057" lon="4.59987">
        <ele>809.367135</ele>
        <time>2025-06-07T09:29:25.988Z</time>
      </trkpt>
      <trkpt lat="45.61067" lon="4.59999">
        <ele>809.391788</ele>
        <time>2025-06-07T09:29:29.049Z</time>
      </trkpt>
      <trkpt lat="45.61076" lon="4.60007">
        <ele>809.018701</ele>
        <time>2025-06-07T09:29:30.998Z</time>
      </trkpt>
      <trkpt lat="45.61085" lon="4.60015">
        <ele>808.552893</ele>
        <time>2025-06-07T09:29:33.002Z</time>
      </trkpt>
      <trkpt lat="45.61095" lon="4.6002">
        <ele>808.08682</ele>
        <time>2025-06-07T09:29:35.015Z</time>
      </trkpt>
      <trkpt lat="45.61103" lon="4.60028">
        <ele>807.667162</ele>
        <time>2025-06-07T09:29:37.007Z</time>
      </trkpt>
      <trkpt lat="45.61117" lon="4.60035">
        <ele>806.986429</ele>
        <time>2025-06-07T09:29:39.007Z</time>
      </trkpt>
      <trkpt lat="45.61129" lon="4.60042">
        <ele>806.438749</ele>
        <time>2025-06-07T09:29:41.998Z</time>
      </trkpt>
      <trkpt lat="45.61139" lon="4.60045">
        <ele>805.959746</ele>
        <time>2025-06-07T09:29:43.998Z</time>
      </trkpt>
      <trkpt lat="45.61151" lon="4.60049">
        <ele>805.419103</ele>
        <time>2025-06-07T09:29:46.000Z</time>
      </trkpt>
      <trkpt lat="45.61166" lon="4.60056">
        <ele>804.741692</ele>
        <time>2025-06-07T09:29:47.998Z</time>
      </trkpt>
      <trkpt lat="45.61173" lon="4.60073">
        <ele>804.141462</ele>
        <time>2025-06-07T09:29:49.990Z</time>
      </trkpt>
      <trkpt lat="45.61176" lon="4.60088">
        <ele>803.663499</ele>
        <time>2025-06-07T09:29:52.001Z</time>
      </trkpt>
      <trkpt lat="45.61179" lon="4.60102">
        <ele>803.20296</ele>
        <time>2025-06-07T09:29:54.012Z</time>
      </trkpt>
      <trkpt lat="45.61179" lon="4.60119">
        <ele>802.664118</ele>
        <time>2025-06-07T09:29:57.006Z</time>
      </trkpt>
      <trkpt lat="45.61182" lon="4.60144">
        <ele>801.881688</ele>
        <time>2025-06-07T09:29:59.003Z</time>
      </trkpt>
      <trkpt lat="45.61185" lon="4.60158">
        <ele>801.424752</ele>
        <time>2025-06-07T09:30:00.004Z</time>
      </trkpt>
      <trkpt lat="45.61187" lon="4.60171">
        <ele>800.897107</ele>
        <time>2025-06-07T09:30:01.001Z</time>
      </trkpt>
      <trkpt lat="45.6119" lon="4.60194">
        <ele>799.950643</ele>
        <time>2025-06-07T09:30:03.004Z</time>
      </trkpt>
      <trkpt lat="45.61191" lon="4.60215">
        <ele>799.119283</ele>
        <time>2025-06-07T09:30:04.994Z</time>
      </trkpt>
      <trkpt lat="45.61196" lon="4.60234">
        <ele>798.318255</ele>
        <time>2025-06-07T09:30:06.999Z</time>
      </trkpt>
      <trkpt lat="45.61202" lon="4.60254">
        <ele>797.46421</ele>
        <time>2025-06-07T09:30:08.979Z</time>
      </trkpt>
      <trkpt lat="45.61206" lon="4.6027">
        <ele>796.745837</ele>
        <time>2025-06-07T09:30:10.992Z</time>
      </trkpt>
      <trkpt lat="45.61209" lon="4.60283">
        <ele>796.201781</ele>
        <time>2025-06-07T09:30:12.986Z</time>
      </trkpt>
      <trkpt lat="45.61218" lon="4.60292">
        <ele>795.571027</ele>
        <time>2025-06-07T09:30:15.990Z</time>
      </trkpt>
      <trkpt lat="45.61227" lon="4.60299">
        <ele>794.988561</ele>
        <time>2025-06-07T09:30:19.021Z</time>
      </trkpt>
      <trkpt lat="45.61233" lon="4.60314">
        <ele>794.285786</ele>
        <time>2025-06-07T09:30:23.010Z</time>
      </trkpt>
      <trkpt lat="45.61239" lon="4.60327">
        <ele>793.692148</ele>
        <time>2025-06-07T09:30:24.999Z</time>
      </trkpt>
      <trkpt lat="45.61245" lon="4.60339">
        <ele>793.088438</ele>
        <time>2025-06-07T09:30:26.989Z</time>
      </trkpt>
      <trkpt lat="45.61255" lon="4.60352">
        <ele>792.323478</ele>
        <time>2025-06-07T09:30:29.001Z</time>
      </trkpt>
      <trkpt lat="45.61265" lon="4.60357">
        <ele>791.707779</ele>
        <time>2025-06-07T09:30:31.067Z</time>
      </trkpt>
      <trkpt lat="45.61278" lon="4.60363">
        <ele>791.239295</ele>
        <time>2025-06-07T09:30:33.983Z</time>
      </trkpt>
      <trkpt lat="45.61285" lon="4.60379">
        <ele>791.551789</ele>
        <time>2025-06-07T09:30:37.012Z</time>
      </trkpt>
      <trkpt lat="45.61291" lon="4.60391">
        <ele>791.806291</ele>
        <time>2025-06-07T09:30:39.010Z</time>
      </trkpt>
      <trkpt lat="45.61296" lon="4.60404">
        <ele>792.040049</ele>
        <time>2025-06-07T09:30:41.985Z</time>
      </trkpt>
      <trkpt lat="45.61295" lon="4.60419">
        <ele>792.306634</ele>
        <time>2025-06-07T09:30:44.994Z</time>
      </trkpt>
      <trkpt lat="45.61296" lon="4.60435">
        <ele>792.564133</ele>
        <time>2025-06-07T09:30:48.012Z</time>
      </trkpt>
      <trkpt lat="45.61296" lon="4.60448">
        <ele>792.788507</ele>
        <time>2025-06-07T09:30:50.010Z</time>
      </trkpt>
      <trkpt lat="45.61299" lon="4.60467">
        <ele>793.114586</ele>
        <time>2025-06-07T09:30:53.000Z</time>
      </trkpt>
      <trkpt lat="45.61301" lon="4.60485">
        <ele>793.420797</ele>
        <time>2025-06-07T09:30:55.003Z</time>
      </trkpt>
      <trkpt lat="45.61301" lon="4.60498">
        <ele>793.643445</ele>
        <time>2025-06-07T09:30:57.005Z</time>
      </trkpt>
      <trkpt lat="45.61304" lon="4.60514">
        <ele>793.922134</ele>
        <time>2025-06-07T09:31:00.078Z</time>
      </trkpt>
      <trkpt lat="45.61311" lon="4.60527">
        <ele>794.198716</ele>
        <time>2025-06-07T09:31:02.998Z</time>
      </trkpt>
      <trkpt lat="45.61318" lon="4.60536">
        <ele>794.443614</ele>
        <time>2025-06-07T09:31:06.005Z</time>
      </trkpt>
      <trkpt lat="45.61325" lon="4.60546">
        <ele>794.661115</ele>
        <time>2025-06-07T09:31:09.067Z</time>
      </trkpt>
      <trkpt lat="45.61333" lon="4.60558">
        <ele>794.944055</ele>
        <time>2025-06-07T09:31:11.981Z</time>
      </trkpt>
      <trkpt lat="45.61341" lon="4.60564">
        <ele>795.170955</ele>
        <time>2025-06-07T09:31:14.004Z</time>
      </trkpt>
      <trkpt lat="45.61353" lon="4.6057">
        <ele>795.471278</ele>
        <time>2025-06-07T09:31:15.999Z</time>
      </trkpt>
      <trkpt lat="45.61364" lon="4.60571">
        <ele>795.72641</ele>
        <time>2025-06-07T09:31:18.006Z</time>
      </trkpt>
      <trkpt lat="45.61374" lon="4.60576">
        <ele>795.953991</ele>
        <time>2025-06-07T09:31:19.978Z</time>
      </trkpt>
      <trkpt lat="45.61387" lon="4.60577">
        <ele>796.252724</ele>
        <time>2025-06-07T09:31:23.019Z</time>
      </trkpt>
      <trkpt lat="45.61398" lon="4.60576">
        <ele>796.48471</ele>
        <time>2025-06-07T09:31:25.014Z</time>
      </trkpt>
      <trkpt lat="45.61407" lon="4.60577">
        <ele>796.696778</ele>
        <time>2025-06-07T09:31:27.006Z</time>
      </trkpt>
      <trkpt lat="45.61418" lon="4.6058">
        <ele>796.955551</ele>
        <time>2025-06-07T09:31:31.017Z</time>
      </trkpt>
      <trkpt lat="45.61428" lon="4.60583">
        <ele>797.183144</ele>
        <time>2025-06-07T09:31:34.997Z</time>
      </trkpt>
      <trkpt lat="45.61438" lon="4.60584">
        <ele>797.392891</ele>
        <time>2025-06-07T09:31:38.003Z</time>
      </trkpt>
      <trkpt lat="45.6145" lon="4.60585">
        <ele>797.66248</ele>
        <time>2025-06-07T09:31:40.995Z</time>
      </trkpt>
      <trkpt lat="45.61462" lon="4.60578">
        <ele>797.944714</ele>
        <time>2025-06-07T09:31:43.997Z</time>
      </trkpt>
      <trkpt lat="45.61479" lon="4.6057">
        <ele>798.341662</ele>
        <time>2025-06-07T09:31:47.003Z</time>
      </trkpt>
      <trkpt lat="45.61488" lon="4.60574">
        <ele>798.571904</ele>
        <time>2025-06-07T09:31:49.995Z</time>
      </trkpt>
      <trkpt lat="45.61493" lon="4.60586">
        <ele>798.776953</ele>
        <time>2025-06-07T09:31:53.001Z</time>
      </trkpt>
      <trkpt lat="45.61502" lon="4.606">
        <ele>799.075777</ele>
        <time>2025-06-07T09:31:56.479Z</time>
      </trkpt>
      <trkpt lat="45.61512" lon="4.60604">
        <ele>799.31524</ele>
        <time>2025-06-07T09:32:00.989Z</time>
      </trkpt>
      <trkpt lat="45.61523" lon="4.60605">
        <ele>799.352956</ele>
        <time>2025-06-07T09:32:04.000Z</time>
      </trkpt>
      <trkpt lat="45.61532" lon="4.6061">
        <ele>798.994411</ele>
        <time>2025-06-07T09:32:05.990Z</time>
      </trkpt>
      <trkpt lat="45.61542" lon="4.60622">
        <ele>798.477628</ele>
        <time>2025-06-07T09:32:08.993Z</time>
      </trkpt>
      <trkpt lat="45.61551" lon="4.60632">
        <ele>798.051363</ele>
        <time>2025-06-07T09:32:12.052Z</time>
      </trkpt>
      <trkpt lat="45.61562" lon="4.60648">
        <ele>797.42913</ele>
        <time>2025-06-07T09:32:13.992Z</time>
      </trkpt>
      <trkpt lat="45.61569" lon="4.60659">
        <ele>797.008359</ele>
        <time>2025-06-07T09:32:15.998Z</time>
      </trkpt>
      <trkpt lat="45.61577" lon="4.6067">
        <ele>796.591289</ele>
        <time>2025-06-07T09:32:18.157Z</time>
      </trkpt>
      <trkpt lat="45.61585" lon="4.60682">
        <ele>796.147496</ele>
        <time>2025-06-07T09:32:19.995Z</time>
      </trkpt>
      <trkpt lat="45.61591" lon="4.60699">
        <ele>795.635377</ele>
        <time>2025-06-07T09:32:21.996Z</time>
      </trkpt>
      <trkpt lat="45.61602" lon="4.60708">
        <ele>795.12764</ele>
        <time>2025-06-07T09:32:24.016Z</time>
      </trkpt>
      <trkpt lat="45.61611" lon="4.60714">
        <ele>794.747825</ele>
        <time>2025-06-07T09:32:24.986Z</time>
      </trkpt>
      <trkpt lat="45.61625" lon="4.60727">
        <ele>794.084104</ele>
        <time>2025-06-07T09:32:26.993Z</time>
      </trkpt>
      <trkpt lat="45.61637" lon="4.60743">
        <ele>793.459007</ele>
        <time>2025-06-07T09:32:29.004Z</time>
      </trkpt>
      <trkpt lat="45.61643" lon="4.60753">
        <ele>793.105699</ele>
        <time>2025-06-07T09:32:31.004Z</time>
      </trkpt>
      <trkpt lat="45.61653" lon="4.60759">
        <ele>792.691209</ele>
        <time>2025-06-07T09:32:43.012Z</time>
      </trkpt>
      <trkpt lat="45.61661" lon="4.60765">
        <ele>792.6024</ele>
        <time>2025-06-07T09:32:47.008Z</time>
      </trkpt>
      <trkpt lat="45.61671" lon="4.60767">
        <ele>792.86907</ele>
        <time>2025-06-07T09:32:49.991Z</time>
      </trkpt>
      <trkpt lat="45.61681" lon="4.60765">
        <ele>793.119751</ele>
        <time>2025-06-07T09:32:54.154Z</time>
      </trkpt>
      <trkpt lat="45.61692" lon="4.60762">
        <ele>793.398977</ele>
        <time>2025-06-07T09:32:58.013Z</time>
      </trkpt>
      <trkpt lat="45.61705" lon="4.60762">
        <ele>793.719854</ele>
        <time>2025-06-07T09:33:00.997Z</time>
      </trkpt>
      <trkpt lat="45.61714" lon="4.60754">
        <ele>793.97984</ele>
        <time>2025-06-07T09:33:05.996Z</time>
      </trkpt>
      <trkpt lat="45.61722" lon="4.60747">
        <ele>794.212536</ele>
        <time>2025-06-07T09:33:10.057Z</time>
      </trkpt>
      <trkpt lat="45.61734" lon="4.6074">
        <ele>794.534583</ele>
        <time>2025-06-07T09:33:13.982Z</time>
      </trkpt>
      <trkpt lat="45.61744" lon="4.60739">
        <ele>794.799356</ele>
        <time>2025-06-07T09:33:17.019Z</time>
      </trkpt>
      <trkpt lat="45.61754" lon="4.60746">
        <ele>795.056834</ele>
        <time>2025-06-07T09:33:20.997Z</time>
      </trkpt>
      <trkpt lat="45.61763" lon="4.60745">
        <ele>795.295922</ele>
        <time>2025-06-07T09:33:24.985Z</time>
      </trkpt>
      <trkpt lat="45.61773" lon="4.6075">
        <ele>795.546535</ele>
        <time>2025-06-07T09:33:28.997Z</time>
      </trkpt>
      <trkpt lat="45.61782" lon="4.60756">
        <ele>795.798119</ele>
        <time>2025-06-07T09:33:34.988Z</time>
      </trkpt>
      <trkpt lat="45.6179" lon="4.60781">
        <ele>796.272764</ele>
        <time>2025-06-07T09:34:20.092Z</time>
      </trkpt>
      <trkpt lat="45.61784" lon="4.60797">
        <ele>796.582482</ele>
        <time>2025-06-07T09:34:23.996Z</time>
      </trkpt>
      <trkpt lat="45.61783" lon="4.60813">
        <ele>796.864709</ele>
        <time>2025-06-07T09:34:27.039Z</time>
      </trkpt>
      <trkpt lat="45.61791" lon="4.60823">
        <ele>795.891671</ele>
        <time>2025-06-07T09:34:30.282Z</time>
      </trkpt>
      <trkpt lat="45.61798" lon="4.60835">
        <ele>793.997572</ele>
        <time>2025-06-07T09:34:32.986Z</time>
      </trkpt>
      <trkpt lat="45.61807" lon="4.6084">
        <ele>792.353429</ele>
        <time>2025-06-07T09:34:45.007Z</time>
      </trkpt>
      <trkpt lat="45.61814" lon="4.60847">
        <ele>790.721785</ele>
        <time>2025-06-07T09:34:51.984Z</time>
      </trkpt>
      <trkpt lat="45.61822" lon="4.6086">
        <ele>788.711005</ele>
        <time>2025-06-07T09:34:58.986Z</time>
      </trkpt>
      <trkpt lat="45.61831" lon="4.60864">
        <ele>787.05878</ele>
        <time>2025-06-07T09:35:05.008Z</time>
      </trkpt>
      <trkpt lat="45.61841" lon="4.6086">
        <ele>785.234614</ele>
        <time>2025-06-07T09:35:09.996Z</time>
      </trkpt>
      <trkpt lat="45.6185" lon="4.60857">
        <ele>783.507333</ele>
        <time>2025-06-07T09:35:13.984Z</time>
      </trkpt>
      <trkpt lat="45.61861" lon="4.60856">
        <ele>781.676607</ele>
        <time>2025-06-07T09:35:27.002Z</time>
      </trkpt>
      <trkpt lat="45.6187" lon="4.60852">
        <ele>779.997128</ele>
        <time>2025-06-07T09:35:31.999Z</time>
      </trkpt>
      <trkpt lat="45.61882" lon="4.60849">
        <ele>777.841755</ele>
        <time>2025-06-07T09:35:43.111Z</time>
      </trkpt>
      <trkpt lat="45.6189" lon="4.60854">
        <ele>776.267427</ele>
        <time>2025-06-07T09:35:44.992Z</time>
      </trkpt>
      <trkpt lat="45.61901" lon="4.60861">
        <ele>774.286903</ele>
        <time>2025-06-07T09:35:48.996Z</time>
      </trkpt>
      <trkpt lat="45.61911" lon="4.60862">
        <ele>772.531521</ele>
        <time>2025-06-07T09:35:51.991Z</time>
      </trkpt>
      <trkpt lat="45.61922" lon="4.60866">
        <ele>770.575797</ele>
        <time>2025-06-07T09:35:57.270Z</time>
      </trkpt>
      <trkpt lat="45.6193" lon="4.60874">
        <ele>768.844113</ele>
        <time>2025-06-07T09:36:02.191Z</time>
      </trkpt>
      <trkpt lat="45.61937" lon="4.60884">
        <ele>767.099783</ele>
        <time>2025-06-07T09:36:05.002Z</time>
      </trkpt>
      <trkpt lat="45.61947" lon="4.60889">
        <ele>765.263493</ele>
        <time>2025-06-07T09:36:08.988Z</time>
      </trkpt>
      <trkpt lat="45.61957" lon="4.60895">
        <ele>763.947788</ele>
        <time>2025-06-07T09:36:11.994Z</time>
      </trkpt>
      <trkpt lat="45.61967" lon="4.60895">
        <ele>762.789228</ele>
        <time>2025-06-07T09:36:15.000Z</time>
      </trkpt>
      <trkpt lat="45.61976" lon="4.60891">
        <ele>761.567819</ele>
        <time>2025-06-07T09:36:19.012Z</time>
      </trkpt>
      <trkpt lat="45.61968" lon="4.60912">
        <ele>759.503301</ele>
        <time>2025-06-07T09:36:54.200Z</time>
      </trkpt>
      <trkpt lat="45.61956" lon="4.60916">
        <ele>758.033772</ele>
        <time>2025-06-07T09:36:57.012Z</time>
      </trkpt>
      <trkpt lat="45.61945" lon="4.60915">
        <ele>756.626814</ele>
        <time>2025-06-07T09:36:59.008Z</time>
      </trkpt>
      <trkpt lat="45.61932" lon="4.60921">
        <ele>754.891153</ele>
        <time>2025-06-07T09:37:01.003Z</time>
      </trkpt>
      <trkpt lat="45.61921" lon="4.60922">
        <ele>753.549093</ele>
        <time>2025-06-07T09:37:03.033Z</time>
      </trkpt>
      <trkpt lat="45.6191" lon="4.60925">
        <ele>752.146566</ele>
        <time>2025-06-07T09:37:06.064Z</time>
      </trkpt>
      <trkpt lat="45.619" lon="4.60933">
        <ele>750.738321</ele>
        <time>2025-06-07T09:37:07.980Z</time>
      </trkpt>
      <trkpt lat="45.61885" lon="4.60948">
        <ele>748.445313</ele>
        <time>2025-06-07T09:37:09.980Z</time>
      </trkpt>
      <trkpt lat="45.61874" lon="4.60957">
        <ele>746.968554</ele>
        <time>2025-06-07T09:37:12.003Z</time>
      </trkpt>
      <trkpt lat="45.61864" lon="4.60963">
        <ele>745.597516</ele>
        <time>2025-06-07T09:37:14.012Z</time>
      </trkpt>
      <trkpt lat="45.61855" lon="4.60963">
        <ele>744.4528</ele>
        <time>2025-06-07T09:37:16.986Z</time>
      </trkpt>
      <trkpt lat="45.61845" lon="4.60968">
        <ele>743.29205</ele>
        <time>2025-06-07T09:37:18.986Z</time>
      </trkpt>
      <trkpt lat="45.61834" lon="4.60965">
        <ele>742.860433</ele>
        <time>2025-06-07T09:37:22.990Z</time>
      </trkpt>
      <trkpt lat="45.61823" lon="4.60963">
        <ele>742.430406</ele>
        <time>2025-06-07T09:37:26.991Z</time>
      </trkpt>
      <trkpt lat="45.61811" lon="4.6096">
        <ele>741.943812</ele>
        <time>2025-06-07T09:37:29.993Z</time>
      </trkpt>
      <trkpt lat="45.618" lon="4.60959">
        <ele>741.499726</ele>
        <time>2025-06-07T09:37:32.989Z</time>
      </trkpt>
      <trkpt lat="45.61789" lon="4.60964">
        <ele>741.033159</ele>
        <time>2025-06-07T09:37:34.991Z</time>
      </trkpt>
      <trkpt lat="45.6178" lon="4.60956">
        <ele>740.612775</ele>
        <time>2025-06-07T09:37:37.983Z</time>
      </trkpt>
      <trkpt lat="45.61769" lon="4.60956">
        <ele>740.153391</ele>
        <time>2025-06-07T09:37:39.994Z</time>
      </trkpt>
      <trkpt lat="45.61755" lon="4.60961">
        <ele>739.606155</ele>
        <time>2025-06-07T09:37:42.040Z</time>
      </trkpt>
      <trkpt lat="45.61744" lon="4.60963">
        <ele>739.170006</ele>
        <time>2025-06-07T09:37:43.995Z</time>
      </trkpt>
      <trkpt lat="45.61733" lon="4.60972">
        <ele>738.656446</ele>
        <time>2025-06-07T09:37:45.988Z</time>
      </trkpt>
      <trkpt lat="45.61723" lon="4.60988">
        <ele>738.050973</ele>
        <time>2025-06-07T09:37:49.003Z</time>
      </trkpt>
      <trkpt lat="45.61711" lon="4.60998">
        <ele>737.499562</ele>
        <time>2025-06-07T09:37:50.997Z</time>
      </trkpt>
      <trkpt lat="45.61704" lon="4.61008">
        <ele>737.107298</ele>
        <time>2025-06-07T09:37:52.983Z</time>
      </trkpt>
      <trkpt lat="45.61694" lon="4.61015">
        <ele>736.648102</ele>
        <time>2025-06-07T09:37:54.987Z</time>
      </trkpt>
      <trkpt lat="45.61683" lon="4.61027">
        <ele>736.043213</ele>
        <time>2025-06-07T09:37:56.974Z</time>
      </trkpt>
      <trkpt lat="45.61675" lon="4.61035">
        <ele>735.239226</ele>
        <time>2025-06-07T09:37:58.983Z</time>
      </trkpt>
      <trkpt lat="45.61663" lon="4.61047">
        <ele>733.931859</ele>
        <time>2025-06-07T09:38:00.972Z</time>
      </trkpt>
      <trkpt lat="45.61653" lon="4.61059">
        <ele>732.845744</ele>
        <time>2025-06-07T09:38:03.977Z</time>
      </trkpt>
      <trkpt lat="45.61647" lon="4.61075">
        <ele>731.757531</ele>
        <time>2025-06-07T09:38:06.983Z</time>
      </trkpt>
      <trkpt lat="45.6164" lon="4.61087">
        <ele>730.845475</ele>
        <time>2025-06-07T09:38:50.001Z</time>
      </trkpt>
      <trkpt lat="45.61637" lon="4.61099">
        <ele>730.053345</ele>
        <time>2025-06-07T09:38:52.996Z</time>
      </trkpt>
      <trkpt lat="45.61632" lon="4.61121">
        <ele>728.701618</ele>
        <time>2025-06-07T09:38:54.990Z</time>
      </trkpt>
      <trkpt lat="45.61627" lon="4.61133">
        <ele>727.871659</ele>
        <time>2025-06-07T09:38:56.979Z</time>
      </trkpt>
      <trkpt lat="45.61621" lon="4.61148">
        <ele>726.828355</ele>
        <time>2025-06-07T09:38:58.989Z</time>
      </trkpt>
      <trkpt lat="45.61617" lon="4.61172">
        <ele>725.421125</ele>
        <time>2025-06-07T09:39:00.986Z</time>
      </trkpt>
      <trkpt lat="45.61613" lon="4.61192">
        <ele>724.151202</ele>
        <time>2025-06-07T09:39:02.985Z</time>
      </trkpt>
      <trkpt lat="45.61606" lon="4.61209">
        <ele>723.019956</ele>
        <time>2025-06-07T09:39:04.983Z</time>
      </trkpt>
      <trkpt lat="45.61602" lon="4.61224">
        <ele>722.082208</ele>
        <time>2025-06-07T09:39:06.978Z</time>
      </trkpt>
      <trkpt lat="45.61595" lon="4.61234">
        <ele>721.19237</ele>
        <time>2025-06-07T09:39:08.989Z</time>
      </trkpt>
      <trkpt lat="45.61587" lon="4.61246">
        <ele>720.113447</ele>
        <time>2025-06-07T09:39:10.984Z</time>
      </trkpt>
      <trkpt lat="45.61585" lon="4.61266">
        <ele>718.823312</ele>
        <time>2025-06-07T09:39:13.001Z</time>
      </trkpt>
      <trkpt lat="45.61579" lon="4.61281">
        <ele>717.658462</ele>
        <time>2025-06-07T09:39:14.992Z</time>
      </trkpt>
      <trkpt lat="45.61574" lon="4.613">
        <ele>716.277823</ele>
        <time>2025-06-07T09:39:16.990Z</time>
      </trkpt>
      <trkpt lat="45.61563" lon="4.6131">
        <ele>715.043752</ele>
        <time>2025-06-07T09:39:19.012Z</time>
      </trkpt>
      <trkpt lat="45.61558" lon="4.61321">
        <ele>714.15451</ele>
        <time>2025-06-07T09:39:21.005Z</time>
      </trkpt>
      <trkpt lat="45.61555" lon="4.61336">
        <ele>713.128286</ele>
        <time>2025-06-07T09:39:22.995Z</time>
      </trkpt>
      <trkpt lat="45.6155" lon="4.61359">
        <ele>711.547111</ele>
        <time>2025-06-07T09:39:25.198Z</time>
      </trkpt>
      <trkpt lat="45.61543" lon="4.6137">
        <ele>710.577877</ele>
        <time>2025-06-07T09:39:25.991Z</time>
      </trkpt>
      <trkpt lat="45.61537" lon="4.61385">
        <ele>709.406014</ele>
        <time>2025-06-07T09:39:27.975Z</time>
      </trkpt>
      <trkpt lat="45.61529" lon="4.61401">
        <ele>708.095999</ele>
        <time>2025-06-07T09:39:29.990Z</time>
      </trkpt>
      <trkpt lat="45.61522" lon="4.61417">
        <ele>706.829801</ele>
        <time>2025-06-07T09:39:31.980Z</time>
      </trkpt>
      <trkpt lat="45.61512" lon="4.61425">
        <ele>705.793999</ele>
        <time>2025-06-07T09:39:33.980Z</time>
      </trkpt>
      <trkpt lat="45.61503" lon="4.6143">
        <ele>704.877036</ele>
        <time>2025-06-07T09:39:35.992Z</time>
      </trkpt>
      <trkpt lat="45.61491" lon="4.61433">
        <ele>703.583687</ele>
        <time>2025-06-07T09:39:39.012Z</time>
      </trkpt>
      <trkpt lat="45.61481" lon="4.61442">
        <ele>701.770005</ele>
        <time>2025-06-07T09:39:40.984Z</time>
      </trkpt>
      <trkpt lat="45.6147" lon="4.61455">
        <ele>699.611937</ele>
        <time>2025-06-07T09:39:53.979Z</time>
      </trkpt>
      <trkpt lat="45.61463" lon="4.61469">
        <ele>697.704456</ele>
        <time>2025-06-07T09:39:55.975Z</time>
      </trkpt>
      <trkpt lat="45.6145" lon="4.61479">
        <ele>695.562008</ele>
        <time>2025-06-07T09:40:00.031Z</time>
      </trkpt>
      <trkpt lat="45.6144" lon="4.61487">
        <ele>693.775739</ele>
        <time>2025-06-07T09:40:04.013Z</time>
      </trkpt>
      <trkpt lat="45.6143" lon="4.61487">
        <ele>692.326828</ele>
        <time>2025-06-07T09:40:07.041Z</time>
      </trkpt>
      <trkpt lat="45.61423" lon="4.6147">
        <ele>690.261155</ele>
        <time>2025-06-07T09:40:09.430Z</time>
      </trkpt>
      <trkpt lat="45.61415" lon="4.61458">
        <ele>688.492208</ele>
        <time>2025-06-07T09:40:12.017Z</time>
      </trkpt>
      <trkpt lat="45.61411" lon="4.61444">
        <ele>686.888717</ele>
        <time>2025-06-07T09:40:13.979Z</time>
      </trkpt>
      <trkpt lat="45.61404" lon="4.61432">
        <ele>685.162586</ele>
        <time>2025-06-07T09:40:17.082Z</time>
      </trkpt>
      <trkpt lat="45.61396" lon="4.61423">
        <ele>683.555675</ele>
        <time>2025-06-07T09:40:19.996Z</time>
      </trkpt>
      <trkpt lat="45.61387" lon="4.61412">
        <ele>681.719602</ele>
        <time>2025-06-07T09:40:23.005Z</time>
      </trkpt>
      <trkpt lat="45.61379" lon="4.61402">
        <ele>680.206815</ele>
        <time>2025-06-07T09:40:24.986Z</time>
      </trkpt>
      <trkpt lat="45.61372" lon="4.61391">
        <ele>678.542097</ele>
        <time>2025-06-07T09:40:26.991Z</time>
      </trkpt>
      <trkpt lat="45.61365" lon="4.6138">
        <ele>676.989518</ele>
        <time>2025-06-07T09:40:29.011Z</time>
      </trkpt>
      <trkpt lat="45.61357" lon="4.61368">
        <ele>675.109795</ele>
        <time>2025-06-07T09:40:30.996Z</time>
      </trkpt>
      <trkpt lat="45.6135" lon="4.61357">
        <ele>673.381467</ele>
        <time>2025-06-07T09:40:33.012Z</time>
      </trkpt>
      <trkpt lat="45.61341" lon="4.61351">
        <ele>671.771804</ele>
        <time>2025-06-07T09:40:35.000Z</time>
      </trkpt>
      <trkpt lat="45.61332" lon="4.61345">
        <ele>670.103059</ele>
        <time>2025-06-07T09:40:37.140Z</time>
      </trkpt>
      <trkpt lat="45.61321" lon="4.61333">
        <ele>667.781277</ele>
        <time>2025-06-07T09:40:40.018Z</time>
      </trkpt>
      <trkpt lat="45.6131" lon="4.61324">
        <ele>665.549936</ele>
        <time>2025-06-07T09:40:42.990Z</time>
      </trkpt>
      <trkpt lat="45.61306" lon="4.61312">
        <ele>663.993401</ele>
        <time>2025-06-07T09:40:44.979Z</time>
      </trkpt>
      <trkpt lat="45.61296" lon="4.61302">
        <ele>662.037859</ele>
        <time>2025-06-07T09:40:46.999Z</time>
      </trkpt>
      <trkpt lat="45.61287" lon="4.6129">
        <ele>659.966343</ele>
        <time>2025-06-07T09:40:50.054Z</time>
      </trkpt>
      <trkpt lat="45.6128" lon="4.61278">
        <ele>658.111588</ele>
        <time>2025-06-07T09:40:51.984Z</time>
      </trkpt>
      <trkpt lat="45.61274" lon="4.61261">
        <ele>655.874494</ele>
        <time>2025-06-07T09:40:53.981Z</time>
      </trkpt>
      <trkpt lat="45.61264" lon="4.61249">
        <ele>653.750682</ele>
        <time>2025-06-07T09:40:55.978Z</time>
      </trkpt>
      <trkpt lat="45.61249" lon="4.61247">
        <ele>651.174972</ele>
        <time>2025-06-07T09:40:57.977Z</time>
      </trkpt>
      <trkpt lat="45.61235" lon="4.61238">
        <ele>648.590925</ele>
        <time>2025-06-07T09:40:59.988Z</time>
      </trkpt>
      <trkpt lat="45.61221" lon="4.61228">
        <ele>646.204931</ele>
        <time>2025-06-07T09:41:01.979Z</time>
      </trkpt>
      <trkpt lat="45.61206" lon="4.61221">
        <ele>645.540998</ele>
        <time>2025-06-07T09:41:03.980Z</time>
      </trkpt>
      <trkpt lat="45.61193" lon="4.61215">
        <ele>644.96803</ele>
        <time>2025-06-07T09:41:05.982Z</time>
      </trkpt>
      <trkpt lat="45.61184" lon="4.61215">
        <ele>644.583019</ele>
        <time>2025-06-07T09:41:09.993Z</time>
      </trkpt>
      <trkpt lat="45.61173" lon="4.61217">
        <ele>644.104353</ele>
        <time>2025-06-07T09:41:21.998Z</time>
      </trkpt>
      <trkpt lat="45.61164" lon="4.61218">
        <ele>643.718979</ele>
        <time>2025-06-07T09:41:25.998Z</time>
      </trkpt>
      <trkpt lat="45.61155" lon="4.61215">
        <ele>643.329333</ele>
        <time>2025-06-07T09:41:29.002Z</time>
      </trkpt>
      <trkpt lat="45.61144" lon="4.61214">
        <ele>642.875513</ele>
        <time>2025-06-07T09:41:31.989Z</time>
      </trkpt>
      <trkpt lat="45.61134" lon="4.61217">
        <ele>642.418389</ele>
        <time>2025-06-07T09:41:36.999Z</time>
      </trkpt>
      <trkpt lat="45.61123" lon="4.61219">
        <ele>641.959733</ele>
        <time>2025-06-07T09:41:42.003Z</time>
      </trkpt>
      <trkpt lat="45.61113" lon="4.61223">
        <ele>641.515977</ele>
        <time>2025-06-07T09:41:46.990Z</time>
      </trkpt>
      <trkpt lat="45.61103" lon="4.61229">
        <ele>641.066481</ele>
        <time>2025-06-07T09:41:51.994Z</time>
      </trkpt>
      <trkpt lat="45.61094" lon="4.61238">
        <ele>640.594359</ele>
        <time>2025-06-07T09:41:56.030Z</time>
      </trkpt>
      <trkpt lat="45.61085" lon="4.61244">
        <ele>640.187949</ele>
        <time>2025-06-07T09:41:58.981Z</time>
      </trkpt>
      <trkpt lat="45.61076" lon="4.6125">
        <ele>639.762186</ele>
        <time>2025-06-07T09:42:01.984Z</time>
      </trkpt>
      <trkpt lat="45.61066" lon="4.61257">
        <ele>639.313352</ele>
        <time>2025-06-07T09:42:06.008Z</time>
      </trkpt>
      <trkpt lat="45.61058" lon="4.61263">
        <ele>638.920394</ele>
        <time>2025-06-07T09:42:10.001Z</time>
      </trkpt>
      <trkpt lat="45.61049" lon="4.61271">
        <ele>638.082713</ele>
        <time>2025-06-07T09:42:14.002Z</time>
      </trkpt>
      <trkpt lat="45.61039" lon="4.61281">
        <ele>636.539289</ele>
        <time>2025-06-07T09:42:16.986Z</time>
      </trkpt>
      <trkpt lat="45.6103" lon="4.61293">
        <ele>634.949608</ele>
        <time>2025-06-07T09:42:19.990Z</time>
      </trkpt>
      <trkpt lat="45.61021" lon="4.61307">
        <ele>633.340899</ele>
        <time>2025-06-07T09:42:22.978Z</time>
      </trkpt>
      <trkpt lat="45.61016" lon="4.61318">
        <ele>632.140797</ele>
        <time>2025-06-07T09:42:24.988Z</time>
      </trkpt>
      <trkpt lat="45.61011" lon="4.6133">
        <ele>630.859321</ele>
        <time>2025-06-07T09:42:26.972Z</time>
      </trkpt>
      <trkpt lat="45.61002" lon="4.61344">
        <ele>629.208638</ele>
        <time>2025-06-07T09:42:29.980Z</time>
      </trkpt>
      <trkpt lat="45.60996" lon="4.61356">
        <ele>627.904237</ele>
        <time>2025-06-07T09:42:38.984Z</time>
      </trkpt>
      <trkpt lat="45.6099" lon="4.61372">
        <ele>626.246874</ele>
        <time>2025-06-07T09:42:42.995Z</time>
      </trkpt>
      <trkpt lat="45.60984" lon="4.61388">
        <ele>624.692519</ele>
        <time>2025-06-07T09:42:45.005Z</time>
      </trkpt>
      <trkpt lat="45.60982" lon="4.61404">
        <ele>623.262545</ele>
        <time>2025-06-07T09:42:46.988Z</time>
      </trkpt>
      <trkpt lat="45.60983" lon="4.61419">
        <ele>621.851842</ele>
        <time>2025-06-07T09:42:48.983Z</time>
      </trkpt>
      <trkpt lat="45.60976" lon="4.61435">
        <ele>620.142261</ele>
        <time>2025-06-07T09:42:52.016Z</time>
      </trkpt>
      <trkpt lat="45.60967" lon="4.61448">
        <ele>618.550019</ele>
        <time>2025-06-07T09:42:53.989Z</time>
      </trkpt>
      <trkpt lat="45.60957" lon="4.61463">
        <ele>616.780113</ele>
        <time>2025-06-07T09:42:55.987Z</time>
      </trkpt>
      <trkpt lat="45.60947" lon="4.61477">
        <ele>614.897264</ele>
        <time>2025-06-07T09:42:57.974Z</time>
      </trkpt>
      <trkpt lat="45.6094" lon="4.6149">
        <ele>613.246129</ele>
        <time>2025-06-07T09:42:59.980Z</time>
      </trkpt>
      <trkpt lat="45.60933" lon="4.61501">
        <ele>611.813209</ele>
        <time>2025-06-07T09:43:02.022Z</time>
      </trkpt>
      <trkpt lat="45.60927" lon="4.61513">
        <ele>610.373023</ele>
        <time>2025-06-07T09:43:03.997Z</time>
      </trkpt>
      <trkpt lat="45.60921" lon="4.61524">
        <ele>608.961128</ele>
        <time>2025-06-07T09:43:06.007Z</time>
      </trkpt>
      <trkpt lat="45.60913" lon="4.61537">
        <ele>607.391251</ele>
        <time>2025-06-07T09:43:08.000Z</time>
      </trkpt>
      <trkpt lat="45.60908" lon="4.6155">
        <ele>605.830124</ele>
        <time>2025-06-07T09:43:10.005Z</time>
      </trkpt>
      <trkpt lat="45.60902" lon="4.61563">
        <ele>604.401153</ele>
        <time>2025-06-07T09:43:12.997Z</time>
      </trkpt>
      <trkpt lat="45.60897" lon="4.61577">
        <ele>602.85141</ele>
        <time>2025-06-07T09:43:22.994Z</time>
      </trkpt>
      <trkpt lat="45.60898" lon="4.61596">
        <ele>601.005606</ele>
        <time>2025-06-07T09:43:25.995Z</time>
      </trkpt>
      <trkpt lat="45.60895" lon="4.61611">
        <ele>599.471236</ele>
        <time>2025-06-07T09:43:27.990Z</time>
      </trkpt>
      <trkpt lat="45.60883" lon="4.61622">
        <ele>597.535649</ele>
        <time>2025-06-07T09:43:30.003Z</time>
      </trkpt>
      <trkpt lat="45.60871" lon="4.61637">
        <ele>595.326406</ele>
        <time>2025-06-07T09:43:32.010Z</time>
      </trkpt>
      <trkpt lat="45.60861" lon="4.61656">
        <ele>592.976359</ele>
        <time>2025-06-07T09:43:33.994Z</time>
      </trkpt>
      <trkpt lat="45.60856" lon="4.61667">
        <ele>591.666809</ele>
        <time>2025-06-07T09:43:34.988Z</time>
      </trkpt>
      <trkpt lat="45.60852" lon="4.6168">
        <ele>590.728596</ele>
        <time>2025-06-07T09:43:35.996Z</time>
      </trkpt>
      <trkpt lat="45.60848" lon="4.61694">
        <ele>590.49231</ele>
        <time>2025-06-07T09:43:36.990Z</time>
      </trkpt>
      <trkpt lat="45.60846" lon="4.61708">
        <ele>590.250775</ele>
        <time>2025-06-07T09:43:37.996Z</time>
      </trkpt>
      <trkpt lat="45.60844" lon="4.61724">
        <ele>590.000665</ele>
        <time>2025-06-07T09:43:38.993Z</time>
      </trkpt>
      <trkpt lat="45.60842" lon="4.6174">
        <ele>589.743438</ele>
        <time>2025-06-07T09:43:39.995Z</time>
      </trkpt>
      <trkpt lat="45.60839" lon="4.61755">
        <ele>589.486817</ele>
        <time>2025-06-07T09:43:40.987Z</time>
      </trkpt>
      <trkpt lat="45.60835" lon="4.6177">
        <ele>589.227142</ele>
        <time>2025-06-07T09:43:41.994Z</time>
      </trkpt>
      <trkpt lat="45.6083" lon="4.61785">
        <ele>588.971543</ele>
        <time>2025-06-07T09:43:42.986Z</time>
      </trkpt>
      <trkpt lat="45.60825" lon="4.61799">
        <ele>588.71271</ele>
        <time>2025-06-07T09:43:43.994Z</time>
      </trkpt>
      <trkpt lat="45.60819" lon="4.61812">
        <ele>588.467447</ele>
        <time>2025-06-07T09:43:44.982Z</time>
      </trkpt>
      <trkpt lat="45.60813" lon="4.61824">
        <ele>588.224828</ele>
        <time>2025-06-07T09:43:45.996Z</time>
      </trkpt>
      <trkpt lat="45.60806" lon="4.61836">
        <ele>587.988361</ele>
        <time>2025-06-07T09:43:46.979Z</time>
      </trkpt>
      <trkpt lat="45.608" lon="4.61847">
        <ele>587.757061</ele>
        <time>2025-06-07T09:43:47.992Z</time>
      </trkpt>
      <trkpt lat="45.60794" lon="4.61858">
        <ele>587.532702</ele>
        <time>2025-06-07T09:43:48.986Z</time>
      </trkpt>
      <trkpt lat="45.60788" lon="4.61869">
        <ele>587.309826</ele>
        <time>2025-06-07T09:43:50.000Z</time>
      </trkpt>
      <trkpt lat="45.60778" lon="4.6189">
        <ele>586.899586</ele>
        <time>2025-06-07T09:43:51.996Z</time>
      </trkpt>
      <trkpt lat="45.6077" lon="4.61911">
        <ele>586.750776</ele>
        <time>2025-06-07T09:43:53.995Z</time>
      </trkpt>
      <trkpt lat="45.60767" lon="4.61933">
        <ele>586.863915</ele>
        <time>2025-06-07T09:43:55.996Z</time>
      </trkpt>
      <trkpt lat="45.60767" lon="4.61955">
        <ele>586.973077</ele>
        <time>2025-06-07T09:43:57.994Z</time>
      </trkpt>
      <trkpt lat="45.60766" lon="4.61978">
        <ele>587.082625</ele>
        <time>2025-06-07T09:43:59.996Z</time>
      </trkpt>
      <trkpt lat="45.60762" lon="4.61998">
        <ele>587.188812</ele>
        <time>2025-06-07T09:44:01.997Z</time>
      </trkpt>
      <trkpt lat="45.60757" lon="4.62018">
        <ele>587.291686</ele>
        <time>2025-06-07T09:44:03.997Z</time>
      </trkpt>
      <trkpt lat="45.6075" lon="4.62036">
        <ele>587.394105</ele>
        <time>2025-06-07T09:44:05.996Z</time>
      </trkpt>
      <trkpt lat="45.60742" lon="4.62051">
        <ele>587.488832</ele>
        <time>2025-06-07T09:44:07.996Z</time>
      </trkpt>
      <trkpt lat="45.60733" lon="4.62066">
        <ele>587.582142</ele>
        <time>2025-06-07T09:44:09.995Z</time>
      </trkpt>
      <trkpt lat="45.60725" lon="4.62078">
        <ele>587.666149</ele>
        <time>2025-06-07T09:44:11.988Z</time>
      </trkpt>
      <trkpt lat="45.60717" lon="4.6209">
        <ele>587.747456</ele>
        <time>2025-06-07T09:44:13.986Z</time>
      </trkpt>
      <trkpt lat="45.60709" lon="4.62101">
        <ele>587.826717</ele>
        <time>2025-06-07T09:44:15.990Z</time>
      </trkpt>
      <trkpt lat="45.60701" lon="4.62111">
        <ele>587.900506</ele>
        <time>2025-06-07T09:44:17.988Z</time>
      </trkpt>
      <trkpt lat="45.60694" lon="4.62121">
        <ele>587.94235</ele>
        <time>2025-06-07T09:44:19.986Z</time>
      </trkpt>
      <trkpt lat="45.60686" lon="4.62131">
        <ele>587.530145</ele>
        <time>2025-06-07T09:44:22.007Z</time>
      </trkpt>
      <trkpt lat="45.60679" lon="4.62141">
        <ele>587.107913</ele>
        <time>2025-06-07T09:44:24.002Z</time>
      </trkpt>
      <trkpt lat="45.60672" lon="4.62152">
        <ele>586.701826</ele>
        <time>2025-06-07T09:44:26.002Z</time>
      </trkpt>
      <trkpt lat="45.60665" lon="4.62162">
        <ele>586.296195</ele>
        <time>2025-06-07T09:44:28.000Z</time>
      </trkpt>
      <trkpt lat="45.60657" lon="4.62172">
        <ele>585.865279</ele>
        <time>2025-06-07T09:44:30.007Z</time>
      </trkpt>
      <trkpt lat="45.60649" lon="4.62183">
        <ele>585.404811</ele>
        <time>2025-06-07T09:44:31.996Z</time>
      </trkpt>
      <trkpt lat="45.6064" lon="4.62196">
        <ele>584.920076</ele>
        <time>2025-06-07T09:44:33.995Z</time>
      </trkpt>
      <trkpt lat="45.60632" lon="4.62209">
        <ele>584.412669</ele>
        <time>2025-06-07T09:44:35.995Z</time>
      </trkpt>
      <trkpt lat="45.60622" lon="4.62223">
        <ele>583.848622</ele>
        <time>2025-06-07T09:44:37.996Z</time>
      </trkpt>
      <trkpt lat="45.60612" lon="4.62239">
        <ele>583.248544</ele>
        <time>2025-06-07T09:44:39.995Z</time>
      </trkpt>
      <trkpt lat="45.60602" lon="4.62258">
        <ele>582.570104</ele>
        <time>2025-06-07T09:44:41.997Z</time>
      </trkpt>
      <trkpt lat="45.60591" lon="4.62279">
        <ele>581.831033</ele>
        <time>2025-06-07T09:44:43.994Z</time>
      </trkpt>
      <trkpt lat="45.60586" lon="4.62289">
        <ele>581.464376</ele>
        <time>2025-06-07T09:44:44.992Z</time>
      </trkpt>
      <trkpt lat="45.60581" lon="4.62301">
        <ele>581.059078</ele>
        <time>2025-06-07T09:44:45.998Z</time>
      </trkpt>
      <trkpt lat="45.60577" lon="4.62313">
        <ele>580.691933</ele>
        <time>2025-06-07T09:44:46.986Z</time>
      </trkpt>
      <trkpt lat="45.60574" lon="4.62326">
        <ele>580.338621</ele>
        <time>2025-06-07T09:44:48.010Z</time>
      </trkpt>
      <trkpt lat="45.60571" lon="4.6234">
        <ele>579.964021</ele>
        <time>2025-06-07T09:44:48.995Z</time>
      </trkpt>
      <trkpt lat="45.60568" lon="4.62355">
        <ele>579.57029</ele>
        <time>2025-06-07T09:44:49.995Z</time>
      </trkpt>
      <trkpt lat="45.60564" lon="4.62369">
        <ele>579.180001</ele>
        <time>2025-06-07T09:44:51.002Z</time>
      </trkpt>
      <trkpt lat="45.6056" lon="4.62382">
        <ele>578.787372</ele>
        <time>2025-06-07T09:44:51.993Z</time>
      </trkpt>
      <trkpt lat="45.60553" lon="4.62395">
        <ele>578.368168</ele>
        <time>2025-06-07T09:44:52.992Z</time>
      </trkpt>
      <trkpt lat="45.60546" lon="4.62408">
        <ele>577.944583</ele>
        <time>2025-06-07T09:44:54.000Z</time>
      </trkpt>
      <trkpt lat="45.60539" lon="4.62421">
        <ele>577.52738</ele>
        <time>2025-06-07T09:44:54.988Z</time>
      </trkpt>
      <trkpt lat="45.60532" lon="4.62433">
        <ele>577.119121</ele>
        <time>2025-06-07T09:44:56.008Z</time>
      </trkpt>
      <trkpt lat="45.60525" lon="4.62443">
        <ele>576.729158</ele>
        <time>2025-06-07T09:44:56.997Z</time>
      </trkpt>
      <trkpt lat="45.60517" lon="4.62455">
        <ele>576.319583</ele>
        <time>2025-06-07T09:44:57.992Z</time>
      </trkpt>
      <trkpt lat="45.60511" lon="4.62465">
        <ele>575.983362</ele>
        <time>2025-06-07T09:44:59.023Z</time>
      </trkpt>
      <trkpt lat="45.605" lon="4.62483">
        <ele>575.351978</ele>
        <time>2025-06-07T09:45:00.986Z</time>
      </trkpt>
      <trkpt lat="45.60489" lon="4.62498">
        <ele>574.77236</ele>
        <time>2025-06-07T09:45:02.988Z</time>
      </trkpt>
      <trkpt lat="45.60477" lon="4.62513">
        <ele>574.205373</ele>
        <time>2025-06-07T09:45:04.992Z</time>
      </trkpt>
      <trkpt lat="45.60466" lon="4.62524">
        <ele>573.511035</ele>
        <time>2025-06-07T09:45:06.996Z</time>
      </trkpt>
      <trkpt lat="45.60452" lon="4.62531">
        <ele>572.702719</ele>
        <time>2025-06-07T09:45:08.997Z</time>
      </trkpt>
      <trkpt lat="45.60439" lon="4.62539">
        <ele>571.886641</ele>
        <time>2025-06-07T09:45:10.992Z</time>
      </trkpt>
      <trkpt lat="45.60425" lon="4.62546">
        <ele>571.067759</ele>
        <time>2025-06-07T09:45:12.983Z</time>
      </trkpt>
      <trkpt lat="45.60412" lon="4.62556">
        <ele>570.20694</ele>
        <time>2025-06-07T09:45:14.984Z</time>
      </trkpt>
      <trkpt lat="45.60398" lon="4.62568">
        <ele>569.309259</ele>
        <time>2025-06-07T09:45:16.994Z</time>
      </trkpt>
      <trkpt lat="45.60386" lon="4.62584">
        <ele>568.364749</ele>
        <time>2025-06-07T09:45:18.980Z</time>
      </trkpt>
      <trkpt lat="45.60375" lon="4.62603">
        <ele>567.385386</ele>
        <time>2025-06-07T09:45:20.987Z</time>
      </trkpt>
      <trkpt lat="45.60363" lon="4.62621">
        <ele>566.379938</ele>
        <time>2025-06-07T09:45:23.002Z</time>
      </trkpt>
      <trkpt lat="45.60355" lon="4.62642">
        <ele>565.441342</ele>
        <time>2025-06-07T09:45:24.991Z</time>
      </trkpt>
      <trkpt lat="45.60356" lon="4.62667">
        <ele>564.474745</ele>
        <time>2025-06-07T09:45:26.985Z</time>
      </trkpt>
      <trkpt lat="45.60359" lon="4.6268">
        <ele>563.938172</ele>
        <time>2025-06-07T09:45:28.006Z</time>
      </trkpt>
      <trkpt lat="45.60361" lon="4.62693">
        <ele>563.517809</ele>
        <time>2025-06-07T09:45:28.988Z</time>
      </trkpt>
      <trkpt lat="45.60365" lon="4.62707">
        <ele>563.114949</ele>
        <time>2025-06-07T09:45:30.000Z</time>
      </trkpt>
      <trkpt lat="45.6037" lon="4.62721">
        <ele>562.707164</ele>
        <time>2025-06-07T09:45:30.986Z</time>
      </trkpt>
      <trkpt lat="45.60375" lon="4.62734">
        <ele>562.292429</ele>
        <time>2025-06-07T09:45:32.004Z</time>
      </trkpt>
      <trkpt lat="45.6038" lon="4.62748">
        <ele>561.879475</ele>
        <time>2025-06-07T09:45:32.986Z</time>
      </trkpt>
      <trkpt lat="45.60384" lon="4.62762">
        <ele>561.454599</ele>
        <time>2025-06-07T09:45:34.007Z</time>
      </trkpt>
      <trkpt lat="45.60388" lon="4.62777">
        <ele>561.031553</ele>
        <time>2025-06-07T09:45:34.989Z</time>
      </trkpt>
      <trkpt lat="45.60391" lon="4.62792">
        <ele>560.609657</ele>
        <time>2025-06-07T09:45:36.002Z</time>
      </trkpt>
      <trkpt lat="45.60394" lon="4.62806">
        <ele>560.226463</ele>
        <time>2025-06-07T09:45:37.001Z</time>
      </trkpt>
      <trkpt lat="45.60395" lon="4.62819">
        <ele>559.863391</ele>
        <time>2025-06-07T09:45:38.002Z</time>
      </trkpt>
      <trkpt lat="45.60397" lon="4.62844">
        <ele>559.184242</ele>
        <time>2025-06-07T09:45:40.000Z</time>
      </trkpt>
      <trkpt lat="45.60395" lon="4.62866">
        <ele>558.59597</ele>
        <time>2025-06-07T09:45:41.980Z</time>
      </trkpt>
      <trkpt lat="45.60394" lon="4.62886">
        <ele>558.038703</ele>
        <time>2025-06-07T09:45:44.001Z</time>
      </trkpt>
      <trkpt lat="45.60392" lon="4.62905">
        <ele>557.53447</ele>
        <time>2025-06-07T09:45:45.993Z</time>
      </trkpt>
      <trkpt lat="45.60392" lon="4.6292">
        <ele>557.126392</ele>
        <time>2025-06-07T09:45:47.998Z</time>
      </trkpt>
      <trkpt lat="45.60391" lon="4.62933">
        <ele>556.697533</ele>
        <time>2025-06-07T09:45:51.007Z</time>
      </trkpt>
      <trkpt lat="45.60393" lon="4.62973">
        <ele>555.060351</ele>
        <time>2025-06-07T09:46:41.027Z</time>
      </trkpt>
      <trkpt lat="45.60395" lon="4.62986">
        <ele>554.513834</ele>
        <time>2025-06-07T09:46:42.992Z</time>
      </trkpt>
      <trkpt lat="45.60398" lon="4.63001">
        <ele>553.875345</ele>
        <time>2025-06-07T09:46:44.986Z</time>
      </trkpt>
      <trkpt lat="45.604" lon="4.63018">
        <ele>553.165338</ele>
        <time>2025-06-07T09:46:46.973Z</time>
      </trkpt>
      <trkpt lat="45.60402" lon="4.63039">
        <ele>552.323622</ele>
        <time>2025-06-07T09:46:49.021Z</time>
      </trkpt>
      <trkpt lat="45.60404" lon="4.63057">
        <ele>551.554488</ele>
        <time>2025-06-07T09:46:50.995Z</time>
      </trkpt>
      <trkpt lat="45.60409" lon="4.63074">
        <ele>550.823537</ele>
        <time>2025-06-07T09:46:52.985Z</time>
      </trkpt>
      <trkpt lat="45.60415" lon="4.63089">
        <ele>550.108716</ele>
        <time>2025-06-07T09:46:54.994Z</time>
      </trkpt>
      <trkpt lat="45.60424" lon="4.63104">
        <ele>549.301806</ele>
        <time>2025-06-07T09:46:57.000Z</time>
      </trkpt>
      <trkpt lat="45.60432" lon="4.63116">
        <ele>548.637204</ele>
        <time>2025-06-07T09:46:58.996Z</time>
      </trkpt>
      <trkpt lat="45.6044" lon="4.63126">
        <ele>547.993832</ele>
        <time>2025-06-07T09:47:00.980Z</time>
      </trkpt>
      <trkpt lat="45.60448" lon="4.63137">
        <ele>547.340617</ele>
        <time>2025-06-07T09:47:03.002Z</time>
      </trkpt>
      <trkpt lat="45.60457" lon="4.63147">
        <ele>546.639975</ele>
        <time>2025-06-07T09:47:05.028Z</time>
      </trkpt>
      <trkpt lat="45.60467" lon="4.63158">
        <ele>546.142633</ele>
        <time>2025-06-07T09:47:07.001Z</time>
      </trkpt>
      <trkpt lat="45.60475" lon="4.63166">
        <ele>545.893273</ele>
        <time>2025-06-07T09:47:08.990Z</time>
      </trkpt>
      <trkpt lat="45.60487" lon="4.63171">
        <ele>545.556703</ele>
        <time>2025-06-07T09:47:11.985Z</time>
      </trkpt>
      <trkpt lat="45.60497" lon="4.63179">
        <ele>545.259035</ele>
        <time>2025-06-07T09:47:14.299Z</time>
      </trkpt>
      <trkpt lat="45.60507" lon="4.63182">
        <ele>544.982598</ele>
        <time>2025-06-07T09:47:15.982Z</time>
      </trkpt>
      <trkpt lat="45.60517" lon="4.63185">
        <ele>544.692577</ele>
        <time>2025-06-07T09:47:17.989Z</time>
      </trkpt>
      <trkpt lat="45.60528" lon="4.63189">
        <ele>544.386688</ele>
        <time>2025-06-07T09:47:19.992Z</time>
      </trkpt>
      <trkpt lat="45.60539" lon="4.63192">
        <ele>544.086348</ele>
        <time>2025-06-07T09:47:21.991Z</time>
      </trkpt>
      <trkpt lat="45.60551" lon="4.63197">
        <ele>543.761596</ele>
        <time>2025-06-07T09:47:23.990Z</time>
      </trkpt>
      <trkpt lat="45.60564" lon="4.63199">
        <ele>543.425056</ele>
        <time>2025-06-07T09:47:25.994Z</time>
      </trkpt>
      <trkpt lat="45.60576" lon="4.63201">
        <ele>543.090431</ele>
        <time>2025-06-07T09:47:27.994Z</time>
      </trkpt>
      <trkpt lat="45.60588" lon="4.63204">
        <ele>542.771942</ele>
        <time>2025-06-07T09:47:29.998Z</time>
      </trkpt>
      <trkpt lat="45.60598" lon="4.63207">
        <ele>542.501521</ele>
        <time>2025-06-07T09:47:31.991Z</time>
      </trkpt>
      <trkpt lat="45.6061" lon="4.63211">
        <ele>542.167466</ele>
        <time>2025-06-07T09:47:34.986Z</time>
      </trkpt>
      <trkpt lat="45.60619" lon="4.63213">
        <ele>541.919491</ele>
        <time>2025-06-07T09:47:38.004Z</time>
      </trkpt>
      <trkpt lat="45.60629" lon="4.63215">
        <ele>541.65081</ele>
        <time>2025-06-07T09:47:42.000Z</time>
      </trkpt>
      <trkpt lat="45.60639" lon="4.63219">
        <ele>541.236431</ele>
        <time>2025-06-07T09:47:45.996Z</time>
      </trkpt>
      <trkpt lat="45.6065" lon="4.63224">
        <ele>540.662476</ele>
        <time>2025-06-07T09:47:50.006Z</time>
      </trkpt>
      <trkpt lat="45.60659" lon="4.6323">
        <ele>540.221391</ele>
        <time>2025-06-07T09:47:52.983Z</time>
      </trkpt>
      <trkpt lat="45.60666" lon="4.63245">
        <ele>539.580048</ele>
        <time>2025-06-07T09:47:55.996Z</time>
      </trkpt>
      <trkpt lat="45.60673" lon="4.63257">
        <ele>539.05646</ele>
        <time>2025-06-07T09:47:57.997Z</time>
      </trkpt>
      <trkpt lat="45.60681" lon="4.63272">
        <ele>538.395367</ele>
        <time>2025-06-07T09:47:59.999Z</time>
      </trkpt>
      <trkpt lat="45.60691" lon="4.6329">
        <ele>537.635844</ele>
        <time>2025-06-07T09:48:01.999Z</time>
      </trkpt>
      <trkpt lat="45.60701" lon="4.63309">
        <ele>536.788813</ele>
        <time>2025-06-07T09:48:03.998Z</time>
      </trkpt>
      <trkpt lat="45.60712" lon="4.63331">
        <ele>535.903814</ele>
        <time>2025-06-07T09:48:05.994Z</time>
      </trkpt>
      <trkpt lat="45.60718" lon="4.63342">
        <ele>535.427083</ele>
        <time>2025-06-07T09:48:06.992Z</time>
      </trkpt>
      <trkpt lat="45.60729" lon="4.6336">
        <ele>534.59283</ele>
        <time>2025-06-07T09:48:09.072Z</time>
      </trkpt>
      <trkpt lat="45.6074" lon="4.6338">
        <ele>533.737972</ele>
        <time>2025-06-07T09:48:11.005Z</time>
      </trkpt>
      <trkpt lat="45.60748" lon="4.63397">
        <ele>533.018177</ele>
        <time>2025-06-07T09:48:12.988Z</time>
      </trkpt>
      <trkpt lat="45.60759" lon="4.63414">
        <ele>531.570455</ele>
        <time>2025-06-07T09:48:14.984Z</time>
      </trkpt>
      <trkpt lat="45.60768" lon="4.63431">
        <ele>529.898216</ele>
        <time>2025-06-07T09:48:16.996Z</time>
      </trkpt>
      <trkpt lat="45.60775" lon="4.63444">
        <ele>528.542097</ele>
        <time>2025-06-07T09:48:18.977Z</time>
      </trkpt>
      <trkpt lat="45.60775" lon="4.63462">
        <ele>527.121047</ele>
        <time>2025-06-07T09:48:21.990Z</time>
      </trkpt>
      <trkpt lat="45.60768" lon="4.63473">
        <ele>526.0223</ele>
        <time>2025-06-07T09:48:24.000Z</time>
      </trkpt>
      <trkpt lat="45.6076" lon="4.63487">
        <ele>524.530894</ele>
        <time>2025-06-07T09:48:25.999Z</time>
      </trkpt>
      <trkpt lat="45.6075" lon="4.63501">
        <ele>522.962959</ele>
        <time>2025-06-07T09:48:28.005Z</time>
      </trkpt>
      <trkpt lat="45.60737" lon="4.63513">
        <ele>521.203915</ele>
        <time>2025-06-07T09:48:29.983Z</time>
      </trkpt>
      <trkpt lat="45.60724" lon="4.63525">
        <ele>519.452374</ele>
        <time>2025-06-07T09:48:31.974Z</time>
      </trkpt>
      <trkpt lat="45.60712" lon="4.63536">
        <ele>517.800338</ele>
        <time>2025-06-07T09:48:34.101Z</time>
      </trkpt>
      <trkpt lat="45.60702" lon="4.63555">
        <ele>515.915208</ele>
        <time>2025-06-07T09:48:35.982Z</time>
      </trkpt>
      <trkpt lat="45.60695" lon="4.63576">
        <ele>514.081796</ele>
        <time>2025-06-07T09:48:37.995Z</time>
      </trkpt>
      <trkpt lat="45.60687" lon="4.63594">
        <ele>512.355687</ele>
        <time>2025-06-07T09:48:39.972Z</time>
      </trkpt>
      <trkpt lat="45.60681" lon="4.63611">
        <ele>511.092826</ele>
        <time>2025-06-07T09:48:41.971Z</time>
      </trkpt>
      <trkpt lat="45.60677" lon="4.63627">
        <ele>509.955958</ele>
        <time>2025-06-07T09:48:43.967Z</time>
      </trkpt>
      <trkpt lat="45.60677" lon="4.63645">
        <ele>508.79532</ele>
        <time>2025-06-07T09:48:45.991Z</time>
      </trkpt>
      <trkpt lat="45.60679" lon="4.63664">
        <ele>507.480924</ele>
        <time>2025-06-07T09:48:47.987Z</time>
      </trkpt>
      <trkpt lat="45.60683" lon="4.63685">
        <ele>506.03994</ele>
        <time>2025-06-07T09:48:49.998Z</time>
      </trkpt>
      <trkpt lat="45.60686" lon="4.63708">
        <ele>504.470244</ele>
        <time>2025-06-07T09:48:51.971Z</time>
      </trkpt>
      <trkpt lat="45.6069" lon="4.63733">
        <ele>502.762556</ele>
        <time>2025-06-07T09:48:53.968Z</time>
      </trkpt>
      <trkpt lat="45.60692" lon="4.63746">
        <ele>501.837277</ele>
        <time>2025-06-07T09:48:54.983Z</time>
      </trkpt>
      <trkpt lat="45.60693" lon="4.6376">
        <ele>500.900786</ele>
        <time>2025-06-07T09:48:55.987Z</time>
      </trkpt>
      <trkpt lat="45.60695" lon="4.63774">
        <ele>499.942994</ele>
        <time>2025-06-07T09:48:56.976Z</time>
      </trkpt>
      <trkpt lat="45.60697" lon="4.63789">
        <ele>498.948136</ele>
        <time>2025-06-07T09:48:57.971Z</time>
      </trkpt>
      <trkpt lat="45.607" lon="4.63803">
        <ele>497.946789</ele>
        <time>2025-06-07T09:48:58.982Z</time>
      </trkpt>
      <trkpt lat="45.60703" lon="4.63818">
        <ele>496.90865</ele>
        <time>2025-06-07T09:48:59.997Z</time>
      </trkpt>
      <trkpt lat="45.60707" lon="4.63832">
        <ele>495.862545</ele>
        <time>2025-06-07T09:49:00.969Z</time>
      </trkpt>
      <trkpt lat="45.60711" lon="4.63847">
        <ele>494.842558</ele>
        <time>2025-06-07T09:49:01.973Z</time>
      </trkpt>
      <trkpt lat="45.60716" lon="4.63862">
        <ele>493.893017</ele>
        <time>2025-06-07T09:49:02.991Z</time>
      </trkpt>
      <trkpt lat="45.6072" lon="4.63877">
        <ele>492.942763</ele>
        <time>2025-06-07T09:49:03.985Z</time>
      </trkpt>
      <trkpt lat="45.60725" lon="4.63893">
        <ele>491.952584</ele>
        <time>2025-06-07T09:49:04.991Z</time>
      </trkpt>
      <trkpt lat="45.60731" lon="4.63909">
        <ele>490.957124</ele>
        <time>2025-06-07T09:49:05.984Z</time>
      </trkpt>
      <trkpt lat="45.60736" lon="4.63925">
        <ele>489.937417</ele>
        <time>2025-06-07T09:49:06.986Z</time>
      </trkpt>
      <trkpt lat="45.60741" lon="4.63942">
        <ele>488.89673</ele>
        <time>2025-06-07T09:49:07.974Z</time>
      </trkpt>
      <trkpt lat="45.60746" lon="4.63958">
        <ele>487.86782</ele>
        <time>2025-06-07T09:49:08.990Z</time>
      </trkpt>
      <trkpt lat="45.60751" lon="4.63973">
        <ele>486.929632</ele>
        <time>2025-06-07T09:49:09.982Z</time>
      </trkpt>
      <trkpt lat="45.60756" lon="4.63988">
        <ele>485.956203</ele>
        <time>2025-06-07T09:49:10.980Z</time>
      </trkpt>
      <trkpt lat="45.60761" lon="4.64002">
        <ele>485.083932</ele>
        <time>2025-06-07T09:49:11.979Z</time>
      </trkpt>
      <trkpt lat="45.60765" lon="4.64013">
        <ele>484.329093</ele>
        <time>2025-06-07T09:49:13.008Z</time>
      </trkpt>
      <trkpt lat="45.60773" lon="4.64033">
        <ele>483.01078</ele>
        <time>2025-06-07T09:49:14.994Z</time>
      </trkpt>
      <trkpt lat="45.60779" lon="4.64052">
        <ele>481.810811</ele>
        <time>2025-06-07T09:49:16.987Z</time>
      </trkpt>
      <trkpt lat="45.60786" lon="4.64074">
        <ele>480.433406</ele>
        <time>2025-06-07T09:49:19.015Z</time>
      </trkpt>
      <trkpt lat="45.60792" lon="4.64098">
        <ele>478.496141</ele>
        <time>2025-06-07T09:49:20.980Z</time>
      </trkpt>
      <trkpt lat="45.60796" lon="4.64109">
        <ele>477.462992</ele>
        <time>2025-06-07T09:49:21.980Z</time>
      </trkpt>
      <trkpt lat="45.608" lon="4.64122">
        <ele>476.366994</ele>
        <time>2025-06-07T09:49:22.981Z</time>
      </trkpt>
      <trkpt lat="45.60806" lon="4.64134">
        <ele>475.236635</ele>
        <time>2025-06-07T09:49:23.996Z</time>
      </trkpt>
      <trkpt lat="45.60812" lon="4.64145">
        <ele>474.06019</ele>
        <time>2025-06-07T09:49:24.990Z</time>
      </trkpt>
      <trkpt lat="45.60819" lon="4.64158">
        <ele>472.852693</ele>
        <time>2025-06-07T09:49:25.979Z</time>
      </trkpt>
      <trkpt lat="45.60828" lon="4.64177">
        <ele>470.993215</ele>
        <time>2025-06-07T09:49:28.002Z</time>
      </trkpt>
      <trkpt lat="45.60837" lon="4.64195">
        <ele>469.288695</ele>
        <time>2025-06-07T09:49:29.997Z</time>
      </trkpt>
      <trkpt lat="45.60845" lon="4.64209">
        <ele>467.813471</ele>
        <time>2025-06-07T09:49:32.028Z</time>
      </trkpt>
      <trkpt lat="45.60854" lon="4.64222">
        <ele>466.424884</ele>
        <time>2025-06-07T09:49:33.993Z</time>
      </trkpt>
      <trkpt lat="45.60863" lon="4.6423">
        <ele>465.190038</ele>
        <time>2025-06-07T09:49:37.007Z</time>
      </trkpt>
      <trkpt lat="45.60869" lon="4.64242">
        <ele>464.02765</ele>
        <time>2025-06-07T09:49:41.008Z</time>
      </trkpt>
      <trkpt lat="45.60873" lon="4.64257">
        <ele>462.773439</ele>
        <time>2025-06-07T09:49:46.996Z</time>
      </trkpt>
      <trkpt lat="45.60877" lon="4.64271">
        <ele>461.56873</ele>
        <time>2025-06-07T09:49:55.987Z</time>
      </trkpt>
      <trkpt lat="45.60886" lon="4.64278">
        <ele>460.432512</ele>
        <time>2025-06-07T09:50:01.995Z</time>
      </trkpt>
      <trkpt lat="45.60892" lon="4.6429">
        <ele>459.467708</ele>
        <time>2025-06-07T09:50:26.998Z</time>
      </trkpt>
      <trkpt lat="45.60892" lon="4.64303">
        <ele>458.609064</ele>
        <time>2025-06-07T09:50:31.991Z</time>
      </trkpt>
      <trkpt lat="45.60899" lon="4.64313">
        <ele>457.76556</ele>
        <time>2025-06-07T09:50:34.989Z</time>
      </trkpt>
      <trkpt lat="45.60905" lon="4.64322">
        <ele>456.922708</ele>
        <time>2025-06-07T09:50:36.984Z</time>
      </trkpt>
      <trkpt lat="45.60915" lon="4.64338">
        <ele>455.618006</ele>
        <time>2025-06-07T09:50:38.980Z</time>
      </trkpt>
      <trkpt lat="45.6092" lon="4.6435">
        <ele>454.72776</ele>
        <time>2025-06-07T09:50:41.100Z</time>
      </trkpt>
      <trkpt lat="45.60918" lon="4.64367">
        <ele>453.587715</ele>
        <time>2025-06-07T09:50:42.979Z</time>
      </trkpt>
      <trkpt lat="45.60913" lon="4.6438">
        <ele>452.649836</ele>
        <time>2025-06-07T09:50:44.982Z</time>
      </trkpt>
      <trkpt lat="45.60904" lon="4.64387">
        <ele>451.744947</ele>
        <time>2025-06-07T09:50:46.984Z</time>
      </trkpt>
      <trkpt lat="45.60896" lon="4.64402">
        <ele>450.606417</ele>
        <time>2025-06-07T09:50:50.003Z</time>
      </trkpt>
      <trkpt lat="45.60892" lon="4.64413">
        <ele>449.786435</ele>
        <time>2025-06-07T09:50:52.001Z</time>
      </trkpt>
      <trkpt lat="45.60885" lon="4.64428">
        <ele>448.652154</ele>
        <time>2025-06-07T09:50:54.986Z</time>
      </trkpt>
      <trkpt lat="45.60878" lon="4.64435">
        <ele>447.829686</ele>
        <time>2025-06-07T09:50:56.992Z</time>
      </trkpt>
      <trkpt lat="45.60871" lon="4.64451">
        <ele>446.686957</ele>
        <time>2025-06-07T09:50:59.994Z</time>
      </trkpt>
      <trkpt lat="45.60864" lon="4.64461">
        <ele>445.778367</ele>
        <time>2025-06-07T09:51:01.994Z</time>
      </trkpt>
      <trkpt lat="45.60856" lon="4.64468">
        <ele>444.918378</ele>
        <time>2025-06-07T09:51:03.997Z</time>
      </trkpt>
      <trkpt lat="45.60848" lon="4.64478">
        <ele>443.94968</ele>
        <time>2025-06-07T09:51:05.993Z</time>
      </trkpt>
      <trkpt lat="45.6084" lon="4.6449">
        <ele>443.821178</ele>
        <time>2025-06-07T09:51:07.997Z</time>
      </trkpt>
      <trkpt lat="45.60832" lon="4.64503">
        <ele>443.785253</ele>
        <time>2025-06-07T09:51:09.993Z</time>
      </trkpt>
      <trkpt lat="45.60825" lon="4.64512">
        <ele>443.757242</ele>
        <time>2025-06-07T09:51:11.992Z</time>
      </trkpt>
      <trkpt lat="45.60815" lon="4.64525">
        <ele>443.717394</ele>
        <time>2025-06-07T09:51:15.004Z</time>
      </trkpt>
      <trkpt lat="45.60809" lon="4.6454">
        <ele>443.683582</ele>
        <time>2025-06-07T09:51:17.981Z</time>
      </trkpt>
      <trkpt lat="45.60803" lon="4.64552">
        <ele>443.650819</ele>
        <time>2025-06-07T09:51:19.982Z</time>
      </trkpt>
      <trkpt lat="45.60795" lon="4.64567">
        <ele>443.612993</ele>
        <time>2025-06-07T09:51:22.986Z</time>
      </trkpt>
      <trkpt lat="45.60789" lon="4.64578">
        <ele>443.584104</ele>
        <time>2025-06-07T09:51:24.988Z</time>
      </trkpt>
      <trkpt lat="45.60781" lon="4.64588">
        <ele>443.554242</ele>
        <time>2025-06-07T09:51:26.987Z</time>
      </trkpt>
      <trkpt lat="45.60773" lon="4.64597">
        <ele>443.524504</ele>
        <time>2025-06-07T09:51:28.991Z</time>
      </trkpt>
      <trkpt lat="45.60765" lon="4.64605">
        <ele>443.495251</ele>
        <time>2025-06-07T09:51:30.976Z</time>
      </trkpt>
      <trkpt lat="45.60757" lon="4.64611">
        <ele>443.468834</ele>
        <time>2025-06-07T09:51:32.980Z</time>
      </trkpt>
      <trkpt lat="45.60749" lon="4.64616">
        <ele>443.442237</ele>
        <time>2025-06-07T09:51:34.970Z</time>
      </trkpt>
      <trkpt lat="45.60737" lon="4.64624">
        <ele>443.403317</ele>
        <time>2025-06-07T09:51:38.223Z</time>
      </trkpt>
      <trkpt lat="45.60729" lon="4.6463">
        <ele>443.375893</ele>
        <time>2025-06-07T09:51:40.001Z</time>
      </trkpt>
      <trkpt lat="45.60718" lon="4.64638">
        <ele>443.339009</ele>
        <time>2025-06-07T09:51:42.984Z</time>
      </trkpt>
      <trkpt lat="45.60706" lon="4.64644">
        <ele>443.304897</ele>
        <time>2025-06-07T09:51:45.987Z</time>
      </trkpt>
      <trkpt lat="45.60694" lon="4.64648">
        <ele>443.276579</ele>
        <time>2025-06-07T09:51:49.002Z</time>
      </trkpt>
      <trkpt lat="45.60681" lon="4.64651">
        <ele>443.244358</ele>
        <time>2025-06-07T09:51:51.972Z</time>
      </trkpt>
      <trkpt lat="45.60668" lon="4.64656">
        <ele>443.213724</ele>
        <time>2025-06-07T09:51:55.135Z</time>
      </trkpt>
      <trkpt lat="45.60658" lon="4.64664">
        <ele>443.186029</ele>
        <time>2025-06-07T09:51:57.981Z</time>
      </trkpt>
      <trkpt lat="45.60648" lon="4.64675">
        <ele>443.155572</ele>
        <time>2025-06-07T09:52:00.991Z</time>
      </trkpt>
      <trkpt lat="45.60639" lon="4.64688">
        <ele>443.124982</ele>
        <time>2025-06-07T09:52:03.997Z</time>
      </trkpt>
      <trkpt lat="45.60629" lon="4.64699">
        <ele>443.095212</ele>
        <time>2025-06-07T09:52:07.003Z</time>
      </trkpt>
      <trkpt lat="45.60622" lon="4.64711">
        <ele>443.069735</ele>
        <time>2025-06-07T09:52:10.012Z</time>
      </trkpt>
      <trkpt lat="45.6062" lon="4.64727">
        <ele>443.042229</ele>
        <time>2025-06-07T09:52:13.981Z</time>
      </trkpt>
      <trkpt lat="45.60626" lon="4.64738">
        <ele>443.020088</ele>
        <time>2025-06-07T09:52:17.012Z</time>
      </trkpt>
      <trkpt lat="45.60632" lon="4.64749">
        <ele>442.995806</ele>
        <time>2025-06-07T09:52:19.975Z</time>
      </trkpt>
      <trkpt lat="45.60639" lon="4.64761">
        <ele>442.970042</ele>
        <time>2025-06-07T09:52:22.988Z</time>
      </trkpt>
      <trkpt lat="45.60647" lon="4.64773">
        <ele>442.942971</ele>
        <time>2025-06-07T09:52:25.989Z</time>
      </trkpt>
      <trkpt lat="45.60653" lon="4.64786">
        <ele>442.915242</ele>
        <time>2025-06-07T09:52:28.986Z</time>
      </trkpt>
      <trkpt lat="45.60661" lon="4.648">
        <ele>442.992336</ele>
        <time>2025-06-07T09:52:31.981Z</time>
      </trkpt>
      <trkpt lat="45.60668" lon="4.64815">
        <ele>443.421603</ele>
        <time>2025-06-07T09:52:34.990Z</time>
      </trkpt>
      <trkpt lat="45.60676" lon="4.6483">
        <ele>443.881388</ele>
        <time>2025-06-07T09:52:38.000Z</time>
      </trkpt>
      <trkpt lat="45.60682" lon="4.6484">
        <ele>444.195335</ele>
        <time>2025-06-07T09:52:39.984Z</time>
      </trkpt>
      <trkpt lat="45.6069" lon="4.64854">
        <ele>444.653234</ele>
        <time>2025-06-07T09:52:42.974Z</time>
      </trkpt>
      <trkpt lat="45.60698" lon="4.6487">
        <ele>445.104223</ele>
        <time>2025-06-07T09:52:45.970Z</time>
      </trkpt>
      <trkpt lat="45.60706" lon="4.64884">
        <ele>445.552154</ele>
        <time>2025-06-07T09:52:49.006Z</time>
      </trkpt>
      <trkpt lat="45.60713" lon="4.64899">
        <ele>445.993253</ele>
        <time>2025-06-07T09:52:51.985Z</time>
      </trkpt>
      <trkpt lat="45.60721" lon="4.64912">
        <ele>446.39755</ele>
        <time>2025-06-07T09:52:55.001Z</time>
      </trkpt>
      <trkpt lat="45.60729" lon="4.64915">
        <ele>446.709637</ele>
        <time>2025-06-07T09:52:58.003Z</time>
      </trkpt>
      <trkpt lat="45.60739" lon="4.64905">
        <ele>447.105476</ele>
        <time>2025-06-07T09:53:01.003Z</time>
      </trkpt>
      <trkpt lat="45.60747" lon="4.64896">
        <ele>447.470429</ele>
        <time>2025-06-07T09:53:03.978Z</time>
      </trkpt>
      <trkpt lat="45.60757" lon="4.6489">
        <ele>447.833859</ele>
        <time>2025-06-07T09:53:06.979Z</time>
      </trkpt>
      <trkpt lat="45.60768" lon="4.64885">
        <ele>448.232653</ele>
        <time>2025-06-07T09:53:09.990Z</time>
      </trkpt>
      <trkpt lat="45.6078" lon="4.64887">
        <ele>448.634564</ele>
        <time>2025-06-07T09:53:12.985Z</time>
      </trkpt>
      <trkpt lat="45.60789" lon="4.64895">
        <ele>449.001946</ele>
        <time>2025-06-07T09:53:15.984Z</time>
      </trkpt>
      <trkpt lat="45.60795" lon="4.64905">
        <ele>449.718994</ele>
        <time>2025-06-07T09:53:18.982Z</time>
      </trkpt>
      <trkpt lat="45.608" lon="4.64918">
        <ele>450.578119</ele>
        <time>2025-06-07T09:53:22.006Z</time>
      </trkpt>
      <trkpt lat="45.60803" lon="4.64932">
        <ele>451.478278</ele>
        <time>2025-06-07T09:53:24.982Z</time>
      </trkpt>
      <trkpt lat="45.60808" lon="4.64945">
        <ele>452.349431</ele>
        <time>2025-06-07T09:53:27.988Z</time>
      </trkpt>
      <trkpt lat="45.60813" lon="4.64957">
        <ele>453.189078</ele>
        <time>2025-06-07T09:53:31.065Z</time>
      </trkpt>
      <trkpt lat="45.60818" lon="4.64971">
        <ele>454.138757</ele>
        <time>2025-06-07T09:53:34.346Z</time>
      </trkpt>
      <trkpt lat="45.60823" lon="4.64983">
        <ele>454.952636</ele>
        <time>2025-06-07T09:53:37.982Z</time>
      </trkpt>
      <trkpt lat="45.60822" lon="4.65001">
        <ele>456.041938</ele>
        <time>2025-06-07T09:53:40.990Z</time>
      </trkpt>
      <trkpt lat="45.60828" lon="4.65015">
        <ele>457.02088</ele>
        <time>2025-06-07T09:53:43.984Z</time>
      </trkpt>
      <trkpt lat="45.6084" lon="4.65021">
        <ele>458.084444</ele>
        <time>2025-06-07T09:53:47.010Z</time>
      </trkpt>
      <trkpt lat="45.6085" lon="4.65028">
        <ele>459.086713</ele>
        <time>2025-06-07T09:53:50.003Z</time>
      </trkpt>
      <trkpt lat="45.60861" lon="4.65034">
        <ele>460.110409</ele>
        <time>2025-06-07T09:53:52.982Z</time>
      </trkpt>
      <trkpt lat="45.60872" lon="4.65041">
        <ele>461.092126</ele>
        <time>2025-06-07T09:53:55.970Z</time>
      </trkpt>
      <trkpt lat="45.60884" lon="4.65049">
        <ele>462.192096</ele>
        <time>2025-06-07T09:53:58.981Z</time>
      </trkpt>
      <trkpt lat="45.60896" lon="4.65053">
        <ele>463.300723</ele>
        <time>2025-06-07T09:54:01.985Z</time>
      </trkpt>
      <trkpt lat="45.60908" lon="4.65059">
        <ele>464.41655</ele>
        <time>2025-06-07T09:54:04.971Z</time>
      </trkpt>
      <trkpt lat="45.60921" lon="4.65059">
        <ele>464.755321</ele>
        <time>2025-06-07T09:54:07.984Z</time>
      </trkpt>
      <trkpt lat="45.60932" lon="4.65054">
        <ele>464.96585</ele>
        <time>2025-06-07T09:54:10.997Z</time>
      </trkpt>
      <trkpt lat="45.60943" lon="4.65051">
        <ele>465.150151</ele>
        <time>2025-06-07T09:54:13.991Z</time>
      </trkpt>
      <trkpt lat="45.60954" lon="4.65047">
        <ele>465.353509</ele>
        <time>2025-06-07T09:54:16.986Z</time>
      </trkpt>
      <trkpt lat="45.60966" lon="4.65047">
        <ele>465.57284</ele>
        <time>2025-06-07T09:54:19.981Z</time>
      </trkpt>
      <trkpt lat="45.60978" lon="4.65053">
        <ele>465.785942</ele>
        <time>2025-06-07T09:54:22.989Z</time>
      </trkpt>
      <trkpt lat="45.60986" lon="4.65061">
        <ele>465.958722</ele>
        <time>2025-06-07T09:54:24.986Z</time>
      </trkpt>
      <trkpt lat="45.60995" lon="4.65067">
        <ele>466.127118</ele>
        <time>2025-06-07T09:54:26.979Z</time>
      </trkpt>
      <trkpt lat="45.61004" lon="4.65073">
        <ele>466.302912</ele>
        <time>2025-06-07T09:54:28.988Z</time>
      </trkpt>
      <trkpt lat="45.61012" lon="4.6508">
        <ele>466.473861</ele>
        <time>2025-06-07T09:54:30.987Z</time>
      </trkpt>
      <trkpt lat="45.61021" lon="4.65085">
        <ele>466.633295</ele>
        <time>2025-06-07T09:54:32.983Z</time>
      </trkpt>
      <trkpt lat="45.61029" lon="4.65089">
        <ele>466.793528</ele>
        <time>2025-06-07T09:54:34.999Z</time>
      </trkpt>
      <trkpt lat="45.6104" lon="4.65094">
        <ele>466.998054</ele>
        <time>2025-06-07T09:54:37.996Z</time>
      </trkpt>
      <trkpt lat="45.61051" lon="4.65098">
        <ele>467.200563</ele>
        <time>2025-06-07T09:54:41.003Z</time>
      </trkpt>
      <trkpt lat="45.61063" lon="4.65101">
        <ele>467.405411</ele>
        <time>2025-06-07T09:54:43.978Z</time>
      </trkpt>
      <trkpt lat="45.61074" lon="4.65107">
        <ele>467.609434</ele>
        <time>2025-06-07T09:54:47.025Z</time>
      </trkpt>
      <trkpt lat="45.61084" lon="4.65113">
        <ele>467.580756</ele>
        <time>2025-06-07T09:54:49.982Z</time>
      </trkpt>
      <trkpt lat="45.61092" lon="4.65121">
        <ele>467.252503</ele>
        <time>2025-06-07T09:54:52.976Z</time>
      </trkpt>
      <trkpt lat="45.61102" lon="4.65123">
        <ele>466.951212</ele>
        <time>2025-06-07T09:54:55.976Z</time>
      </trkpt>
      <trkpt lat="45.61109" lon="4.65132">
        <ele>466.630615</ele>
        <time>2025-06-07T09:54:59.009Z</time>
      </trkpt>
      <trkpt lat="45.61118" lon="4.6514">
        <ele>466.282338</ele>
        <time>2025-06-07T09:55:01.982Z</time>
      </trkpt>
      <trkpt lat="45.61127" lon="4.65144">
        <ele>465.980356</ele>
        <time>2025-06-07T09:55:04.986Z</time>
      </trkpt>
      <trkpt lat="45.61131" lon="4.65156">
        <ele>465.681712</ele>
        <time>2025-06-07T09:55:11.000Z</time>
      </trkpt>
      <trkpt lat="45.61126" lon="4.65168">
        <ele>465.375765</ele>
        <time>2025-06-07T09:55:13.975Z</time>
      </trkpt>
      <trkpt lat="45.6112" lon="4.65181">
        <ele>465.019425</ele>
        <time>2025-06-07T09:55:17.033Z</time>
      </trkpt>
      <trkpt lat="45.61114" lon="4.65191">
        <ele>464.718697</ele>
        <time>2025-06-07T09:55:19.981Z</time>
      </trkpt>
      <trkpt lat="45.61107" lon="4.65204">
        <ele>464.34816</ele>
        <time>2025-06-07T09:55:22.973Z</time>
      </trkpt>
      <trkpt lat="45.61101" lon="4.65215">
        <ele>464.032241</ele>
        <time>2025-06-07T09:55:24.981Z</time>
      </trkpt>
      <trkpt lat="45.61094" lon="4.65227">
        <ele>463.661362</ele>
        <time>2025-06-07T09:55:27.008Z</time>
      </trkpt>
      <trkpt lat="45.61086" lon="4.65242">
        <ele>463.241094</ele>
        <time>2025-06-07T09:55:28.969Z</time>
      </trkpt>
      <trkpt lat="45.61078" lon="4.65256">
        <ele>462.828918</ele>
        <time>2025-06-07T09:55:30.980Z</time>
      </trkpt>
      <trkpt lat="45.6107" lon="4.65272">
        <ele>462.394648</ele>
        <time>2025-06-07T09:55:32.986Z</time>
      </trkpt>
      <trkpt lat="45.61062" lon="4.65286">
        <ele>461.985736</ele>
        <time>2025-06-07T09:55:34.978Z</time>
      </trkpt>
      <trkpt lat="45.61054" lon="4.65298">
        <ele>461.510841</ele>
        <time>2025-06-07T09:55:36.970Z</time>
      </trkpt>
      <trkpt lat="45.61048" lon="4.65314">
        <ele>460.94505</ele>
        <time>2025-06-07T09:55:38.986Z</time>
      </trkpt>
      <trkpt lat="45.61041" lon="4.65331">
        <ele>460.377704</ele>
        <time>2025-06-07T09:55:40.984Z</time>
      </trkpt>
      <trkpt lat="45.61035" lon="4.65344">
        <ele>459.881763</ele>
        <time>2025-06-07T09:55:42.973Z</time>
      </trkpt>
      <trkpt lat="45.61028" lon="4.65359">
        <ele>459.341431</ele>
        <time>2025-06-07T09:55:44.990Z</time>
      </trkpt>
      <trkpt lat="45.61021" lon="4.65378">
        <ele>458.714843</ele>
        <time>2025-06-07T09:55:46.984Z</time>
      </trkpt>
      <trkpt lat="45.61016" lon="4.65394">
        <ele>458.159428</ele>
        <time>2025-06-07T09:55:48.986Z</time>
      </trkpt>
      <trkpt lat="45.61009" lon="4.65412">
        <ele>457.562301</ele>
        <time>2025-06-07T09:55:50.990Z</time>
      </trkpt>
      <trkpt lat="45.61003" lon="4.65427">
        <ele>457.027631</ele>
        <time>2025-06-07T09:55:52.989Z</time>
      </trkpt>
      <trkpt lat="45.60997" lon="4.65444">
        <ele>456.458604</ele>
        <time>2025-06-07T09:55:54.981Z</time>
      </trkpt>
      <trkpt lat="45.6099" lon="4.6546">
        <ele>455.878071</ele>
        <time>2025-06-07T09:55:56.976Z</time>
      </trkpt>
      <trkpt lat="45.60984" lon="4.65477">
        <ele>455.299005</ele>
        <time>2025-06-07T09:55:58.987Z</time>
      </trkpt>
      <trkpt lat="45.60977" lon="4.65494">
        <ele>454.708386</ele>
        <time>2025-06-07T09:56:00.990Z</time>
      </trkpt>
      <trkpt lat="45.60969" lon="4.6551">
        <ele>454.115397</ele>
        <time>2025-06-07T09:56:02.991Z</time>
      </trkpt>
      <trkpt lat="45.60961" lon="4.65525">
        <ele>453.491818</ele>
        <time>2025-06-07T09:56:04.999Z</time>
      </trkpt>
      <trkpt lat="45.60952" lon="4.65542">
        <ele>452.804306</ele>
        <time>2025-06-07T09:56:06.980Z</time>
      </trkpt>
      <trkpt lat="45.60945" lon="4.6556">
        <ele>452.131672</ele>
        <time>2025-06-07T09:56:08.983Z</time>
      </trkpt>
      <trkpt lat="45.60938" lon="4.65579">
        <ele>451.428123</ele>
        <time>2025-06-07T09:56:10.996Z</time>
      </trkpt>
      <trkpt lat="45.6093" lon="4.65598">
        <ele>450.69768</ele>
        <time>2025-06-07T09:56:12.987Z</time>
      </trkpt>
      <trkpt lat="45.60923" lon="4.65617">
        <ele>450.012821</ele>
        <time>2025-06-07T09:56:14.991Z</time>
      </trkpt>
      <trkpt lat="45.60917" lon="4.65635">
        <ele>449.339538</ele>
        <time>2025-06-07T09:56:16.980Z</time>
      </trkpt>
      <trkpt lat="45.60913" lon="4.65648">
        <ele>448.860068</ele>
        <time>2025-06-07T09:56:18.975Z</time>
      </trkpt>
      <trkpt lat="45.6092" lon="4.65658">
        <ele>448.412727</ele>
        <time>2025-06-07T09:56:20.990Z</time>
      </trkpt>
      <trkpt lat="45.60926" lon="4.65667">
        <ele>447.989926</ele>
        <time>2025-06-07T09:56:22.984Z</time>
      </trkpt>
      <trkpt lat="45.60931" lon="4.65679">
        <ele>447.551723</ele>
        <time>2025-06-07T09:56:24.983Z</time>
      </trkpt>
      <trkpt lat="45.60936" lon="4.65692">
        <ele>447.064908</ele>
        <time>2025-06-07T09:56:26.982Z</time>
      </trkpt>
      <trkpt lat="45.60942" lon="4.65706">
        <ele>446.516358</ele>
        <time>2025-06-07T09:56:28.988Z</time>
      </trkpt>
      <trkpt lat="45.60949" lon="4.65722">
        <ele>445.900701</ele>
        <time>2025-06-07T09:56:30.994Z</time>
      </trkpt>
      <trkpt lat="45.60955" lon="4.6574">
        <ele>445.105689</ele>
        <time>2025-06-07T09:56:32.986Z</time>
      </trkpt>
      <trkpt lat="45.60962" lon="4.65758">
        <ele>444.202595</ele>
        <time>2025-06-07T09:56:34.997Z</time>
      </trkpt>
      <trkpt lat="45.60968" lon="4.65778">
        <ele>443.264913</ele>
        <time>2025-06-07T09:56:36.983Z</time>
      </trkpt>
      <trkpt lat="45.60975" lon="4.65798">
        <ele>442.282108</ele>
        <time>2025-06-07T09:56:38.998Z</time>
      </trkpt>
      <trkpt lat="45.60982" lon="4.65819">
        <ele>441.272399</ele>
        <time>2025-06-07T09:56:40.988Z</time>
      </trkpt>
      <trkpt lat="45.60989" lon="4.65842">
        <ele>440.208857</ele>
        <time>2025-06-07T09:56:43.004Z</time>
      </trkpt>
      <trkpt lat="45.60997" lon="4.65865">
        <ele>439.095615</ele>
        <time>2025-06-07T09:56:45.001Z</time>
      </trkpt>
      <trkpt lat="45.61001" lon="4.65878">
        <ele>438.502279</ele>
        <time>2025-06-07T09:56:45.978Z</time>
      </trkpt>
      <trkpt lat="45.61004" lon="4.6589">
        <ele>437.916834</ele>
        <time>2025-06-07T09:56:47.001Z</time>
      </trkpt>
      <trkpt lat="45.61008" lon="4.65902">
        <ele>437.337901</ele>
        <time>2025-06-07T09:56:47.970Z</time>
      </trkpt>
      <trkpt lat="45.61012" lon="4.65915">
        <ele>436.743086</ele>
        <time>2025-06-07T09:56:49.003Z</time>
      </trkpt>
      <trkpt lat="45.61016" lon="4.65927">
        <ele>436.165545</ele>
        <time>2025-06-07T09:56:50.022Z</time>
      </trkpt>
      <trkpt lat="45.61019" lon="4.65939">
        <ele>435.591939</ele>
        <time>2025-06-07T09:56:50.987Z</time>
      </trkpt>
      <trkpt lat="45.61023" lon="4.65951">
        <ele>435.026184</ele>
        <time>2025-06-07T09:56:51.996Z</time>
      </trkpt>
      <trkpt lat="45.61027" lon="4.65963">
        <ele>434.505922</ele>
        <time>2025-06-07T09:56:52.976Z</time>
      </trkpt>
      <trkpt lat="45.61035" lon="4.65986">
        <ele>433.951528</ele>
        <time>2025-06-07T09:56:54.982Z</time>
      </trkpt>
      <trkpt lat="45.61042" lon="4.66009">
        <ele>433.402889</ele>
        <time>2025-06-07T09:56:56.984Z</time>
      </trkpt>
      <trkpt lat="45.61049" lon="4.66031">
        <ele>432.892576</ele>
        <time>2025-06-07T09:56:58.993Z</time>
      </trkpt>
      <trkpt lat="45.61054" lon="4.66053">
        <ele>432.395593</ele>
        <time>2025-06-07T09:57:01.182Z</time>
      </trkpt>
      <trkpt lat="45.61053" lon="4.66076">
        <ele>431.895429</ele>
        <time>2025-06-07T09:57:03.029Z</time>
      </trkpt>
      <trkpt lat="45.6105" lon="4.66099">
        <ele>431.395154</ele>
        <time>2025-06-07T09:57:04.974Z</time>
      </trkpt>
      <trkpt lat="45.61047" lon="4.66122">
        <ele>430.892171</ele>
        <time>2025-06-07T09:57:06.999Z</time>
      </trkpt>
      <trkpt lat="45.61044" lon="4.66145">
        <ele>430.383972</ele>
        <time>2025-06-07T09:57:08.983Z</time>
      </trkpt>
      <trkpt lat="45.61045" lon="4.66167">
        <ele>429.911057</ele>
        <time>2025-06-07T09:57:11.020Z</time>
      </trkpt>
      <trkpt lat="45.61047" lon="4.66187">
        <ele>429.463518</ele>
        <time>2025-06-07T09:57:12.995Z</time>
      </trkpt>
      <trkpt lat="45.61053" lon="4.66207">
        <ele>429.013244</ele>
        <time>2025-06-07T09:57:15.014Z</time>
      </trkpt>
      <trkpt lat="45.61057" lon="4.66225">
        <ele>428.89072</ele>
        <time>2025-06-07T09:57:16.978Z</time>
      </trkpt>
      <trkpt lat="45.61061" lon="4.66242">
        <ele>428.766621</ele>
        <time>2025-06-07T09:57:19.004Z</time>
      </trkpt>
      <trkpt lat="45.61066" lon="4.66262">
        <ele>428.631032</ele>
        <time>2025-06-07T09:57:20.981Z</time>
      </trkpt>
      <trkpt lat="45.6107" lon="4.66281">
        <ele>428.500568</ele>
        <time>2025-06-07T09:57:22.983Z</time>
      </trkpt>
      <trkpt lat="45.61074" lon="4.663">
        <ele>428.370873</ele>
        <time>2025-06-07T09:57:24.972Z</time>
      </trkpt>
      <trkpt lat="45.61078" lon="4.66319">
        <ele>428.24041</ele>
        <time>2025-06-07T09:57:26.979Z</time>
      </trkpt>
      <trkpt lat="45.61083" lon="4.66337">
        <ele>428.114765</ele>
        <time>2025-06-07T09:57:28.992Z</time>
      </trkpt>
      <trkpt lat="45.61086" lon="4.66354">
        <ele>427.992777</ele>
        <time>2025-06-07T09:57:30.981Z</time>
      </trkpt>
      <trkpt lat="45.6109" lon="4.66371">
        <ele>427.873052</ele>
        <time>2025-06-07T09:57:33.001Z</time>
      </trkpt>
      <trkpt lat="45.61095" lon="4.66388">
        <ele>427.75699</ele>
        <time>2025-06-07T09:57:34.976Z</time>
      </trkpt>
      <trkpt lat="45.61101" lon="4.66403">
        <ele>427.6445</ele>
        <time>2025-06-07T09:57:36.980Z</time>
      </trkpt>
      <trkpt lat="45.61107" lon="4.66417">
        <ele>427.53502</ele>
        <time>2025-06-07T09:57:38.968Z</time>
      </trkpt>
      <trkpt lat="45.61112" lon="4.66432">
        <ele>427.426922</ele>
        <time>2025-06-07T09:57:40.987Z</time>
      </trkpt>
      <trkpt lat="45.61118" lon="4.66446">
        <ele>427.300344</ele>
        <time>2025-06-07T09:57:42.983Z</time>
      </trkpt>
      <trkpt lat="45.61124" lon="4.66461">
        <ele>426.847216</ele>
        <time>2025-06-07T09:57:45.001Z</time>
      </trkpt>
      <trkpt lat="45.6113" lon="4.66475">
        <ele>426.417366</ele>
        <time>2025-06-07T09:57:46.986Z</time>
      </trkpt>
      <trkpt lat="45.61137" lon="4.66489">
        <ele>425.971635</ele>
        <time>2025-06-07T09:57:48.990Z</time>
      </trkpt>
      <trkpt lat="45.61144" lon="4.66504">
        <ele>425.506679</ele>
        <time>2025-06-07T09:57:50.975Z</time>
      </trkpt>
      <trkpt lat="45.61152" lon="4.6652">
        <ele>425.007627</ele>
        <time>2025-06-07T09:57:52.979Z</time>
      </trkpt>
      <trkpt lat="45.6116" lon="4.66537">
        <ele>424.480127</ele>
        <time>2025-06-07T09:57:54.984Z</time>
      </trkpt>
      <trkpt lat="45.61167" lon="4.66551">
        <ele>424.013057</ele>
        <time>2025-06-07T09:57:57.019Z</time>
      </trkpt>
      <trkpt lat="45.61174" lon="4.6656">
        <ele>423.670164</ele>
        <time>2025-06-07T09:57:59.000Z</time>
      </trkpt>
      <trkpt lat="45.61184" lon="4.66556">
        <ele>423.298577</ele>
        <time>2025-06-07T09:58:01.050Z</time>
      </trkpt>
      <trkpt lat="45.61193" lon="4.66549">
        <ele>422.913581</ele>
        <time>2025-06-07T09:58:03.021Z</time>
      </trkpt>
      <trkpt lat="45.61204" lon="4.66542">
        <ele>422.472138</ele>
        <time>2025-06-07T09:58:05.000Z</time>
      </trkpt>
      <trkpt lat="45.61214" lon="4.66537">
        <ele>422.046447</ele>
        <time>2025-06-07T09:58:06.998Z</time>
      </trkpt>
      <trkpt lat="45.61224" lon="4.66533">
        <ele>421.69224</ele>
        <time>2025-06-07T09:58:08.989Z</time>
      </trkpt>
      <trkpt lat="45.61232" lon="4.66542">
        <ele>421.310753</ele>
        <time>2025-06-07T09:58:11.971Z</time>
      </trkpt>
      <trkpt lat="45.61237" lon="4.66555">
        <ele>420.91648</ele>
        <time>2025-06-07T09:58:14.993Z</time>
      </trkpt>
      <trkpt lat="45.61238" lon="4.66573">
        <ele>420.351544</ele>
        <time>2025-06-07T09:58:17.987Z</time>
      </trkpt>
      <trkpt lat="45.61236" lon="4.66588">
        <ele>419.689283</ele>
        <time>2025-06-07T09:58:19.976Z</time>
      </trkpt>
      <trkpt lat="45.61238" lon="4.66601">
        <ele>419.094955</ele>
        <time>2025-06-07T09:58:23.980Z</time>
      </trkpt>
      <trkpt lat="45.61235" lon="4.66615">
        <ele>418.470846</ele>
        <time>2025-06-07T09:58:29.004Z</time>
      </trkpt>
      <trkpt lat="45.61229" lon="4.66624">
        <ele>417.901588</ele>
        <time>2025-06-07T09:58:31.991Z</time>
      </trkpt>
      <trkpt lat="45.61223" lon="4.66639">
        <ele>417.143719</ele>
        <time>2025-06-07T09:58:34.972Z</time>
      </trkpt>
      <trkpt lat="45.6123" lon="4.66654">
        <ele>416.332575</ele>
        <time>2025-06-07T09:58:37.973Z</time>
      </trkpt>
      <trkpt lat="45.61239" lon="4.6666">
        <ele>415.690402</ele>
        <time>2025-06-07T09:58:39.983Z</time>
      </trkpt>
      <trkpt lat="45.6125" lon="4.66669">
        <ele>414.906528</ele>
        <time>2025-06-07T09:58:41.975Z</time>
      </trkpt>
      <trkpt lat="45.61258" lon="4.66684">
        <ele>414.101807</ele>
        <time>2025-06-07T09:58:44.165Z</time>
      </trkpt>
      <trkpt lat="45.61266" lon="4.66695">
        <ele>413.37033</ele>
        <time>2025-06-07T09:58:46.023Z</time>
      </trkpt>
      <trkpt lat="45.61275" lon="4.66704">
        <ele>412.697424</ele>
        <time>2025-06-07T09:58:48.003Z</time>
      </trkpt>
      <trkpt lat="45.61284" lon="4.66716">
        <ele>411.903035</ele>
        <time>2025-06-07T09:58:50.080Z</time>
      </trkpt>
      <trkpt lat="45.61291" lon="4.66733">
        <ele>411.01927</ele>
        <time>2025-06-07T09:58:51.992Z</time>
      </trkpt>
      <trkpt lat="45.61294" lon="4.66752">
        <ele>410.18226</ele>
        <time>2025-06-07T09:58:53.985Z</time>
      </trkpt>
      <trkpt lat="45.61302" lon="4.66768">
        <ele>409.302208</ele>
        <time>2025-06-07T09:58:55.984Z</time>
      </trkpt>
      <trkpt lat="45.61313" lon="4.66783">
        <ele>408.002566</ele>
        <time>2025-06-07T09:58:58.017Z</time>
      </trkpt>
      <trkpt lat="45.61324" lon="4.66797">
        <ele>406.702047</ele>
        <time>2025-06-07T09:58:59.982Z</time>
      </trkpt>
      <trkpt lat="45.61338" lon="4.66813">
        <ele>405.207587</ele>
        <time>2025-06-07T09:59:01.964Z</time>
      </trkpt>
      <trkpt lat="45.61348" lon="4.66826">
        <ele>404.005614</ele>
        <time>2025-06-07T09:59:03.990Z</time>
      </trkpt>
      <trkpt lat="45.61359" lon="4.6684">
        <ele>402.753623</ele>
        <time>2025-06-07T09:59:05.979Z</time>
      </trkpt>
      <trkpt lat="45.61372" lon="4.66853">
        <ele>401.435426</ele>
        <time>2025-06-07T09:59:07.972Z</time>
      </trkpt>
      <trkpt lat="45.61382" lon="4.66865">
        <ele>400.262706</ele>
        <time>2025-06-07T09:59:09.978Z</time>
      </trkpt>
      <trkpt lat="45.61392" lon="4.66874">
        <ele>399.242585</ele>
        <time>2025-06-07T09:59:11.985Z</time>
      </trkpt>
      <trkpt lat="45.61402" lon="4.66884">
        <ele>398.24995</ele>
        <time>2025-06-07T09:59:13.971Z</time>
      </trkpt>
      <trkpt lat="45.61412" lon="4.66898">
        <ele>397.021018</ele>
        <time>2025-06-07T09:59:15.984Z</time>
      </trkpt>
      <trkpt lat="45.61418" lon="4.6691">
        <ele>396.107021</ele>
        <time>2025-06-07T09:59:18.000Z</time>
      </trkpt>
      <trkpt lat="45.61423" lon="4.66922">
        <ele>395.28568</ele>
        <time>2025-06-07T09:59:19.975Z</time>
      </trkpt>
      <trkpt lat="45.6143" lon="4.66935">
        <ele>394.25045</ele>
        <time>2025-06-07T09:59:22.009Z</time>
      </trkpt>
      <trkpt lat="45.61436" lon="4.66949">
        <ele>393.454833</ele>
        <time>2025-06-07T09:59:25.002Z</time>
      </trkpt>
      <trkpt lat="45.61446" lon="4.66961">
        <ele>392.748828</ele>
        <time>2025-06-07T09:59:27.996Z</time>
      </trkpt>
      <trkpt lat="45.61455" lon="4.66971">
        <ele>392.087832</ele>
        <time>2025-06-07T09:59:30.008Z</time>
      </trkpt>
      <trkpt lat="45.61467" lon="4.66977">
        <ele>391.356736</ele>
        <time>2025-06-07T09:59:31.977Z</time>
      </trkpt>
      <trkpt lat="45.61476" lon="4.6699">
        <ele>390.657805</ele>
        <time>2025-06-07T09:59:33.987Z</time>
      </trkpt>
      <trkpt lat="45.6148" lon="4.67005">
        <ele>389.995242</ele>
        <time>2025-06-07T09:59:36.992Z</time>
      </trkpt>
      <trkpt lat="45.61491" lon="4.67009">
        <ele>389.379856</ele>
        <time>2025-06-07T09:59:39.973Z</time>
      </trkpt>
      <trkpt lat="45.61502" lon="4.67011">
        <ele>388.751569</ele>
        <time>2025-06-07T09:59:42.984Z</time>
      </trkpt>
      <trkpt lat="45.61513" lon="4.67007">
        <ele>388.127916</ele>
        <time>2025-06-07T09:59:45.030Z</time>
      </trkpt>
      <trkpt lat="45.61523" lon="4.67006">
        <ele>387.543942</ele>
        <time>2025-06-07T09:59:46.989Z</time>
      </trkpt>
      <trkpt lat="45.61533" lon="4.67006">
        <ele>386.97261</ele>
        <time>2025-06-07T09:59:48.976Z</time>
      </trkpt>
      <trkpt lat="45.61543" lon="4.67009">
        <ele>386.382741</ele>
        <time>2025-06-07T09:59:50.984Z</time>
      </trkpt>
      <trkpt lat="45.61554" lon="4.67018">
        <ele>385.678508</ele>
        <time>2025-06-07T09:59:53.990Z</time>
      </trkpt>
      <trkpt lat="45.61563" lon="4.67029">
        <ele>385.018904</ele>
        <time>2025-06-07T09:59:56.993Z</time>
      </trkpt>
      <trkpt lat="45.61572" lon="4.67039">
        <ele>384.3717</ele>
        <time>2025-06-07T09:59:59.978Z</time>
      </trkpt>
      <trkpt lat="45.61577" lon="4.67054">
        <ele>383.727294</ele>
        <time>2025-06-07T10:00:03.999Z</time>
      </trkpt>
      <trkpt lat="45.61584" lon="4.67065">
        <ele>384.164692</ele>
        <time>2025-06-07T10:00:07.010Z</time>
      </trkpt>
      <trkpt lat="45.61593" lon="4.67069">
        <ele>384.699605</ele>
        <time>2025-06-07T10:00:08.977Z</time>
      </trkpt>
      <trkpt lat="45.61602" lon="4.67068">
        <ele>385.238331</ele>
        <time>2025-06-07T10:00:10.989Z</time>
      </trkpt>
      <trkpt lat="45.61615" lon="4.67073">
        <ele>385.999982</ele>
        <time>2025-06-07T10:00:13.990Z</time>
      </trkpt>
      <trkpt lat="45.61625" lon="4.67084">
        <ele>386.68379</ele>
        <time>2025-06-07T10:00:16.980Z</time>
      </trkpt>
      <trkpt lat="45.61637" lon="4.67089">
        <ele>387.388672</ele>
        <time>2025-06-07T10:00:19.996Z</time>
      </trkpt>
      <trkpt lat="45.61646" lon="4.67093">
        <ele>387.954411</ele>
        <time>2025-06-07T10:00:22.687Z</time>
      </trkpt>
      <trkpt lat="45.61655" lon="4.67097">
        <ele>388.496149</ele>
        <time>2025-06-07T10:00:24.038Z</time>
      </trkpt>
      <trkpt lat="45.61667" lon="4.67106">
        <ele>389.22419</ele>
        <time>2025-06-07T10:00:27.042Z</time>
      </trkpt>
      <trkpt lat="45.61676" lon="4.67109">
        <ele>389.779974</ele>
        <time>2025-06-07T10:00:30.007Z</time>
      </trkpt>
      <trkpt lat="45.61688" lon="4.67118">
        <ele>390.511585</ele>
        <time>2025-06-07T10:00:32.978Z</time>
      </trkpt>
      <trkpt lat="45.61699" lon="4.67113">
        <ele>391.20883</ele>
        <time>2025-06-07T10:00:35.998Z</time>
      </trkpt>
      <trkpt lat="45.61711" lon="4.67106">
        <ele>391.925845</ele>
        <time>2025-06-07T10:00:39.016Z</time>
      </trkpt>
      <trkpt lat="45.61724" lon="4.671">
        <ele>392.668761</ele>
        <time>2025-06-07T10:00:41.988Z</time>
      </trkpt>
      <trkpt lat="45.61732" lon="4.67095">
        <ele>393.191785</ele>
        <time>2025-06-07T10:00:43.975Z</time>
      </trkpt>
      <trkpt lat="45.61742" lon="4.67095">
        <ele>393.736359</ele>
        <time>2025-06-07T10:00:45.980Z</time>
      </trkpt>
      <trkpt lat="45.61753" lon="4.67089">
        <ele>394.913898</ele>
        <time>2025-06-07T10:00:49.987Z</time>
      </trkpt>
      <trkpt lat="45.61763" lon="4.67088">
        <ele>395.94272</ele>
        <time>2025-06-07T10:00:51.978Z</time>
      </trkpt>
      <trkpt lat="45.61772" lon="4.67092">
        <ele>396.920231</ele>
        <time>2025-06-07T10:00:55.008Z</time>
      </trkpt>
      <trkpt lat="45.61782" lon="4.67095">
        <ele>397.980694</ele>
        <time>2025-06-07T10:00:58.975Z</time>
      </trkpt>
      <trkpt lat="45.61792" lon="4.67101">
        <ele>399.041355</ele>
        <time>2025-06-07T10:01:01.984Z</time>
      </trkpt>
      <trkpt lat="45.61802" lon="4.67102">
        <ele>400.101764</ele>
        <time>2025-06-07T10:01:04.996Z</time>
      </trkpt>
      <trkpt lat="45.61811" lon="4.67106">
        <ele>401.108898</ele>
        <time>2025-06-07T10:01:08.051Z</time>
      </trkpt>
      <trkpt lat="45.6182" lon="4.67108">
        <ele>402.087705</ele>
        <time>2025-06-07T10:01:10.975Z</time>
      </trkpt>
      <trkpt lat="45.61825" lon="4.67122">
        <ele>403.198651</ele>
        <time>2025-06-07T10:01:13.992Z</time>
      </trkpt>
      <trkpt lat="45.61832" lon="4.67131">
        <ele>404.183618</ele>
        <time>2025-06-07T10:01:17.999Z</time>
      </trkpt>
      <trkpt lat="45.61841" lon="4.67127">
        <ele>405.188643</ele>
        <time>2025-06-07T10:01:20.991Z</time>
      </trkpt>
      <trkpt lat="45.61852" lon="4.67123">
        <ele>406.29431</ele>
        <time>2025-06-07T10:01:24.003Z</time>
      </trkpt>
      <trkpt lat="45.61857" lon="4.67112">
        <ele>407.249546</ele>
        <time>2025-06-07T10:01:25.991Z</time>
      </trkpt>
      <trkpt lat="45.61866" lon="4.67101">
        <ele>408.511213</ele>
        <time>2025-06-07T10:01:28.995Z</time>
      </trkpt>
      <trkpt lat="45.61873" lon="4.6711">
        <ele>409.487719</ele>
        <time>2025-06-07T10:01:32.265Z</time>
      </trkpt>
      <trkpt lat="45.61874" lon="4.67126">
        <ele>410.60746</ele>
        <time>2025-06-07T10:01:34.989Z</time>
      </trkpt>
      <trkpt lat="45.61883" lon="4.67134">
        <ele>411.655973</ele>
        <time>2025-06-07T10:01:37.982Z</time>
      </trkpt>
      <trkpt lat="45.61892" lon="4.67139">
        <ele>412.446063</ele>
        <time>2025-06-07T10:01:40.997Z</time>
      </trkpt>
      <trkpt lat="45.61901" lon="4.67134">
        <ele>412.446063</ele>
        <time>2025-06-07T10:01:42.999Z</time>
      </trkpt>
      <trkpt lat="45.61911" lon="4.67124">
        <ele>412.446063</ele>
        <time>2025-06-07T10:01:45.991Z</time>
      </trkpt>
      <trkpt lat="45.61919" lon="4.67116">
        <ele>412.446063</ele>
        <time>2025-06-07T10:01:48.985Z</time>
      </trkpt>
      <trkpt lat="45.6193" lon="4.67115">
        <ele>412.446063</ele>
        <time>2025-06-07T10:01:51.975Z</time>
      </trkpt>
      <trkpt lat="45.61938" lon="4.67123">
        <ele>412.446063</ele>
        <time>2025-06-07T10:02:03.014Z</time>
      </trkpt>
      <trkpt lat="45.61948" lon="4.67125">
        <ele>412.446063</ele>
        <time>2025-06-07T10:02:08.064Z</time>
      </trkpt>
      <trkpt lat="45.61958" lon="4.67133">
        <ele>412.446063</ele>
        <time>2025-06-07T10:02:11.978Z</time>
      </trkpt>
      <trkpt lat="45.61969" lon="4.67137">
        <ele>412.446063</ele>
        <time>2025-06-07T10:02:15.981Z</time>
      </trkpt>
      <trkpt lat="45.61973" lon="4.67148">
        <ele>412.446063</ele>
        <time>2025-06-07T10:02:18.991Z</time>
      </trkpt>
    </trkseg>
  </trk>
</gpx>